
Distance (Route):
Temperature : 23.9°C
Humidity : 32.8%
Pressure : 0hPa| Receiver | Frames | First received | Last received |
|---|---|---|---|
| IW2NTF | 1003 | 2026-09-04 23:02:12 | 2026-09-05 01:22:35 |
| DO3MHA-11 | 393 | 2026-09-04 23:37:12 | 2026-09-05 01:05:26 |
| DB0UT-7 | 156 | 2026-09-04 23:36:31 | 2026-09-05 01:04:21 |
| NBG1-10 | 119 | 2026-09-04 23:46:34 | 2026-09-05 01:02:31 |
| OE5DRO-10 | 118 | 2026-09-05 00:10:29 | 2026-09-05 00:57:40 |
| HARRO8 | 62 | 2026-09-05 00:11:47 | 2026-09-05 00:57:19 |
| RDZBGO | 49 | 2026-09-05 00:31:39 | 2026-09-05 00:58:46 |
| DL1ZP-14 | 37 | 2026-09-05 00:26:11 | 2026-09-05 00:54:09 |
| PG1ADW-2 | 37 | 2026-09-05 00:32:33 | 2026-09-05 00:54:55 |
| S52SK | 33 | 2026-09-05 00:20:23 | 2026-09-05 00:55:22 |
| OE5DXL-15 | 27 | 2026-09-05 00:19:49 | 2026-09-05 00:54:12 |
| BAUMI2-15 | 10 | 2026-09-05 00:26:47 | 2026-09-05 00:27:55 |
| DF7PN | 9 | 2026-09-05 00:31:09 | 2026-09-05 00:54:58 |
| IN3HCDX | 5 | 2026-09-05 00:54:29 | 2026-09-05 00:56:15 |
| DM0DOS-11 | 4 | 2026-09-05 00:53:03 | 2026-09-05 00:53:41 |
| Receiver | Date | Latitude | Longitude | Direction | Speed | Altitude | Climb | Temperature | Humidity | Pressure | Voltage | Killtimer | Uptime | BKT | XDATA |
|---|---|---|---|---|---|---|---|---|---|---|---|---|---|---|---|
| IW2NTF | 2026-09-05 01:22:35 | 45.62751 | 9.77757 | 93° | 31km/h | 834m | -7.4m/s | 23.9°C | 32.8% | 0hPa | 2.7V | 08:01:30 | 02:48:47 | 00:00:00 | |
| IW2NTF | 2026-09-05 01:22:14 | 45.62785 | 9.77567 | 113° | 26km/h | 992m | -7.6m/s | 22.9°C | 38.5% | 0hPa | 2.7V | 08:01:51 | 02:48:26 | 00:00:00 | |
| IW2NTF | 2026-09-05 01:22:08 | 45.62790 | 9.77551 | 111° | 24km/h | 1006m | -6.8m/s | 22.8°C | 38.6% | 0hPa | 2.7V | 08:01:53 | 02:48:24 | 00:00:00 | |
| IW2NTF | 2026-09-05 01:22:08 | 45.62794 | 9.77536 | 114° | 24km/h | 1020m | -7.5m/s | 22.8°C | 41% | 0hPa | 2.7V | 08:01:55 | 02:48:22 | 00:00:00 | |
| IW2NTF | 2026-09-05 01:22:08 | 45.62799 | 9.77521 | 118° | 22km/h | 1035m | -7.6m/s | 22.8°C | 41.7% | 0hPa | 2.7V | 08:01:57 | 02:48:20 | 00:00:00 | |
| IW2NTF | 2026-09-05 01:22:03 | 45.62804 | 9.77508 | 119° | 20km/h | 1050m | -7.6m/s | 22.7°C | 42% | 0hPa | 2.7V | 08:01:59 | 02:48:18 | 00:00:00 | |
| IW2NTF | 2026-09-05 01:22:03 | 45.62810 | 9.77495 | 125° | 22km/h | 1064m | -7.5m/s | 22.6°C | 44.5% | 0hPa | 2.7V | 08:02:01 | 02:48:16 | 00:00:00 | |
| IW2NTF | 2026-09-05 01:22:03 | 45.62817 | 9.77483 | 129° | 20km/h | 1079m | -7.4m/s | 22.5°C | 45.7% | 0hPa | 2.6V | 08:02:03 | 02:48:14 | 00:00:00 | |
| IW2NTF | 2026-09-05 01:21:57 | 45.62823 | 9.77472 | 130° | 20km/h | 1093m | -7.9m/s | 22.4°C | 46.6% | 0hPa | 2.7V | 08:02:05 | 02:48:12 | 00:00:00 | |
| IW2NTF | 2026-09-05 01:21:57 | 45.62829 | 9.77460 | 125° | 18km/h | 1109m | -8m/s | 22.4°C | 50.8% | 0hPa | 2.7V | 08:02:07 | 02:48:10 | 00:00:00 | |
| IW2NTF | 2026-09-05 01:21:57 | 45.62835 | 9.77450 | 128° | 18km/h | 1123m | -7.8m/s | 22.3°C | 52.4% | 0hPa | 2.6V | 08:02:09 | 02:48:08 | 00:00:00 | |
| IW2NTF | 2026-09-05 01:21:50 | 45.62839 | 9.77440 | 121° | 15km/h | 1139m | -7.5m/s | 22.3°C | 51.5% | 0hPa | 2.7V | 08:02:11 | 02:48:06 | 00:00:00 | |
| IW2NTF | 2026-09-05 01:21:50 | 45.62844 | 9.77431 | 128° | 16km/h | 1154m | -7.6m/s | 22.2°C | 51.3% | 0hPa | 2.7V | 08:02:13 | 02:48:04 | 00:00:00 | |
| IW2NTF | 2026-09-05 01:21:50 | 45.62849 | 9.77422 | 128° | 16km/h | 1169m | -8.2m/s | 22.1°C | 50.9% | 0hPa | 2.6V | 08:02:15 | 02:48:02 | 00:00:00 | |
| IW2NTF | 2026-09-05 01:21:44 | 45.62854 | 9.77412 | 123° | 15km/h | 1184m | -7.7m/s | 22.1°C | 49.3% | 0hPa | 2.7V | 08:02:17 | 02:48:00 | 00:00:00 | |
| IW2NTF | 2026-09-05 01:21:44 | 45.62857 | 9.77403 | 112° | 15km/h | 1199m | -7.6m/s | 22°C | 48.9% | 0hPa | 2.7V | 08:02:19 | 02:47:58 | 00:00:00 | |
| IW2NTF | 2026-09-05 01:21:44 | 45.62860 | 9.77393 | 110° | 15km/h | 1214m | -8.1m/s | 21.9°C | 49.1% | 0hPa | 2.7V | 08:02:21 | 02:47:56 | 00:00:00 | |
| IW2NTF | 2026-09-05 01:21:39 | 45.62863 | 9.77383 | 110° | 16km/h | 1230m | -6.9m/s | 21.8°C | 49.4% | 0hPa | 2.7V | 08:02:23 | 02:47:54 | 00:00:00 | |
| IW2NTF | 2026-09-05 01:21:39 | 45.62866 | 9.77372 | 107° | 15km/h | 1243m | -7.4m/s | 21.7°C | 49.7% | 0hPa | 2.6V | 08:02:25 | 02:47:52 | 00:00:00 | |
| IW2NTF | 2026-09-05 01:21:39 | 45.62867 | 9.77362 | 95° | 11km/h | 1257m | -7.4m/s | 21.6°C | 50% | 0hPa | 2.7V | 08:02:27 | 02:47:50 | 00:00:00 | |
| IW2NTF | 2026-09-05 01:21:33 | 45.62868 | 9.77353 | 101° | 13km/h | 1272m | -7.9m/s | 21.4°C | 50.4% | 0hPa | 2.7V | 08:02:29 | 02:47:48 | 00:00:00 | |
| IW2NTF | 2026-09-05 01:21:33 | 45.62869 | 9.77345 | 98° | 13km/h | 1287m | -7.7m/s | 21.4°C | 50.6% | 0hPa | 2.7V | 08:02:31 | 02:47:46 | 00:00:00 | |
| IW2NTF | 2026-09-05 01:21:33 | 45.62870 | 9.77335 | 88° | 15km/h | 1302m | -8.8m/s | 21.2°C | 50.9% | 0hPa | 2.7V | 08:02:33 | 02:47:44 | 00:00:00 | |
| IW2NTF | 2026-09-05 01:21:26 | 45.62869 | 9.77325 | 83° | 13km/h | 1317m | -7.3m/s | 21.1°C | 51.3% | 0hPa | 2.7V | 08:02:35 | 02:47:42 | 00:00:00 | |
| IW2NTF | 2026-09-05 01:21:26 | 45.62869 | 9.77317 | 96° | 11km/h | 1332m | -7.8m/s | 20.9°C | 51.6% | 0hPa | 2.7V | 08:02:37 | 02:47:40 | 00:00:00 | |
| IW2NTF | 2026-09-05 01:21:26 | 45.62869 | 9.77308 | 91° | 11km/h | 1347m | -8.4m/s | 20.8°C | 52% | 0hPa | 2.7V | 08:02:39 | 02:47:38 | 00:00:00 | |
| IW2NTF | 2026-09-05 01:21:20 | 45.62869 | 9.77300 | 90° | 11km/h | 1362m | -7.4m/s | 20.7°C | 52.4% | 0hPa | 2.7V | 08:02:41 | 02:47:36 | 00:00:00 | |
| IW2NTF | 2026-09-05 01:21:20 | 45.62868 | 9.77291 | 83° | 11km/h | 1378m | -7.2m/s | 20.5°C | 52.8% | 0hPa | 2.7V | 08:02:43 | 02:47:34 | 00:00:00 | |
| IW2NTF | 2026-09-05 01:21:20 | 45.62867 | 9.77282 | 77° | 11km/h | 1393m | -7.5m/s | 20.4°C | 53.2% | 0hPa | 2.7V | 08:02:45 | 02:47:32 | 00:00:00 | |
| IW2NTF | 2026-09-05 01:21:14 | 45.62866 | 9.77274 | 69° | 11km/h | 1407m | -7.5m/s | 20.2°C | 53.7% | 0hPa | 2.6V | 08:02:47 | 02:47:30 | 00:00:00 | |
| IW2NTF | 2026-09-05 01:21:14 | 45.62865 | 9.77266 | 78° | 11km/h | 1422m | -7.5m/s | 20.1°C | 54% | 0hPa | 2.7V | 08:02:49 | 02:47:28 | 00:00:00 | |
| IW2NTF | 2026-09-05 01:21:14 | 45.62863 | 9.77257 | 67° | 11km/h | 1436m | -7m/s | 20°C | 54.4% | 0hPa | 2.7V | 08:02:51 | 02:47:26 | 00:00:00 | |
| IW2NTF | 2026-09-05 01:21:08 | 45.62861 | 9.77249 | 71° | 13km/h | 1450m | -8m/s | 19.8°C | 54.9% | 0hPa | 2.7V | 08:02:53 | 02:47:24 | 00:00:00 | |
| IW2NTF | 2026-09-05 01:21:08 | 45.62859 | 9.77241 | 72° | 13km/h | 1465m | -7.8m/s | 19.7°C | 55.3% | 0hPa | 2.7V | 08:02:55 | 02:47:22 | 00:00:00 | |
| IW2NTF | 2026-09-05 01:21:08 | 45.62858 | 9.77232 | 78° | 11km/h | 1481m | -7.8m/s | 19.6°C | 55.7% | 0hPa | 2.6V | 08:02:57 | 02:47:20 | 00:00:00 | |
| IW2NTF | 2026-09-05 01:21:02 | 45.62856 | 9.77223 | 74° | 13km/h | 1495m | -8.2m/s | 19.4°C | 56.1% | 0hPa | 2.7V | 08:02:59 | 02:47:18 | 00:00:00 | |
| IW2NTF | 2026-09-05 01:21:02 | 45.62854 | 9.77214 | 50° | 11km/h | 1511m | -7.5m/s | 19.3°C | 56.6% | 0hPa | 2.7V | 08:03:01 | 02:47:16 | 00:00:00 | |
| IW2NTF | 2026-09-05 01:21:02 | 45.62851 | 9.77206 | 47° | 13km/h | 1526m | -8.7m/s | 19.1°C | 57.2% | 0hPa | 2.7V | 08:03:03 | 02:47:14 | 00:00:00 | |
| IW2NTF | 2026-09-05 01:20:57 | 45.62848 | 9.77198 | 64° | 15km/h | 1543m | -8.5m/s | 19°C | 58% | 0hPa | 2.7V | 08:03:05 | 02:47:12 | 00:00:00 | |
| IW2NTF | 2026-09-05 01:20:57 | 45.62844 | 9.77190 | 53° | 13km/h | 1559m | -7.2m/s | 18.8°C | 58.4% | 0hPa | 2.6V | 08:03:07 | 02:47:10 | 00:00:00 | |
| IW2NTF | 2026-09-05 01:20:57 | 45.62841 | 9.77182 | 56° | 11km/h | 1572m | -7.7m/s | 18.7°C | 59.3% | 0hPa | 2.7V | 08:03:09 | 02:47:08 | 00:00:00 | |
| IW2NTF | 2026-09-05 01:20:50 | 45.62838 | 9.77175 | 49° | 13km/h | 1587m | -7.2m/s | 18.5°C | 59.7% | 0hPa | 2.7V | 08:03:11 | 02:47:06 | 00:00:00 | |
| IW2NTF | 2026-09-05 01:20:50 | 45.62833 | 9.77167 | 46° | 13km/h | 1601m | -7.3m/s | 18.4°C | 59.9% | 0hPa | 2.7V | 08:03:13 | 02:47:04 | 00:00:00 | |
| IW2NTF | 2026-09-05 01:20:50 | 45.62829 | 9.77160 | 55° | 11km/h | 1615m | -8.1m/s | 18.2°C | 60.8% | 0hPa | 2.7V | 08:03:15 | 02:47:02 | 00:00:00 | |
| IW2NTF | 2026-09-05 01:20:45 | 45.62826 | 9.77153 | 69° | 13km/h | 1631m | -8.1m/s | 18.1°C | 61.2% | 0hPa | 2.7V | 08:03:17 | 02:47:00 | 00:00:00 | |
| IW2NTF | 2026-09-05 01:20:45 | 45.62823 | 9.77144 | 67° | 13km/h | 1647m | -8m/s | 17.9°C | 61.6% | 0hPa | 2.6V | 08:03:19 | 02:46:58 | 00:00:00 | |
| IW2NTF | 2026-09-05 01:20:45 | 45.62820 | 9.77134 | 61° | 15km/h | 1661m | -7.7m/s | 17.8°C | 62% | 0hPa | 2.7V | 08:03:21 | 02:46:56 | 00:00:00 | |
| IW2NTF | 2026-09-05 01:20:39 | 45.62817 | 9.77126 | 54° | 13km/h | 1675m | -8m/s | 17.7°C | 62.5% | 0hPa | 2.7V | 08:03:23 | 02:46:54 | 00:00:00 | |
| IW2NTF | 2026-09-05 01:20:39 | 45.62814 | 9.77117 | 60° | 16km/h | 1691m | -8.2m/s | 17.5°C | 63.2% | 0hPa | 2.7V | 08:03:25 | 02:46:52 | 00:00:00 | |
| IW2NTF | 2026-09-05 01:20:39 | 45.62809 | 9.77108 | 65° | 13km/h | 1707m | -8.5m/s | 17.4°C | 63.9% | 0hPa | 2.7V | 08:03:27 | 02:46:50 | 00:00:00 | |
| IW2NTF | 2026-09-05 01:20:32 | 45.62805 | 9.77099 | 44° | 15km/h | 1722m | -7.5m/s | 17.2°C | 63.9% | 0hPa | 2.7V | 08:03:29 | 02:46:48 | 00:00:00 | |
| IW2NTF | 2026-09-05 01:20:32 | 45.62801 | 9.77092 | 63° | 13km/h | 1737m | -8.9m/s | 17.1°C | 64.9% | 0hPa | 2.7V | 08:03:31 | 02:46:46 | 00:00:00 | |
| IW2NTF | 2026-09-05 01:20:32 | 45.62797 | 9.77083 | 54° | 16km/h | 1754m | -8.9m/s | 16.9°C | 65.4% | 0hPa | 2.6V | 08:03:33 | 02:46:44 | 00:00:00 | |
| IW2NTF | 2026-09-05 01:20:27 | 45.62793 | 9.77073 | 58° | 13km/h | 1771m | -8.6m/s | 16.8°C | 65.8% | 0hPa | 2.7V | 08:03:35 | 02:46:42 | 00:00:00 | |
| IW2NTF | 2026-09-05 01:20:27 | 45.62788 | 9.77065 | 54° | 15km/h | 1788m | -7.9m/s | 16.6°C | 66.2% | 0hPa | 2.7V | 08:03:37 | 02:46:40 | 00:00:00 | |
| IW2NTF | 2026-09-05 01:20:27 | 45.62783 | 9.77056 | 44° | 16km/h | 1804m | -8.1m/s | 16.4°C | 67.3% | 0hPa | 2.7V | 08:03:39 | 02:46:38 | 00:00:00 | |
| IW2NTF | 2026-09-05 01:20:21 | 45.62778 | 9.77047 | 45° | 16km/h | 1820m | -8.2m/s | 16.3°C | 67.8% | 0hPa | 2.6V | 08:03:41 | 02:46:36 | 00:00:00 | |
| IW2NTF | 2026-09-05 01:20:21 | 45.62772 | 9.77038 | 52° | 18km/h | 1836m | -8.6m/s | 16.1°C | 68.6% | 0hPa | 2.7V | 08:03:43 | 02:46:34 | 00:00:00 | |
| IW2NTF | 2026-09-05 01:20:21 | 45.62767 | 9.77029 | 52° | 15km/h | 1853m | -8.6m/s | 16°C | 68.9% | 0hPa | 2.7V | 08:03:45 | 02:46:32 | 00:00:00 | |
| IW2NTF | 2026-09-05 01:20:14 | 45.62761 | 9.77018 | 50° | 18km/h | 1869m | -7.7m/s | 15.8°C | 70% | 0hPa | 2.7V | 08:03:47 | 02:46:30 | 00:00:00 | |
| IW2NTF | 2026-09-05 01:20:14 | 45.62756 | 9.77008 | 53° | 18km/h | 1883m | -8.2m/s | 15.7°C | 70.6% | 0hPa | 2.7V | 08:03:49 | 02:46:28 | 00:00:00 | |
| IW2NTF | 2026-09-05 01:20:14 | 45.62750 | 9.76997 | 60° | 18km/h | 1900m | -8.4m/s | 15.6°C | 71% | 0hPa | 2.6V | 08:03:51 | 02:46:26 | 00:00:00 | |
| IW2NTF | 2026-09-05 01:20:09 | 45.62746 | 9.76985 | 65° | 20km/h | 1916m | -8.5m/s | 15.4°C | 71.4% | 0hPa | 2.7V | 08:03:53 | 02:46:24 | 00:00:00 | |
| IW2NTF | 2026-09-05 01:20:09 | 45.62742 | 9.76972 | 68° | 20km/h | 1932m | -8.3m/s | 15.3°C | 71.8% | 0hPa | 2.7V | 08:03:55 | 02:46:22 | 00:00:00 | |
| IW2NTF | 2026-09-05 01:20:09 | 45.62738 | 9.76958 | 68° | 20km/h | 1949m | -8.4m/s | 15.2°C | 72.1% | 0hPa | 2.7V | 08:03:57 | 02:46:20 | 00:00:00 | |
| IW2NTF | 2026-09-05 01:20:03 | 45.62735 | 9.76945 | 70° | 22km/h | 1965m | -8.2m/s | 15.1°C | 71.4% | 0hPa | 2.6V | 08:03:59 | 02:46:18 | 00:00:00 | |
| IW2NTF | 2026-09-05 01:20:03 | 45.62731 | 9.76930 | 74° | 22km/h | 1981m | -8m/s | 15.1°C | 71.3% | 0hPa | 2.7V | 08:04:01 | 02:46:16 | 00:00:00 | |
| IW2NTF | 2026-09-05 01:20:03 | 45.62729 | 9.76914 | 78° | 22km/h | 1997m | -8.1m/s | 15.1°C | 70.9% | 0hPa | 2.7V | 08:04:03 | 02:46:14 | 00:00:00 | |
| IW2NTF | 2026-09-05 01:19:56 | 45.62725 | 9.76868 | 88° | 22km/h | 2045m | -8.5m/s | 16.2°C | 57.9% | 0hPa | 2.6V | 08:04:09 | 02:46:08 | 00:00:00 | |
| IW2NTF | 2026-09-05 01:19:51 | 45.62728 | 9.76824 | 106° | 18km/h | 2094m | -8.1m/s | 16°C | 57% | 0hPa | 2.7V | 08:04:15 | 02:46:02 | 00:00:00 | |
| IW2NTF | 2026-09-05 01:19:45 | 45.62735 | 9.76786 | 100° | 16km/h | 2144m | -8.3m/s | 15.8°C | 55.7% | 0hPa | 2.7V | 08:04:21 | 02:45:56 | 00:00:00 | |
| IW2NTF | 2026-09-05 01:19:38 | 45.62743 | 9.76746 | 105° | 18km/h | 2196m | -8.3m/s | 15.4°C | 55.4% | 0hPa | 2.7V | 08:04:27 | 02:45:50 | 00:00:00 | |
| IW2NTF | 2026-09-05 01:19:32 | 45.62752 | 9.76703 | 103° | 18km/h | 2244m | -8.3m/s | 15.6°C | 45.2% | 0hPa | 2.6V | 08:04:33 | 02:45:44 | 00:00:00 | |
| IW2NTF | 2026-09-05 01:19:26 | 45.62762 | 9.76660 | 104° | 24km/h | 2294m | -8.9m/s | 15.9°C | 42% | 0hPa | 2.7V | 08:04:39 | 02:45:38 | 00:00:00 | |
| IW2NTF | 2026-09-05 01:19:20 | 45.62775 | 9.76614 | 112° | 24km/h | 2341m | -8.2m/s | 15.4°C | 48.3% | 0hPa | 2.7V | 08:04:45 | 02:45:32 | 00:00:00 | |
| IW2NTF | 2026-09-05 01:19:14 | 45.62791 | 9.76570 | 117° | 24km/h | 2389m | -8.5m/s | 15°C | 49.3% | 0hPa | 2.7V | 08:04:51 | 02:45:26 | 00:00:00 | |
| IW2NTF | 2026-09-05 01:19:08 | 45.62812 | 9.76525 | 124° | 27km/h | 2438m | -8.8m/s | 14.6°C | 48.8% | 0hPa | 2.6V | 08:04:57 | 02:45:20 | 00:00:00 | |
| IW2NTF | 2026-09-05 01:19:02 | 45.62837 | 9.76481 | 131° | 29km/h | 2489m | -9.3m/s | 14.2°C | 45.4% | 0hPa | 2.7V | 08:05:03 | 02:45:14 | 00:00:00 | |
| IW2NTF | 2026-09-05 01:18:56 | 45.62866 | 9.76437 | 129° | 27km/h | 2540m | -9.1m/s | 13.7°C | 47.1% | 0hPa | 2.7V | 08:05:09 | 02:45:08 | 00:00:00 | |
| IW2NTF | 2026-09-05 01:18:51 | 45.62894 | 9.76393 | 129° | 27km/h | 2590m | -8.7m/s | 13.3°C | 47.5% | 0hPa | 2.7V | 08:05:15 | 02:45:02 | 00:00:00 | |
| IW2NTF | 2026-09-05 01:18:44 | 45.62925 | 9.76350 | 140° | 27km/h | 2639m | -8.3m/s | 12.8°C | 48.7% | 0hPa | 2.7V | 08:05:21 | 02:44:56 | 00:00:00 | |
| IW2NTF | 2026-09-05 01:18:39 | 45.62956 | 9.76307 | 132° | 27km/h | 2688m | -8.4m/s | 12.3°C | 49.7% | 0hPa | 2.6V | 08:05:27 | 02:44:50 | 00:00:00 | |
| IW2NTF | 2026-09-05 01:18:32 | 45.62990 | 9.76266 | 144° | 29km/h | 2737m | -9.3m/s | 12°C | 50.4% | 0hPa | 2.7V | 08:05:33 | 02:44:44 | 00:00:00 | |
| IW2NTF | 2026-09-05 01:18:26 | 45.63025 | 9.76225 | 144° | 31km/h | 2789m | -8.4m/s | 11.6°C | 52.2% | 0hPa | 2.7V | 08:05:39 | 02:44:38 | 00:00:00 | |
| IW2NTF | 2026-09-05 01:18:20 | 45.63059 | 9.76185 | 138° | 27km/h | 2837m | -9.1m/s | 11.3°C | 51% | 0hPa | 2.7V | 08:05:45 | 02:44:32 | 00:00:00 | |
| IW2NTF | 2026-09-05 01:18:14 | 45.63092 | 9.76147 | 139° | 27km/h | 2888m | -9m/s | 10.9°C | 51.2% | 0hPa | 2.7V | 08:05:51 | 02:44:26 | 00:00:00 | |
| IW2NTF | 2026-09-05 01:18:08 | 45.63121 | 9.76112 | 139° | 24km/h | 2940m | -9m/s | 10.5°C | 52.8% | 0hPa | 2.7V | 08:05:57 | 02:44:20 | 00:00:00 | |
| IW2NTF | 2026-09-05 01:18:02 | 45.63142 | 9.76077 | 123° | 18km/h | 2993m | -8.4m/s | 10.2°C | 54.9% | 0hPa | 2.6V | 08:06:03 | 02:44:14 | 00:00:00 | |
| IW2NTF | 2026-09-05 01:17:56 | 45.63158 | 9.76045 | 121° | 20km/h | 3042m | -8.4m/s | 10°C | 56.4% | 0hPa | 2.6V | 08:06:09 | 02:44:08 | 00:00:00 | |
| IW2NTF | 2026-09-05 01:17:50 | 45.63170 | 9.76005 | 100° | 20km/h | 3090m | -8.7m/s | 10.2°C | 55.5% | 0hPa | 2.7V | 08:06:15 | 02:44:02 | 00:00:00 | |
| IW2NTF | 2026-09-05 01:17:44 | 45.63177 | 9.75957 | 94° | 24km/h | 3141m | -8.3m/s | 9.8°C | 55.9% | 0hPa | 2.7V | 08:06:21 | 02:43:56 | 00:00:00 | |
| IW2NTF | 2026-09-05 01:17:39 | 45.63181 | 9.75903 | 90° | 26km/h | 3191m | -9.3m/s | 9.3°C | 57.7% | 0hPa | 2.7V | 08:06:27 | 02:43:50 | 00:00:00 | |
| IW2NTF | 2026-09-05 01:17:32 | 45.63182 | 9.75843 | 89° | 26km/h | 3243m | -8.9m/s | 9.1°C | 55.3% | 0hPa | 2.7V | 08:06:33 | 02:43:44 | 00:00:00 | |
| IW2NTF | 2026-09-05 01:17:27 | 45.63184 | 9.75780 | 95° | 31km/h | 3294m | -9.9m/s | 8.8°C | 55% | 0hPa | 2.7V | 08:06:39 | 02:43:38 | 00:00:00 | |
| IW2NTF | 2026-09-05 01:17:20 | 45.63186 | 9.75710 | 91° | 33km/h | 3348m | -9.2m/s | 8.3°C | 56.7% | 0hPa | 2.7V | 08:06:45 | 02:43:32 | 00:00:00 | |
| IW2NTF | 2026-09-05 01:17:14 | 45.63179 | 9.75637 | 78° | 33km/h | 3401m | -8.7m/s | 7.9°C | 56% | 0hPa | 2.7V | 08:06:51 | 02:43:26 | 00:00:00 | |
| IW2NTF | 2026-09-05 01:17:08 | 45.63171 | 9.75560 | 82° | 37km/h | 3452m | -10m/s | 7.5°C | 56.8% | 0hPa | 2.7V | 08:06:57 | 02:43:20 | 00:00:00 | |
| IW2NTF | 2026-09-05 01:17:03 | 45.63157 | 9.75480 | 79° | 38km/h | 3507m | -9.6m/s | 7.2°C | 55.6% | 0hPa | 2.7V | 08:07:03 | 02:43:14 | 00:00:00 | |
| IW2NTF | 2026-09-05 01:16:56 | 45.63141 | 9.75398 | 76° | 42km/h | 3559m | -9.7m/s | 6.8°C | 56.4% | 0hPa | 2.7V | 08:07:09 | 02:43:08 | 00:00:00 | |
| IW2NTF | 2026-09-05 01:16:50 | 45.63124 | 9.75312 | 74° | 44km/h | 3614m | -9.6m/s | 6.3°C | 59.6% | 0hPa | 2.7V | 08:07:15 | 02:43:02 | 00:00:00 | |
| IW2NTF | 2026-09-05 01:16:45 | 45.63102 | 9.75218 | 72° | 46km/h | 3668m | -9.2m/s | 5.9°C | 60.7% | 0hPa | 2.7V | 08:07:21 | 02:42:56 | 00:00:00 | |
| IW2NTF | 2026-09-05 01:16:38 | 45.63076 | 9.75122 | 66° | 47km/h | 3716m | -9.5m/s | 5.5°C | 60.7% | 0hPa | 2.7V | 08:07:27 | 02:42:50 | 00:00:00 | |
| IW2NTF | 2026-09-05 01:16:32 | 45.63046 | 9.75019 | 69° | 53km/h | 3768m | -10.1m/s | 5.4°C | 55.2% | 0hPa | 2.7V | 08:07:33 | 02:42:44 | 00:00:00 | |
| IW2NTF | 2026-09-05 01:16:26 | 45.63015 | 9.74912 | 67° | 55km/h | 3823m | -9.4m/s | 5.2°C | 54.8% | 0hPa | 2.7V | 08:07:39 | 02:42:38 | 00:00:00 | |
| IW2NTF | 2026-09-05 01:16:20 | 45.62980 | 9.74801 | 61° | 53km/h | 3874m | -10.1m/s | 4.8°C | 53.4% | 0hPa | 2.7V | 08:07:45 | 02:42:32 | 00:00:00 | |
| IW2NTF | 2026-09-05 01:16:15 | 45.62944 | 9.74699 | 63° | 49km/h | 3927m | -9.6m/s | 4.4°C | 52.9% | 0hPa | 2.7V | 08:07:51 | 02:42:26 | 00:00:00 | |
| IW2NTF | 2026-09-05 01:16:08 | 45.62911 | 9.74602 | 66° | 49km/h | 3981m | -10.4m/s | 3.9°C | 53.4% | 0hPa | 2.7V | 08:07:57 | 02:42:20 | 00:00:00 | |
| IW2NTF | 2026-09-05 01:16:02 | 45.62881 | 9.74503 | 63° | 51km/h | 4037m | -9.2m/s | 3.5°C | 54.3% | 0hPa | 2.7V | 08:08:03 | 02:42:14 | 00:00:00 | |
| IW2NTF | 2026-09-05 01:15:55 | 45.62848 | 9.74408 | 62° | 46km/h | 4088m | -9.9m/s | 3°C | 55.6% | 0hPa | 2.7V | 08:08:09 | 02:42:08 | 00:00:00 | |
| IW2NTF | 2026-09-05 01:15:50 | 45.62820 | 9.74318 | 64° | 51km/h | 4144m | -9.8m/s | 2.5°C | 56.6% | 0hPa | 2.6V | 08:08:15 | 02:42:02 | 00:00:00 | |
| IW2NTF | 2026-09-05 01:15:44 | 45.62787 | 9.74221 | 62° | 51km/h | 4199m | -9.4m/s | 2°C | 55.6% | 0hPa | 2.7V | 08:08:21 | 02:41:56 | 00:00:00 | |
| IW2NTF | 2026-09-05 01:15:38 | 45.62752 | 9.74123 | 61° | 47km/h | 4249m | -10.4m/s | 1.6°C | 56.2% | 0hPa | 2.6V | 08:08:27 | 02:41:50 | 00:00:00 | |
| IW2NTF | 2026-09-05 01:15:32 | 45.62720 | 9.74023 | 63° | 53km/h | 4304m | -9.9m/s | 1.3°C | 53.4% | 0hPa | 2.6V | 08:08:33 | 02:41:44 | 00:00:00 | |
| IW2NTF | 2026-09-05 01:15:25 | 45.62685 | 9.73925 | 65° | 47km/h | 4359m | -10.3m/s | 0.8°C | 54.6% | 0hPa | 2.5V | 08:08:39 | 02:41:38 | 00:00:00 | |
| IW2NTF | 2026-09-05 01:15:20 | 45.62657 | 9.73824 | 66° | 53km/h | 4415m | -9.5m/s | 0.4°C | 52.5% | 0hPa | 2.5V | 08:08:45 | 02:41:32 | 00:00:00 | |
| IW2NTF | 2026-09-05 01:15:15 | 45.62629 | 9.73723 | 70° | 47km/h | 4469m | -10.1m/s | -0.1°C | 51.6% | 0hPa | 2.5V | 08:08:51 | 02:41:26 | 00:00:00 | |
| IW2NTF | 2026-09-05 01:15:08 | 45.62603 | 9.73620 | 71° | 49km/h | 4524m | -10.2m/s | -0.5°C | 48.8% | 0hPa | 2.5V | 08:08:57 | 02:41:20 | 00:00:00 | |
| IW2NTF | 2026-09-05 01:15:00 | 45.62574 | 9.73472 | 71° | 55km/h | 4597m | -9.8m/s | -0.7°C | 37% | 0hPa | 2.6V | 08:09:05 | 02:41:12 | 00:00:00 | |
| IW2NTF | 2026-09-05 01:14:55 | 45.62553 | 9.73360 | 74° | 57km/h | 4652m | -9.8m/s | -0.9°C | 33.4% | 0hPa | 2.6V | 08:09:11 | 02:41:06 | 00:00:00 | |
| IW2NTF | 2026-09-05 01:14:49 | 45.62529 | 9.73248 | 76° | 55km/h | 4706m | -10.4m/s | -1.3°C | 33% | 0hPa | 2.6V | 08:09:17 | 02:41:00 | 00:00:00 | |
| IW2NTF | 2026-09-05 01:14:42 | 45.62506 | 9.73134 | 74° | 53km/h | 4761m | -10.8m/s | -1.7°C | 33% | 0hPa | 2.5V | 08:09:23 | 02:40:54 | 00:00:00 | |
| IW2NTF | 2026-09-05 01:14:35 | 45.62484 | 9.73019 | 72° | 53km/h | 4816m | -10.3m/s | -2.1°C | 31.1% | 0hPa | 2.5V | 08:09:29 | 02:40:48 | 00:00:00 | |
| IW2NTF | 2026-09-05 01:14:30 | 45.62463 | 9.72902 | 72° | 57km/h | 4871m | -10.3m/s | -2.4°C | 19.3% | 0hPa | 2.6V | 08:09:35 | 02:40:42 | 00:00:00 | |
| IW2NTF | 2026-09-05 01:14:24 | 45.62441 | 9.72786 | 78° | 57km/h | 4927m | -10.4m/s | -2.7°C | 14.3% | 0hPa | 2.6V | 08:09:41 | 02:40:36 | 00:00:00 | |
| IW2NTF | 2026-09-05 01:14:18 | 45.62420 | 9.72665 | 76° | 57km/h | 4982m | -10.8m/s | -2.9°C | 14.1% | 0hPa | 2.6V | 08:09:47 | 02:40:30 | 00:00:00 | |
| IW2NTF | 2026-09-05 01:14:10 | 45.62396 | 9.72502 | 77° | 57km/h | 5058m | -10.6m/s | -3°C | 11.8% | 0hPa | 2.6V | 08:09:55 | 02:40:22 | 00:00:00 | |
| IW2NTF | 2026-09-05 01:14:00 | 45.62367 | 9.72297 | 79° | 60km/h | 5153m | -10.1m/s | -3.5°C | 25.6% | 0hPa | 2.6V | 08:10:05 | 02:40:12 | 00:00:00 | |
| IW2NTF | 2026-09-05 01:13:50 | 45.62342 | 9.72086 | 79° | 62km/h | 5247m | -10.3m/s | -4°C | 18.7% | 0hPa | 2.5V | 08:10:15 | 02:40:02 | 00:00:00 | |
| IW2NTF | 2026-09-05 01:13:40 | 45.62320 | 9.71865 | 80° | 62km/h | 5341m | -10.5m/s | -4.5°C | 17.7% | 0hPa | 2.6V | 08:10:25 | 02:39:52 | 00:00:00 | |
| IW2NTF | 2026-09-05 01:13:30 | 45.62299 | 9.71638 | 85° | 62km/h | 5436m | -10.9m/s | -5.2°C | 18.9% | 0hPa | 2.6V | 08:10:35 | 02:39:42 | 00:00:00 | |
| IW2NTF | 2026-09-05 01:13:20 | 45.62291 | 9.71398 | 85° | 68km/h | 5531m | -10.5m/s | -6°C | 20.4% | 0hPa | 2.5V | 08:10:45 | 02:39:32 | 00:00:00 | |
| IW2NTF | 2026-09-05 01:13:10 | 45.62289 | 9.71156 | 91° | 66km/h | 5627m | -10.8m/s | -6.7°C | 23.8% | 0hPa | 2.6V | 08:10:55 | 02:39:22 | 00:00:00 | |
| IW2NTF | 2026-09-05 01:13:00 | 45.62291 | 9.70911 | 87° | 66km/h | 5722m | -10.6m/s | -7.4°C | 26.7% | 0hPa | 2.6V | 08:11:05 | 02:39:12 | 00:00:00 | |
| IW2NTF | 2026-09-05 01:12:50 | 45.62290 | 9.70675 | 89° | 66km/h | 5817m | -10.7m/s | -8.2°C | 27.4% | 0hPa | 2.5V | 08:11:15 | 02:39:02 | 00:00:00 | |
| IW2NTF | 2026-09-05 01:12:40 | 45.62282 | 9.70434 | 85° | 69km/h | 5913m | -10.2m/s | -8.8°C | 25.8% | 0hPa | 2.6V | 08:11:25 | 02:38:52 | 00:00:00 | |
| IW2NTF | 2026-09-05 01:12:23 | 45.62265 | 9.70135 | 84° | 73km/h | 6026m | -10.7m/s | -9.4°C | 22.4% | 0hPa | 2.6V | 08:11:37 | 02:38:40 | 00:00:00 | |
| IW2NTF | 2026-09-05 01:12:13 | 45.62249 | 9.69888 | 84° | 66km/h | 6120m | -10.1m/s | -10.1°C | 22.2% | 0hPa | 2.6V | 08:11:47 | 02:38:30 | 00:00:00 | |
| IW2NTF | 2026-09-05 01:12:03 | 45.62232 | 9.69645 | 80° | 68km/h | 6217m | -11m/s | -10.7°C | 23.9% | 0hPa | 2.5V | 08:11:57 | 02:38:20 | 00:00:00 | |
| IW2NTF | 2026-09-05 01:11:53 | 45.62209 | 9.69399 | 83° | 71km/h | 6304m | -9.7m/s | -11.2°C | 19.9% | 0hPa | 2.5V | 08:12:07 | 02:38:10 | 00:00:00 | |
| IW2NTF | 2026-09-05 01:11:43 | 45.62187 | 9.69147 | 80° | 68km/h | 6390m | -10.1m/s | -11.6°C | 17.9% | 0hPa | 2.5V | 08:12:17 | 02:38:00 | 00:00:00 | |
| IW2NTF | 2026-09-05 01:11:33 | 45.62165 | 9.68896 | 79° | 68km/h | 6486m | -11m/s | -12.5°C | 18.5% | 0hPa | 2.6V | 08:12:27 | 02:37:50 | 00:00:00 | |
| IW2NTF | 2026-09-05 01:11:28 | 45.62144 | 9.68648 | 82° | 73km/h | 6578m | -10.6m/s | -13.3°C | 19.6% | 0hPa | 2.5V | 08:12:37 | 02:37:40 | 00:00:00 | |
| IW2NTF | 2026-09-05 01:11:18 | 45.62123 | 9.68396 | 84° | 69km/h | 6671m | -10.4m/s | -13.9°C | 22.2% | 0hPa | 2.5V | 08:12:47 | 02:37:30 | 00:00:00 | |
| IW2NTF | 2026-09-05 01:11:08 | 45.62102 | 9.68143 | 80° | 68km/h | 6761m | -10.8m/s | -14.6°C | 22.5% | 0hPa | 2.6V | 08:12:57 | 02:37:20 | 00:00:00 | |
| IW2NTF | 2026-09-05 01:10:53 | 45.62078 | 9.67892 | 81° | 73km/h | 6853m | -9.7m/s | -15.4°C | 20.4% | 0hPa | 2.5V | 08:13:07 | 02:37:10 | 00:00:00 | |
| IW2NTF | 2026-09-05 01:10:43 | 45.62056 | 9.67633 | 83° | 69km/h | 6944m | -9.6m/s | -16.1°C | 20.5% | 0hPa | 2.5V | 08:13:17 | 02:37:00 | 00:00:00 | |
| IW2NTF | 2026-09-05 01:10:38 | 45.62045 | 9.67367 | 89° | 75km/h | 7033m | -10.1m/s | -16.7°C | 19.5% | 0hPa | 2.6V | 08:13:27 | 02:36:50 | 00:00:00 | |
| IW2NTF | 2026-09-05 01:10:28 | 45.62036 | 9.67093 | 85° | 73km/h | 7123m | -10.4m/s | -17.5°C | 19.7% | 0hPa | 2.5V | 08:13:37 | 02:36:40 | 00:00:00 | |
| IW2NTF | 2026-09-05 01:10:18 | 45.62022 | 9.66823 | 85° | 77km/h | 7214m | -10.3m/s | -18.1°C | 17% | 0hPa | 2.6V | 08:13:47 | 02:36:30 | 00:00:00 | |
| IW2NTF | 2026-09-05 01:10:08 | 45.62001 | 9.66554 | 84° | 71km/h | 7304m | -10.6m/s | -18.8°C | 17.6% | 0hPa | 2.6V | 08:13:57 | 02:36:20 | 00:00:00 | |
| IW2NTF | 2026-09-05 01:09:58 | 45.61980 | 9.66286 | 85° | 73km/h | 7419m | -14m/s | -19.6°C | 16.3% | 0hPa | 2.5V | 08:14:07 | 02:36:10 | 00:00:00 | |
| IW2NTF | 2026-09-05 01:09:48 | 45.61966 | 9.66010 | 87° | 78km/h | 7533m | -12.8m/s | -20.4°C | 13.1% | 0hPa | 2.5V | 08:14:17 | 02:36:00 | 00:00:00 | |
| IW2NTF | 2026-09-05 01:09:38 | 45.61953 | 9.65724 | 86° | 78km/h | 7651m | -12.2m/s | -21.3°C | 13.4% | 0hPa | 2.6V | 08:14:27 | 02:35:50 | 00:00:00 | |
| IW2NTF | 2026-09-05 01:09:28 | 45.61943 | 9.65433 | 88° | 82km/h | 7766m | -12.2m/s | -22.3°C | 14% | 0hPa | 2.6V | 08:14:37 | 02:35:40 | 00:00:00 | |
| IW2NTF | 2026-09-05 01:09:18 | 45.61938 | 9.65141 | 90° | 80km/h | 7882m | -11.8m/s | -23°C | 13.4% | 0hPa | 2.5V | 08:14:47 | 02:35:30 | 00:00:00 | |
| IW2NTF | 2026-09-05 01:09:08 | 45.61934 | 9.64859 | 85° | 73km/h | 7999m | -14m/s | -23.9°C | 15.5% | 0hPa | 2.5V | 08:14:57 | 02:35:20 | 00:00:00 | |
| IW2NTF | 2026-09-05 01:08:58 | 45.61922 | 9.64593 | 85° | 71km/h | 8116m | -11.4m/s | -24.7°C | 10.6% | 0hPa | 2.6V | 08:15:07 | 02:35:10 | 00:00:00 | |
| IW2NTF | 2026-09-05 01:08:48 | 45.61902 | 9.64320 | 82° | 78km/h | 8233m | -12.8m/s | -25.6°C | 10.8% | 0hPa | 2.5V | 08:15:17 | 02:35:00 | 00:00:00 | |
| IW2NTF | 2026-09-05 01:08:38 | 45.61877 | 9.64045 | 83° | 73km/h | 8352m | -14.4m/s | -26.5°C | 10.7% | 0hPa | 2.5V | 08:15:27 | 02:34:50 | 00:00:00 | |
| IW2NTF | 2026-09-05 01:08:28 | 45.61855 | 9.63785 | 81° | 73km/h | 8473m | -13.5m/s | -27.5°C | 14.3% | 0hPa | 2.5V | 08:15:37 | 02:34:40 | 00:00:00 | |
| IW2NTF | 2026-09-05 01:08:19 | 45.61834 | 9.63532 | 84° | 73km/h | 8595m | -13.2m/s | -28.6°C | 17.1% | 0hPa | 2.5V | 08:15:47 | 02:34:30 | 00:00:00 | |
| IW2NTF | 2026-09-05 01:08:08 | 45.61815 | 9.63273 | 83° | 71km/h | 8717m | -12.9m/s | -29.7°C | 18.2% | 0hPa | 2.5V | 08:15:57 | 02:34:20 | 00:00:00 | |
| IW2NTF | 2026-09-05 01:07:58 | 45.61794 | 9.63008 | 79° | 71km/h | 8841m | -13.9m/s | -30.8°C | 16.9% | 0hPa | 2.5V | 08:16:07 | 02:34:10 | 00:00:00 | |
| IW2NTF | 2026-09-05 01:07:41 | 45.61756 | 9.62690 | 76° | 75km/h | 8991m | -13.5m/s | -31.9°C | 14.3% | 0hPa | 2.5V | 08:16:19 | 02:33:58 | 00:00:00 | |
| IW2NTF | 2026-09-05 01:07:31 | 45.61719 | 9.62382 | 78° | 78km/h | 9126m | -14.4m/s | -32.9°C | 13.1% | 0hPa | 2.6V | 08:16:30 | 02:33:47 | 00:00:00 | |
| IW2NTF | 2026-09-05 01:07:21 | 45.61692 | 9.62089 | 82° | 84km/h | 9250m | -13.6m/s | -33.9°C | 13% | 0hPa | 2.5V | 08:16:40 | 02:33:37 | 00:00:00 | |
| IW2NTF | 2026-09-05 01:07:11 | 45.61665 | 9.61794 | 82° | 82km/h | 9374m | -14.4m/s | -34.7°C | 13.5% | 0hPa | 2.5V | 08:16:50 | 02:33:27 | 00:00:00 | |
| IW2NTF | 2026-09-05 01:07:01 | 45.61637 | 9.61480 | 84° | 75km/h | 9510m | -13.2m/s | -35.8°C | 14.8% | 0hPa | 2.6V | 08:17:01 | 02:33:16 | 00:00:00 | |
| IW2NTF | 2026-09-05 01:06:51 | 45.61612 | 9.61202 | 80° | 78km/h | 9634m | -12.7m/s | -36.7°C | 13.7% | 0hPa | 2.6V | 08:17:11 | 02:33:06 | 00:00:00 | |
| IW2NTF | 2026-09-05 01:06:41 | 45.61573 | 9.60918 | 76° | 82km/h | 9759m | -13.9m/s | -37.2°C | 13.2% | 0hPa | 2.5V | 08:17:21 | 02:32:56 | 00:00:00 | |
| IW2NTF | 2026-09-05 01:06:31 | 45.61522 | 9.60613 | 74° | 91km/h | 9883m | -12.8m/s | -38.1°C | 14.1% | 0hPa | 2.5V | 08:17:31 | 02:32:46 | 00:00:00 | |
| IW2NTF | 2026-09-05 01:06:21 | 45.61459 | 9.60300 | 73° | 93km/h | 10004m | -13.2m/s | -39.2°C | 15.3% | 0hPa | 2.5V | 08:17:41 | 02:32:36 | 00:00:00 | |
| IW2NTF | 2026-09-05 01:06:11 | 45.61380 | 9.59975 | 67° | 100km/h | 10131m | -14.4m/s | -40.1°C | 18.1% | 0hPa | 2.5V | 08:17:51 | 02:32:26 | 00:00:00 | |
| IW2NTF | 2026-09-05 01:06:01 | 45.61284 | 9.59636 | 69° | 102km/h | 10257m | -13.5m/s | -41°C | 22.6% | 0hPa | 2.6V | 08:18:01 | 02:32:16 | 00:00:00 | |
| IW2NTF | 2026-09-05 01:05:51 | 45.61187 | 9.59289 | 69° | 102km/h | 10382m | -12.9m/s | -42.1°C | 22.9% | 0hPa | 2.6V | 08:18:11 | 02:32:06 | 00:00:00 | |
| IW2NTF | 2026-09-05 01:05:41 | 45.61095 | 9.58946 | 69° | 99km/h | 10507m | -13.2m/s | -42.9°C | 21.4% | 0hPa | 2.5V | 08:18:21 | 02:31:56 | 00:00:00 | |
| IW2NTF | 2026-09-05 01:05:31 | 45.61007 | 9.58600 | 69° | 100km/h | 10631m | -13.5m/s | -43.8°C | 21.9% | 0hPa | 2.5V | 08:18:31 | 02:31:46 | 00:00:00 | |
| DO3MHA-11 | 2026-09-05 01:05:26 | 45.60982 | 9.58495 | 72° | 104km/h | 10670m | -13.8m/s | -44.1°C | 22.0% | 0hPa | 2.6V | 00:00:00 | 02:31:43 | 00:00:00 | |
| IW2NTF | 2026-09-05 01:05:21 | 45.60924 | 9.58251 | 69° | 102km/h | 10757m | -13.5m/s | -44.7°C | 20.8% | 0hPa | 2.5V | 08:18:41 | 02:31:36 | 00:00:00 | |
| DO3MHA-11 | 2026-09-05 01:05:15 | 45.60888 | 9.58112 | 72° | 104km/h | 10806m | -14.2m/s | -44.9°C | 20.6% | 0hPa | 2.6V | 00:00:00 | 02:31:32 | 00:00:00 | |
| IW2NTF | 2026-09-05 01:05:11 | 45.60839 | 9.57901 | 71° | 104km/h | 10883m | -15m/s | -45.5°C | 22.4% | 0hPa | 2.6V | 08:18:51 | 02:31:26 | 00:00:00 | |
| DO3MHA-11 | 2026-09-05 01:05:05 | 45.60805 | 9.57758 | 72° | 102km/h | 10936m | -14.0m/s | -45.9°C | 23.5% | 0hPa | 2.5V | 00:00:00 | 02:31:22 | 00:00:00 | |
| IW2NTF | 2026-09-05 01:05:01 | 45.60753 | 9.57546 | 69° | 102km/h | 11013m | -14.1m/s | -46.6°C | 25.7% | 0hPa | 2.5V | 08:19:01 | 02:31:16 | 00:00:00 | |
| DO3MHA-11 | 2026-09-05 01:04:55 | 45.60718 | 9.57406 | 71° | 106km/h | 11065m | -14.6m/s | -47.1°C | 27.1% | 0hPa | 2.5V | 08:19:00 | 02:31:12 | 00:00:00 | |
| IW2NTF | 2026-09-05 01:04:51 | 45.60667 | 9.57191 | 70° | 108km/h | 11159m | -18m/s | -48°C | 28.1% | 0hPa | 2.5V | 08:19:11 | 02:31:06 | 00:00:00 | |
| DO3MHA-11 | 2026-09-05 01:04:45 | 45.60632 | 9.57047 | 71° | 106km/h | 11222m | -18.7m/s | -48.5°C | 27.9% | 0hPa | 2.5V | 00:00:00 | 02:31:02 | 00:00:00 | |
| IW2NTF | 2026-09-05 01:04:41 | 45.60582 | 9.56831 | 70° | 106km/h | 11314m | -14.6m/s | -49.4°C | 28.3% | 0hPa | 2.5V | 08:19:21 | 02:30:56 | 00:00:00 | |
| DO3MHA-11 | 2026-09-05 01:04:35 | 45.60549 | 9.56684 | 72° | 106km/h | 11370m | -15.0m/s | -49.6°C | 28.0% | 0hPa | 2.6V | 00:00:00 | 02:30:52 | 00:00:00 | |
| IW2NTF | 2026-09-05 01:04:34 | 45.60501 | 9.56463 | 71° | 106km/h | 11462m | -17.8m/s | -50.2°C | 27.6% | 0hPa | 2.6V | 08:19:31 | 02:30:46 | 00:00:00 | |
| DO3MHA-11 | 2026-09-05 01:04:25 | 45.60468 | 9.56318 | 75° | 106km/h | 11528m | -14.9m/s | -50.8°C | 29.0% | 0hPa | 2.5V | 00:00:00 | 02:30:42 | 00:00:00 | |
| IW2NTF | 2026-09-05 01:04:22 | 45.60426 | 9.56099 | 75° | 106km/h | 11613m | -15.4m/s | -51.5°C | 30% | 0hPa | 2.6V | 08:19:41 | 02:30:36 | 00:00:00 | |
| DB0UT-7 | 2026-09-05 01:04:21 | 45.60440 | 9.56171 | 74° | 106km/h | 11585m | -15.0m/s | -51.2°C | 29.6% | 0hPa | 2.5V | 00:00:00 | 02:30:38 | 00:00:00 | |
| IW2NTF | 2026-09-05 01:04:15 | 45.60357 | 9.55731 | 72° | 104km/h | 11762m | -15.8m/s | -52.4°C | 30.2% | 0hPa | 2.5V | 08:19:51 | 02:30:26 | 00:00:00 | |
| DO3MHA-11 | 2026-09-05 01:04:15 | 45.60399 | 9.55953 | 76° | 106km/h | 11674m | -15.9m/s | -51.9°C | 30.3% | 0hPa | 2.5V | 00:00:00 | 02:30:32 | 00:00:00 | |
| DO3MHA-11 | 2026-09-05 01:04:05 | 45.60326 | 9.55585 | 75° | 104km/h | 11830m | -19.4m/s | -52.8°C | 29.5% | 0hPa | 2.5V | 00:00:00 | 02:30:22 | 00:00:00 | |
| IW2NTF | 2026-09-05 01:04:04 | 45.60277 | 9.55372 | 71° | 106km/h | 11932m | -15.2m/s | -53.5°C | 31.3% | 0hPa | 2.5V | 08:20:01 | 02:30:16 | 00:00:00 | |
| DO3MHA-11 | 2026-09-05 01:03:55 | 45.60240 | 9.55228 | 71° | 104km/h | 11992m | -16.0m/s | -54.1°C | 32.0% | 0hPa | 2.6V | 00:00:00 | 02:30:12 | 00:00:00 | |
| IW2NTF | 2026-09-05 01:03:54 | 45.60188 | 9.55013 | 72° | 106km/h | 12087m | -18.3m/s | -55°C | 32.9% | 0hPa | 2.6V | 08:20:11 | 02:30:06 | 00:00:00 | |
| DB0UT-7 | 2026-09-05 01:03:51 | 45.60205 | 9.55085 | 71° | 102km/h | 12055m | -15.4m/s | -54.7°C | 32.8% | 0hPa | 2.5V | 08:20:00 | 00:00:00 | 00:00:00 | |
| DO3MHA-11 | 2026-09-05 01:03:45 | 45.60157 | 9.54868 | 74° | 106km/h | 12157m | -16.7m/s | -55.5°C | 34.0% | 0hPa | 2.6V | 00:00:00 | 02:30:02 | 00:00:00 | |
| IW2NTF | 2026-09-05 01:03:44 | 45.60110 | 9.54649 | 75° | 108km/h | 12255m | -16.1m/s | -56.4°C | 34.4% | 0hPa | 2.6V | 08:20:21 | 02:29:56 | 00:00:00 | |
| IW2NTF | 2026-09-05 01:03:35 | 45.60041 | 9.54294 | 74° | 99km/h | 12420m | -17.7m/s | -57.8°C | 33.7% | 0hPa | 2.5V | 08:20:31 | 02:29:46 | 00:00:00 | |
| DO3MHA-11 | 2026-09-05 01:03:35 | 45.60081 | 9.54501 | 74° | 99km/h | 12322m | -17.6m/s | -57.0°C | 34.6% | 0hPa | 2.5V | 00:00:00 | 02:29:52 | 00:00:00 | |
| DO3MHA-11 | 2026-09-05 01:03:25 | 45.60018 | 9.54160 | 77° | 91km/h | 12489m | -17.4m/s | -58.3°C | 33.2% | 0hPa | 2.5V | 08:20:00 | 02:29:42 | 00:00:00 | |
| IW2NTF | 2026-09-05 01:03:24 | 45.59983 | 9.53965 | 75° | 91km/h | 12593m | -18.4m/s | -59.1°C | 32.4% | 0hPa | 2.5V | 08:20:41 | 02:29:36 | 00:00:00 | |
| DB0UT-7 | 2026-09-05 01:03:21 | 45.59994 | 9.54027 | 74° | 86km/h | 12558m | -18.4m/s | -58.9°C | 32.9% | 0hPa | 2.5V | 00:00:00 | 02:29:38 | 00:00:00 | |
| DO3MHA-11 | 2026-09-05 01:03:15 | 45.59958 | 9.53838 | 74° | 89km/h | 12666m | -18.5m/s | -59.3°C | 31.4% | 0hPa | 2.5V | 00:00:00 | 02:29:32 | 00:00:00 | |
| IW2NTF | 2026-09-05 01:03:14 | 45.59918 | 9.53648 | 75° | 88km/h | 12769m | -18.1m/s | -60°C | 30.4% | 0hPa | 2.5V | 08:20:51 | 02:29:26 | 00:00:00 | |
| DO3MHA-11 | 2026-09-05 01:03:05 | 45.59895 | 9.53529 | 75° | 80km/h | 12839m | -18.6m/s | -60.2°C | 29.1% | 0hPa | 2.6V | 00:00:00 | 02:29:22 | 00:00:00 | |
| IW2NTF | 2026-09-05 01:03:04 | 45.59857 | 9.53358 | 69° | 77km/h | 12947m | -19.4m/s | -60.9°C | 27.1% | 0hPa | 2.6V | 08:21:01 | 02:29:16 | 00:00:00 | |
| DO3MHA-11 | 2026-09-05 01:02:55 | 45.59832 | 9.53253 | 72° | 73km/h | 13019m | -18.5m/s | -61.1°C | 25.4% | 0hPa | 2.6V | 00:00:00 | 02:29:12 | 00:00:00 | |
| IW2NTF | 2026-09-05 01:02:54 | 45.59795 | 9.53102 | 73° | 69km/h | 13130m | -18.5m/s | -60.8°C | 22.6% | 0hPa | 2.6V | 08:21:11 | 02:29:06 | 00:00:00 | |
| DB0UT-7 | 2026-09-05 01:02:51 | 45.59806 | 9.53151 | 71° | 75km/h | 13093m | -19.8m/s | -60.8°C | 23.4% | 0hPa | 2.5V | 00:00:00 | 00:00:00 | 00:00:00 | |
| DO3MHA-11 | 2026-09-05 01:02:45 | 45.59778 | 9.53003 | 77° | 73km/h | 13202m | -18.6m/s | -61.4°C | 22.6% | 0hPa | 2.5V | 00:00:00 | 02:29:02 | 00:00:00 | |
| IW2NTF | 2026-09-05 01:02:44 | 45.59757 | 9.52851 | 77° | 73km/h | 13315m | -19.5m/s | -62°C | 21.6% | 0hPa | 2.5V | 08:21:21 | 02:28:56 | 00:00:00 | |
| DO3MHA-11 | 2026-09-05 01:02:35 | 45.59743 | 9.52745 | 79° | 78km/h | 13392m | -20.5m/s | -62.4°C | 21.5% | 0hPa | 2.5V | 00:00:00 | 02:28:52 | 00:00:00 | |
| NBG1-10 | 2026-09-05 01:02:31 | 45.59726 | 9.52633 | 78° | 73km/h | 13469m | -19.5m/s | -62.7°C | 20.8% | 0hPa | 2.5V | 00:00:00 | 02:28:48 | 00:00:00 | |
| DO3MHA-11 | 2026-09-05 01:02:25 | 45.59712 | 9.52469 | 87° | 71km/h | 13586m | -20.4m/s | -62.8°C | 18.9% | 0hPa | 2.5V | 00:00:00 | 02:28:42 | 00:00:00 | |
| IW2NTF | 2026-09-05 01:02:16 | 45.59729 | 9.52109 | 97° | 77km/h | 13857m | -20.2m/s | -63.3°C | 15.4% | 0hPa | 2.6V | 08:21:49 | 02:28:28 | 00:00:00 | |
| DB0UT-7 | 2026-09-05 01:02:15 | 45.59719 | 9.52213 | 96° | 66km/h | 13780m | -20.0m/s | -63.1°C | 16.7% | 0hPa | 2.5V | 00:00:00 | 02:28:32 | 00:00:00 | |
| IW2NTF | 2026-09-05 01:02:07 | 45.59755 | 9.51844 | 98° | 69km/h | 14053m | -19.3m/s | -62.8°C | 13.5% | 0hPa | 2.5V | 08:21:59 | 02:28:18 | 00:00:00 | |
| DO3MHA-11 | 2026-09-05 01:02:05 | 45.59743 | 9.51948 | 97° | 71km/h | 13976m | -19.4m/s | -62.4°C | 13.7% | 0hPa | 2.5V | 00:00:00 | 02:28:22 | 00:00:00 | |
| NBG1-10 | 2026-09-05 01:01:58 | 45.59764 | 9.51769 | 101° | 62km/h | 14110m | -19.7m/s | -63.2°C | 13.6% | 0hPa | 2.5V | 00:00:00 | 02:28:15 | 00:00:00 | |
| IW2NTF | 2026-09-05 01:01:56 | 45.59783 | 9.51602 | 92° | 62km/h | 14250m | -20.1m/s | -64.2°C | 13% | 0hPa | 2.5V | 08:22:09 | 02:28:08 | 00:00:00 | |
| DO3MHA-11 | 2026-09-05 01:01:55 | 45.59775 | 9.51697 | 100° | 64km/h | 14171m | -19.6m/s | -63.7°C | 13.6% | 0hPa | 2.6V | 08:22:00 | 02:28:12 | 00:00:00 | |
| IW2NTF | 2026-09-05 01:01:46 | 45.59781 | 9.51371 | 87° | 60km/h | 14452m | -21.1m/s | -62.3°C | 9.8% | 0hPa | 2.5V | 08:22:19 | 02:27:58 | 00:00:00 | |
| DO3MHA-11 | 2026-09-05 01:01:45 | 45.59784 | 9.51464 | 90° | 60km/h | 14370m | -21.0m/s | -62.7°C | 10.7% | 0hPa | 2.6V | 00:00:00 | 02:28:02 | 00:00:00 | |
| DB0UT-7 | 2026-09-05 01:01:36 | 45.59780 | 9.51265 | 87° | 55km/h | 14556m | -22.1m/s | -62.4°C | 9.3% | 0hPa | 2.6V | 00:00:00 | 00:00:00 | 00:00:00 | |
| IW2NTF | 2026-09-05 01:01:35 | 45.59776 | 9.51141 | 84° | 55km/h | 14687m | -22m/s | -62.5°C | 8.9% | 0hPa | 2.6V | 08:22:30 | 02:27:47 | 00:00:00 | |
| DO3MHA-11 | 2026-09-05 01:01:35 | 45.59780 | 9.51245 | 91° | 57km/h | 14578m | -21.8m/s | -62.5°C | 9.2% | 0hPa | 2.5V | 00:00:00 | 02:27:52 | 00:00:00 | |
| IW2NTF | 2026-09-05 01:01:25 | 45.59767 | 9.50940 | 87° | 57km/h | 14905m | -22m/s | -62.8°C | 8.7% | 0hPa | 2.5V | 08:22:40 | 02:27:37 | 00:00:00 | |
| NBG1-10 | 2026-09-05 01:01:25 | 45.59770 | 9.51041 | 89° | 51km/h | 14797m | -22.2m/s | -62.1°C | 8.5% | 0hPa | 2.5V | 00:00:00 | 02:27:42 | 00:00:00 | |
| IW2NTF | 2026-09-05 01:01:15 | 45.59767 | 9.50729 | 94° | 57km/h | 15124m | -22.5m/s | -63.1°C | 8.7% | 0hPa | 2.5V | 08:22:50 | 02:27:27 | 00:00:00 | |
| DO3MHA-11 | 2026-09-05 01:01:15 | 45.59763 | 9.50835 | 89° | 57km/h | 15013m | -22.3m/s | -62.8°C | 8.5% | 0hPa | 2.6V | 00:00:00 | 02:27:32 | 00:00:00 | |
| IW2NTF | 2026-09-05 01:01:05 | 45.59783 | 9.50541 | 93° | 46km/h | 15343m | -23m/s | -63.4°C | 8.8% | 0hPa | 2.6V | 08:23:00 | 02:27:17 | 00:00:00 | |
| DO3MHA-11 | 2026-09-05 01:01:05 | 45.59776 | 9.50628 | 97° | 46km/h | 15232m | -23.1m/s | -63.4°C | 9.0% | 0hPa | 2.6V | 00:00:00 | 02:27:22 | 00:00:00 | |
| DB0UT-7 | 2026-09-05 01:01:01 | 45.59782 | 9.50557 | 99° | 49km/h | 15320m | -22.9m/s | -63.1°C | 8.8% | 0hPa | 2.6V | 00:00:00 | 02:27:18 | 00:00:00 | |
| DO3MHA-11 | 2026-09-05 01:00:55 | 45.59782 | 9.50462 | 87° | 49km/h | 15456m | -23.7m/s | -63.6°C | 8.9% | 0hPa | 2.6V | 00:00:00 | 02:27:12 | 00:00:00 | |
| NBG1-10 | 2026-09-05 01:00:52 | 45.59780 | 9.50414 | 89° | 51km/h | 15524m | -23.8m/s | -63.7°C | 9.1% | 0hPa | 2.5V | 00:00:00 | 02:27:09 | 00:00:00 | |
| DO3MHA-11 | 2026-09-05 01:00:46 | 45.59782 | 9.50281 | 98° | 55km/h | 15686m | -23.4m/s | -62.6°C | 8.2% | 0hPa | 2.5V | 00:00:00 | 02:27:02 | 00:00:00 | |
| IW2NTF | 2026-09-05 01:00:43 | 45.59796 | 9.50145 | 97° | 53km/h | 15853m | -24.3m/s | -62.1°C | 7.8% | 0hPa | 2.5V | 08:23:22 | 02:26:55 | 00:00:00 | |
| IW2NTF | 2026-09-05 01:00:35 | 45.59804 | 9.49949 | 91° | 51km/h | 16097m | -24.8m/s | -62.7°C | 8% | 0hPa | 2.5V | 08:23:32 | 02:26:45 | 00:00:00 | |
| DO3MHA-11 | 2026-09-05 01:00:35 | 45.59801 | 9.50087 | 97° | 53km/h | 15925m | -25.0m/s | -62.4°C | 8.0% | 0hPa | 2.5V | 00:00:00 | 02:26:52 | 00:00:00 | |
| DB0UT-7 | 2026-09-05 01:00:28 | 45.59804 | 9.49949 | 92° | 55km/h | 16097m | -24.8m/s | -62.6°C | 8.0% | 0hPa | 2.5V | 00:00:00 | 00:00:00 | 00:00:00 | |
| DO3MHA-11 | 2026-09-05 01:00:26 | 45.59802 | 9.49894 | 87° | 47km/h | 16170m | -25.4m/s | -62.8°C | 8.3% | 0hPa | 2.6V | 08:23:00 | 02:26:42 | 00:00:00 | |
| IW2NTF | 2026-09-05 01:00:24 | 45.59795 | 9.49779 | 80° | 49km/h | 16343m | -25.9m/s | -60.9°C | 6.9% | 0hPa | 2.5V | 08:23:42 | 02:26:35 | 00:00:00 | |
| NBG1-10 | 2026-09-05 01:00:19 | 45.59797 | 9.49796 | 81° | 49km/h | 16318m | -25.7m/s | -61.1°C | 7.1% | 0hPa | 2.5V | 08:23:00 | 02:26:36 | 00:00:00 | |
| DO3MHA-11 | 2026-09-05 01:00:16 | 45.59791 | 9.49726 | 80° | 60km/h | 16420m | -25.8m/s | -61.1°C | 6.9% | 0hPa | 2.5V | 00:00:00 | 02:26:32 | 00:00:00 | |
| IW2NTF | 2026-09-05 01:00:13 | 45.59782 | 9.49576 | 86° | 64km/h | 16598m | -28.9m/s | -59.9°C | 5.9% | 0hPa | 2.5V | 08:23:52 | 02:26:25 | 00:00:00 | |
| DO3MHA-11 | 2026-09-05 01:00:05 | 45.59782 | 9.49509 | 94° | 58km/h | 16682m | -28.5m/s | -59.9°C | 6.0% | 0hPa | 2.5V | 00:00:00 | 02:26:22 | 00:00:00 | |
| IW2NTF | 2026-09-05 01:00:03 | 45.59800 | 9.49358 | 102° | 53km/h | 16866m | -26.1m/s | -59.9°C | 5.7% | 0hPa | 2.5V | 08:24:02 | 02:26:15 | 00:00:00 | |
| DB0UT-7 | 2026-09-05 00:59:58 | 45.59800 | 9.49358 | 103° | 40km/h | 16867m | -26.1m/s | -59.8°C | 5.7% | 0hPa | 2.6V | 00:00:00 | 02:26:15 | 00:00:00 | |
| DO3MHA-11 | 2026-09-05 00:59:55 | 45.59808 | 9.49300 | 100° | 44km/h | 16945m | -27.5m/s | -60.3°C | 6.0% | 0hPa | 2.6V | 00:00:00 | 02:26:12 | 00:00:00 | |
| IW2NTF | 2026-09-05 00:59:53 | 45.59822 | 9.49190 | 97° | 44km/h | 17131m | -26.6m/s | -60.3°C | 6.1% | 0hPa | 2.5V | 08:24:12 | 02:26:05 | 00:00:00 | |
| DO3MHA-11 | 2026-09-05 00:59:45 | 45.59826 | 9.49143 | 96° | 40km/h | 17211m | -26.4m/s | -60.7°C | 6.2% | 0hPa | 2.6V | 00:00:00 | 02:26:02 | 00:00:00 | |
| IW2NTF | 2026-09-05 00:59:43 | 45.59839 | 9.49040 | 107° | 40km/h | 17393m | -26.4m/s | -60.5°C | 6.2% | 0hPa | 2.6V | 08:24:22 | 02:25:55 | 00:00:00 | |
| NBG1-10 | 2026-09-05 00:59:38 | 45.59839 | 9.49040 | 108° | 35km/h | 17394m | -26.4m/s | -60.4°C | 6.2% | 0hPa | 2.5V | 00:00:00 | 02:25:55 | 00:00:00 | |
| DO3MHA-11 | 2026-09-05 00:59:35 | 45.59850 | 9.48999 | 115° | 31km/h | 17473m | -27.0m/s | -59.9°C | 5.9% | 0hPa | 2.5V | 00:00:00 | 02:25:52 | 00:00:00 | |
| DB0UT-7 | 2026-09-05 00:59:28 | 45.59865 | 9.48923 | 86° | 37km/h | 17662m | -28.9m/s | -59.3°C | 5.7% | 0hPa | 2.5V | 00:00:00 | 00:00:00 | 00:00:00 | |
| IW2NTF | 2026-09-05 00:59:27 | 45.59861 | 9.48889 | 79° | 29km/h | 17773m | -29.3m/s | -58.7°C | 5.3% | 0hPa | 2.5V | 08:24:36 | 02:25:41 | 00:00:00 | |
| DO3MHA-11 | 2026-09-05 00:59:25 | 45.59863 | 9.48898 | 76° | 33km/h | 17747m | -27.1m/s | -58.5°C | 5.3% | 0hPa | 2.5V | 00:00:00 | 02:25:42 | 00:00:00 | |
| IW2NTF | 2026-09-05 00:59:17 | 45.59859 | 9.48760 | 103° | 42km/h | 18054m | -27.9m/s | -59.3°C | 5.6% | 0hPa | 2.5V | 08:24:46 | 02:25:31 | 00:00:00 | |
| DO3MHA-11 | 2026-09-05 00:59:16 | 45.59857 | 9.48776 | 98° | 44km/h | 18027m | -27.8m/s | -59.4°C | 5.7% | 0hPa | 2.6V | 00:00:00 | 02:25:32 | 00:00:00 | |
| IW2NTF | 2026-09-05 00:59:07 | 45.59909 | 9.48623 | 127° | 37km/h | 18337m | -30m/s | -58.5°C | 5.2% | 0hPa | 2.6V | 08:24:56 | 02:25:21 | 00:00:00 | |
| NBG1-10 | 2026-09-05 00:59:05 | 45.59903 | 9.48633 | 136° | 16km/h | 18309m | -28.8m/s | -58.3°C | 5.1% | 0hPa | 2.5V | 00:00:00 | 02:25:22 | 00:00:00 | |
| IW2NTF | 2026-09-05 00:58:58 | 45.59948 | 9.48533 | 106° | 26km/h | 18648m | -32.7m/s | -58.7°C | 5.2% | 0hPa | 2.5V | 08:25:06 | 02:25:11 | 00:00:00 | |
| DO3MHA-11 | 2026-09-05 00:58:56 | 45.59946 | 9.48542 | 109° | 29km/h | 18615m | -33.4m/s | -58.7°C | 5.2% | 0hPa | 2.5V | 08:25:00 | 02:25:12 | 00:00:00 | |
| IW2NTF | 2026-09-05 00:58:47 | 45.59962 | 9.48428 | 113° | 27km/h | 18958m | -30.4m/s | -59°C | 5.4% | 0hPa | 2.6V | 08:25:16 | 02:25:01 | 00:00:00 | |
| RDZBGO | 2026-09-05 00:58:46 | 45.59956 | 9.48461 | 100° | 33km/h | 18867m | -31.5m/s | -58.7°C | 1.8% | 0hPa | 2.5V | 00:00:00 | 00:00:00 | 00:00:00 | |
| IW2NTF | 2026-09-05 00:58:37 | 45.59995 | 9.48366 | 125° | 9km/h | 19301m | -32.3m/s | -59.2°C | 5.6% | 0hPa | 2.5V | 08:25:27 | 02:24:50 | 00:00:00 | |
| DO3MHA-11 | 2026-09-05 00:58:35 | 45.59991 | 9.48371 | 133° | 13km/h | 19238m | -31.8m/s | -59.4°C | 5.8% | 0hPa | 2.6V | 00:00:00 | 02:24:52 | 00:00:00 | |
| IW2NTF | 2026-09-05 00:58:27 | 45.60004 | 9.48313 | 89° | 16km/h | 19650m | -34m/s | -58.4°C | 5.5% | 0hPa | 2.6V | 08:25:38 | 02:24:39 | 00:00:00 | |
| DO3MHA-11 | 2026-09-05 00:58:24 | 45.60002 | 9.48324 | 103° | 15km/h | 19585m | -31.5m/s | -58.9°C | 5.9% | 0hPa | 2.6V | 00:00:00 | 02:24:41 | 00:00:00 | |
| RDZBGO | 2026-09-05 00:58:23 | 45.60002 | 9.48324 | 104° | 13km/h | 19585m | -31.6m/s | -59.0°C | 2.0% | 0hPa | 2.5V | 00:00:00 | 00:00:00 | 00:00:00 | |
| IW2NTF | 2026-09-05 00:58:18 | 45.60000 | 9.48265 | 63° | 7km/h | 19969m | -33.9m/s | -57.6°C | 5.4% | 0hPa | 2.5V | 08:25:48 | 02:24:29 | 00:00:00 | |
| DO3MHA-11 | 2026-09-05 00:58:14 | 45.60002 | 9.48271 | 75° | 15km/h | 19905m | -32.3m/s | -57.8°C | 5.5% | 0hPa | 2.6V | 00:00:00 | 02:24:31 | 00:00:00 | |
| IW2NTF | 2026-09-05 00:58:08 | 45.59999 | 9.48202 | 103° | 26km/h | 20309m | -33.5m/s | -56°C | 5% | 0hPa | 2.6V | 08:25:58 | 02:24:19 | 00:00:00 | |
| DO3MHA-11 | 2026-09-05 00:58:04 | 45.59996 | 9.48218 | 97° | 22km/h | 20241m | -34.5m/s | -56.2°C | 5.0% | 0hPa | 2.5V | 00:00:00 | 02:24:21 | 00:00:00 | |
| IW2NTF | 2026-09-05 00:57:57 | 45.60025 | 9.48146 | 140° | 7km/h | 20647m | -34.5m/s | -55.3°C | 4.8% | 0hPa | 2.5V | 08:26:08 | 02:24:09 | 00:00:00 | |
| RDZBGO | 2026-09-05 00:57:56 | 45.60013 | 9.48164 | 132° | 22km/h | 20470m | -33.7m/s | -55.8°C | 1.7% | 0hPa | 2.6V | 00:00:00 | 00:00:00 | 00:00:00 | |
| DO3MHA-11 | 2026-09-05 00:57:54 | 45.60021 | 9.48150 | 144° | 7km/h | 20577m | -36.6m/s | -55.2°C | 4.8% | 0hPa | 2.6V | 00:00:00 | 02:24:11 | 00:00:00 | |
| IW2NTF | 2026-09-05 00:57:48 | 45.60031 | 9.48118 | 88° | 11km/h | 20995m | -34.2m/s | -54°C | 4.4% | 0hPa | 2.6V | 08:26:18 | 02:23:59 | 00:00:00 | |
| DO3MHA-11 | 2026-09-05 00:57:44 | 45.60031 | 9.48127 | 102° | 13km/h | 20926m | -34.7m/s | -54.2°C | 4.5% | 0hPa | 2.5V | 00:00:00 | 02:24:01 | 00:00:00 | |
| OE5DRO-10 | 2026-09-05 00:57:40 | 45.60032 | 9.48110 | 106° | 9km/h | 21064m | -35.9m/s | -53.8°C | 4.3% | 0hPa | 2.5V | 00:00:00 | 00:00:00 | 00:00:00 | |
| IW2NTF | 2026-09-05 00:57:38 | 45.60042 | 9.48081 | 124° | 7km/h | 21364m | -37.7m/s | -53.4°C | 4.1% | 0hPa | 2.5V | 08:26:28 | 02:23:49 | 00:00:00 | |
| RDZBGO | 2026-09-05 00:57:36 | 45.60036 | 9.48096 | 106° | 13km/h | 21173m | -40.0m/s | -53.5°C | 1.4% | 0hPa | 2.5V | 00:00:00 | 00:00:00 | 00:00:00 | |
| DO3MHA-11 | 2026-09-05 00:57:34 | 45.60040 | 9.48086 | 121° | 9km/h | 21290m | -38.3m/s | -53.4°C | 4.2% | 0hPa | 2.5V | 00:00:00 | 02:23:51 | 00:00:00 | |
| DB0UT-7 | 2026-09-05 00:57:30 | 45.60045 | 9.48078 | 157° | 7km/h | 21437m | -35.3m/s | -53.5°C | 4.2% | 0hPa | 2.5V | 00:00:00 | 00:00:00 | 00:00:00 | |
| NBG1-10 | 2026-09-05 00:57:29 | 45.60047 | 9.48076 | 133° | 7km/h | 21472m | -36.5m/s | -53.4°C | 4.2% | 0hPa | 2.5V | 00:00:00 | 02:23:46 | 00:00:00 | |
| IW2NTF | 2026-09-05 00:57:27 | 45.60062 | 9.48070 | 172° | 7km/h | 21737m | -39.2m/s | -52.2°C | 3.6% | 0hPa | 2.6V | 08:26:38 | 02:23:39 | 00:00:00 | |
| DO3MHA-11 | 2026-09-05 00:57:24 | 45.60058 | 9.48072 | 163° | 7km/h | 21660m | -38.8m/s | -52.4°C | 3.8% | 0hPa | 2.5V | 08:26:00 | 02:23:41 | 00:00:00 | |
| OE5DRO-10 | 2026-09-05 00:57:21 | 45.60063 | 9.48068 | 149° | 7km/h | 21776m | -39.0m/s | -52.3°C | 3.7% | 0hPa | 2.5V | 00:00:00 | 00:00:00 | 00:00:00 | |
| HARRO8 | 2026-09-05 00:57:19 | 45.60065 | 9.48065 | 104° | 4km/h | 21853m | -38.2m/s | -52.9°C | 1.1% | -1.0hPa | 2.5V | 00:00:00 | 00:00:00 | 00:00:00 | |
| IW2NTF | 2026-09-05 00:57:18 | 45.60070 | 9.48050 | 127° | 5km/h | 22126m | -40m/s | -53.6°C | 4.1% | 0hPa | 2.5V | 08:26:48 | 02:23:29 | 00:00:00 | |
| DO3MHA-11 | 2026-09-05 00:57:14 | 45.60068 | 9.48052 | 106° | 7km/h | 22049m | -39.3m/s | -53.6°C | 4.2% | 0hPa | 2.6V | 00:00:00 | 02:23:31 | 00:00:00 | |
| IW2NTF | 2026-09-05 00:57:08 | 45.60091 | 9.48036 | 164° | 9km/h | 22525m | -40.8m/s | -53.5°C | 4.2% | 0hPa | 2.6V | 08:26:58 | 02:23:19 | 00:00:00 | |
| DO3MHA-11 | 2026-09-05 00:57:04 | 45.60084 | 9.48037 | 175° | 9km/h | 22444m | -40.4m/s | -53.6°C | 4.3% | 0hPa | 2.6V | 00:00:00 | 02:23:21 | 00:00:00 | |
| OE5DRO-10 | 2026-09-05 00:57:02 | 45.60090 | 9.48036 | 165° | 5km/h | 22526m | -40.7m/s | -53.5°C | 4.2% | 0hPa | 2.6V | 00:00:00 | 00:00:00 | 00:00:00 | |
| HARRO8 | 2026-09-05 00:56:49 | 45.60105 | 9.48034 | 43° | 4km/h | 23101m | -46.1m/s | -53.4°C | 1.3% | -1.0hPa | 2.6V | 00:00:00 | 00:00:00 | 00:00:00 | |
| IW2NTF | 2026-09-05 00:56:46 | 45.60100 | 9.48037 | 344° | 9km/h | 23332m | -46.5m/s | -53.6°C | 4.4% | 0hPa | 2.6V | 08:27:17 | 02:23:00 | 00:00:00 | |
| OE5DRO-10 | 2026-09-05 00:56:43 | 45.60100 | 9.48037 | 345° | 11km/h | 23332m | -46.4m/s | -53.6°C | 4.4% | 0hPa | 2.6V | 00:00:00 | 00:00:00 | 00:00:00 | |
| IW2NTF | 2026-09-05 00:56:34 | 45.60068 | 9.48034 | 38° | 13km/h | 23766m | -44.1m/s | -52.3°C | 4.1% | 0hPa | 2.6V | 08:27:27 | 02:22:50 | 00:00:00 | |
| DB0UT-7 | 2026-09-05 00:56:30 | 45.60061 | 9.48025 | 34° | 5km/h | 23895m | -41.8m/s | -52.6°C | 4.3% | 0hPa | 2.5V | 00:00:00 | 00:00:00 | 00:00:00 | |
| RDZBGO | 2026-09-05 00:56:29 | 45.60060 | 9.48025 | 35° | 7km/h | 23895m | -41.9m/s | -52.7°C | 1.4% | 0hPa | 2.5V | 08:28:00 | 00:00:00 | 00:00:00 | |
| IW2NTF | 2026-09-05 00:56:24 | 45.60050 | 9.48017 | 350° | 5km/h | 24205m | -46.3m/s | -52.9°C | 4.5% | 0hPa | 2.5V | 08:30:00 | 02:22:40 | 00:00:00 | |
| OE5DRO-10 | 2026-09-05 00:56:24 | 45.60052 | 9.48017 | 356° | 7km/h | 24159m | -45.9m/s | -53.1°C | 4.6% | 0hPa | 2.5V | 00:00:00 | 00:00:00 | 00:00:00 | |
| NBG1-10 | 2026-09-05 00:56:23 | 45.60050 | 9.48017 | 351° | 5km/h | 24205m | -46.3m/s | -52.8°C | 4.5% | 0hPa | 2.5V | 00:00:00 | 02:22:40 | 00:00:00 | |
| HARRO8 | 2026-09-05 00:56:18 | 45.60043 | 9.48010 | 21° | 5km/h | 24493m | -50.6m/s | -50.9°C | 1.1% | -1.0hPa | 2.5V | 00:00:00 | 00:00:00 | 00:00:00 | |
| IN3HCDX | 2026-09-05 00:56:15 | 45.60042 | 9.48008 | 21° | 5km/h | 24544m | -52.0m/s | -50.7°C | 0% | 0hPa | 2.5V | 08:28:00 | 00:00:00 | 00:00:00 | |
| IW2NTF | 2026-09-05 00:56:14 | 45.60038 | 9.48003 | 35° | 7km/h | 24695m | -51m/s | -50.8°C | 3.6% | 0hPa | 2.5V | 08:30:00 | 02:22:30 | 00:00:00 | |
| RDZBGO | 2026-09-05 00:56:08 | 45.60033 | 9.47991 | 60° | 7km/h | 24891m | -49.4m/s | -50.9°C | 1.1% | 0hPa | 2.6V | 08:28:00 | 00:00:00 | 00:00:00 | |
| OE5DRO-10 | 2026-09-05 00:56:05 | 45.60033 | 9.47985 | 193° | 5km/h | 25081m | -47.2m/s | -51.2°C | 3.8% | 0hPa | 2.6V | 08:27:00 | 00:00:00 | 00:00:00 | |
| IW2NTF | 2026-09-05 00:56:04 | 45.60035 | 9.47986 | 196° | 0km/h | 25177m | -49.4m/s | -51.6°C | 4% | 0hPa | 2.6V | 08:30:00 | 02:22:20 | 00:00:00 | |
| DB0UT-7 | 2026-09-05 00:56:00 | 45.60034 | 9.47989 | 310° | 5km/h | 25324m | -49.4m/s | -52.1°C | 4.3% | 0hPa | 2.5V | 00:00:00 | 02:22:17 | 00:00:00 | |
| DO3MHA-11 | 2026-09-05 00:55:59 | 45.60033 | 9.47990 | 272° | 7km/h | 25373m | -48.7m/s | -52.2°C | 4.3% | 0hPa | 2.5V | 00:00:00 | 02:22:16 | 00:00:00 | |
| IW2NTF | 2026-09-05 00:55:54 | 45.60027 | 9.47990 | 49° | 5km/h | 25670m | -50.3m/s | -51.6°C | 4.3% | 0hPa | 2.5V | 08:30:00 | 02:22:10 | 00:00:00 | |
| NBG1-10 | 2026-09-05 00:55:50 | 45.60024 | 9.47982 | 62° | 7km/h | 25821m | -50.8m/s | -51.8°C | 4.6% | 0hPa | 2.5V | 00:00:00 | 02:22:07 | 00:00:00 | |
| DO3MHA-11 | 2026-09-05 00:55:49 | 45.60023 | 9.47979 | 59° | 5km/h | 25871m | -50.2m/s | -51.7°C | 4.5% | 0hPa | 2.5V | 00:00:00 | 02:22:06 | 00:00:00 | |
| RDZBGO | 2026-09-05 00:55:48 | 45.60023 | 9.47979 | 60° | 9km/h | 25871m | -50.3m/s | -51.7°C | 1.4% | 0hPa | 2.5V | 08:28:00 | 00:00:00 | 00:00:00 | |
| OE5DRO-10 | 2026-09-05 00:55:46 | 45.60021 | 9.47971 | 51° | 5km/h | 26023m | -51.8m/s | -51.2°C | 4.4% | 0hPa | 2.5V | 00:00:00 | 00:00:00 | 00:00:00 | |
| IW2NTF | 2026-09-05 00:55:45 | 45.60017 | 9.47968 | 358° | 7km/h | 26178m | -52m/s | -50°C | 4% | 0hPa | 2.5V | 08:30:00 | 02:22:00 | 00:00:00 | |
| DO3MHA-11 | 2026-09-05 00:55:39 | 45.60012 | 9.47969 | 14° | 5km/h | 26383m | -53.0m/s | -48.9°C | 3.7% | 0hPa | 2.5V | 00:00:00 | 02:21:56 | 00:00:00 | |
| IW2NTF | 2026-09-05 00:55:34 | 45.60003 | 9.47969 | 351° | 7km/h | 26760m | -55.3m/s | -48.1°C | 3.6% | 0hPa | 2.5V | 08:30:00 | 02:21:49 | 00:00:00 | |
| IN3HCDX | 2026-09-05 00:55:33 | 45.60007 | 9.47970 | 21° | 7km/h | 26653m | -55.1m/s | 0°C | 0% | 0hPa | 2.6V | 00:00:00 | 00:00:00 | 00:00:00 | |
| DB0UT-7 | 2026-09-05 00:55:30 | 45.60001 | 9.47968 | 9° | 9km/h | 26869m | -55.2m/s | -47.7°C | 3.5% | 0hPa | 2.6V | 00:00:00 | 00:00:00 | 00:00:00 | |
| DO3MHA-11 | 2026-09-05 00:55:29 | 45.60000 | 9.47968 | 28° | 5km/h | 26923m | -56.1m/s | -47.6°C | 3.5% | 0hPa | 2.6V | 00:00:00 | 02:21:46 | 00:00:00 | |
| OE5DRO-10 | 2026-09-05 00:55:27 | 45.59997 | 9.47967 | 325° | 9km/h | 27034m | -56.3m/s | -47.5°C | 3.5% | 0hPa | 2.6V | 00:00:00 | 00:00:00 | 00:00:00 | |
| RDZBGO | 2026-09-05 00:55:26 | 45.59997 | 9.47967 | 325° | 5km/h | 27034m | -56.4m/s | -47.6°C | 1.0% | 0hPa | 2.6V | 08:29:00 | 00:00:00 | 00:00:00 | |
| IW2NTF | 2026-09-05 00:55:24 | 45.59996 | 9.47963 | 104° | 9km/h | 27361m | -54.4m/s | -47.7°C | 3.8% | 0hPa | 2.6V | 08:30:00 | 02:21:38 | 00:00:00 | |
| S52SK | 2026-09-05 00:55:22 | 45.59995 | 9.47967 | 111° | 4km/h | 27252m | -55.7m/s | -47.4°C | 1.1% | 0hPa | 2.5V | 00:00:00 | 00:00:00 | 00:00:00 | |
| DO3MHA-11 | 2026-09-05 00:55:19 | 45.59999 | 9.47958 | 153° | 11km/h | 27469m | -55.0m/s | -47.6°C | 3.9% | 0hPa | 2.5V | 00:00:00 | 02:21:36 | 00:00:00 | |
| NBG1-10 | 2026-09-05 00:55:17 | 45.60004 | 9.47953 | 152° | 7km/h | 27579m | -56.3m/s | -47.0°C | 3.7% | 0hPa | 2.5V | 00:00:00 | 02:21:34 | 00:00:00 | |
| S52SK | 2026-09-05 00:55:16 | 45.60004 | 9.47953 | 152° | 11km/h | 27579m | -56.3m/s | -47.1°C | 1.1% | 0hPa | 2.5V | 00:00:00 | 00:00:00 | 00:00:00 | |
| IN3HCDX | 2026-09-05 00:55:12 | 45.60016 | 9.47942 | 136° | 13km/h | 27812m | -60.1m/s | 0°C | 0% | 0hPa | 2.5V | 00:00:00 | 00:00:00 | 00:00:00 | |
| IW2NTF | 2026-09-05 00:55:12 | 45.60020 | 9.47937 | 166° | 11km/h | 27930m | -59.7m/s | -45.3°C | 3.3% | 0hPa | 2.6V | 08:30:00 | 02:21:28 | 00:00:00 | |
| S52SK | 2026-09-05 00:55:10 | 45.60020 | 9.47937 | 168° | 11km/h | 27931m | -59.7m/s | -45.3°C | 0.9% | 0hPa | 2.5V | 00:00:00 | 00:00:00 | 00:00:00 | |
| OE5DRO-10 | 2026-09-05 00:55:08 | 45.60026 | 9.47931 | 98° | 7km/h | 28110m | -61.7m/s | -44.5°C | 3.1% | 0hPa | 2.5V | 00:00:00 | 00:00:00 | 00:00:00 | |
| DO3MHA-11 | 2026-09-05 00:55:07 | 45.60027 | 9.47929 | 120° | 7km/h | 28172m | -62.8m/s | -44.0°C | 3.0% | 0hPa | 2.5V | 00:00:00 | 02:21:24 | 00:00:00 | |
| S52SK | 2026-09-05 00:55:05 | 45.60027 | 9.47924 | 91° | 5km/h | 28297m | -63.9m/s | -43.5°C | 0.8% | 0hPa | 2.5V | 00:00:00 | 00:00:00 | 00:00:00 | |
| IW2NTF | 2026-09-05 00:55:00 | 45.60023 | 9.47907 | 59° | 11km/h | 28681m | -65m/s | -42.9°C | 2.7% | 0hPa | 2.5V | 08:30:00 | 02:21:16 | 00:00:00 | |
| DF7PN | 2026-09-05 00:54:58 | 45.60022 | 9.47904 | 61° | 7km/h | 28745m | -64.4m/s | -42.9°C | 0.7% | -1.0hPa | 2.6V | 00:00:00 | 00:00:00 | 00:00:00 | |
| DO3MHA-11 | 2026-09-05 00:54:57 | 45.60021 | 9.47901 | 75° | 5km/h | 28809m | -64.0m/s | -42.9°C | 2.7% | 0hPa | 2.6V | 08:29:00 | 02:21:14 | 00:00:00 | |
| PG1ADW-2 | 2026-09-05 00:54:55 | 45.60021 | 9.47897 | 120° | 7km/h | 28935m | -63.8m/s | -43.3°C | 2.9% | 0hPa | 2.5V | 08:29:00 | 00:00:00 | 00:00:00 | |
| IW2NTF | 2026-09-05 00:54:50 | 45.60029 | 9.47897 | 111° | 0km/h | 29396m | -69.5m/s | -42.2°C | 2.7% | 0hPa | 2.5V | 08:30:00 | 02:21:05 | 00:00:00 | |
| IN3HCDX | 2026-09-05 00:54:50 | 45.60026 | 9.47895 | 188° | 5km/h | 29194m | -67.8m/s | 0°C | 0% | 0hPa | 2.6V | 00:00:00 | 00:00:00 | 00:00:00 | |
| OE5DRO-10 | 2026-09-05 00:54:49 | 45.60028 | 9.47896 | 260° | 7km/h | 29328m | -67.8m/s | -42.2°C | 2.7% | 0hPa | 2.6V | 00:00:00 | 00:00:00 | 00:00:00 | |
| DO3MHA-11 | 2026-09-05 00:54:47 | 45.60029 | 9.47897 | 343° | 5km/h | 29465m | -70.1m/s | -42.3°C | 2.7% | 0hPa | 2.6V | 00:00:00 | 02:21:04 | 00:00:00 | |
| RDZBGO | 2026-09-05 00:54:45 | 45.60028 | 9.47897 | 30° | 4km/h | 29534m | -69.1m/s | -42.6°C | 0.8% | 0hPa | 2.6V | 00:00:00 | 00:00:00 | 00:00:00 | |
| NBG1-10 | 2026-09-05 00:54:44 | 45.60026 | 9.47896 | 38° | 7km/h | 29669m | -67.3m/s | -43.0°C | 3.0% | 0hPa | 2.6V | 00:00:00 | 02:21:01 | 00:00:00 | |
| IW2NTF | 2026-09-05 00:54:40 | 45.60034 | 9.47869 | 124° | 15km/h | 30343m | -71m/s | -41.8°C | 2.9% | 0hPa | 2.6V | 08:30:00 | 02:20:51 | 00:00:00 | |
| DO3MHA-11 | 2026-09-05 00:54:36 | 45.60030 | 9.47877 | 120° | 9km/h | 30202m | -71.8m/s | -42.2°C | 3.0% | 0hPa | 2.5V | 00:00:00 | 02:20:53 | 00:00:00 | |
| PG1ADW-2 | 2026-09-05 00:54:33 | 45.60036 | 9.47865 | 122° | 7km/h | 30413m | -70.8m/s | -41.5°C | 2.9% | 0hPa | 2.5V | 00:00:00 | 00:00:00 | 00:00:00 | |
| DB0UT-7 | 2026-09-05 00:54:30 | 45.60038 | 9.47856 | 87° | 9km/h | 30624m | -72.8m/s | -40.3°C | 2.6% | 0hPa | 2.5V | 00:00:00 | 00:00:00 | 00:00:00 | |
| IW2NTF | 2026-09-05 00:54:29 | 45.60035 | 9.47848 | 78° | 5km/h | 31062m | -76.2m/s | -38.5°C | 2.2% | 0hPa | 2.5V | 08:30:00 | 02:20:41 | 00:00:00 | |
| IN3HCDX | 2026-09-05 00:54:29 | 45.60038 | 9.47856 | 87° | 7km/h | 30624m | -72.9m/s | 0°C | 0% | 0hPa | 2.6V | 00:00:00 | 00:00:00 | 00:00:00 | |
| DO3MHA-11 | 2026-09-05 00:54:26 | 45.60037 | 9.47850 | 24° | 5km/h | 30915m | -74.7m/s | -39.1°C | 2.4% | 0hPa | 2.6V | 00:00:00 | 02:20:43 | 00:00:00 | |
| RDZBGO | 2026-09-05 00:54:24 | 45.60036 | 9.47849 | 22° | 2km/h | 30988m | -75.1m/s | -38.8°C | 0.6% | 0hPa | 2.5V | 00:00:00 | 00:00:00 | 00:00:00 | |
| IW2NTF | 2026-09-05 00:54:17 | 45.60051 | 9.47837 | 209° | 7km/h | 31964m | -78.1m/s | -37.4°C | 2.1% | 0hPa | 2.5V | 08:30:00 | 02:20:29 | 00:00:00 | |
| DO3MHA-11 | 2026-09-05 00:54:16 | 45.60043 | 9.47834 | 184° | 9km/h | 31662m | -76.2m/s | -38.3°C | 2.3% | 0hPa | 2.5V | 00:00:00 | 02:20:33 | 00:00:00 | |
| PG1ADW-2 | 2026-09-05 00:54:13 | 45.60049 | 9.47836 | 195° | 24km/h | 31888m | -77.2m/s | -37.2°C | 2.1% | 0hPa | 2.5V | 00:00:00 | 00:00:00 | 00:00:00 | |
| OE5DXL-15 | 2026-09-05 00:54:12 | 45.60051 | 9.47837 | 210° | 13km/h | 31965m | -78.0m/s | -37.4°C | 2.1% | 0hPa | 2.5V | 00:00:00 | 00:00:00 | 00:00:00 | |
| DL1ZP-14 | 2026-09-05 00:54:09 | 45.60058 | 9.47839 | 172° | 13km/h | 32203m | -81.6m/s | -38.2°C | 0.6% | -1.0hPa | 2.6V | 00:00:00 | 00:00:00 | 00:00:00 | |
| IW2NTF | 2026-09-05 00:54:07 | 45.60091 | 9.47841 | 195° | 20km/h | 32750m | -77m/s | -37.3°C | 2.2% | 0hPa | 2.5V | 08:30:00 | 02:20:19 | 00:00:00 | |
| DO3MHA-11 | 2026-09-05 00:54:05 | 45.60075 | 9.47837 | 182° | 35km/h | 32521m | -78.9m/s | -38.3°C | 2.4% | 0hPa | 2.6V | 00:00:00 | 02:20:22 | 00:00:00 | |
| RDZBGO | 2026-09-05 00:54:04 | 45.60080 | 9.47838 | 192° | 18km/h | 32599m | -77.5m/s | -38.0°C | 0.6% | 0hPa | 2.6V | 00:00:00 | 00:00:00 | 00:00:00 | |
| DB0UT-7 | 2026-09-05 00:54:00 | 45.60099 | 9.47847 | 223° | 26km/h | 32904m | -77.0m/s | -37.6°C | 2.2% | 0hPa | 2.6V | 00:00:00 | 02:20:17 | 00:00:00 | |
| IW2NTF | 2026-09-05 00:53:57 | 45.60118 | 9.47876 | 246° | 11km/h | 33513m | -74.1m/s | -36.1°C | 2% | 0hPa | 2.6V | 08:30:00 | 02:20:09 | 00:00:00 | |
| OE5DRO-10 | 2026-09-05 00:53:52 | 45.60118 | 9.47876 | 247° | 31km/h | 33514m | -74.1m/s | -36.1°C | 2.0% | 0hPa | 2.5V | 00:00:00 | 00:00:00 | 00:00:00 | |
| IW2NTF | 2026-09-05 00:53:47 | 45.60103 | 9.47946 | 303° | 44km/h | 34209m | -70m/s | -36°C | 1.9% | 0hPa | 2.5V | 08:30:00 | 02:19:59 | 00:00:00 | |
| RDZBGO | 2026-09-05 00:53:43 | 45.60114 | 9.47922 | 301° | 35km/h | 34078m | -66.5m/s | -35.7°C | 0.5% | 0hPa | 2.5V | 00:00:00 | 00:00:00 | 00:00:00 | |
| OE5DXL-15 | 2026-09-05 00:53:42 | 45.60103 | 9.47946 | 304° | 35km/h | 34210m | -69.9m/s | -35.9°C | 1.9% | 0hPa | 2.5V | 00:00:00 | 00:00:00 | 00:00:00 | |
| DM0DOS-11 | 2026-09-05 00:53:41 | 45.60062 | 9.48020 | 318° | 37km/h | 34541m | -41.8m/s | -37.1°C | 0% | 0hPa | 2.5V | 00:00:00 | 02:19:53 | 00:00:00 | |
| DL1ZP-14 | 2026-09-05 00:53:38 | 45.60076 | 9.47998 | 309° | 46km/h | 34450m | -50.4m/s | -37.0°C | 0.5% | -1.0hPa | 2.5V | 00:00:00 | 00:00:00 | 00:00:00 | |
| IW2NTF | 2026-09-05 00:53:37 | 45.60035 | 9.48042 | 338° | 29km/h | 34665m | -16.8m/s | -36.9°C | 2% | 0hPa | 2.6V | 08:30:00 | 02:19:49 | 00:00:00 | |
| NBG1-10 | 2026-09-05 00:53:37 | 45.60069 | 9.48010 | 313° | 35km/h | 34498m | -45.6m/s | -37.0°C | 2.0% | 0hPa | 2.7V | 00:00:00 | 02:19:54 | 00:00:00 | |
| OE5DRO-10 | 2026-09-05 00:53:33 | 45.60042 | 9.48038 | 336° | 33km/h | 34645m | -24.5m/s | -36.8°C | 2.0% | 0hPa | 2.7V | 00:00:00 | 00:00:00 | 00:00:00 | |
| IW2NTF | 2026-09-05 00:53:27 | 45.59980 | 9.48170 | 256° | 29km/h | 34636m | 5.8m/s | -37.2°C | 2.1% | 0hPa | 2.7V | 08:30:00 | 02:19:39 | 00:00:00 | |
| DM0DOS-11 | 2026-09-05 00:53:23 | 45.59982 | 9.48178 | 243° | 18km/h | 34629m | 6.8m/s | -37.3°C | 0% | 0hPa | 2.7V | 00:00:00 | 02:19:38 | 00:00:00 | |
| RDZBGO | 2026-09-05 00:53:23 | 45.59978 | 9.48157 | 268° | 42km/h | 34641m | 4.8m/s | -37.1°C | 0.5% | 0hPa | 2.6V | 00:00:00 | 00:00:00 | 00:00:00 | |
| S52SK | 2026-09-05 00:53:20 | 45.59982 | 9.48178 | 244° | 18km/h | 34630m | 6.9m/s | -37.3°C | 0.6% | 0hPa | 2.6V | 00:00:00 | 00:00:00 | 00:00:00 | |
| IW2NTF | 2026-09-05 00:53:17 | 45.59964 | 9.48221 | 275° | 49km/h | 34576m | 6.9m/s | -37.6°C | 2.1% | 0hPa | 2.6V | 08:30:00 | 02:19:29 | 00:00:00 | |
| OE5DRO-10 | 2026-09-05 00:53:14 | 45.59969 | 9.48193 | 297° | 31km/h | 34590m | 6.4m/s | -37.6°C | 2.1% | 0hPa | 2.7V | 00:00:00 | 00:00:00 | 08:30:00 | |
| DM0DOS-11 | 2026-09-05 00:53:13 | 45.59964 | 9.48240 | 270° | 53km/h | 34569m | 5.7m/s | 0°C | 0% | 0hPa | 2.6V | 00:00:00 | 02:19:28 | 00:00:00 | |
| HARRO8 | 2026-09-05 00:53:11 | 45.59963 | 9.48240 | 270° | 53km/h | 34570m | 5.7m/s | -37.6°C | 0.5% | -1.0hPa | 2.6V | 00:00:00 | 00:00:00 | 00:00:00 | |
| IW2NTF | 2026-09-05 00:53:07 | 45.59953 | 9.48319 | 51° | 2km/h | 34519m | 5.2m/s | -37.6°C | 2.2% | 0hPa | 2.6V | 08:30:00 | 02:19:19 | 00:00:00 | |
| DL1ZP-14 | 2026-09-05 00:53:07 | 45.59962 | 9.48306 | 280° | 29km/h | 34549m | 6.0m/s | -37.6°C | 0.6% | -1.0hPa | 2.6V | 00:00:00 | 00:00:00 | 00:00:00 | |
| DO3MHA-11 | 2026-09-05 00:53:04 | 45.59956 | 9.48321 | 2° | 27km/h | 34530m | 5.9m/s | -37.5°C | 2.1% | 0hPa | 2.7V | 00:00:00 | 02:19:21 | 00:00:00 | |
| DM0DOS-11 | 2026-09-05 00:53:03 | 45.59954 | 9.48324 | 248° | 18km/h | 34507m | 5.7m/s | 0°C | 0% | 0hPa | 2.6V | 00:00:00 | 02:19:17 | 00:00:00 | |
| RDZBGO | 2026-09-05 00:53:02 | 45.59954 | 9.48320 | 29° | 7km/h | 34524m | 5.0m/s | -37.6°C | 0.6% | 0hPa | 2.7V | 00:00:00 | 00:00:00 | 00:00:00 | |
| DB0UT-7 | 2026-09-05 00:53:00 | 45.59955 | 9.48324 | 249° | 24km/h | 34508m | 5.6m/s | -37.5°C | 2.1% | 0hPa | 2.7V | 00:00:00 | 02:19:17 | 00:00:00 | |
| IW2NTF | 2026-09-05 00:52:57 | 45.59940 | 9.48425 | 300° | 22km/h | 34462m | 5.8m/s | -37.6°C | 2.2% | 0hPa | 2.7V | 08:30:00 | 02:19:09 | 00:00:00 | |
| DF7PN | 2026-09-05 00:52:54 | 45.59939 | 9.48432 | 146° | 7km/h | 34442m | 6.2m/s | -37.6°C | 0.5% | -1.0hPa | 2.6V | 00:00:00 | 00:00:00 | 00:00:00 | |
| IW2NTF | 2026-09-05 00:52:47 | 45.59925 | 9.48456 | 303° | 42km/h | 34402m | 5.2m/s | -37.5°C | 2.1% | 0hPa | 2.6V | 08:30:00 | 02:18:59 | 00:00:00 | |
| DO3MHA-11 | 2026-09-05 00:52:43 | 45.59931 | 9.48445 | 309° | 40km/h | 34408m | 6.1m/s | -37.4°C | 2.1% | 0hPa | 2.6V | 00:00:00 | 02:19:00 | 00:00:00 | |
| OE5DXL-15 | 2026-09-05 00:52:42 | 45.59925 | 9.48456 | 304° | 31km/h | 34402m | 5.2m/s | -37.4°C | 2.1% | 0hPa | 2.6V | 00:00:00 | 00:00:00 | 08:30:00 | |
| RDZBGO | 2026-09-05 00:52:41 | 45.59925 | 9.48456 | 304° | 42km/h | 34402m | 5.2m/s | -37.5°C | 0.6% | 0hPa | 2.7V | 00:00:00 | 00:00:00 | 00:00:00 | |
| HARRO8 | 2026-09-05 00:52:40 | 45.59916 | 9.48483 | 287° | 38km/h | 34392m | 5.5m/s | -37.4°C | 0.5% | -1.0hPa | 2.7V | 00:00:00 | 00:00:00 | 00:00:00 | |
| IW2NTF | 2026-09-05 00:52:37 | 45.59914 | 9.48503 | 8° | 26km/h | 34345m | 5.7m/s | -37.5°C | 2.1% | 0hPa | 2.7V | 08:30:00 | 02:18:49 | 00:00:00 | |
| DL1ZP-14 | 2026-09-05 00:52:36 | 45.59921 | 9.48512 | 123° | 7km/h | 34363m | 5.3m/s | -37.5°C | 0.5% | -1.0hPa | 2.6V | 00:00:00 | 00:00:00 | 00:00:00 | |
| DB0UT-7 | 2026-09-05 00:52:30 | 45.59898 | 9.48508 | 332° | 27km/h | 34335m | 5.0m/s | -37.4°C | 2.1% | 0hPa | 2.6V | 00:00:00 | 00:00:00 | 00:00:00 | |
| NBG1-10 | 2026-09-05 00:52:29 | 45.59890 | 9.48516 | 316° | 27km/h | 34330m | 5.0m/s | -37.4°C | 2.1% | 0hPa | 2.6V | 00:00:00 | 02:18:46 | 00:00:00 | |
| IW2NTF | 2026-09-05 00:52:27 | 45.59888 | 9.48561 | 91° | 16km/h | 34291m | 5.6m/s | -37.2°C | 2.1% | 0hPa | 2.7V | 08:30:00 | 02:18:39 | 00:00:00 | |
| RDZBGO | 2026-09-05 00:52:21 | 45.59887 | 9.48554 | 61° | 22km/h | 34286m | 5.4m/s | -37.2°C | 0.5% | 0hPa | 2.6V | 00:00:00 | 00:00:00 | 00:00:00 | |
| IW2NTF | 2026-09-05 00:52:17 | 45.59847 | 9.48609 | 238° | 27km/h | 34236m | 5.1m/s | -37°C | 2.1% | 0hPa | 2.6V | 08:30:00 | 02:18:29 | 00:00:00 | |
| OE5DRO-10 | 2026-09-05 00:52:17 | 45.59858 | 9.48549 | 330° | 27km/h | 34265m | 5.8m/s | -37.0°C | 2.1% | 0hPa | 2.6V | 00:00:00 | 00:00:00 | 00:00:00 | |
| HARRO8 | 2026-09-05 00:52:09 | 45.59856 | 9.48615 | 102° | 9km/h | 34219m | 6.4m/s | -37.0°C | 0.5% | -1.0hPa | 2.6V | 00:00:00 | 00:00:00 | 00:00:00 | |
| IW2NTF | 2026-09-05 00:52:06 | 45.59828 | 9.48644 | 256° | 31km/h | 34165m | 5.9m/s | -37°C | 2.1% | 0hPa | 2.6V | 08:30:00 | 02:18:17 | 00:00:00 | |
| DO3MHA-11 | 2026-09-05 00:52:06 | 45.59847 | 9.48602 | 15° | 20km/h | 34202m | 5.4m/s | -37.1°C | 2.1% | 0hPa | 2.7V | 00:00:00 | 02:18:23 | 08:30:00 | |
| DL1ZP-14 | 2026-09-05 00:52:05 | 45.59836 | 9.48605 | 325° | 26km/h | 34190m | 6.0m/s | -37.2°C | 0.6% | -1.0hPa | 2.6V | 00:00:00 | 00:00:00 | 00:00:00 | |
| DB0UT-7 | 2026-09-05 00:52:00 | 45.59828 | 9.48644 | 257° | 16km/h | 34166m | 5.8m/s | -37.0°C | 2.1% | 0hPa | 2.6V | 00:00:00 | 02:18:17 | 00:00:00 | |
| OE5DRO-10 | 2026-09-05 00:51:58 | 45.59833 | 9.48661 | 238° | 11km/h | 34155m | 5.3m/s | -36.9°C | 2.1% | 0hPa | 2.7V | 00:00:00 | 00:00:00 | 00:00:00 | |
| NBG1-10 | 2026-09-05 00:51:56 | 45.59837 | 9.48669 | 237° | 16km/h | 34143m | 6.3m/s | -36.9°C | 2.1% | 0hPa | 2.7V | 00:00:00 | 02:18:13 | 00:00:00 | |
| IW2NTF | 2026-09-05 00:51:51 | 45.59835 | 9.48675 | 234° | 5km/h | 34105m | 5.9m/s | -36.8°C | 2.1% | 0hPa | 2.7V | 08:30:00 | 02:18:07 | 00:00:00 | |
| S52SK | 2026-09-05 00:51:42 | 45.59848 | 9.48703 | 270° | 16km/h | 34066m | 6.3m/s | -36.8°C | 0.6% | 0hPa | 2.6V | 00:00:00 | 00:00:00 | 00:00:00 | |
| IW2NTF | 2026-09-05 00:51:40 | 45.59850 | 9.48719 | 237° | 13km/h | 34050m | 4.5m/s | -36.7°C | 2% | 0hPa | 2.6V | 08:30:00 | 02:17:57 | 00:00:00 | |
| OE5DRO-10 | 2026-09-05 00:51:39 | 45.59852 | 9.48722 | 207° | 24km/h | 34045m | 5.4m/s | -36.6°C | 2.0% | 0hPa | 2.6V | 00:00:00 | 00:00:00 | 00:00:00 | |
| S52SK | 2026-09-05 00:51:37 | 45.59857 | 9.48724 | 191° | 24km/h | 34039m | 6.9m/s | -36.6°C | 0% | 0hPa | 2.6V | 00:00:00 | 00:00:00 | 00:00:00 | |
| DL1ZP-14 | 2026-09-05 00:51:34 | 45.59897 | 9.48730 | 203° | 22km/h | 34012m | 5.5m/s | -36.7°C | 0.5% | -1.0hPa | 2.6V | 00:00:00 | 00:00:00 | 00:00:00 | |
| IW2NTF | 2026-09-05 00:51:30 | 45.59902 | 9.48745 | 290° | 18km/h | 33993m | 5.4m/s | -36.9°C | 2.1% | 0hPa | 2.6V | 08:30:00 | 02:17:47 | 00:00:00 | |
| DB0UT-7 | 2026-09-05 00:51:30 | 45.59902 | 9.48745 | 291° | 18km/h | 33993m | 5.3m/s | -36.8°C | 2.1% | 0hPa | 2.6V | 00:00:00 | 00:00:00 | 00:00:00 | |
| NBG1-10 | 2026-09-05 00:51:23 | 45.59920 | 9.48765 | 177° | 18km/h | 33956m | 4.6m/s | -36.8°C | 2.1% | 0hPa | 2.6V | 00:00:00 | 02:17:40 | 00:00:00 | |
| IW2NTF | 2026-09-05 00:51:20 | 45.59939 | 9.48767 | 209° | 16km/h | 33939m | 6.2m/s | -36.8°C | 2.1% | 0hPa | 2.6V | 08:30:00 | 02:17:37 | 00:00:00 | |
| OE5DRO-10 | 2026-09-05 00:51:20 | 45.59939 | 9.48767 | 210° | 15km/h | 33940m | 6.1m/s | -36.7°C | 2.1% | 0hPa | 2.6V | 00:00:00 | 00:00:00 | 00:00:00 | |
| IW2NTF | 2026-09-05 00:51:10 | 45.59968 | 9.48796 | 166° | 24km/h | 33882m | 5.5m/s | -36.4°C | 2% | 0hPa | 2.6V | 08:30:00 | 02:17:27 | 00:00:00 | |
| HARRO8 | 2026-09-05 00:51:07 | 45.59979 | 9.48794 | 267° | 4km/h | 33859m | 5.3m/s | -36.4°C | 0.5% | -1.0hPa | 2.6V | 00:00:00 | 00:00:00 | 00:00:00 | |
| DL1ZP-14 | 2026-09-05 00:51:03 | 45.59985 | 9.48805 | 202° | 20km/h | 33838m | 5.7m/s | -36.6°C | 0.5% | -1.0hPa | 2.6V | 00:00:00 | 00:00:00 | 00:00:00 | |
| OE5DRO-10 | 2026-09-05 00:51:01 | 45.59991 | 9.48807 | 192° | 22km/h | 33832m | 5.9m/s | -36.5°C | 2.0% | 0hPa | 2.7V | 00:00:00 | 00:00:00 | 00:00:00 | |
| IW2NTF | 2026-09-05 00:51:00 | 45.60006 | 9.48810 | 183° | 31km/h | 33821m | 4.6m/s | -36.6°C | 2% | 0hPa | 2.7V | 08:30:00 | 02:17:16 | 00:00:00 | |
| DB0UT-7 | 2026-09-05 00:51:00 | 45.59998 | 9.48809 | 187° | 20km/h | 33826m | 5.5m/s | -36.5°C | 2.0% | 0hPa | 2.6V | 00:00:00 | 02:17:17 | 00:00:00 | |
| RDZBGO | 2026-09-05 00:50:58 | 45.60014 | 9.48811 | 186° | 27km/h | 33817m | 4.1m/s | -36.6°C | 0.6% | 0hPa | 2.6V | 00:00:00 | 00:00:00 | 00:00:00 | |
| IW2NTF | 2026-09-05 00:50:50 | 45.60044 | 9.48840 | 200° | 33km/h | 33767m | 5.2m/s | -36.7°C | 2% | 0hPa | 2.6V | 08:30:00 | 02:17:06 | 00:00:00 | |
| NBG1-10 | 2026-09-05 00:50:50 | 45.60038 | 9.48836 | 207° | 22km/h | 33773m | 5.7m/s | -36.6°C | 2.0% | 0hPa | 2.6V | 00:00:00 | 02:17:07 | 00:00:00 | |
| OE5DRO-10 | 2026-09-05 00:50:42 | 45.60083 | 9.48864 | 234° | 16km/h | 33731m | 4.9m/s | -36.7°C | 2.0% | 0hPa | 2.6V | 00:00:00 | 00:00:00 | 00:00:00 | |
| IW2NTF | 2026-09-05 00:50:40 | 45.60090 | 9.48871 | 203° | 16km/h | 33714m | 5.3m/s | -36.8°C | 2.1% | 0hPa | 2.6V | 08:30:00 | 02:16:56 | 00:00:00 | |
| HARRO8 | 2026-09-05 00:50:36 | 45.60107 | 9.48885 | 220° | 20km/h | 33693m | 6.1m/s | -36.8°C | 0.5% | -1.0hPa | 2.6V | 00:00:00 | 00:00:00 | 00:00:00 | |
| DL1ZP-14 | 2026-09-05 00:50:32 | 45.60122 | 9.48902 | 207° | 18km/h | 33671m | 6.1m/s | -36.9°C | 0.5% | -1.0hPa | 2.6V | 00:00:00 | 00:00:00 | 00:00:00 | |
| IW2NTF | 2026-09-05 00:50:30 | 45.60131 | 9.48907 | 198° | 18km/h | 33660m | 4.6m/s | -37°C | 2.1% | 0hPa | 2.6V | 08:30:00 | 02:16:46 | 00:00:00 | |
| DB0UT-7 | 2026-09-05 00:50:30 | 45.60127 | 9.48905 | 201° | 29km/h | 33665m | 5.4m/s | -36.9°C | 2.1% | 0hPa | 2.6V | 00:00:00 | 00:00:00 | 00:00:00 | |
| OE5DRO-10 | 2026-09-05 00:50:23 | 45.60145 | 9.48934 | 244° | 33km/h | 33629m | 4.0m/s | -37.2°C | 2.1% | 0hPa | 2.6V | 00:00:00 | 00:00:00 | 08:30:00 | |
| IW2NTF | 2026-09-05 00:50:20 | 45.60172 | 9.48961 | 198° | 44km/h | 33606m | 5.6m/s | -37.4°C | 2.1% | 0hPa | 2.6V | 08:30:00 | 02:16:36 | 00:00:00 | |
| NBG1-10 | 2026-09-05 00:50:17 | 45.60192 | 9.48969 | 198° | 33km/h | 33597m | 4.0m/s | -37.4°C | 2.1% | 0hPa | 2.7V | 00:00:00 | 02:16:34 | 00:00:00 | |
| RDZBGO | 2026-09-05 00:50:15 | 45.60201 | 9.48974 | 205° | 31km/h | 33592m | 5.5m/s | -37.5°C | 0.6% | 0hPa | 2.7V | 00:00:00 | 00:00:00 | 00:00:00 | |
| IW2NTF | 2026-09-05 00:50:10 | 45.60226 | 9.49014 | 206° | 31km/h | 33555m | 5.9m/s | -37.5°C | 2.2% | 0hPa | 2.7V | 08:30:00 | 02:16:26 | 00:00:00 | |
| HARRO8 | 2026-09-05 00:50:05 | 45.60277 | 9.49040 | 204° | 38km/h | 33528m | 5.4m/s | -37.5°C | 0.6% | -1.0hPa | 2.6V | 00:00:00 | 00:00:00 | 00:00:00 | |
| OE5DRO-10 | 2026-09-05 00:50:04 | 45.60277 | 9.49040 | 205° | 33km/h | 33528m | 5.3m/s | -37.4°C | 2.2% | 0hPa | 2.6V | 00:00:00 | 00:00:00 | 00:00:00 | |
| IW2NTF | 2026-09-05 00:50:00 | 45.60310 | 9.49062 | 193° | 26km/h | 33501m | 5.7m/s | -37.4°C | 2.1% | 0hPa | 2.6V | 08:30:00 | 02:16:16 | 00:00:00 | |
| DB0UT-7 | 2026-09-05 00:50:00 | 45.60304 | 9.49059 | 201° | 33km/h | 33508m | 5.4m/s | -37.3°C | 2.1% | 0hPa | 2.6V | 00:00:00 | 02:16:17 | 00:00:00 | |
| RDZBGO | 2026-09-05 00:49:54 | 45.60339 | 9.49072 | 203° | 33km/h | 33481m | 5.4m/s | -37.4°C | 0.6% | 0hPa | 2.6V | 00:00:00 | 00:00:00 | 00:00:00 | |
| PG1ADW-2 | 2026-09-05 00:49:53 | 45.60354 | 9.49083 | 212° | 31km/h | 33469m | 5.1m/s | -37.3°C | 2.1% | 0hPa | 2.6V | 00:00:00 | 02:16:10 | 00:00:00 | |
| IW2NTF | 2026-09-05 00:49:50 | 45.60389 | 9.49100 | 182° | 40km/h | 33448m | 6.1m/s | -37.4°C | 2.1% | 0hPa | 2.6V | 08:30:00 | 02:16:06 | 00:00:00 | |
| S52SK | 2026-09-05 00:49:50 | 45.60370 | 9.49094 | 201° | 37km/h | 33460m | 4.8m/s | -37.4°C | 0% | 0hPa | 2.6V | 00:00:00 | 00:00:00 | 00:00:00 | |
| OE5DRO-10 | 2026-09-05 00:49:45 | 45.60426 | 9.49096 | 184° | 31km/h | 33428m | 5.9m/s | -37.4°C | 2.1% | 0hPa | 2.6V | 00:00:00 | 00:00:00 | 00:00:00 | |
| NBG1-10 | 2026-09-05 00:49:44 | 45.60433 | 9.49098 | 198° | 27km/h | 33423m | 5.9m/s | -37.4°C | 2.1% | 0hPa | 2.6V | 00:00:00 | 02:16:01 | 00:00:00 | |
| IW2NTF | 2026-09-05 00:49:41 | 45.60466 | 9.49128 | 201° | 38km/h | 33396m | 6m/s | -37.4°C | 2.1% | 0hPa | 2.6V | 08:30:00 | 02:15:56 | 00:00:00 | |
| S52SK | 2026-09-05 00:49:38 | 45.60466 | 9.49128 | 202° | 38km/h | 33396m | 6.0m/s | -37.4°C | 0% | 0hPa | 2.6V | 00:00:00 | 00:00:00 | 00:00:00 | |
| S52SK | 2026-09-05 00:49:33 | 45.60515 | 9.49134 | 179° | 29km/h | 33368m | 6.1m/s | -37.4°C | 0% | 0hPa | 2.6V | 00:00:00 | 00:00:00 | 00:00:00 | |
| IW2NTF | 2026-09-05 00:49:30 | 45.60542 | 9.49137 | 192° | 26km/h | 33340m | 5.5m/s | -37.4°C | 2.1% | 0hPa | 2.6V | 08:30:00 | 02:15:46 | 00:00:00 | |
| DB0UT-7 | 2026-09-05 00:49:30 | 45.60536 | 9.49136 | 189° | 27km/h | 33347m | 5.8m/s | -37.3°C | 2.1% | 0hPa | 2.6V | 00:00:00 | 00:00:00 | 00:00:00 | |
| DL1ZP-14 | 2026-09-05 00:49:29 | 45.60542 | 9.49137 | 192° | 24km/h | 33341m | 5.6m/s | -37.4°C | 0.6% | -1.0hPa | 2.6V | 00:00:00 | 00:00:00 | 00:00:00 | |
| OE5DRO-10 | 2026-09-05 00:49:26 | 45.60565 | 9.49148 | 207° | 29km/h | 33325m | 5.2m/s | -37.3°C | 2.1% | 0hPa | 2.6V | 00:00:00 | 00:00:00 | 00:00:00 | |
| OE5DXL-15 | 2026-09-05 00:49:17 | 45.60626 | 9.49177 | 174° | 27km/h | 33276m | 4.2m/s | -37.4°C | 2.1% | 0hPa | 2.6V | 00:00:00 | 00:00:00 | 00:00:00 | |
| RDZBGO | 2026-09-05 00:49:13 | 45.60638 | 9.49182 | 233° | 18km/h | 33259m | 6.0m/s | -37.5°C | 0.6% | 0hPa | 2.6V | 00:00:00 | 00:00:00 | 00:00:00 | |
| NBG1-10 | 2026-09-05 00:49:11 | 45.60649 | 9.49203 | 222° | 31km/h | 33245m | 4.7m/s | -37.6°C | 2.2% | 0hPa | 2.6V | 00:00:00 | 02:15:28 | 08:30:00 | |
| IW2NTF | 2026-09-05 00:49:09 | 45.60704 | 9.49204 | 154° | 15km/h | 33210m | 5.4m/s | -37.6°C | 2.2% | 0hPa | 2.6V | 08:30:00 | 02:15:21 | 00:00:00 | |
| OE5DRO-10 | 2026-09-05 00:49:07 | 45.60684 | 9.49215 | 168° | 27km/h | 33224m | 4.6m/s | -37.6°C | 2.2% | 0hPa | 2.6V | 00:00:00 | 00:00:00 | 00:00:00 | |
| HARRO8 | 2026-09-05 00:49:02 | 45.60707 | 9.49206 | 256° | 11km/h | 33199m | 5.7m/s | -37.6°C | 0.6% | -1.0hPa | 2.6V | 00:00:00 | 00:00:00 | 00:00:00 | |
| IW2NTF | 2026-09-05 00:48:59 | 45.60762 | 9.49247 | 155° | 38km/h | 33158m | 4.6m/s | -37.6°C | 2.1% | 0hPa | 2.6V | 08:30:00 | 02:15:11 | 00:00:00 | |
| DL1ZP-14 | 2026-09-05 00:48:59 | 45.60722 | 9.49241 | 217° | 40km/h | 33180m | 5.2m/s | -37.6°C | 0.5% | -1.0hPa | 2.6V | 00:00:00 | 00:00:00 | 00:00:00 | |
| RDZBGO | 2026-09-05 00:48:53 | 45.60770 | 9.49241 | 145° | 31km/h | 33154m | 4.4m/s | -37.6°C | 0.6% | 0hPa | 2.6V | 00:00:00 | 00:00:00 | 00:00:00 | |
| IW2NTF | 2026-09-05 00:48:49 | 45.60794 | 9.49280 | 197° | 35km/h | 33107m | 5.9m/s | -37.9°C | 2.1% | 0hPa | 2.6V | 08:30:00 | 02:15:01 | 00:00:00 | |
| DF7PN | 2026-09-05 00:48:46 | 45.60786 | 9.49274 | 216° | 35km/h | 33113m | 4.9m/s | -37.8°C | 0.5% | -1.0hPa | 2.6V | 00:00:00 | 00:00:00 | 00:00:00 | |
| IW2NTF | 2026-09-05 00:48:39 | 45.60840 | 9.49280 | 235° | 24km/h | 33051m | 5.2m/s | -38.2°C | 2.1% | 0hPa | 2.6V | 08:30:00 | 02:14:51 | 00:00:00 | |
| PG1ADW-2 | 2026-09-05 00:48:39 | 45.60830 | 9.49265 | 144° | 18km/h | 33080m | 5.3m/s | -37.9°C | 2.1% | 0hPa | 2.7V | 00:00:00 | 00:00:00 | 00:00:00 | |
| NBG1-10 | 2026-09-05 00:48:38 | 45.60832 | 9.49263 | 167° | 22km/h | 33074m | 5.8m/s | -37.9°C | 2.1% | 0hPa | 2.7V | 00:00:00 | 02:14:55 | 00:00:00 | |
| HARRO8 | 2026-09-05 00:48:32 | 45.60853 | 9.49296 | 204° | 22km/h | 33036m | 5.1m/s | -38.2°C | 0.6% | -1.0hPa | 2.7V | 00:00:00 | 00:00:00 | 00:00:00 | |
| DB0UT-7 | 2026-09-05 00:48:30 | 45.60858 | 9.49299 | 191° | 24km/h | 33031m | 5.8m/s | -38.2°C | 2.1% | 0hPa | 2.7V | 00:00:00 | 00:00:00 | 00:00:00 | |
| IW2NTF | 2026-09-05 00:48:29 | 45.60885 | 9.49300 | 198° | 26km/h | 32998m | 5.7m/s | -38.6°C | 2.2% | 0hPa | 2.7V | 08:30:00 | 02:14:41 | 00:00:00 | |
| OE5DRO-10 | 2026-09-05 00:48:29 | 45.60863 | 9.49299 | 178° | 24km/h | 33025m | 5.7m/s | -38.2°C | 2.1% | 0hPa | 2.5V | 00:00:00 | 00:00:00 | 00:00:00 | |
| DL1ZP-14 | 2026-09-05 00:48:27 | 45.60871 | 9.49298 | 170° | 15km/h | 33015m | 4.5m/s | -38.4°C | 0.5% | -1.0hPa | 2.6V | 00:00:00 | 00:00:00 | 00:00:00 | |
| IW2NTF | 2026-09-05 00:48:20 | 45.60941 | 9.49312 | 179° | 33km/h | 32946m | 4.9m/s | -39.1°C | 2.2% | 0hPa | 2.6V | 08:30:00 | 02:14:31 | 00:00:00 | |
| OE5DXL-15 | 2026-09-05 00:48:17 | 45.60921 | 9.49317 | 165° | 24km/h | 32962m | 5.1m/s | -39.0°C | 2.2% | 0hPa | 2.7V | 00:00:00 | 00:00:00 | 00:00:00 | |
| DF7PN | 2026-09-05 00:48:15 | 45.60941 | 9.49312 | 179° | 31km/h | 32946m | 4.9m/s | -39.1°C | 0.6% | -1.0hPa | 2.7V | 00:00:00 | 00:00:00 | 00:00:00 | |
| RDZBGO | 2026-09-05 00:48:11 | 45.60957 | 9.49316 | 202° | 33km/h | 32937m | 4.8m/s | -39.2°C | 0.6% | 0hPa | 2.7V | 00:00:00 | 00:00:00 | 00:00:00 | |
| OE5DRO-10 | 2026-09-05 00:48:10 | 45.60970 | 9.49327 | 222° | 20km/h | 32926m | 5.8m/s | -39.1°C | 2.3% | 0hPa | 2.7V | 00:00:00 | 00:00:00 | 00:00:00 | |
| IW2NTF | 2026-09-05 00:48:08 | 45.60992 | 9.49330 | 149° | 29km/h | 32895m | 5m/s | -39.2°C | 2.3% | 0hPa | 2.7V | 08:30:00 | 02:14:21 | 00:00:00 | |
| S52SK | 2026-09-05 00:48:02 | 45.60999 | 9.49325 | 158° | 35km/h | 32890m | 4.9m/s | -39.3°C | 0% | 0hPa | 2.5V | 00:00:00 | 00:00:00 | 00:00:00 | |
| HARRO8 | 2026-09-05 00:48:00 | 45.61037 | 9.49331 | 148° | 26km/h | 32829m | 4.9m/s | -39.2°C | 0.6% | -1.0hPa | 2.5V | 00:00:00 | 00:00:00 | 00:00:00 | |
| IW2NTF | 2026-09-05 00:47:58 | 45.61029 | 9.49345 | 69° | 7km/h | 32843m | 4.7m/s | -39.2°C | 2.3% | 0hPa | 2.5V | 08:30:00 | 02:14:11 | 00:00:00 | |
| DL1ZP-14 | 2026-09-05 00:47:56 | 45.61032 | 9.49344 | 299° | 13km/h | 32853m | 4.7m/s | -39.2°C | 0.6% | -1.0hPa | 2.7V | 00:00:00 | 00:00:00 | 00:00:00 | |
| OE5DRO-10 | 2026-09-05 00:47:51 | 45.61037 | 9.49331 | 149° | 16km/h | 32829m | 4.9m/s | -39.2°C | 2.3% | 0hPa | 2.6V | 00:00:00 | 00:00:00 | 00:00:00 | |
| RDZBGO | 2026-09-05 00:47:50 | 45.61037 | 9.49331 | 150° | 27km/h | 32829m | 4.9m/s | -39.2°C | 0.6% | 0hPa | 2.6V | 00:00:00 | 00:00:00 | 00:00:00 | |
| IW2NTF | 2026-09-05 00:47:48 | 45.61063 | 9.49345 | 310° | 15km/h | 32793m | 4.6m/s | -39°C | 2.3% | 0hPa | 2.6V | 08:30:00 | 02:14:01 | 00:00:00 | |
| OE5DXL-15 | 2026-09-05 00:47:47 | 45.61062 | 9.49329 | 220° | 15km/h | 32809m | 5.4m/s | -39.1°C | 2.3% | 0hPa | 2.6V | 00:00:00 | 00:00:00 | 00:00:00 | |
| NBG1-10 | 2026-09-05 00:47:43 | 45.61060 | 9.49347 | 335° | 15km/h | 32789m | 4.4m/s | -38.9°C | 2.3% | 0hPa | 2.6V | 00:00:00 | 02:14:00 | 00:00:00 | |
| IW2NTF | 2026-09-05 00:47:38 | 45.61078 | 9.49340 | 240° | 9km/h | 32743m | 4.8m/s | -38.9°C | 2.2% | 0hPa | 2.6V | 08:30:00 | 02:13:51 | 00:00:00 | |
| OE5DRO-10 | 2026-09-05 00:47:32 | 45.61079 | 9.49345 | 279° | 15km/h | 32734m | 5.1m/s | -38.8°C | 2.2% | 0hPa | 2.6V | 00:00:00 | 00:00:00 | 08:30:00 | |
| DB0UT-7 | 2026-09-05 00:47:30 | 45.61079 | 9.49347 | 207° | 18km/h | 32724m | 4.4m/s | -38.9°C | 2.2% | 0hPa | 2.6V | 00:00:00 | 00:00:00 | 00:00:00 | |
| DO3MHA-11 | 2026-09-05 00:47:29 | 45.61081 | 9.49348 | 194° | 13km/h | 32720m | 4.6m/s | -38.9°C | 2.2% | 0hPa | 2.6V | 00:00:00 | 02:13:46 | 00:00:00 | |
| IW2NTF | 2026-09-05 00:47:28 | 45.61098 | 9.49363 | 235° | 15km/h | 32696m | 4.5m/s | -39°C | 2.2% | 0hPa | 2.6V | 08:30:00 | 02:13:41 | 00:00:00 | |
| DL1ZP-14 | 2026-09-05 00:47:25 | 45.61095 | 9.49359 | 221° | 16km/h | 32700m | 4.4m/s | -39.0°C | 0.6% | -1.0hPa | 2.6V | 00:00:00 | 00:00:00 | 00:00:00 | |
| IW2NTF | 2026-09-05 00:47:19 | 45.61123 | 9.49360 | 213° | 35km/h | 32647m | 5.3m/s | -39.7°C | 2.2% | 0hPa | 2.7V | 08:30:00 | 02:13:31 | 00:00:00 | |
| DO3MHA-11 | 2026-09-05 00:47:17 | 45.61102 | 9.49354 | 159° | 15km/h | 32663m | 4.6m/s | -39.3°C | 2.2% | 0hPa | 2.6V | 00:00:00 | 02:13:34 | 00:00:00 | |
| OE5DXL-15 | 2026-09-05 00:47:16 | 45.61108 | 9.49353 | 181° | 26km/h | 32658m | 5.0m/s | -39.4°C | 2.2% | 0hPa | 2.6V | 00:00:00 | 00:00:00 | 00:00:00 | |
| OE5DRO-10 | 2026-09-05 00:47:13 | 45.61129 | 9.49368 | 227° | 24km/h | 32643m | 5.0m/s | -39.7°C | 2.2% | 0hPa | 2.6V | 00:00:00 | 00:00:00 | 00:00:00 | |
| DF7PN | 2026-09-05 00:47:12 | 45.61134 | 9.49377 | 238° | 29km/h | 32638m | 4.2m/s | -39.9°C | -1.0% | -1.0hPa | 2.6V | 00:00:00 | 00:00:00 | 00:00:00 | |
| NBG1-10 | 2026-09-05 00:47:10 | 45.61139 | 9.49392 | 254° | 18km/h | 32630m | 4.4m/s | -40.1°C | 2.3% | 0hPa | 2.6V | 00:00:00 | 02:13:27 | 00:00:00 | |
| IW2NTF | 2026-09-05 00:47:09 | 45.61156 | 9.49368 | 155° | 27km/h | 32598m | 4.5m/s | -40.8°C | 2.5% | 0hPa | 2.5V | 08:30:00 | 02:13:21 | 00:00:00 | |
| RDZBGO | 2026-09-05 00:47:08 | 45.61140 | 9.49395 | 228° | 4km/h | 32625m | 5.5m/s | -40.3°C | 0.6% | 0hPa | 2.6V | 00:00:00 | 00:00:00 | 00:00:00 | |
| DO3MHA-11 | 2026-09-05 00:47:06 | 45.61145 | 9.49381 | 126° | 26km/h | 32607m | 4.7m/s | -40.6°C | 2.4% | 0hPa | 2.6V | 00:00:00 | 02:13:23 | 00:00:00 | |
| HARRO8 | 2026-09-05 00:46:58 | 45.61189 | 9.49392 | 222° | 20km/h | 32567m | 4.4m/s | -40.8°C | 0.7% | -1.0hPa | 2.7V | 00:00:00 | 00:00:00 | 00:00:00 | |
| IW2NTF | 2026-09-05 00:46:57 | 45.61206 | 9.49386 | 133° | 27km/h | 32546m | 5.1m/s | -40.8°C | 2.4% | 0hPa | 2.7V | 08:30:00 | 02:13:11 | 00:00:00 | |
| OE5DRO-10 | 2026-09-05 00:46:54 | 45.61206 | 9.49386 | 134° | 15km/h | 32546m | 5.1m/s | -40.8°C | 2.4% | 0hPa | 2.5V | 00:00:00 | 00:00:00 | 00:00:00 | |
| DO3MHA-11 | 2026-09-05 00:46:53 | 45.61211 | 9.49378 | 134° | 13km/h | 32541m | 5.4m/s | -40.8°C | 2.4% | 0hPa | 2.5V | 00:00:00 | 02:13:10 | 00:00:00 | |
| IW2NTF | 2026-09-05 00:46:47 | 45.61242 | 9.49367 | 177° | 5km/h | 32493m | 4.7m/s | -41°C | 2.5% | 0hPa | 2.5V | 08:30:00 | 02:13:01 | 00:00:00 | |
| OE5DXL-15 | 2026-09-05 00:46:46 | 45.61239 | 9.49365 | 211° | 13km/h | 32504m | 5.5m/s | -40.9°C | 2.5% | 0hPa | 2.7V | 00:00:00 | 00:00:00 | 00:00:00 | |
| DO3MHA-11 | 2026-09-05 00:46:38 | 45.61257 | 9.49359 | 129° | 11km/h | 32462m | 6.1m/s | -40.9°C | 2.5% | 0hPa | 2.6V | 00:00:00 | 02:12:55 | 00:00:00 | |
| NBG1-10 | 2026-09-05 00:46:37 | 45.61258 | 9.49354 | 112° | 16km/h | 32456m | 5.7m/s | -40.9°C | 2.5% | 0hPa | 2.6V | 00:00:00 | 02:12:54 | 00:00:00 | |
| IW2NTF | 2026-09-05 00:46:36 | 45.61259 | 9.49343 | 42° | 4km/h | 32441m | 5.1m/s | -40.9°C | 2.5% | 0hPa | 2.6V | 08:30:00 | 02:12:51 | 00:00:00 | |
| OE5DRO-10 | 2026-09-05 00:46:35 | 45.61260 | 9.49345 | 85° | 13km/h | 32447m | 4.1m/s | -40.9°C | 2.5% | 0hPa | 2.6V | 00:00:00 | 00:00:00 | 00:00:00 | |
| PG1ADW-2 | 2026-09-05 00:46:33 | 45.61259 | 9.49344 | 297° | 13km/h | 32436m | 6.6m/s | -40.9°C | 2.5% | 0hPa | 2.7V | 00:00:00 | 00:00:00 | 00:00:00 | |
| DB0UT-7 | 2026-09-05 00:46:30 | 45.61256 | 9.49360 | 280° | 18km/h | 32420m | 3.9m/s | -40.8°C | 2.5% | 0hPa | 2.6V | 00:00:00 | 00:00:00 | 00:00:00 | |
| HARRO8 | 2026-09-05 00:46:27 | 45.61253 | 9.49368 | 44° | 7km/h | 32404m | 5.9m/s | -40.8°C | 0.7% | -1.0hPa | 2.6V | 00:00:00 | 00:00:00 | 00:00:00 | |
| IW2NTF | 2026-09-05 00:46:26 | 45.61251 | 9.49353 | 93° | 16km/h | 32387m | 5.6m/s | -40.9°C | 2.5% | 0hPa | 2.6V | 08:30:00 | 02:12:41 | 00:00:00 | |
| DO3MHA-11 | 2026-09-05 00:46:26 | 45.61252 | 9.49364 | 72° | 15km/h | 32398m | 5.6m/s | -40.8°C | 2.5% | 0hPa | 2.7V | 00:00:00 | 02:12:43 | 00:00:00 | |
| DL1ZP-14 | 2026-09-05 00:46:23 | 45.61253 | 9.49343 | 114° | 7km/h | 32377m | 4.5m/s | -40.8°C | 0.7% | -1.0hPa | 2.6V | 00:00:00 | 00:00:00 | 00:00:00 | |
| IW2NTF | 2026-09-05 00:46:16 | 45.61230 | 9.49376 | 310° | 20km/h | 32334m | 3.7m/s | -40.8°C | 2.5% | 0hPa | 2.6V | 08:30:00 | 02:12:31 | 00:00:00 | |
| DO3MHA-11 | 2026-09-05 00:46:16 | 45.61238 | 9.49362 | 312° | 29km/h | 32345m | 5.5m/s | -40.7°C | 2.5% | 0hPa | 2.7V | 00:00:00 | 02:12:33 | 00:00:00 | |
| OE5DXL-15 | 2026-09-05 00:46:13 | 45.61226 | 9.49380 | 332° | 22km/h | 32331m | 3.4m/s | -40.8°C | 2.5% | 0hPa | 2.7V | 00:00:00 | 00:00:00 | 00:00:00 | |
| IW2NTF | 2026-09-05 00:46:07 | 45.61206 | 9.49330 | 295° | 18km/h | 32284m | 6.4m/s | -40.7°C | 2.5% | 0hPa | 2.7V | 08:30:00 | 02:12:21 | 00:00:00 | |
| DO3MHA-11 | 2026-09-05 00:46:06 | 45.61210 | 9.49329 | 60° | 24km/h | 32297m | 4.9m/s | -40.7°C | 2.4% | 0hPa | 2.6V | 00:00:00 | 02:12:23 | 00:00:00 | |
| NBG1-10 | 2026-09-05 00:46:04 | 45.61206 | 9.49330 | 296° | 20km/h | 32285m | 6.4m/s | -40.6°C | 2.5% | 0hPa | 2.6V | 00:00:00 | 02:12:21 | 00:00:00 | |
| S52SK | 2026-09-05 00:46:02 | 45.61204 | 9.49338 | 295° | 27km/h | 32279m | 5.8m/s | -40.7°C | 0% | 0hPa | 2.6V | 00:00:00 | 00:00:00 | 00:00:00 | |
| DB0UT-7 | 2026-09-05 00:46:00 | 45.61190 | 9.49364 | 326° | 18km/h | 32264m | 4.1m/s | -40.6°C | 2.5% | 0hPa | 2.6V | 00:00:00 | 02:12:17 | 00:00:00 | |
| OE5DRO-10 | 2026-09-05 00:45:57 | 45.61173 | 9.49366 | 33° | 20km/h | 32249m | 6.1m/s | -40.6°C | 2.5% | 0hPa | 2.6V | 00:00:00 | 00:00:00 | 00:00:00 | |
| IW2NTF | 2026-09-05 00:45:56 | 45.61162 | 9.49349 | 51° | 20km/h | 32233m | 4.2m/s | -40.6°C | 2.5% | 0hPa | 2.6V | 08:30:00 | 02:12:11 | 00:00:00 | |
| HARRO8 | 2026-09-05 00:45:56 | 45.61168 | 9.49361 | 49° | 22km/h | 32243m | 5.7m/s | -40.6°C | 0.7% | -1.0hPa | 2.7V | 00:00:00 | 00:00:00 | 00:00:00 | |
| DL1ZP-14 | 2026-09-05 00:45:52 | 45.61148 | 9.49341 | 352° | 26km/h | 32218m | 5.5m/s | -40.5°C | 0.6% | -1.0hPa | 2.7V | 00:00:00 | 00:00:00 | 00:00:00 | |
| IW2NTF | 2026-09-05 00:45:46 | 45.61110 | 9.49374 | 325° | 7km/h | 32181m | 4.7m/s | -40.4°C | 2.5% | 0hPa | 2.7V | 08:30:00 | 02:12:01 | 00:00:00 | |
| RDZBGO | 2026-09-05 00:45:46 | 45.61119 | 9.49361 | 321° | 27km/h | 32198m | 5.5m/s | -40.5°C | 0.7% | 0hPa | 2.6V | 00:00:00 | 00:00:00 | 00:00:00 | |
| DO3MHA-11 | 2026-09-05 00:45:44 | 45.61110 | 9.49373 | 326° | 11km/h | 32182m | 4.7m/s | -40.3°C | 2.5% | 0hPa | 2.6V | 00:00:00 | 02:12:01 | 00:00:00 | |
| OE5DXL-15 | 2026-09-05 00:45:40 | 45.61099 | 9.49373 | 9° | 11km/h | 32161m | 4.3m/s | -40.2°C | 2.4% | 0hPa | 2.6V | 00:00:00 | 00:00:00 | 00:00:00 | |
| OE5DRO-10 | 2026-09-05 00:45:38 | 45.61093 | 9.49373 | 348° | 9km/h | 32152m | 5.8m/s | -40.2°C | 2.4% | 0hPa | 2.6V | 00:00:00 | 00:00:00 | 00:00:00 | |
| IW2NTF | 2026-09-05 00:45:36 | 45.61077 | 9.49391 | 321° | 15km/h | 32119m | 4.3m/s | -40.2°C | 2.4% | 0hPa | 2.6V | 08:30:00 | 02:11:49 | 00:00:00 | |
| DO3MHA-11 | 2026-09-05 00:45:34 | 45.61083 | 9.49384 | 315° | 9km/h | 32130m | 5.8m/s | -40.1°C | 2.4% | 0hPa | 2.6V | 00:00:00 | 02:11:51 | 00:00:00 | |
| PG1ADW-2 | 2026-09-05 00:45:33 | 45.61080 | 9.49388 | 321° | 9km/h | 32124m | 5.1m/s | -40.1°C | 2.4% | 0hPa | 2.6V | 00:00:00 | 00:00:00 | 08:30:00 | |
| NBG1-10 | 2026-09-05 00:45:31 | 45.61075 | 9.49394 | 319° | 11km/h | 32115m | 4.7m/s | -40.1°C | 2.4% | 0hPa | 2.7V | 00:00:00 | 02:11:48 | 00:00:00 | |
| DB0UT-7 | 2026-09-05 00:45:30 | 45.61074 | 9.49396 | 291° | 11km/h | 32110m | 5.8m/s | -40.1°C | 2.4% | 0hPa | 2.5V | 00:00:00 | 00:00:00 | 00:00:00 | |
| RDZBGO | 2026-09-05 00:45:26 | 45.61080 | 9.49398 | 189° | 5km/h | 32089m | 5.3m/s | -40.1°C | 0.7% | 0hPa | 2.5V | 00:00:00 | 00:00:00 | 00:00:00 | |
| IW2NTF | 2026-09-05 00:45:25 | 45.61078 | 9.49403 | 291° | 7km/h | 32068m | 5.2m/s | -40.2°C | 2.4% | 0hPa | 2.5V | 08:30:00 | 02:11:39 | 00:00:00 | |
| DO3MHA-11 | 2026-09-05 00:45:24 | 45.61080 | 9.49399 | 315° | 7km/h | 32078m | 4.9m/s | -40.1°C | 2.4% | 0hPa | 2.7V | 00:00:00 | 02:11:41 | 00:00:00 | |
| DL1ZP-14 | 2026-09-05 00:45:21 | 45.61079 | 9.49408 | 231° | 7km/h | 32057m | 5.3m/s | -40.2°C | 0.6% | -1.0hPa | 2.6V | 00:00:00 | 00:00:00 | 00:00:00 | |
| OE5DRO-10 | 2026-09-05 00:45:19 | 45.61080 | 9.49410 | 212° | 13km/h | 32052m | 4.6m/s | -40.2°C | 2.4% | 0hPa | 2.6V | 00:00:00 | 00:00:00 | 00:00:00 | |
| IW2NTF | 2026-09-05 00:45:15 | 45.61099 | 9.49407 | 169° | 20km/h | 32015m | 5.8m/s | -40.1°C | 2.4% | 0hPa | 2.6V | 08:30:00 | 02:11:29 | 00:00:00 | |
| DO3MHA-11 | 2026-09-05 00:45:14 | 45.61091 | 9.49410 | 160° | 15km/h | 32027m | 4.7m/s | -40.1°C | 2.3% | 0hPa | 2.6V | 00:00:00 | 02:11:31 | 00:00:00 | |
| PG1ADW-2 | 2026-09-05 00:45:13 | 45.61095 | 9.49408 | 165° | 16km/h | 32022m | 5.9m/s | -40.1°C | 2.4% | 0hPa | 2.6V | 00:00:00 | 00:00:00 | 00:00:00 | |
| DF7PN | 2026-09-05 00:45:08 | 45.61120 | 9.49404 | 177° | 5km/h | 31989m | 4.6m/s | 0°C | -1.0% | -1.0hPa | 2.6V | 00:00:00 | 00:00:00 | 00:00:00 | |
| IW2NTF | 2026-09-05 00:45:05 | 45.61134 | 9.49399 | 160° | 18km/h | 31962m | 4.9m/s | -40.5°C | 2.4% | 0hPa | 2.6V | 08:30:00 | 02:11:19 | 00:00:00 | |
| DO3MHA-11 | 2026-09-05 00:45:04 | 45.61127 | 9.49403 | 169° | 18km/h | 31973m | 5.8m/s | -40.3°C | 2.4% | 0hPa | 2.7V | 00:00:00 | 02:11:21 | 00:00:00 | |
| DB0UT-7 | 2026-09-05 00:45:00 | 45.61142 | 9.49395 | 151° | 18km/h | 31951m | 5.5m/s | -40.5°C | 2.4% | 0hPa | 2.7V | 00:00:00 | 02:11:17 | 00:00:00 | |
| NBG1-10 | 2026-09-05 00:44:58 | 45.61149 | 9.49388 | 151° | 20km/h | 31942m | 4.7m/s | -40.5°C | 2.4% | 0hPa | 2.7V | 00:00:00 | 02:11:15 | 00:00:00 | |
| IW2NTF | 2026-09-05 00:44:54 | 45.61180 | 9.49374 | 160° | 15km/h | 31910m | 5.8m/s | -40.6°C | 2.4% | 0hPa | 2.7V | 08:30:00 | 02:11:09 | 00:00:00 | |
| DL1ZP-14 | 2026-09-05 00:44:50 | 45.61185 | 9.49369 | 117° | 5km/h | 31894m | 4.5m/s | -40.7°C | 0.7% | -1.0hPa | 2.6V | 00:00:00 | 00:00:00 | 00:00:00 | |
| DO3MHA-11 | 2026-09-05 00:44:44 | 45.61205 | 9.49349 | 147° | 16km/h | 31868m | 4.0m/s | -41.0°C | 2.4% | 0hPa | 2.6V | 00:00:00 | 02:11:01 | 00:00:00 | |
| IW2NTF | 2026-09-05 00:44:42 | 45.61216 | 9.49335 | 131° | 26km/h | 31858m | 5.7m/s | -41.1°C | 2.4% | 0hPa | 2.6V | 08:30:00 | 02:10:59 | 00:00:00 | |
| OE5DRO-10 | 2026-09-05 00:44:41 | 45.61219 | 9.49329 | 117° | 22km/h | 31853m | 5.7m/s | -41.2°C | 2.4% | 0hPa | 2.6V | 00:00:00 | 00:00:00 | 08:30:00 | |
| OE5DXL-15 | 2026-09-05 00:44:38 | 45.61220 | 9.49315 | 81° | 11km/h | 31838m | 5.2m/s | -41.4°C | 2.5% | 0hPa | 2.6V | 00:00:00 | 00:00:00 | 00:00:00 | |
| DF7PN | 2026-09-05 00:44:37 | 45.61220 | 9.49312 | 103° | 5km/h | 31832m | 6.2m/s | 0°C | -1.0% | -1.0hPa | 2.6V | 00:00:00 | 00:00:00 | 00:00:00 | |
| DO3MHA-11 | 2026-09-05 00:44:34 | 45.61226 | 9.49304 | 138° | 29km/h | 31816m | 4.2m/s | -41.6°C | 2.6% | 0hPa | 2.6V | 00:00:00 | 02:10:51 | 00:00:00 | |
| PG1ADW-2 | 2026-09-05 00:44:33 | 45.61230 | 9.49298 | 126° | 27km/h | 31811m | 4.7m/s | -41.6°C | 2.6% | 0hPa | 2.6V | 00:00:00 | 00:00:00 | 00:00:00 | |
| IW2NTF | 2026-09-05 00:44:32 | 45.61234 | 9.49244 | 86° | 35km/h | 31784m | 4.5m/s | -41.7°C | 2.6% | 0hPa | 2.5V | 08:30:00 | 02:10:45 | 00:00:00 | |
| DB0UT-7 | 2026-09-05 00:44:30 | 45.61235 | 9.49269 | 91° | 26km/h | 31794m | 5.4m/s | -41.6°C | 2.6% | 0hPa | 2.7V | 00:00:00 | 00:00:00 | 08:30:00 | |
| S52SK | 2026-09-05 00:44:28 | 45.61234 | 9.49256 | 87° | 37km/h | 31789m | 4.7m/s | -41.7°C | 0% | 0hPa | 2.6V | 00:00:00 | 00:00:00 | 00:00:00 | |
| NBG1-10 | 2026-09-05 00:44:25 | 45.61236 | 9.49213 | 116° | 22km/h | 31768m | 5.3m/s | -41.6°C | 2.6% | 0hPa | 2.6V | 00:00:00 | 02:10:42 | 00:00:00 | |
| RDZBGO | 2026-09-05 00:44:24 | 45.61236 | 9.49214 | 116° | 26km/h | 31768m | 5.3m/s | -41.7°C | 0.8% | 0hPa | 2.6V | 00:00:00 | 00:00:00 | 00:00:00 | |
| DO3MHA-11 | 2026-09-05 00:44:23 | 45.61243 | 9.49197 | 122° | 26km/h | 31759m | 4.2m/s | -41.6°C | 2.6% | 0hPa | 2.6V | 00:00:00 | 02:10:40 | 08:30:00 | |
| IW2NTF | 2026-09-05 00:44:22 | 45.61241 | 9.49158 | 47° | 27km/h | 31732m | 5.4m/s | -41.6°C | 2.6% | 0hPa | 2.7V | 08:30:00 | 02:10:35 | 00:00:00 | |
| OE5DRO-10 | 2026-09-05 00:44:22 | 45.61246 | 9.49190 | 113° | 26km/h | 31754m | 4.0m/s | -41.6°C | 2.6% | 0hPa | 2.7V | 00:00:00 | 00:00:00 | 00:00:00 | |
| DL1ZP-14 | 2026-09-05 00:44:18 | 45.61241 | 9.49158 | 47° | 27km/h | 31732m | 5.4m/s | -41.6°C | 0.7% | -1.0hPa | 2.7V | 00:00:00 | 00:00:00 | 00:00:00 | |
| PG1ADW-2 | 2026-09-05 00:44:13 | 45.61231 | 9.49118 | 112° | 24km/h | 31708m | 5.6m/s | -41.4°C | 2.5% | 0hPa | 2.6V | 00:00:00 | 00:00:00 | 00:00:00 | |
| IW2NTF | 2026-09-05 00:44:12 | 45.61242 | 9.49062 | 69° | 24km/h | 31682m | 5.6m/s | -41.4°C | 2.6% | 0hPa | 2.6V | 08:30:00 | 02:10:25 | 00:00:00 | |
| DF7PN | 2026-09-05 00:44:06 | 45.61235 | 9.49052 | 18° | 18km/h | 31671m | 6.1m/s | 0°C | -1.0% | -1.0hPa | 2.6V | 00:00:00 | 00:00:00 | 00:00:00 | |
| RDZBGO | 2026-09-05 00:44:04 | 45.61226 | 9.49050 | 358° | 15km/h | 31659m | 5.6m/s | -41.2°C | 0.7% | 0hPa | 2.6V | 00:00:00 | 00:00:00 | 00:00:00 | |
| DO3MHA-11 | 2026-09-05 00:44:03 | 45.61223 | 9.49050 | 7° | 22km/h | 31654m | 4.9m/s | -41.2°C | 2.5% | 0hPa | 2.6V | 00:00:00 | 02:10:20 | 00:00:00 | |
| IW2NTF | 2026-09-05 00:44:02 | 45.61217 | 9.49018 | 77° | 35km/h | 31626m | 5.5m/s | -41.1°C | 2.5% | 0hPa | 2.6V | 08:30:00 | 02:10:15 | 00:00:00 | |
| DB0UT-7 | 2026-09-05 00:44:00 | 45.61219 | 9.49039 | 85° | 16km/h | 31639m | 6.1m/s | -41.1°C | 2.5% | 0hPa | 2.6V | 00:00:00 | 02:10:17 | 00:00:00 | |
| PG1ADW-2 | 2026-09-05 00:43:53 | 45.61209 | 9.48980 | 59° | 13km/h | 31601m | 5.9m/s | -41.0°C | 2.4% | 0hPa | 2.6V | 00:00:00 | 00:00:00 | 00:00:00 | |
| IW2NTF | 2026-09-05 00:43:52 | 45.61205 | 9.48984 | 35° | 16km/h | 31574m | 5.7m/s | -41°C | 2.4% | 0hPa | 2.6V | 08:30:00 | 02:10:05 | 00:00:00 | |
| HARRO8 | 2026-09-05 00:43:52 | 45.61209 | 9.48981 | 264° | 4km/h | 31595m | 5.2m/s | -41.0°C | 0.6% | -1.0hPa | 2.7V | 00:00:00 | 00:00:00 | 00:00:00 | |
| DL1ZP-14 | 2026-09-05 00:43:47 | 45.61201 | 9.48979 | 46° | 22km/h | 31569m | 5.2m/s | -41.1°C | 0.6% | -1.0hPa | 2.7V | 00:00:00 | 00:00:00 | 00:00:00 | |
| OE5DRO-10 | 2026-09-05 00:43:44 | 45.61190 | 9.48956 | 66° | 13km/h | 31554m | 5.8m/s | -41.4°C | 2.5% | 0hPa | 2.6V | 00:00:00 | 00:00:00 | 00:00:00 | |
| DO3MHA-11 | 2026-09-05 00:43:43 | 45.61188 | 9.48949 | 76° | 13km/h | 31548m | 6.2m/s | -41.5°C | 2.5% | 0hPa | 2.6V | 00:00:00 | 02:10:00 | 00:00:00 | |
| IW2NTF | 2026-09-05 00:43:42 | 45.61187 | 9.48941 | 353° | 9km/h | 31520m | 5.5m/s | -41.8°C | 2.6% | 0hPa | 2.6V | 08:30:00 | 02:09:55 | 00:00:00 | |
| PG1ADW-2 | 2026-09-05 00:43:33 | 45.61165 | 9.48943 | 345° | 15km/h | 31493m | 6.2m/s | -41.7°C | 2.6% | 0hPa | 2.7V | 00:00:00 | 02:09:50 | 00:00:00 | |
| IW2NTF | 2026-09-05 00:43:32 | 45.61147 | 9.48946 | 20° | 13km/h | 31464m | 5.2m/s | -41.7°C | 2.6% | 0hPa | 2.7V | 08:30:00 | 02:09:45 | 00:00:00 | |
| DB0UT-7 | 2026-09-05 00:43:30 | 45.61153 | 9.48947 | 358° | 15km/h | 31476m | 6.1m/s | -41.7°C | 2.6% | 0hPa | 2.6V | 00:00:00 | 00:00:00 | 00:00:00 | |
| OE5DRO-10 | 2026-09-05 00:43:25 | 45.61140 | 9.48944 | 314° | 13km/h | 31447m | 6.6m/s | -41.7°C | 2.6% | 0hPa | 2.6V | 00:00:00 | 00:00:00 | 00:00:00 | |
| IW2NTF | 2026-09-05 00:43:23 | 45.61125 | 9.48962 | 349° | 18km/h | 31406m | 5m/s | -41.8°C | 2.6% | 0hPa | 2.6V | 08:30:00 | 02:09:35 | 00:00:00 | |
| NBG1-10 | 2026-09-05 00:43:18 | 45.61125 | 9.48962 | 350° | 15km/h | 31406m | 4.9m/s | -41.8°C | 2.6% | 0hPa | 2.7V | 00:00:00 | 02:09:35 | 00:00:00 | |
| DL1ZP-14 | 2026-09-05 00:43:16 | 45.61117 | 9.48966 | 326° | 16km/h | 31394m | 6.4m/s | -41.9°C | 0.7% | -1.0hPa | 2.7V | 00:00:00 | 00:00:00 | 00:00:00 | |
| PG1ADW-2 | 2026-09-05 00:43:13 | 45.61108 | 9.48979 | 307° | 15km/h | 31377m | 5.6m/s | -41.8°C | 2.6% | 0hPa | 2.6V | 00:00:00 | 00:00:00 | 00:00:00 | |
| IW2NTF | 2026-09-05 00:43:12 | 45.61099 | 9.48991 | 308° | 13km/h | 31348m | 6.5m/s | -41.8°C | 2.6% | 0hPa | 2.6V | 08:30:00 | 02:09:25 | 00:00:00 | |
| OE5DRO-10 | 2026-09-05 00:43:06 | 45.61095 | 9.49001 | 296° | 15km/h | 31335m | 5.7m/s | -41.8°C | 2.7% | 0hPa | 2.6V | 00:00:00 | 00:00:00 | 00:00:00 | |
| IW2NTF | 2026-09-05 00:43:03 | 45.61078 | 9.49036 | 270° | 15km/h | 31287m | 6.3m/s | -41.6°C | 2.6% | 0hPa | 2.6V | 08:30:00 | 02:09:15 | 00:00:00 | |
| RDZBGO | 2026-09-05 00:43:02 | 45.61086 | 9.49020 | 313° | 16km/h | 31318m | 6.8m/s | -41.8°C | 0.7% | 0hPa | 2.5V | 00:00:00 | 00:00:00 | 00:00:00 | |
| DB0UT-7 | 2026-09-05 00:43:00 | 45.61079 | 9.49029 | 310° | 11km/h | 31300m | 5.5m/s | -41.6°C | 2.6% | 0hPa | 2.5V | 00:00:00 | 02:09:17 | 00:00:00 | |
| DO3MHA-11 | 2026-09-05 00:42:53 | 45.61076 | 9.49061 | 318° | 15km/h | 31258m | 5.9m/s | -41.4°C | 2.5% | 0hPa | 2.6V | 00:00:00 | 02:09:10 | 08:30:00 | |
| IW2NTF | 2026-09-05 00:42:52 | 45.61063 | 9.49082 | 291° | 20km/h | 31226m | 6.1m/s | -41.4°C | 2.5% | 0hPa | 2.5V | 08:30:00 | 02:09:05 | 00:00:00 | |
| DL1ZP-14 | 2026-09-05 00:42:45 | 45.61059 | 9.49098 | 298° | 9km/h | 31210m | 6.5m/s | -41.4°C | 0.7% | -1.0hPa | 2.7V | 00:00:00 | 00:00:00 | 00:00:00 | |
| IW2NTF | 2026-09-05 00:42:43 | 45.61051 | 9.49102 | 272° | 11km/h | 31165m | 5.8m/s | -41.6°C | 2.5% | 0hPa | 2.7V | 08:30:00 | 02:08:55 | 00:00:00 | |
| RDZBGO | 2026-09-05 00:42:42 | 45.61056 | 9.49101 | 25° | 7km/h | 31196m | 6.5m/s | -41.4°C | 0.7% | 0hPa | 2.6V | 00:00:00 | 00:00:00 | 00:00:00 | |
| NBG1-10 | 2026-09-05 00:42:41 | 45.61053 | 9.49098 | 36° | 11km/h | 31185m | 5.4m/s | -41.4°C | 2.5% | 0hPa | 2.6V | 00:00:00 | 02:08:58 | 00:00:00 | |
| OE5DXL-15 | 2026-09-05 00:42:38 | 45.61051 | 9.49102 | 273° | 11km/h | 31166m | 5.8m/s | -41.6°C | 2.5% | 0hPa | 2.6V | 00:00:00 | 00:00:00 | 00:00:00 | |
| IW2NTF | 2026-09-05 00:42:32 | 45.61052 | 9.49119 | 173° | 5km/h | 31106m | 5.4m/s | -41.8°C | 2.5% | 0hPa | 2.6V | 08:30:00 | 02:08:45 | 00:00:00 | |
| PG1ADW-2 | 2026-09-05 00:42:32 | 45.61049 | 9.49117 | 334° | 9km/h | 31131m | 5.8m/s | -41.6°C | 2.5% | 0hPa | 2.6V | 00:00:00 | 00:00:00 | 08:30:00 | |
| DB0UT-7 | 2026-09-05 00:42:30 | 45.61049 | 9.49118 | 215° | 16km/h | 31118m | 6.0m/s | -41.7°C | 2.5% | 0hPa | 2.5V | 00:00:00 | 00:00:00 | 00:00:00 | |
| S52SK | 2026-09-05 00:42:29 | 45.61049 | 9.49118 | 215° | 5km/h | 31118m | 6.1m/s | -41.7°C | 0% | 0hPa | 2.5V | 00:00:00 | 00:00:00 | 00:00:00 | |
| OE5DRO-10 | 2026-09-05 00:42:28 | 45.61052 | 9.49119 | 174° | 13km/h | 31107m | 5.4m/s | -41.7°C | 2.5% | 0hPa | 2.5V | 00:00:00 | 00:00:00 | 00:00:00 | |
| IW2NTF | 2026-09-05 00:42:22 | 45.61073 | 9.49105 | 187° | 15km/h | 31046m | 6.4m/s | -42°C | 2.6% | 0hPa | 2.5V | 08:30:00 | 02:08:35 | 00:00:00 | |
| RDZBGO | 2026-09-05 00:42:21 | 45.61057 | 9.49103 | 158° | 13km/h | 31071m | 7.0m/s | -41.9°C | 0.7% | 0hPa | 2.7V | 00:00:00 | 00:00:00 | 00:00:00 | |
| DL1ZP-14 | 2026-09-05 00:42:14 | 45.61082 | 9.49101 | 145° | 9km/h | 31023m | 6.4m/s | -42.0°C | 0.7% | -1.0hPa | 2.7V | 00:00:00 | 00:00:00 | 00:00:00 | |
| IW2NTF | 2026-09-05 00:42:13 | 45.61099 | 9.49070 | 126° | 26km/h | 30987m | 4.7m/s | -42.1°C | 2.6% | 0hPa | 2.6V | 08:30:00 | 02:08:25 | 00:00:00 | |
| PG1ADW-2 | 2026-09-05 00:42:12 | 45.61087 | 9.49096 | 135° | 24km/h | 31011m | 5.6m/s | -42.0°C | 2.6% | 0hPa | 2.6V | 00:00:00 | 02:08:29 | 00:00:00 | |
| OE5DRO-10 | 2026-09-05 00:42:09 | 45.61095 | 9.49078 | 120° | 26km/h | 30993m | 5.7m/s | -42.0°C | 2.5% | 0hPa | 2.6V | 00:00:00 | 00:00:00 | 00:00:00 | |
| NBG1-10 | 2026-09-05 00:42:08 | 45.61099 | 9.49070 | 127° | 29km/h | 30987m | 4.6m/s | -42.0°C | 2.6% | 0hPa | 2.6V | 00:00:00 | 02:08:25 | 00:00:00 | |
| IW2NTF | 2026-09-05 00:42:00 | 45.61155 | 9.49032 | 124° | 24km/h | 30930m | 5.7m/s | -42.4°C | 2.6% | 0hPa | 2.6V | 08:30:00 | 02:08:15 | 00:00:00 | |
| DB0UT-7 | 2026-09-05 00:42:00 | 45.61147 | 9.49044 | 137° | 29km/h | 30941m | 5.4m/s | -42.3°C | 2.6% | 0hPa | 2.6V | 00:00:00 | 02:08:17 | 00:00:00 | |
| DO3MHA-11 | 2026-09-05 00:41:55 | 45.61166 | 9.49012 | 136° | 27km/h | 30913m | 5.4m/s | -42.4°C | 2.6% | 0hPa | 2.6V | 00:00:00 | 02:08:12 | 00:00:00 | |
| IW2NTF | 2026-09-05 00:41:53 | 45.61197 | 9.48959 | 141° | 31km/h | 30872m | 6.7m/s | -42.7°C | 2.7% | 0hPa | 2.6V | 08:30:00 | 02:08:05 | 00:00:00 | |
| HARRO8 | 2026-09-05 00:41:48 | 45.61203 | 9.48953 | 147° | 29km/h | 30866m | 5.5m/s | -42.7°C | 0.7% | -1.0hPa | 2.7V | 00:00:00 | 00:00:00 | 00:00:00 | |
| DO3MHA-11 | 2026-09-05 00:41:45 | 45.61216 | 9.48940 | 137° | 35km/h | 30856m | 5.2m/s | -42.6°C | 2.7% | 0hPa | 2.7V | 00:00:00 | 02:08:02 | 00:00:00 | |
| DL1ZP-14 | 2026-09-05 00:41:43 | 45.61225 | 9.48920 | 113° | 35km/h | 30844m | 6.1m/s | -42.6°C | 0.7% | -1.0hPa | 2.5V | 00:00:00 | 00:00:00 | 00:00:00 | |
| IW2NTF | 2026-09-05 00:41:40 | 45.61242 | 9.48856 | 122° | 35km/h | 30815m | 5.9m/s | -42.7°C | 2.7% | 0hPa | 2.7V | 08:30:00 | 02:07:55 | 00:00:00 | |
| OE5DXL-15 | 2026-09-05 00:41:40 | 45.61234 | 9.48880 | 109° | 27km/h | 30828m | 5.5m/s | -42.6°C | 2.6% | 0hPa | 2.6V | 00:00:00 | 00:00:00 | 00:00:00 | |
| DO3MHA-11 | 2026-09-05 00:41:35 | 45.61256 | 9.48829 | 127° | 26km/h | 30799m | 6.3m/s | -42.8°C | 2.7% | 0hPa | 2.6V | 00:00:00 | 02:07:52 | 00:00:00 | |
| IW2NTF | 2026-09-05 00:41:33 | 45.61272 | 9.48770 | 118° | 22km/h | 30757m | 5.3m/s | -42.8°C | 2.7% | 0hPa | 2.6V | 08:30:00 | 02:07:45 | 00:00:00 | |
| PG1ADW-2 | 2026-09-05 00:41:32 | 45.61265 | 9.48801 | 103° | 26km/h | 30781m | 5.1m/s | -42.8°C | 2.7% | 0hPa | 2.6V | 00:00:00 | 00:00:00 | 00:00:00 | |
| OE5DRO-10 | 2026-09-05 00:41:31 | 45.61266 | 9.48792 | 101° | 26km/h | 30775m | 5.2m/s | -42.8°C | 2.7% | 0hPa | 2.6V | 00:00:00 | 00:00:00 | 00:00:00 | |
| DB0UT-7 | 2026-09-05 00:41:30 | 45.61268 | 9.48784 | 106° | 26km/h | 30770m | 6.5m/s | -42.8°C | 2.7% | 0hPa | 2.6V | 00:00:00 | 00:00:00 | 00:00:00 | |
| DO3MHA-11 | 2026-09-05 00:41:25 | 45.61281 | 9.48743 | 113° | 24km/h | 30740m | 6.4m/s | -42.7°C | 2.7% | 0hPa | 2.6V | 00:00:00 | 02:07:42 | 00:00:00 | |
| IW2NTF | 2026-09-05 00:41:20 | 45.61301 | 9.48684 | 112° | 9km/h | 30700m | 4.9m/s | -42.8°C | 2.7% | 0hPa | 2.6V | 08:30:00 | 02:07:35 | 00:00:00 | |
| RDZBGO | 2026-09-05 00:41:19 | 45.61297 | 9.48691 | 127° | 20km/h | 30713m | 6.6m/s | -42.8°C | 0.8% | 0hPa | 2.7V | 00:00:00 | 00:00:00 | 00:00:00 | |
| HARRO8 | 2026-09-05 00:41:17 | 45.61301 | 9.48675 | 80° | 16km/h | 30691m | 5.5m/s | -42.8°C | 0.7% | -1.0hPa | 2.7V | 00:00:00 | 00:00:00 | 00:00:00 | |
| DO3MHA-11 | 2026-09-05 00:41:15 | 45.61301 | 9.48668 | 85° | 29km/h | 30685m | 5.8m/s | -42.7°C | 2.7% | 0hPa | 2.7V | 00:00:00 | 02:07:32 | 08:30:00 | |
| IW2NTF | 2026-09-05 00:41:13 | 45.61313 | 9.48589 | 96° | 20km/h | 30645m | 6.3m/s | -42.9°C | 2.7% | 0hPa | 2.6V | 08:30:00 | 02:07:25 | 00:00:00 | |
| PG1ADW-2 | 2026-09-05 00:41:12 | 45.61303 | 9.48631 | 105° | 26km/h | 30668m | 5.5m/s | -42.8°C | 2.7% | 0hPa | 2.7V | 00:00:00 | 00:00:00 | 00:00:00 | |
| OE5DXL-15 | 2026-09-05 00:41:10 | 45.61309 | 9.48606 | 113° | 22km/h | 30657m | 5.2m/s | -42.8°C | 2.6% | 0hPa | 2.7V | 00:00:00 | 00:00:00 | 00:00:00 | |
| DO3MHA-11 | 2026-09-05 00:41:05 | 45.61308 | 9.48569 | 56° | 26km/h | 30627m | 5.2m/s | -42.9°C | 2.6% | 0hPa | 2.7V | 00:00:00 | 02:07:22 | 00:00:00 | |
| NBG1-10 | 2026-09-05 00:41:02 | 45.61302 | 9.48546 | 93° | 18km/h | 30610m | 6.5m/s | -42.9°C | 2.6% | 0hPa | 2.7V | 00:00:00 | 02:07:19 | 00:00:00 | |
| IW2NTF | 2026-09-05 00:41:01 | 45.61308 | 9.48506 | 96° | 29km/h | 30585m | 6m/s | -43.1°C | 2.7% | 0hPa | 2.7V | 08:30:00 | 02:07:15 | 00:00:00 | |
| DB0UT-7 | 2026-09-05 00:41:00 | 45.61305 | 9.48527 | 105° | 16km/h | 30598m | 5.9m/s | -43.0°C | 2.6% | 0hPa | 2.6V | 00:00:00 | 02:07:17 | 00:00:00 | |
| RDZBGO | 2026-09-05 00:40:59 | 45.61305 | 9.48527 | 105° | 29km/h | 30598m | 6.0m/s | -43.0°C | 0.8% | 0hPa | 2.6V | 00:00:00 | 00:00:00 | 00:00:00 | |
| DO3MHA-11 | 2026-09-05 00:40:55 | 45.61308 | 9.48477 | 92° | 18km/h | 30568m | 6.5m/s | -43.2°C | 2.7% | 0hPa | 2.6V | 00:00:00 | 02:07:12 | 00:00:00 | |
| IW2NTF | 2026-09-05 00:40:53 | 45.61299 | 9.48430 | 88° | 15km/h | 30527m | 6.4m/s | -43.6°C | 2.8% | 0hPa | 2.6V | 08:30:00 | 02:07:05 | 00:00:00 | |
| HARRO8 | 2026-09-05 00:40:46 | 45.61305 | 9.48418 | 140° | 15km/h | 30509m | 5.1m/s | -43.7°C | 0.8% | -1.0hPa | 2.7V | 00:00:00 | 00:00:00 | 00:00:00 | |
| DO3MHA-11 | 2026-09-05 00:40:45 | 45.61305 | 9.48418 | 141° | 15km/h | 30509m | 5.1m/s | -43.6°C | 2.8% | 0hPa | 2.7V | 00:00:00 | 02:07:02 | 00:00:00 | |
| DL1ZP-14 | 2026-09-05 00:40:41 | 45.61310 | 9.48399 | 81° | 16km/h | 30485m | 5.7m/s | -43.6°C | 0.8% | -1.0hPa | 2.6V | 00:00:00 | 00:00:00 | 00:00:00 | |
| IW2NTF | 2026-09-05 00:40:40 | 45.61309 | 9.48381 | 95° | 13km/h | 30468m | 6.7m/s | -43.6°C | 2.8% | 0hPa | 2.5V | 08:30:00 | 02:06:55 | 00:00:00 | |
| OE5DXL-15 | 2026-09-05 00:40:40 | 45.61309 | 9.48392 | 78° | 15km/h | 30480m | 5.1m/s | -43.6°C | 2.8% | 0hPa | 2.7V | 00:00:00 | 00:00:00 | 00:00:00 | |
| RDZBGO | 2026-09-05 00:40:38 | 45.61309 | 9.48386 | 83° | 15km/h | 30474m | 5.8m/s | -43.6°C | 0.8% | 0hPa | 2.7V | 00:00:00 | 00:00:00 | 00:00:00 | |
| DO3MHA-11 | 2026-09-05 00:40:35 | 45.61312 | 9.48374 | 143° | 15km/h | 30449m | 6.6m/s | -43.6°C | 2.8% | 0hPa | 2.7V | 00:00:00 | 02:06:52 | 00:00:00 | |
| OE5DRO-10 | 2026-09-05 00:40:34 | 45.61313 | 9.48372 | 141° | 15km/h | 30443m | 5.9m/s | -43.6°C | 2.8% | 0hPa | 2.7V | 00:00:00 | 00:00:00 | 00:00:00 | |
| IW2NTF | 2026-09-05 00:40:33 | 45.61331 | 9.48358 | 132° | 20km/h | 30408m | 5.6m/s | -43.7°C | 2.8% | 0hPa | 2.7V | 08:30:00 | 02:06:45 | 00:00:00 | |
| PG1ADW-2 | 2026-09-05 00:40:32 | 45.61316 | 9.48370 | 157° | 16km/h | 30433m | 4.9m/s | -43.6°C | 2.8% | 0hPa | 2.6V | 00:00:00 | 00:00:00 | 00:00:00 | |
| DB0UT-7 | 2026-09-05 00:40:30 | 45.61323 | 9.48366 | 157° | 18km/h | 30420m | 6.6m/s | -43.6°C | 2.8% | 0hPa | 2.7V | 00:00:00 | 00:00:00 | 00:00:00 | |
| NBG1-10 | 2026-09-05 00:40:29 | 45.61327 | 9.48363 | 147° | 18km/h | 30414m | 5.4m/s | -43.6°C | 2.8% | 0hPa | 2.7V | 00:00:00 | 02:06:46 | 00:00:00 | |
| DO3MHA-11 | 2026-09-05 00:40:25 | 45.61336 | 9.48337 | 95° | 13km/h | 30391m | 4.6m/s | -43.6°C | 2.8% | 0hPa | 2.7V | 00:00:00 | 02:06:42 | 00:00:00 | |
| IW2NTF | 2026-09-05 00:40:20 | 45.61348 | 9.48323 | 188° | 9km/h | 30349m | 5.2m/s | -43.6°C | 2.8% | 0hPa | 2.7V | 08:30:00 | 02:06:35 | 00:00:00 | |
| RDZBGO | 2026-09-05 00:40:18 | 45.61346 | 9.48322 | 203° | 9km/h | 30355m | 6.5m/s | -43.6°C | 0.8% | 0hPa | 2.6V | 00:00:00 | 00:00:00 | 00:00:00 | |
| HARRO8 | 2026-09-05 00:40:15 | 45.61364 | 9.48313 | 137° | 27km/h | 30327m | 5.4m/s | -43.7°C | 0.8% | -1.0hPa | 2.6V | 00:00:00 | 00:00:00 | 00:00:00 | |
| IW2NTF | 2026-09-05 00:40:14 | 45.61373 | 9.48250 | 72° | 24km/h | 30294m | 4.5m/s | -43.6°C | 2.8% | 0hPa | 2.6V | 08:30:00 | 02:06:25 | 00:00:00 | |
| PG1ADW-2 | 2026-09-05 00:40:12 | 45.61373 | 9.48294 | 113° | 20km/h | 30317m | 5.7m/s | -43.6°C | 2.8% | 0hPa | 2.6V | 00:00:00 | 00:00:00 | 00:00:00 | |
| OE5DXL-15 | 2026-09-05 00:40:10 | 45.61375 | 9.48270 | 86° | 22km/h | 30304m | 5.6m/s | -43.6°C | 2.8% | 0hPa | 2.6V | 00:00:00 | 00:00:00 | 00:00:00 | |
| DO3MHA-11 | 2026-09-05 00:40:05 | 45.61372 | 9.48238 | 176° | 15km/h | 30277m | 5.9m/s | -43.6°C | 2.8% | 0hPa | 2.6V | 00:00:00 | 02:06:22 | 00:00:00 | |
| S52SK | 2026-09-05 00:40:02 | 45.61378 | 9.48239 | 195° | 11km/h | 30267m | 4.9m/s | -43.7°C | 0% | 0hPa | 2.6V | 00:00:00 | 00:00:00 | 00:00:00 | |
| IW2NTF | 2026-09-05 00:40:00 | 45.61379 | 9.48224 | 75° | 22km/h | 30239m | 6.2m/s | -43.8°C | 2.8% | 0hPa | 2.6V | 08:30:00 | 02:06:15 | 00:00:00 | |
| DB0UT-7 | 2026-09-05 00:40:00 | 45.61381 | 9.48236 | 77° | 16km/h | 30250m | 5.1m/s | -43.8°C | 2.8% | 0hPa | 2.6V | 00:00:00 | 02:06:17 | 08:30:00 | |
| S52SK | 2026-09-05 00:39:57 | 45.61379 | 9.48224 | 77° | 22km/h | 30240m | 6.2m/s | -43.8°C | 0% | 0hPa | 2.6V | 00:00:00 | 00:00:00 | 00:00:00 | |
| NBG1-10 | 2026-09-05 00:39:56 | 45.61377 | 9.48207 | 84° | 15km/h | 30227m | 5.4m/s | -43.8°C | 2.8% | 0hPa | 2.6V | 00:00:00 | 02:06:13 | 00:00:00 | |
| DO3MHA-11 | 2026-09-05 00:39:55 | 45.61376 | 9.48197 | 84° | 18km/h | 30222m | 4.9m/s | -43.8°C | 2.9% | 0hPa | 2.6V | 00:00:00 | 02:06:12 | 00:00:00 | |
| IW2NTF | 2026-09-05 00:39:53 | 45.61370 | 9.48144 | 118° | 11km/h | 30183m | 6.6m/s | -43.8°C | 2.8% | 0hPa | 2.6V | 08:30:00 | 02:06:05 | 00:00:00 | |
| PG1ADW-2 | 2026-09-05 00:39:52 | 45.61372 | 9.48169 | 75° | 15km/h | 30205m | 5.2m/s | -43.8°C | 2.9% | 0hPa | 2.6V | 00:00:00 | 00:00:00 | 00:00:00 | |
| DO3MHA-11 | 2026-09-05 00:39:45 | 45.61373 | 9.48137 | 75° | 16km/h | 30168m | 5.5m/s | -43.7°C | 2.8% | 0hPa | 2.6V | 00:00:00 | 02:06:02 | 08:30:00 | |
| HARRO8 | 2026-09-05 00:39:44 | 45.61370 | 9.48131 | 37° | 16km/h | 30155m | 5.4m/s | -43.7°C | 0.8% | -1.0hPa | 2.7V | 00:00:00 | 00:00:00 | 00:00:00 | |
| IW2NTF | 2026-09-05 00:39:39 | 45.61359 | 9.48102 | 104° | 16km/h | 30129m | 4.8m/s | -43.7°C | 2.8% | 0hPa | 2.7V | 08:30:00 | 02:05:55 | 00:00:00 | |
| DL1ZP-14 | 2026-09-05 00:39:39 | 45.61359 | 9.48108 | 88° | 16km/h | 30134m | 5.4m/s | -43.7°C | 0.8% | -1.0hPa | 2.6V | 00:00:00 | 00:00:00 | 00:00:00 | |
| RDZBGO | 2026-09-05 00:39:37 | 45.61360 | 9.48097 | 115° | 15km/h | 30124m | 4.9m/s | -43.7°C | 0.8% | 0hPa | 2.6V | 00:00:00 | 00:00:00 | 00:00:00 | |
| DO3MHA-11 | 2026-09-05 00:39:35 | 45.61362 | 9.48089 | 104° | 9km/h | 30113m | 5.5m/s | -43.7°C | 2.9% | 0hPa | 2.6V | 00:00:00 | 02:05:52 | 00:00:00 | |
| IW2NTF | 2026-09-05 00:39:34 | 45.61362 | 9.48069 | 104° | 9km/h | 30076m | 4.5m/s | -43.8°C | 2.8% | 0hPa | 2.6V | 08:30:00 | 02:05:45 | 00:00:00 | |
| PG1ADW-2 | 2026-09-05 00:39:32 | 45.61361 | 9.48075 | 102° | 5km/h | 30087m | 5.9m/s | -43.8°C | 2.9% | 0hPa | 2.5V | 00:00:00 | 02:05:47 | 08:30:00 | |
| DB0UT-7 | 2026-09-05 00:39:30 | 45.61361 | 9.48075 | 102° | 7km/h | 30087m | 5.9m/s | -43.8°C | 2.9% | 0hPa | 2.5V | 00:00:00 | 00:00:00 | 00:00:00 | |
| DO3MHA-11 | 2026-09-05 00:39:25 | 45.61360 | 9.48060 | 45° | 5km/h | 30059m | 5.2m/s | -43.8°C | 2.8% | 0hPa | 2.5V | 00:00:00 | 02:05:42 | 00:00:00 | |
| IW2NTF | 2026-09-05 00:39:24 | 45.61360 | 9.48051 | 47° | 2km/h | 30021m | 6m/s | -44°C | 2.9% | 0hPa | 2.5V | 08:30:00 | 02:05:35 | 00:00:00 | |
| NBG1-10 | 2026-09-05 00:39:23 | 45.61357 | 9.48056 | 64° | 5km/h | 30049m | 5.7m/s | -43.8°C | 2.8% | 0hPa | 2.7V | 00:00:00 | 02:05:40 | 00:00:00 | |
| OE5DRO-10 | 2026-09-05 00:39:18 | 45.61360 | 9.48051 | 48° | 5km/h | 30021m | 5.9m/s | -43.9°C | 2.9% | 0hPa | 2.7V | 00:00:00 | 00:00:00 | 00:00:00 | |
| DO3MHA-11 | 2026-09-05 00:39:15 | 45.61358 | 9.48049 | 59° | 5km/h | 30006m | 5.6m/s | -44.0°C | 2.9% | 0hPa | 2.7V | 00:00:00 | 02:05:32 | 00:00:00 | |
| HARRO8 | 2026-09-05 00:39:12 | 45.61360 | 9.48047 | 169° | 5km/h | 29988m | 4.7m/s | -44.0°C | 0.8% | -1.0hPa | 2.5V | 00:00:00 | 00:00:00 | 00:00:00 | |
| PG1ADW-2 | 2026-09-05 00:39:11 | 45.61362 | 9.48046 | 180° | 7km/h | 29983m | 5.4m/s | -44.0°C | 2.9% | 0hPa | 2.5V | 00:00:00 | 00:00:00 | 00:00:00 | |
| IW2NTF | 2026-09-05 00:39:08 | 45.61361 | 9.48050 | 296° | 9km/h | 29966m | 5.3m/s | -43.9°C | 2.9% | 0hPa | 2.5V | 08:30:00 | 02:05:25 | 00:00:00 | |
| DL1ZP-14 | 2026-09-05 00:39:08 | 45.61360 | 9.48053 | 284° | 9km/h | 29960m | 6.1m/s | -43.9°C | 0.8% | -1.0hPa | 2.6V | 00:00:00 | 00:00:00 | 00:00:00 | |
| DO3MHA-11 | 2026-09-05 00:39:05 | 45.61360 | 9.48061 | 258° | 9km/h | 29949m | 4.7m/s | -43.8°C | 2.8% | 0hPa | 2.7V | 00:00:00 | 02:05:22 | 00:00:00 | |
| IW2NTF | 2026-09-05 00:39:03 | 45.61359 | 9.48063 | 114° | 9km/h | 29911m | 6.2m/s | -43.6°C | 2.7% | 0hPa | 2.7V | 08:30:00 | 02:05:15 | 00:00:00 | |
| DB0UT-7 | 2026-09-05 00:39:00 | 45.61358 | 9.48068 | 57° | 11km/h | 29923m | 4.9m/s | -43.6°C | 2.8% | 0hPa | 2.7V | 00:00:00 | 02:05:17 | 00:00:00 | |
| OE5DRO-10 | 2026-09-05 00:38:59 | 45.61358 | 9.48066 | 88° | 9km/h | 29917m | 6.4m/s | -43.6°C | 2.8% | 0hPa | 2.7V | 00:00:00 | 00:00:00 | 08:30:00 | |
| DO3MHA-11 | 2026-09-05 00:38:55 | 45.61362 | 9.48054 | 115° | 7km/h | 29895m | 5.6m/s | -43.5°C | 2.8% | 0hPa | 2.7V | 00:00:00 | 02:05:12 | 00:00:00 | |
| IW2NTF | 2026-09-05 00:38:54 | 45.61365 | 9.48048 | 160° | 11km/h | 29855m | 4.5m/s | -43.9°C | 2.8% | 0hPa | 2.7V | 08:30:00 | 02:05:05 | 00:00:00 | |
| PG1ADW-2 | 2026-09-05 00:38:51 | 45.61360 | 9.48049 | 22° | 11km/h | 29873m | 5.7m/s | -43.7°C | 2.8% | 0hPa | 2.6V | 00:00:00 | 00:00:00 | 00:00:00 | |
| NBG1-10 | 2026-09-05 00:38:50 | 45.61361 | 9.48049 | 183° | 13km/h | 29866m | 6.0m/s | -43.8°C | 2.8% | 0hPa | 2.6V | 00:00:00 | 02:05:07 | 08:30:00 | |
| DO3MHA-11 | 2026-09-05 00:38:45 | 45.61369 | 9.48039 | 92° | 13km/h | 29839m | 5.9m/s | -43.9°C | 2.9% | 0hPa | 2.6V | 00:00:00 | 02:05:02 | 00:00:00 | |
| HARRO8 | 2026-09-05 00:38:41 | 45.61371 | 9.48018 | 116° | 13km/h | 29816m | 5.3m/s | -44.0°C | 0.8% | -1.0hPa | 2.6V | 00:00:00 | 00:00:00 | 00:00:00 | |
| OE5DRO-10 | 2026-09-05 00:38:40 | 45.61372 | 9.48014 | 127° | 13km/h | 29811m | 4.8m/s | -43.9°C | 2.9% | 0hPa | 2.6V | 00:00:00 | 00:00:00 | 00:00:00 | |
| IW2NTF | 2026-09-05 00:38:38 | 45.61375 | 9.48007 | 113° | 11km/h | 29800m | 6.1m/s | -44°C | 2.8% | 0hPa | 2.6V | 08:30:00 | 02:04:55 | 00:00:00 | |
| DL1ZP-14 | 2026-09-05 00:38:37 | 45.61377 | 9.47999 | 95° | 11km/h | 29789m | 4.9m/s | -44.0°C | 0.8% | -1.0hPa | 2.7V | 00:00:00 | 00:00:00 | 00:00:00 | |
| DO3MHA-11 | 2026-09-05 00:38:35 | 45.61377 | 9.47995 | 104° | 15km/h | 29784m | 4.9m/s | -44.0°C | 2.9% | 0hPa | 2.6V | 00:00:00 | 02:04:52 | 00:00:00 | |
| IW2NTF | 2026-09-05 00:38:33 | 45.61383 | 9.47964 | 44° | 15km/h | 29743m | 5.6m/s | -44°C | 2.9% | 0hPa | 2.6V | 08:30:00 | 02:04:45 | 00:00:00 | |
| PG1ADW-2 | 2026-09-05 00:38:31 | 45.61385 | 9.47977 | 115° | 11km/h | 29762m | 4.6m/s | -44.0°C | 2.9% | 0hPa | 2.7V | 00:00:00 | 00:00:00 | 00:00:00 | |
| DB0UT-7 | 2026-09-05 00:38:30 | 45.61386 | 9.47972 | 95° | 9km/h | 29756m | 6.4m/s | -44.0°C | 2.9% | 0hPa | 2.6V | 00:00:00 | 00:00:00 | 00:00:00 | |
| DO3MHA-11 | 2026-09-05 00:38:25 | 45.61375 | 9.47956 | 32° | 9km/h | 29726m | 5.3m/s | -43.9°C | 2.8% | 0hPa | 2.5V | 00:00:00 | 02:04:42 | 00:00:00 | |
| OE5DRO-10 | 2026-09-05 00:38:21 | 45.61369 | 9.47948 | 54° | 9km/h | 29703m | 5.3m/s | -43.8°C | 2.8% | 0hPa | 2.5V | 00:00:00 | 00:00:00 | 00:00:00 | |
| NBG1-10 | 2026-09-05 00:38:17 | 45.61369 | 9.47934 | 128° | 11km/h | 29681m | 5.6m/s | -43.9°C | 2.9% | 0hPa | 2.5V | 00:00:00 | 02:04:34 | 00:00:00 | |
| IW2NTF | 2026-09-05 00:38:16 | 45.61370 | 9.47928 | 14° | 7km/h | 29663m | 6.7m/s | -44°C | 2.9% | 0hPa | 2.5V | 08:30:00 | 02:04:31 | 00:00:00 | |
| DO3MHA-11 | 2026-09-05 00:38:15 | 45.61371 | 9.47929 | 91° | 7km/h | 29670m | 5.8m/s | -44.0°C | 2.9% | 0hPa | 2.6V | 00:00:00 | 02:04:32 | 08:30:00 | |
| RDZBGO | 2026-09-05 00:38:12 | 45.61368 | 9.47928 | 357° | 13km/h | 29657m | 5.5m/s | -44.0°C | 0.8% | 0hPa | 2.7V | 00:00:00 | 00:00:00 | 00:00:00 | |
| HARRO8 | 2026-09-05 00:38:11 | 45.61358 | 9.47932 | 328° | 9km/h | 29641m | 6.4m/s | -43.9°C | 0.8% | -1.0hPa | 2.7V | 00:00:00 | 00:00:00 | 00:00:00 | |
| IW2NTF | 2026-09-05 00:38:05 | 45.61361 | 9.47934 | 161° | 5km/h | 29606m | 5m/s | -43.9°C | 2.8% | 0hPa | 2.7V | 08:30:00 | 02:04:21 | 00:00:00 | |
| DO3MHA-11 | 2026-09-05 00:38:05 | 45.61360 | 9.47935 | 148° | 11km/h | 29611m | 5.5m/s | -43.9°C | 2.8% | 0hPa | 2.5V | 00:00:00 | 02:04:22 | 00:00:00 | |
| OE5DRO-10 | 2026-09-05 00:38:02 | 45.61366 | 9.47934 | 208° | 15km/h | 29594m | 6.2m/s | -43.9°C | 2.9% | 0hPa | 2.5V | 00:00:00 | 00:00:00 | 00:00:00 | |
| DB0UT-7 | 2026-09-05 00:38:00 | 45.61369 | 9.47941 | 249° | 15km/h | 29583m | 4.8m/s | -43.9°C | 2.9% | 0hPa | 2.6V | 00:00:00 | 02:04:17 | 00:00:00 | |
| IW2NTF | 2026-09-05 00:37:59 | 45.61367 | 9.47967 | 209° | 13km/h | 29541m | 6.1m/s | -43.8°C | 2.9% | 0hPa | 2.6V | 08:30:00 | 02:04:10 | 00:00:00 | |
| DO3MHA-11 | 2026-09-05 00:37:55 | 45.61364 | 9.47961 | 285° | 16km/h | 29554m | 6.4m/s | -43.8°C | 2.9% | 0hPa | 2.6V | 00:00:00 | 02:04:12 | 00:00:00 | |
| S52SK | 2026-09-05 00:37:54 | 45.61364 | 9.47961 | 286° | 9km/h | 29554m | 6.4m/s | -43.9°C | 0% | 0hPa | 2.6V | 00:00:00 | 00:00:00 | 00:00:00 | |
| PG1ADW-2 | 2026-09-05 00:37:51 | 45.61374 | 9.47969 | 182° | 16km/h | 29529m | 6.6m/s | -43.7°C | 2.9% | 0hPa | 2.6V | 00:00:00 | 00:00:00 | 00:00:00 | |
| RDZBGO | 2026-09-05 00:37:50 | 45.61373 | 9.47969 | 182° | 16km/h | 29529m | 6.6m/s | -43.8°C | 0.9% | 0hPa | 2.6V | 00:00:00 | 00:00:00 | 00:00:00 | |
| S52SK | 2026-09-05 00:37:49 | 45.61378 | 9.47969 | 179° | 18km/h | 29523m | 5.2m/s | -43.8°C | 0% | 0hPa | 2.6V | 00:00:00 | 00:00:00 | 00:00:00 | |
| DO3MHA-11 | 2026-09-05 00:37:45 | 45.61399 | 9.47979 | 226° | 11km/h | 29495m | 4.8m/s | -43.6°C | 2.8% | 0hPa | 2.6V | 00:00:00 | 02:04:02 | 00:00:00 | |
| NBG1-10 | 2026-09-05 00:37:44 | 45.61401 | 9.47982 | 239° | 15km/h | 29489m | 6.6m/s | -43.6°C | 2.8% | 0hPa | 2.6V | 00:00:00 | 02:04:01 | 00:00:00 | |
| IW2NTF | 2026-09-05 00:37:43 | 45.61401 | 9.47984 | 179° | 2km/h | 29472m | 4.9m/s | -43.6°C | 2.8% | 0hPa | 2.6V | 08:30:00 | 02:03:58 | 00:00:00 | |
| OE5DRO-10 | 2026-09-05 00:37:43 | 45.61401 | 9.47983 | 281° | 13km/h | 29483m | 6.0m/s | -43.6°C | 2.8% | 0hPa | 2.7V | 00:00:00 | 00:00:00 | 00:00:00 | |
| HARRO8 | 2026-09-05 00:37:39 | 45.61404 | 9.47985 | 188° | 13km/h | 29460m | 6.2m/s | -43.5°C | 0.8% | -1.0hPa | 2.7V | 00:00:00 | 00:00:00 | 00:00:00 | |
| DO3MHA-11 | 2026-09-05 00:37:35 | 45.61426 | 9.47986 | 173° | 15km/h | 29436m | 6.0m/s | -43.4°C | 2.8% | 0hPa | 2.7V | 00:00:00 | 02:03:52 | 00:00:00 | |
| DL1ZP-14 | 2026-09-05 00:37:34 | 45.61431 | 9.47985 | 171° | 20km/h | 29431m | 5.0m/s | -43.5°C | 0.8% | -1.0hPa | 2.7V | 00:00:00 | 00:00:00 | 00:00:00 | |
| IW2NTF | 2026-09-05 00:37:33 | 45.61453 | 9.48000 | 203° | 5km/h | 29390m | 6.3m/s | -43.6°C | 2.8% | 0hPa | 2.5V | 08:30:00 | 02:03:44 | 00:00:00 | |
| PG1ADW-2 | 2026-09-05 00:37:31 | 45.61444 | 9.47986 | 211° | 20km/h | 29414m | 6.9m/s | -43.5°C | 2.8% | 0hPa | 2.6V | 00:00:00 | 00:00:00 | 00:00:00 | |
| DB0UT-7 | 2026-09-05 00:37:30 | 45.61447 | 9.47990 | 227° | 15km/h | 29408m | 5.7m/s | -43.5°C | 2.8% | 0hPa | 2.5V | 00:00:00 | 00:00:00 | 00:00:00 | |
| RDZBGO | 2026-09-05 00:37:28 | 45.61450 | 9.47995 | 235° | 15km/h | 29402m | 5.0m/s | -43.6°C | 0.8% | 0hPa | 2.5V | 00:00:00 | 00:00:00 | 00:00:00 | |
| DO3MHA-11 | 2026-09-05 00:37:25 | 45.61457 | 9.47998 | 147° | 16km/h | 29379m | 5.1m/s | -43.6°C | 2.8% | 0hPa | 2.5V | 00:00:00 | 02:03:42 | 00:00:00 | |
| OE5DRO-10 | 2026-09-05 00:37:24 | 45.61460 | 9.47995 | 156° | 16km/h | 29374m | 5.9m/s | -43.6°C | 2.8% | 0hPa | 2.5V | 00:00:00 | 00:00:00 | 00:00:00 | |
| IW2NTF | 2026-09-05 00:37:22 | 45.61494 | 9.47987 | 141° | 5km/h | 29332m | 5.7m/s | -43.7°C | 2.8% | 0hPa | 2.5V | 08:30:00 | 02:03:34 | 00:00:00 | |
| DO3MHA-11 | 2026-09-05 00:37:15 | 45.61495 | 9.47986 | 205° | 18km/h | 29322m | 5.6m/s | -43.7°C | 2.8% | 0hPa | 2.6V | 00:00:00 | 02:03:32 | 00:00:00 | |
| IW2NTF | 2026-09-05 00:37:12 | 45.61528 | 9.47980 | 130° | 20km/h | 29276m | 4.8m/s | -43.7°C | 2.8% | 0hPa | 2.5V | 08:30:00 | 02:03:24 | 00:00:00 | |
| NBG1-10 | 2026-09-05 00:37:11 | 45.61507 | 9.47993 | 187° | 16km/h | 29299m | 5.1m/s | -43.6°C | 2.8% | 0hPa | 2.6V | 00:00:00 | 02:03:28 | 00:00:00 | |
| HARRO8 | 2026-09-05 00:37:08 | 45.61523 | 9.47986 | 138° | 24km/h | 29282m | 4.9m/s | -43.7°C | 0.8% | -1.0hPa | 2.6V | 00:00:00 | 00:00:00 | 00:00:00 | |
| PG1ADW-2 | 2026-09-05 00:37:07 | 45.61527 | 9.47980 | 131° | 13km/h | 29277m | 4.8m/s | -43.6°C | 2.8% | 0hPa | 2.6V | 00:00:00 | 00:00:00 | 00:00:00 | |
| DO3MHA-11 | 2026-09-05 00:37:05 | 45.61533 | 9.47971 | 133° | 13km/h | 29264m | 6.9m/s | -43.6°C | 2.8% | 0hPa | 2.6V | 00:00:00 | 02:03:22 | 00:00:00 | |
| DL1ZP-14 | 2026-09-05 00:37:03 | 45.61535 | 9.47969 | 206° | 4km/h | 29251m | 5.8m/s | -43.7°C | 0.8% | -1.0hPa | 2.6V | 00:00:00 | 00:00:00 | 00:00:00 | |
| IW2NTF | 2026-09-05 00:37:02 | 45.61550 | 9.47958 | 141° | 24km/h | 29216m | 5.4m/s | -43.7°C | 2.8% | 0hPa | 2.5V | 08:30:00 | 02:03:14 | 00:00:00 | |
| DB0UT-7 | 2026-09-05 00:37:00 | 45.61540 | 9.47970 | 158° | 16km/h | 29234m | 6.1m/s | -43.6°C | 2.8% | 0hPa | 2.6V | 00:00:00 | 02:03:17 | 00:00:00 | |
| DO3MHA-11 | 2026-09-05 00:36:55 | 45.61560 | 9.47949 | 151° | 13km/h | 29204m | 6.4m/s | -43.8°C | 2.7% | 0hPa | 2.5V | 00:00:00 | 02:03:12 | 00:00:00 | |
| IW2NTF | 2026-09-05 00:36:52 | 45.61555 | 9.47924 | 31° | 9km/h | 29157m | 6.2m/s | -44.2°C | 2.8% | 0hPa | 2.5V | 08:30:00 | 02:03:04 | 00:00:00 | |
| RDZBGO | 2026-09-05 00:36:48 | 45.61561 | 9.47930 | 42° | 16km/h | 29168m | 4.9m/s | -44.2°C | 0.9% | 0hPa | 2.5V | 00:00:00 | 00:00:00 | 00:00:00 | |
| OE5DRO-10 | 2026-09-05 00:36:46 | 45.61554 | 9.47923 | 40° | 18km/h | 29151m | 5.8m/s | -44.2°C | 2.8% | 0hPa | 2.5V | 00:00:00 | 00:00:00 | 00:00:00 | |
| PG1ADW-2 | 2026-09-05 00:36:45 | 45.61554 | 9.47923 | 146° | 18km/h | 29146m | 5.5m/s | -44.2°C | 2.9% | 0hPa | 2.5V | 00:00:00 | 02:03:02 | 00:00:00 | |
| IW2NTF | 2026-09-05 00:36:42 | 45.61574 | 9.47869 | 112° | 20km/h | 29098m | 5.4m/s | -44.3°C | 2.9% | 0hPa | 2.5V | 08:30:00 | 02:02:54 | 00:00:00 | |
| NBG1-10 | 2026-09-05 00:36:38 | 45.61571 | 9.47877 | 115° | 18km/h | 29104m | 6.4m/s | -44.3°C | 2.9% | 0hPa | 2.5V | 00:00:00 | 02:02:55 | 00:00:00 | |
| HARRO8 | 2026-09-05 00:36:37 | 45.61574 | 9.47869 | 112° | 20km/h | 29098m | 5.4m/s | -44.3°C | 0.8% | -1.0hPa | 2.5V | 00:00:00 | 00:00:00 | 00:00:00 | |
| DO3MHA-11 | 2026-09-05 00:36:35 | 45.61576 | 9.47858 | 84° | 18km/h | 29087m | 5.9m/s | -44.3°C | 2.9% | 0hPa | 2.5V | 00:00:00 | 02:02:52 | 00:00:00 | |
| IW2NTF | 2026-09-05 00:36:32 | 45.61563 | 9.47810 | 97° | 16km/h | 29038m | 5.2m/s | -44.4°C | 2.9% | 0hPa | 2.5V | 08:30:00 | 02:02:44 | 00:00:00 | |
| DB0UT-7 | 2026-09-05 00:36:30 | 45.61564 | 9.47826 | 67° | 20km/h | 29056m | 6.8m/s | -44.3°C | 2.9% | 0hPa | 2.6V | 00:00:00 | 00:00:00 | 00:00:00 | |
| OE5DRO-10 | 2026-09-05 00:36:27 | 45.61563 | 9.47810 | 98° | 22km/h | 29038m | 5.2m/s | -44.4°C | 2.9% | 0hPa | 2.6V | 00:00:00 | 00:00:00 | 00:00:00 | |
| PG1ADW-2 | 2026-09-05 00:36:25 | 45.61563 | 9.47795 | 87° | 18km/h | 29025m | 6.1m/s | -44.4°C | 2.9% | 0hPa | 2.6V | 00:00:00 | 00:00:00 | 08:30:00 | |
| IW2NTF | 2026-09-05 00:36:22 | 45.61550 | 9.47737 | 62° | 26km/h | 28979m | 6.7m/s | -44.5°C | 2.9% | 0hPa | 2.5V | 08:30:00 | 02:02:34 | 00:00:00 | |
| DO3MHA-11 | 2026-09-05 00:36:15 | 45.61542 | 9.47719 | 57° | 16km/h | 28967m | 5.2m/s | -44.5°C | 2.9% | 0hPa | 2.6V | 00:00:00 | 02:02:32 | 00:00:00 | |
| IW2NTF | 2026-09-05 00:36:12 | 45.61522 | 9.47674 | 50° | 18km/h | 28919m | 5.7m/s | -44.6°C | 3% | 0hPa | 2.5V | 08:30:00 | 02:02:24 | 00:00:00 | |
| OE5DXL-15 | 2026-09-05 00:36:08 | 45.61524 | 9.47678 | 54° | 20km/h | 28925m | 6.3m/s | -44.6°C | 2.9% | 0hPa | 2.6V | 00:00:00 | 00:00:00 | 00:00:00 | |
| RDZBGO | 2026-09-05 00:36:07 | 45.61524 | 9.47678 | 54° | 15km/h | 28925m | 6.3m/s | -44.6°C | 0.9% | 0hPa | 2.6V | 00:00:00 | 00:00:00 | 00:00:00 | |
| HARRO8 | 2026-09-05 00:36:06 | 45.61519 | 9.47669 | 50° | 18km/h | 28913m | 5.4m/s | -44.6°C | 0.9% | -1.0hPa | 2.6V | 00:00:00 | 00:00:00 | 00:00:00 | |
| PG1ADW-2 | 2026-09-05 00:36:05 | 45.61516 | 9.47663 | 55° | 20km/h | 28908m | 6.2m/s | -44.6°C | 2.9% | 0hPa | 2.6V | 00:00:00 | 00:00:00 | 00:00:00 | |
| DO3MHA-11 | 2026-09-05 00:36:03 | 45.61511 | 9.47653 | 61° | 22km/h | 28895m | 5.1m/s | -44.6°C | 2.9% | 0hPa | 2.6V | 00:00:00 | 02:02:20 | 00:00:00 | |
| IW2NTF | 2026-09-05 00:36:02 | 45.61491 | 9.47611 | 40° | 20km/h | 28861m | 6.5m/s | -44.7°C | 3% | 0hPa | 2.6V | 08:30:00 | 02:02:14 | 00:00:00 | |
| DL1ZP-14 | 2026-09-05 00:36:01 | 45.61506 | 9.47640 | 59° | 24km/h | 28884m | 6.8m/s | -44.6°C | 0.8% | -1.0hPa | 2.6V | 00:00:00 | 00:00:00 | 00:00:00 | |
| DB0UT-7 | 2026-09-05 00:36:00 | 45.61503 | 9.47632 | 57° | 18km/h | 28878m | 6.2m/s | -44.6°C | 2.9% | 0hPa | 2.5V | 00:00:00 | 02:02:17 | 00:00:00 | |
| DO3MHA-11 | 2026-09-05 00:35:53 | 45.61474 | 9.47609 | 351° | 20km/h | 28839m | 5.8m/s | -44.7°C | 3.0% | 0hPa | 2.5V | 00:00:00 | 02:02:10 | 00:00:00 | |
| IW2NTF | 2026-09-05 00:35:52 | 45.61447 | 9.47588 | 83° | 18km/h | 28803m | 6.1m/s | -44.6°C | 2.9% | 0hPa | 2.5V | 08:30:00 | 02:02:04 | 00:00:00 | |
| OE5DRO-10 | 2026-09-05 00:35:49 | 45.61451 | 9.47600 | 43° | 16km/h | 28816m | 5.4m/s | -44.6°C | 2.9% | 0hPa | 2.7V | 00:00:00 | 00:00:00 | 00:00:00 | |
| PG1ADW-2 | 2026-09-05 00:35:45 | 45.61447 | 9.47575 | 99° | 13km/h | 28793m | 4.6m/s | 0°C | 0% | 0hPa | 2.7V | 00:00:00 | 00:00:00 | 00:00:00 | |
| DO3MHA-11 | 2026-09-05 00:35:43 | 45.61446 | 9.47563 | 67° | 15km/h | 28782m | 5.8m/s | -44.5°C | 2.9% | 0hPa | 2.7V | 00:00:00 | 02:02:00 | 00:00:00 | |
| IW2NTF | 2026-09-05 00:35:42 | 45.61423 | 9.47552 | 345° | 11km/h | 28748m | 5m/s | -44.4°C | 2.9% | 0hPa | 2.5V | 08:30:00 | 02:01:54 | 00:00:00 | |
| OE5DXL-15 | 2026-09-05 00:35:38 | 45.61426 | 9.47551 | 352° | 11km/h | 28754m | 5.7m/s | -44.4°C | 2.9% | 0hPa | 2.5V | 00:00:00 | 00:00:00 | 00:00:00 | |
| HARRO8 | 2026-09-05 00:35:35 | 45.61419 | 9.47552 | 22° | 9km/h | 28738m | 6.6m/s | -44.4°C | 0.8% | -1.0hPa | 2.5V | 00:00:00 | 00:00:00 | 00:00:00 | |
| DO3MHA-11 | 2026-09-05 00:35:33 | 45.61414 | 9.47546 | 51° | 11km/h | 28726m | 5.3m/s | -44.4°C | 2.9% | 0hPa | 2.5V | 00:00:00 | 02:01:50 | 00:00:00 | |
| IW2NTF | 2026-09-05 00:35:32 | 45.61407 | 9.47532 | 11° | 7km/h | 28694m | 5.4m/s | -44.4°C | 3% | 0hPa | 2.5V | 08:30:00 | 02:01:44 | 00:00:00 | |
| NBG1-10 | 2026-09-05 00:35:32 | 45.61412 | 9.47542 | 59° | 9km/h | 28721m | 4.9m/s | -44.4°C | 2.9% | 0hPa | 2.5V | 00:00:00 | 02:01:49 | 00:00:00 | |
| DB0UT-7 | 2026-09-05 00:35:30 | 45.61410 | 9.47535 | 72° | 9km/h | 28709m | 6.3m/s | -44.4°C | 2.9% | 0hPa | 2.6V | 00:00:00 | 00:00:00 | 08:30:00 | |
| RDZBGO | 2026-09-05 00:35:26 | 45.61407 | 9.47532 | 12° | 7km/h | 28694m | 5.4m/s | -44.4°C | 0.9% | 0hPa | 2.5V | 00:00:00 | 00:00:00 | 00:00:00 | |
| PG1ADW-2 | 2026-09-05 00:35:25 | 45.61402 | 9.47530 | 20° | 11km/h | 28682m | 5.8m/s | 0°C | 0% | 0hPa | 2.5V | 00:00:00 | 02:01:42 | 00:00:00 | |
| S52SK | 2026-09-05 00:35:24 | 45.61402 | 9.47530 | 21° | 16km/h | 28682m | 5.8m/s | -44.4°C | 0% | 0hPa | 2.5V | 00:00:00 | 00:00:00 | 00:00:00 | |
| DO3MHA-11 | 2026-09-05 00:35:23 | 45.61393 | 9.47526 | 17° | 9km/h | 28672m | 4.8m/s | -44.3°C | 2.9% | 0hPa | 2.5V | 00:00:00 | 02:01:40 | 00:00:00 | |
| IW2NTF | 2026-09-05 00:35:22 | 45.61384 | 9.47525 | 31° | 7km/h | 28638m | 6m/s | -44.2°C | 2.9% | 0hPa | 2.5V | 08:30:00 | 02:01:34 | 00:00:00 | |
| S52SK | 2026-09-05 00:35:19 | 45.61386 | 9.47525 | 331° | 4km/h | 28654m | 4.8m/s | -44.3°C | 0% | 0hPa | 2.7V | 00:00:00 | 00:00:00 | 00:00:00 | |
| DO3MHA-11 | 2026-09-05 00:35:13 | 45.61370 | 9.47518 | 6° | 11km/h | 28616m | 6.3m/s | -44.1°C | 2.9% | 0hPa | 2.7V | 00:00:00 | 02:01:30 | 08:30:00 | |
| IW2NTF | 2026-09-05 00:35:12 | 45.61351 | 9.47520 | 13° | 11km/h | 28582m | 4.9m/s | -44.1°C | 2.9% | 0hPa | 2.5V | 08:30:00 | 02:01:24 | 00:00:00 | |
| OE5DRO-10 | 2026-09-05 00:35:11 | 45.61363 | 9.47519 | 345° | 9km/h | 28604m | 4.8m/s | -44.0°C | 2.9% | 0hPa | 2.6V | 00:00:00 | 00:00:00 | 00:00:00 | |
| PG1ADW-2 | 2026-09-05 00:35:05 | 45.61347 | 9.47519 | 27° | 7km/h | 28571m | 6.8m/s | 0°C | 0% | 0hPa | 2.5V | 00:00:00 | 00:00:00 | 00:00:00 | |
| HARRO8 | 2026-09-05 00:35:04 | 45.61347 | 9.47518 | 44° | 0km/h | 28564m | 6.2m/s | -44.2°C | 0.8% | -1.0hPa | 2.5V | 00:00:00 | 00:00:00 | 00:00:00 | |
| DO3MHA-11 | 2026-09-05 00:35:03 | 45.61346 | 9.47517 | 69° | 9km/h | 28559m | 5.5m/s | -44.1°C | 2.9% | 0hPa | 2.5V | 00:00:00 | 02:01:20 | 00:00:00 | |
| IW2NTF | 2026-09-05 00:35:02 | 45.61333 | 9.47508 | 2° | 11km/h | 28523m | 6.6m/s | -44.2°C | 2.8% | 0hPa | 2.5V | 08:30:00 | 02:01:14 | 00:00:00 | |
| DB0UT-7 | 2026-09-05 00:35:00 | 45.61342 | 9.47512 | 32° | 7km/h | 28541m | 4.7m/s | -44.1°C | 2.8% | 0hPa | 2.5V | 00:00:00 | 02:01:17 | 00:00:00 | |
| NBG1-10 | 2026-09-05 00:34:59 | 45.61339 | 9.47510 | 26° | 7km/h | 28536m | 4.8m/s | -44.1°C | 2.8% | 0hPa | 2.5V | 00:00:00 | 02:01:16 | 00:00:00 | |
| DO3MHA-11 | 2026-09-05 00:34:53 | 45.61324 | 9.47508 | 22° | 5km/h | 28500m | 6.3m/s | -44.3°C | 2.8% | 0hPa | 2.5V | 00:00:00 | 02:01:10 | 00:00:00 | |
| IW2NTF | 2026-09-05 00:34:52 | 45.61321 | 9.47502 | 207° | 5km/h | 28466m | 4.7m/s | -44.7°C | 2.9% | 0hPa | 2.5V | 08:30:00 | 02:01:04 | 00:00:00 | |
| OE5DRO-10 | 2026-09-05 00:34:52 | 45.61322 | 9.47506 | 33° | 5km/h | 28494m | 5.2m/s | -44.3°C | 2.8% | 0hPa | 2.6V | 00:00:00 | 00:00:00 | 00:00:00 | |
| PG1ADW-2 | 2026-09-05 00:34:45 | 45.61322 | 9.47504 | 290° | 9km/h | 28454m | 5.8m/s | 0°C | 0% | 0hPa | 2.6V | 00:00:00 | 00:00:00 | 00:00:00 | |
| DO3MHA-11 | 2026-09-05 00:34:43 | 45.61321 | 9.47507 | 302° | 7km/h | 28443m | 6.3m/s | -44.8°C | 2.9% | 0hPa | 2.6V | 00:00:00 | 02:01:00 | 00:00:00 | |
| IW2NTF | 2026-09-05 00:34:42 | 45.61312 | 9.47505 | 50° | 9km/h | 28408m | 5m/s | -45°C | 2.9% | 0hPa | 2.5V | 08:30:00 | 02:00:54 | 00:00:00 | |
| DO3MHA-11 | 2026-09-05 00:34:33 | 45.61315 | 9.47502 | 202° | 5km/h | 28386m | 5.0m/s | -45.0°C | 2.9% | 0hPa | 2.6V | 00:00:00 | 02:00:50 | 00:00:00 | |
| IW2NTF | 2026-09-05 00:34:31 | 45.61314 | 9.47510 | 61° | 4km/h | 28346m | 5.3m/s | -45.1°C | 2.9% | 0hPa | 2.6V | 08:30:00 | 02:00:43 | 00:00:00 | |
| DB0UT-7 | 2026-09-05 00:34:30 | 45.61316 | 9.47506 | 303° | 7km/h | 28369m | 4.4m/s | -45.0°C | 2.9% | 0hPa | 2.6V | 00:00:00 | 00:00:00 | 00:00:00 | |
| DL1ZP-14 | 2026-09-05 00:34:28 | 45.61315 | 9.47509 | 303° | 4km/h | 28358m | 5.8m/s | -45.1°C | 0.8% | -1.0hPa | 2.6V | 00:00:00 | 00:00:00 | 00:00:00 | |
| NBG1-10 | 2026-09-05 00:34:26 | 45.61314 | 9.47510 | 62° | 7km/h | 28347m | 5.3m/s | -45.0°C | 2.9% | 0hPa | 2.6V | 00:00:00 | 02:00:43 | 00:00:00 | |
| RDZBGO | 2026-09-05 00:34:25 | 45.61314 | 9.47510 | 62° | 4km/h | 28347m | 5.3m/s | -45.1°C | 0.9% | 0hPa | 2.6V | 00:00:00 | 00:00:00 | 00:00:00 | |
| DO3MHA-11 | 2026-09-05 00:34:23 | 45.61311 | 9.47499 | 69° | 11km/h | 28329m | 5.0m/s | -45.1°C | 2.9% | 0hPa | 2.6V | 00:00:00 | 02:00:40 | 00:00:00 | |
| IW2NTF | 2026-09-05 00:34:20 | 45.61322 | 9.47488 | 225° | 4km/h | 28283m | 4.8m/s | -45.4°C | 2.9% | 0hPa | 2.6V | 08:30:00 | 02:00:32 | 00:00:00 | |
| OE5DRO-10 | 2026-09-05 00:34:14 | 45.61322 | 9.47488 | 238° | 5km/h | 28279m | 5.1m/s | -45.3°C | 2.9% | 0hPa | 2.7V | 00:00:00 | 00:00:00 | 00:00:00 | |
| DO3MHA-11 | 2026-09-05 00:34:13 | 45.61322 | 9.47489 | 201° | 5km/h | 28273m | 5.8m/s | -45.4°C | 2.9% | 0hPa | 2.6V | 00:00:00 | 02:00:30 | 00:00:00 | |
| IW2NTF | 2026-09-05 00:34:11 | 45.61319 | 9.47480 | 67° | 4km/h | 28228m | 5.7m/s | -46°C | 3% | 0hPa | 2.6V | 08:30:00 | 02:00:22 | 00:00:00 | |
| RDZBGO | 2026-09-05 00:34:04 | 45.61319 | 9.47480 | 68° | 4km/h | 28229m | 5.7m/s | -46.0°C | 0.9% | 0hPa | 2.6V | 00:00:00 | 00:00:00 | 00:00:00 | |
| DO3MHA-11 | 2026-09-05 00:34:03 | 45.61321 | 9.47477 | 161° | 5km/h | 28217m | 5.2m/s | -46.0°C | 3.1% | 0hPa | 2.6V | 00:00:00 | 02:00:20 | 00:00:00 | |
| HARRO8 | 2026-09-05 00:34:02 | 45.61323 | 9.47477 | 165° | 9km/h | 28212m | 4.9m/s | -46.1°C | 0.9% | -1.0hPa | 2.6V | 00:00:00 | 00:00:00 | 00:00:00 | |
| IW2NTF | 2026-09-05 00:34:00 | 45.61329 | 9.47468 | 163° | 7km/h | 28171m | 5.8m/s | -46.5°C | 3.1% | 0hPa | 2.6V | 08:30:00 | 02:00:12 | 00:00:00 | |
| DL1ZP-14 | 2026-09-05 00:33:57 | 45.61327 | 9.47471 | 102° | 4km/h | 28184m | 5.8m/s | -46.3°C | 0.9% | -1.0hPa | 2.5V | 00:00:00 | 00:00:00 | 00:00:00 | |
| OE5DRO-10 | 2026-09-05 00:33:55 | 45.61329 | 9.47468 | 164° | 11km/h | 28171m | 5.7m/s | -46.4°C | 3.1% | 0hPa | 2.6V | 00:00:00 | 00:00:00 | 00:00:00 | |
| NBG1-10 | 2026-09-05 00:33:53 | 45.61332 | 9.47468 | 201° | 11km/h | 28160m | 6.5m/s | -46.6°C | 3.1% | 0hPa | 2.6V | 00:00:00 | 02:00:10 | 08:30:00 | |
| IW2NTF | 2026-09-05 00:33:50 | 45.61350 | 9.47484 | 163° | 7km/h | 28115m | 6.6m/s | -46.8°C | 3.2% | 0hPa | 2.6V | 08:30:00 | 02:00:02 | 00:00:00 | |
| RDZBGO | 2026-09-05 00:33:44 | 45.61351 | 9.47482 | 124° | 5km/h | 28109m | 5.8m/s | -46.7°C | 1.0% | 0hPa | 2.6V | 00:00:00 | 00:00:00 | 00:00:00 | |
| DO3MHA-11 | 2026-09-05 00:33:43 | 45.61351 | 9.47480 | 109° | 15km/h | 28104m | 5.1m/s | -46.7°C | 3.2% | 0hPa | 2.6V | 00:00:00 | 02:00:00 | 08:30:00 | |
| PG1ADW-2 | 2026-09-05 00:33:38 | 45.61364 | 9.47480 | 183° | 16km/h | 28075m | 5.3m/s | 0°C | 0% | 0hPa | 2.6V | 00:00:00 | 00:00:00 | 00:00:00 | |
| IW2NTF | 2026-09-05 00:33:35 | 45.61379 | 9.47475 | 156° | 18km/h | 28057m | 5m/s | -46.6°C | 3.1% | 0hPa | 2.6V | 08:30:00 | 01:59:52 | 00:00:00 | |
| S52SK | 2026-09-05 00:33:34 | 45.61379 | 9.47475 | 158° | 18km/h | 28057m | 5.0m/s | -46.6°C | 0% | 0hPa | 2.6V | 00:00:00 | 00:00:00 | 00:00:00 | |
| HARRO8 | 2026-09-05 00:33:31 | 45.61392 | 9.47471 | 197° | 7km/h | 28034m | 5.1m/s | -46.8°C | 0.9% | -1.0hPa | 2.6V | 00:00:00 | 00:00:00 | 00:00:00 | |
| IW2NTF | 2026-09-05 00:33:30 | 45.61400 | 9.47466 | 160° | 11km/h | 28001m | 5.9m/s | -47°C | 3.2% | 0hPa | 2.6V | 08:30:00 | 01:59:42 | 00:00:00 | |
| DB0UT-7 | 2026-09-05 00:33:30 | 45.61394 | 9.47472 | 200° | 13km/h | 28029m | 4.9m/s | -46.8°C | 3.1% | 0hPa | 2.6V | 00:00:00 | 00:00:00 | 00:00:00 | |
| S52SK | 2026-09-05 00:33:29 | 45.61394 | 9.47472 | 200° | 5km/h | 28029m | 4.9m/s | -46.8°C | 0% | 0hPa | 2.6V | 00:00:00 | 00:00:00 | 00:00:00 | |
| OE5DXL-15 | 2026-09-05 00:33:26 | 45.61398 | 9.47467 | 140° | 16km/h | 28007m | 4.8m/s | -46.9°C | 3.2% | 0hPa | 2.6V | 00:00:00 | 00:00:00 | 08:30:00 | |
| DO3MHA-11 | 2026-09-05 00:33:23 | 45.61406 | 9.47467 | 203° | 11km/h | 27989m | 5.2m/s | -46.9°C | 3.2% | 0hPa | 2.6V | 00:00:00 | 01:59:40 | 00:00:00 | |
| NBG1-10 | 2026-09-05 00:33:20 | 45.61414 | 9.47474 | 215° | 11km/h | 27974m | 6.3m/s | -46.9°C | 3.2% | 0hPa | 2.6V | 00:00:00 | 01:59:37 | 00:00:00 | |
| OE5DRO-10 | 2026-09-05 00:33:17 | 45.61416 | 9.47468 | 87° | 16km/h | 27956m | 5.2m/s | -47.0°C | 3.1% | 0hPa | 2.6V | 00:00:00 | 00:00:00 | 08:30:00 | |
| DO3MHA-11 | 2026-09-05 00:33:13 | 45.61421 | 9.47456 | 183° | 16km/h | 27934m | 5.4m/s | -47.3°C | 3.1% | 0hPa | 2.6V | 00:00:00 | 01:59:30 | 00:00:00 | |
| DO3MHA-11 | 2026-09-05 00:33:03 | 45.61459 | 9.47434 | 133° | 20km/h | 27876m | 5.9m/s | -47.8°C | 3.3% | 0hPa | 2.5V | 00:00:00 | 01:59:20 | 00:00:00 | |
| RDZBGO | 2026-09-05 00:33:02 | 45.61459 | 9.47434 | 134° | 22km/h | 27876m | 6.0m/s | -47.8°C | 1.0% | 0hPa | 2.5V | 00:00:00 | 00:00:00 | 00:00:00 | |
| DB0UT-7 | 2026-09-05 00:33:00 | 45.61465 | 9.47417 | 108° | 15km/h | 27858m | 4.9m/s | -47.8°C | 3.3% | 0hPa | 2.5V | 00:00:00 | 01:59:17 | 00:00:00 | |
| OE5DRO-10 | 2026-09-05 00:32:58 | 45.61470 | 9.47404 | 128° | 15km/h | 27846m | 6.0m/s | -47.9°C | 3.3% | 0hPa | 2.5V | 00:00:00 | 00:00:00 | 00:00:00 | |
| OE5DXL-15 | 2026-09-05 00:32:55 | 45.61483 | 9.47390 | 164° | 13km/h | 27829m | 6.8m/s | -48.0°C | 3.3% | 0hPa | 2.5V | 00:00:00 | 00:00:00 | 00:00:00 | |
| PG1ADW-2 | 2026-09-05 00:32:53 | 45.61490 | 9.47391 | 201° | 13km/h | 27817m | 5.0m/s | 0°C | 0% | 0hPa | 2.5V | 00:00:00 | 00:00:00 | 00:00:00 | |
| DO3MHA-11 | 2026-09-05 00:32:43 | 45.61497 | 9.47363 | 95° | 11km/h | 27760m | 6.4m/s | -48.3°C | 3.4% | 0hPa | 2.5V | 00:00:00 | 01:59:00 | 00:00:00 | |
| RDZBGO | 2026-09-05 00:32:41 | 45.61498 | 9.47359 | 126° | 15km/h | 27753m | 6.8m/s | -48.4°C | 1.0% | 0hPa | 2.7V | 00:00:00 | 00:00:00 | 00:00:00 | |
| OE5DRO-10 | 2026-09-05 00:32:39 | 45.61509 | 9.47351 | 172° | 11km/h | 27735m | 6.5m/s | -48.4°C | 3.4% | 0hPa | 2.7V | 00:00:00 | 00:00:00 | 00:00:00 | |
| PG1ADW-2 | 2026-09-05 00:32:33 | 45.61519 | 9.47347 | 100° | 11km/h | 27700m | 5.8m/s | 0°C | 0% | 0hPa | 2.7V | 00:00:00 | 00:00:00 | 00:00:00 | |
| DB0UT-7 | 2026-09-05 00:32:30 | 45.61517 | 9.47333 | 57° | 11km/h | 27682m | 7.0m/s | -48.6°C | 3.4% | 0hPa | 2.7V | 00:00:00 | 00:00:00 | 00:00:00 | |
| HARRO8 | 2026-09-05 00:32:29 | 45.61513 | 9.47329 | 30° | 5km/h | 27669m | 5.4m/s | -48.7°C | 1.0% | -1.0hPa | 2.7V | 00:00:00 | 00:00:00 | 00:00:00 | |
| OE5DXL-15 | 2026-09-05 00:32:25 | 45.61515 | 9.47326 | 172° | 11km/h | 27651m | 6.0m/s | -48.7°C | 3.4% | 0hPa | 2.7V | 00:00:00 | 00:00:00 | 00:00:00 | |
| DO3MHA-11 | 2026-09-05 00:32:23 | 45.61523 | 9.47325 | 183° | 15km/h | 27640m | 6.1m/s | -48.7°C | 3.4% | 0hPa | 2.7V | 00:00:00 | 01:58:40 | 00:00:00 | |
| RDZBGO | 2026-09-05 00:32:21 | 45.61527 | 9.47326 | 185° | 16km/h | 27633m | 6.5m/s | -48.8°C | 0% | 0hPa | 2.7V | 00:00:00 | 00:00:00 | 00:00:00 | |
| OE5DRO-10 | 2026-09-05 00:32:20 | 45.61534 | 9.47325 | 152° | 9km/h | 27622m | 5.8m/s | -48.8°C | 3.4% | 0hPa | 2.7V | 00:00:00 | 00:00:00 | 00:00:00 | |
| DO3MHA-11 | 2026-09-05 00:32:13 | 45.61529 | 9.47301 | 354° | 7km/h | 27580m | 5.5m/s | -49.0°C | 3.5% | 0hPa | 2.5V | 00:00:00 | 01:58:30 | 08:30:00 | |
| NBG1-10 | 2026-09-05 00:32:11 | 45.61526 | 9.47303 | 289° | 7km/h | 27568m | 6.0m/s | -49.1°C | 3.5% | 0hPa | 2.7V | 00:00:00 | 01:58:28 | 00:00:00 | |
| HARRO8 | 2026-09-05 00:31:58 | 45.61529 | 9.47307 | 318° | 15km/h | 27486m | 5.2m/s | -49.3°C | 1.0% | -1.0hPa | 2.7V | 00:00:00 | 00:00:00 | 00:00:00 | |
| DL1ZP-14 | 2026-09-05 00:31:53 | 45.61526 | 9.47323 | 258° | 9km/h | 27456m | 6.0m/s | 0°C | -1.0% | -1.0hPa | 2.7V | 00:00:00 | 00:00:00 | 00:00:00 | |
| DO3MHA-11 | 2026-09-05 00:31:43 | 45.61520 | 9.47319 | 358° | 7km/h | 27405m | 4.4m/s | -49.1°C | 3.5% | 0hPa | 2.7V | 00:00:00 | 01:58:00 | 00:00:00 | |
| OE5DRO-10 | 2026-09-05 00:31:42 | 45.61516 | 9.47319 | 355° | 7km/h | 27400m | 5.5m/s | -49.0°C | 3.5% | 0hPa | 2.7V | 00:00:00 | 00:00:00 | 00:00:00 | |
| RDZBGO | 2026-09-05 00:31:39 | 45.61513 | 9.47320 | 0° | 0km/h | 27388m | 5.8m/s | 0°C | 0% | 0hPa | 2.7V | 00:00:00 | 00:00:00 | 00:00:00 | |
| NBG1-10 | 2026-09-05 00:31:38 | 45.61514 | 9.47323 | 222° | 7km/h | 27377m | 5.8m/s | -49.0°C | 3.5% | 0hPa | 2.7V | 00:00:00 | 01:57:55 | 00:00:00 | |
| DO3MHA-11 | 2026-09-05 00:31:32 | 45.61520 | 9.47332 | 88° | 9km/h | 27344m | 5.7m/s | -49.0°C | 3.4% | 0hPa | 2.6V | 00:00:00 | 01:57:49 | 00:00:00 | |
| DB0UT-7 | 2026-09-05 00:31:30 | 45.61518 | 9.47327 | 40° | 7km/h | 27332m | 6.0m/s | -49.1°C | 3.5% | 0hPa | 2.6V | 00:00:00 | 00:00:00 | 00:00:00 | |
| S52SK | 2026-09-05 00:31:26 | 45.61511 | 9.47327 | 335° | 11km/h | 27316m | 4.8m/s | -49.3°C | 0% | 0hPa | 2.6V | 00:00:00 | 00:00:00 | 00:00:00 | |
| OE5DXL-15 | 2026-09-05 00:31:25 | 45.61508 | 9.47330 | 314° | 7km/h | 27304m | 5.8m/s | 0°C | 0% | 0hPa | 2.6V | 00:00:00 | 00:00:00 | 00:00:00 | |
| OE5DRO-10 | 2026-09-05 00:31:23 | 45.61506 | 9.47334 | 278° | 7km/h | 27293m | 5.5m/s | -49.3°C | 3.6% | 0hPa | 2.6V | 00:00:00 | 00:00:00 | 00:00:00 | |
| IW2NTF | 2026-09-05 00:31:22 | 45.61503 | 9.47345 | 37° | 5km/h | 27256m | 4.7m/s | -49.5°C | 3.6% | 0hPa | 2.6V | 08:30:00 | 01:57:33 | 00:00:00 | |
| DO3MHA-11 | 2026-09-05 00:31:21 | 45.61506 | 9.47341 | 283° | 7km/h | 27281m | 4.7m/s | -49.4°C | 3.6% | 0hPa | 2.7V | 00:00:00 | 01:57:38 | 00:00:00 | |
| S52SK | 2026-09-05 00:31:20 | 45.61506 | 9.47341 | 284° | 11km/h | 27281m | 4.8m/s | -49.4°C | 0% | 0hPa | 2.7V | 00:00:00 | 00:00:00 | 00:00:00 | |
| S52SK | 2026-09-05 00:31:14 | 45.61502 | 9.47345 | 11° | 7km/h | 27250m | 6.1m/s | -49.6°C | 0% | 0hPa | 2.7V | 00:00:00 | 00:00:00 | 00:00:00 | |
| DO3MHA-11 | 2026-09-05 00:31:10 | 45.61491 | 9.47350 | 349° | 5km/h | 27224m | 5.7m/s | -49.5°C | 3.6% | 0hPa | 2.7V | 00:00:00 | 01:57:27 | 00:00:00 | |
| DF7PN | 2026-09-05 00:31:09 | 45.61491 | 9.47350 | 87° | 2km/h | 27218m | 4.9m/s | 0°C | -1.0% | -1.0hPa | 2.7V | 00:00:00 | 00:00:00 | 00:00:00 | |
| S52SK | 2026-09-05 00:31:08 | 45.61490 | 9.47349 | 88° | 4km/h | 27218m | 4.9m/s | -49.5°C | 0% | 0hPa | 2.7V | 00:00:00 | 00:00:00 | 00:00:00 | |
| IW2NTF | 2026-09-05 00:31:05 | 45.61491 | 9.47360 | 32° | 2km/h | 27166m | 5m/s | -49.5°C | 3.6% | 0hPa | 2.7V | 08:30:00 | 01:57:16 | 00:00:00 | |
| NBG1-10 | 2026-09-05 00:31:05 | 45.61490 | 9.47347 | 299° | 9km/h | 27198m | 5.4m/s | -49.5°C | 3.6% | 0hPa | 2.6V | 00:00:00 | 01:57:22 | 00:00:00 | |
| OE5DRO-10 | 2026-09-05 00:31:04 | 45.61489 | 9.47350 | 281° | 7km/h | 27193m | 4.6m/s | -49.5°C | 3.6% | 0hPa | 2.6V | 00:00:00 | 00:00:00 | 00:00:00 | |
| HARRO8 | 2026-09-05 00:30:56 | 45.61483 | 9.47360 | 176° | 2km/h | 27135m | 6.1m/s | -49.5°C | 1.0% | -1.0hPa | 2.6V | 00:00:00 | 00:00:00 | 00:00:00 | |
| OE5DXL-15 | 2026-09-05 00:30:55 | 45.61484 | 9.47359 | 353° | 13km/h | 27145m | 3.9m/s | 0°C | 0% | 0hPa | 2.6V | 00:00:00 | 00:00:00 | 00:00:00 | |
| IW2NTF | 2026-09-05 00:30:53 | 45.61486 | 9.47348 | 14° | 16km/h | 27105m | 5.6m/s | -49.6°C | 3.6% | 0hPa | 2.6V | 08:30:00 | 01:57:04 | 00:00:00 | |
| DO3MHA-11 | 2026-09-05 00:30:49 | 45.61490 | 9.47353 | 98° | 13km/h | 27116m | 5.2m/s | -49.5°C | 3.5% | 0hPa | 2.6V | 00:00:00 | 01:57:06 | 00:00:00 | |
| OE5DRO-10 | 2026-09-05 00:30:45 | 45.61477 | 9.47348 | 351° | 13km/h | 27095m | 5.1m/s | -49.6°C | 3.6% | 0hPa | 2.6V | 00:00:00 | 00:00:00 | 00:00:00 | |
| DO3MHA-11 | 2026-09-05 00:30:39 | 45.61464 | 9.47354 | 77° | 13km/h | 27064m | 5.1m/s | -49.6°C | 3.6% | 0hPa | 2.6V | 00:00:00 | 01:56:56 | 08:30:00 | |
| IW2NTF | 2026-09-05 00:30:35 | 45.61468 | 9.47337 | 93° | 9km/h | 27039m | 4.2m/s | -49.7°C | 3.6% | 0hPa | 2.6V | 08:30:00 | 01:56:51 | 00:00:00 | |
| NBG1-10 | 2026-09-05 00:30:32 | 45.61465 | 9.47330 | 42° | 15km/h | 27028m | 5.6m/s | -49.6°C | 3.6% | 0hPa | 2.6V | 00:00:00 | 01:56:49 | 00:00:00 | |
| DB0UT-7 | 2026-09-05 00:30:30 | 45.61458 | 9.47325 | 13° | 15km/h | 27017m | 5.7m/s | -49.6°C | 3.6% | 0hPa | 2.6V | 00:00:00 | 00:00:00 | 00:00:00 | |
| DO3MHA-11 | 2026-09-05 00:30:28 | 45.61445 | 9.47324 | 5° | 15km/h | 27001m | 5.4m/s | -49.6°C | 3.6% | 0hPa | 2.6V | 00:00:00 | 01:56:44 | 00:00:00 | |
| IW2NTF | 2026-09-05 00:30:26 | 45.61435 | 9.47314 | 76° | 11km/h | 26979m | 6.5m/s | -49.6°C | 3.6% | 0hPa | 2.6V | 08:30:00 | 01:56:40 | 00:00:00 | |
| HARRO8 | 2026-09-05 00:30:25 | 45.61436 | 9.47318 | 54° | 11km/h | 26985m | 4.9m/s | -49.6°C | 1.0% | -1.0hPa | 2.6V | 00:00:00 | 00:00:00 | 00:00:00 | |
| DL1ZP-14 | 2026-09-05 00:30:20 | 45.61433 | 9.47297 | 56° | 15km/h | 26958m | 5.3m/s | 0°C | -1.0% | -1.0hPa | 2.6V | 00:00:00 | 00:00:00 | 00:00:00 | |
| IW2NTF | 2026-09-05 00:30:15 | 45.61409 | 9.47294 | 341° | 16km/h | 26928m | 4.1m/s | -49.7°C | 3.6% | 0hPa | 2.6V | 08:30:00 | 01:56:30 | 00:00:00 | |
| DO3MHA-11 | 2026-09-05 00:30:15 | 45.61418 | 9.47290 | 346° | 13km/h | 26938m | 5.4m/s | -49.6°C | 3.6% | 0hPa | 2.7V | 00:00:00 | 01:56:32 | 00:00:00 | |
| OE5DRO-10 | 2026-09-05 00:30:07 | 45.61392 | 9.47286 | 63° | 13km/h | 26897m | 4.5m/s | -49.9°C | 3.6% | 0hPa | 2.7V | 00:00:00 | 00:00:00 | 00:00:00 | |
| IW2NTF | 2026-09-05 00:30:05 | 45.61385 | 9.47281 | 359° | 15km/h | 26877m | 4.3m/s | -50°C | 3.7% | 0hPa | 2.7V | 08:30:00 | 01:56:20 | 00:00:00 | |
| DO3MHA-11 | 2026-09-05 00:30:05 | 45.61390 | 9.47282 | 31° | 13km/h | 26888m | 5.5m/s | -49.9°C | 3.6% | 0hPa | 2.6V | 00:00:00 | 01:56:22 | 00:00:00 | |
| DB0UT-7 | 2026-09-05 00:30:00 | 45.61374 | 9.47287 | 320° | 16km/h | 26863m | 5.7m/s | -50.0°C | 3.6% | 0hPa | 2.7V | 00:00:00 | 01:56:17 | 00:00:00 | |
| NBG1-10 | 2026-09-05 00:29:59 | 45.61371 | 9.47290 | 313° | 16km/h | 26857m | 4.6m/s | -50.1°C | 3.6% | 0hPa | 2.7V | 00:00:00 | 01:56:16 | 00:00:00 | |
| IW2NTF | 2026-09-05 00:29:55 | 45.61353 | 9.47297 | 352° | 11km/h | 26826m | 5.6m/s | -50.2°C | 3.7% | 0hPa | 2.7V | 08:30:00 | 01:56:10 | 00:00:00 | |
| HARRO8 | 2026-09-05 00:29:54 | 45.61353 | 9.47297 | 352° | 9km/h | 26827m | 5.6m/s | -50.2°C | 1.0% | -1.0hPa | 2.7V | 00:00:00 | 00:00:00 | 00:00:00 | |
| OE5DRO-10 | 2026-09-05 00:29:48 | 45.61339 | 9.47313 | 317° | 18km/h | 26803m | 4.1m/s | -50.2°C | 3.7% | 0hPa | 2.7V | 00:00:00 | 00:00:00 | 00:00:00 | |
| IW2NTF | 2026-09-05 00:29:45 | 45.61330 | 9.47343 | 271° | 15km/h | 26778m | 4.4m/s | -50.3°C | 3.7% | 0hPa | 2.7V | 08:30:00 | 01:56:00 | 00:00:00 | |
| DO3MHA-11 | 2026-09-05 00:29:45 | 45.61330 | 9.47331 | 284° | 16km/h | 26788m | 5.7m/s | -50.3°C | 3.7% | 0hPa | 2.6V | 00:00:00 | 01:56:02 | 00:00:00 | |
| IW2NTF | 2026-09-05 00:29:35 | 45.61314 | 9.47395 | 294° | 20km/h | 26726m | 5.2m/s | -50.5°C | 3.8% | 0hPa | 2.6V | 08:30:00 | 01:55:50 | 00:00:00 | |
| DO3MHA-11 | 2026-09-05 00:29:35 | 45.61317 | 9.47382 | 287° | 20km/h | 26738m | 4.7m/s | -50.4°C | 3.7% | 0hPa | 2.5V | 00:00:00 | 01:55:52 | 00:00:00 | |
| DB0UT-7 | 2026-09-05 00:29:30 | 45.61310 | 9.47417 | 268° | 16km/h | 26712m | 5.9m/s | -50.5°C | 3.7% | 0hPa | 2.7V | 00:00:00 | 00:00:00 | 00:00:00 | |
| OE5DRO-10 | 2026-09-05 00:29:29 | 45.61311 | 9.47424 | 253° | 16km/h | 26707m | 4.9m/s | -50.5°C | 3.8% | 0hPa | 2.6V | 00:00:00 | 00:00:00 | 00:00:00 | |
| NBG1-10 | 2026-09-05 00:29:26 | 45.61315 | 9.47444 | 267° | 16km/h | 26693m | 5.8m/s | -50.5°C | 3.7% | 0hPa | 2.6V | 00:00:00 | 01:55:43 | 00:00:00 | |
| IW2NTF | 2026-09-05 00:29:25 | 45.61312 | 9.47459 | 289° | 13km/h | 26677m | 4.5m/s | -50.5°C | 3.7% | 0hPa | 2.6V | 08:30:00 | 01:55:40 | 00:00:00 | |
| DO3MHA-11 | 2026-09-05 00:29:25 | 45.61315 | 9.47450 | 284° | 15km/h | 26687m | 5.5m/s | -50.5°C | 3.7% | 0hPa | 2.6V | 00:00:00 | 01:55:42 | 00:00:00 | |
| HARRO8 | 2026-09-05 00:29:22 | 45.61312 | 9.47464 | 275° | 11km/h | 26672m | 6.0m/s | -50.5°C | 1.0% | -1.0hPa | 2.6V | 00:00:00 | 00:00:00 | 00:00:00 | |
| DL1ZP-14 | 2026-09-05 00:29:17 | 45.61320 | 9.47487 | 240° | 16km/h | 26646m | 4.5m/s | 0°C | -1.0% | -1.0hPa | 2.6V | 00:00:00 | 00:00:00 | 00:00:00 | |
| IW2NTF | 2026-09-05 00:29:15 | 45.61332 | 9.47513 | 234° | 22km/h | 26625m | 4.1m/s | -50.4°C | 3.7% | 0hPa | 2.5V | 08:30:00 | 01:55:30 | 00:00:00 | |
| DO3MHA-11 | 2026-09-05 00:29:15 | 45.61325 | 9.47499 | 237° | 15km/h | 26636m | 6.1m/s | -50.3°C | 3.7% | 0hPa | 2.7V | 00:00:00 | 01:55:32 | 00:00:00 | |
| OE5DRO-10 | 2026-09-05 00:29:10 | 45.61338 | 9.47527 | 241° | 15km/h | 26609m | 4.9m/s | -50.4°C | 3.7% | 0hPa | 2.7V | 00:00:00 | 00:00:00 | 00:00:00 | |
| IW2NTF | 2026-09-05 00:29:05 | 45.61359 | 9.47534 | 183° | 18km/h | 26572m | 5.9m/s | -50.3°C | 3.7% | 0hPa | 2.7V | 08:30:00 | 01:55:20 | 00:00:00 | |
| DO3MHA-11 | 2026-09-05 00:29:05 | 45.61350 | 9.47532 | 190° | 20km/h | 26583m | 4.7m/s | -50.3°C | 3.7% | 0hPa | 2.6V | 00:00:00 | 01:55:22 | 08:30:00 | |
| S52SK | 2026-09-05 00:29:01 | 45.61363 | 9.47534 | 182° | 16km/h | 26567m | 5.5m/s | -50.3°C | 0% | 0hPa | 2.7V | 00:00:00 | 00:00:00 | 00:00:00 | |
| DB0UT-7 | 2026-09-05 00:29:00 | 45.61372 | 9.47535 | 190° | 16km/h | 26557m | 4.7m/s | -50.3°C | 3.7% | 0hPa | 2.7V | 00:00:00 | 01:55:17 | 00:00:00 | |
| IW2NTF | 2026-09-05 00:28:57 | 45.61405 | 9.47541 | 149° | 11km/h | 26520m | 5.1m/s | -50.3°C | 3.7% | 0hPa | 2.7V | 08:30:00 | 01:55:10 | 00:00:00 | |
| DO3MHA-11 | 2026-09-05 00:28:55 | 45.61399 | 9.47544 | 175° | 13km/h | 26530m | 5.3m/s | -50.3°C | 3.7% | 0hPa | 2.6V | 00:00:00 | 01:55:12 | 00:00:00 | |
| NBG1-10 | 2026-09-05 00:28:53 | 45.61405 | 9.47541 | 150° | 18km/h | 26521m | 5.0m/s | -50.3°C | 3.7% | 0hPa | 2.6V | 00:00:00 | 01:55:10 | 00:00:00 | |
| IW2NTF | 2026-09-05 00:28:45 | 45.61436 | 9.47515 | 145° | 16km/h | 26465m | 6.5m/s | -50.1°C | 3.6% | 0hPa | 2.6V | 08:30:00 | 01:55:00 | 00:00:00 | |
| DO3MHA-11 | 2026-09-05 00:28:45 | 45.61430 | 9.47524 | 132° | 15km/h | 26476m | 4.6m/s | -50.1°C | 3.7% | 0hPa | 2.6V | 00:00:00 | 01:55:02 | 00:00:00 | |
| IW2NTF | 2026-09-05 00:28:35 | 45.61464 | 9.47472 | 118° | 26km/h | 26405m | 6.6m/s | -50.4°C | 3.6% | 0hPa | 2.6V | 08:30:00 | 01:54:49 | 00:00:00 | |
| DO3MHA-11 | 2026-09-05 00:28:34 | 45.61458 | 9.47485 | 128° | 18km/h | 26416m | 5.0m/s | -50.3°C | 3.6% | 0hPa | 2.7V | 00:00:00 | 01:54:51 | 00:00:00 | |
| OE5DRO-10 | 2026-09-05 00:28:32 | 45.61464 | 9.47472 | 119° | 20km/h | 26405m | 6.6m/s | -50.4°C | 3.6% | 0hPa | 2.6V | 00:00:00 | 00:00:00 | 00:00:00 | |
| DB0UT-7 | 2026-09-05 00:28:30 | 45.61470 | 9.47455 | 115° | 16km/h | 26394m | 4.5m/s | -50.4°C | 3.6% | 0hPa | 2.6V | 00:00:00 | 00:00:00 | 00:00:00 | |
| IW2NTF | 2026-09-05 00:28:26 | 45.61470 | 9.47408 | 70° | 20km/h | 26344m | 5.8m/s | -50.8°C | 3.7% | 0hPa | 2.6V | 08:30:00 | 01:54:38 | 00:00:00 | |
| DO3MHA-11 | 2026-09-05 00:28:24 | 45.61475 | 9.47427 | 64° | 20km/h | 26360m | 6.5m/s | -50.5°C | 3.6% | 0hPa | 2.5V | 00:00:00 | 01:54:41 | 00:00:00 | |
| IW2NTF | 2026-09-05 00:28:15 | 45.61473 | 9.47346 | 44° | 7km/h | 26288m | 5.4m/s | -51.3°C | 3.9% | 0hPa | 2.5V | 08:30:00 | 01:54:28 | 00:00:00 | |
| NBG1-10 | 2026-09-05 00:28:15 | 45.61472 | 9.47363 | 104° | 13km/h | 26311m | 4.5m/s | -51.1°C | 3.8% | 0hPa | 2.6V | 00:00:00 | 01:54:32 | 08:30:00 | |
| DO3MHA-11 | 2026-09-05 00:28:14 | 45.61473 | 9.47356 | 107° | 15km/h | 26305m | 6.1m/s | -51.2°C | 3.8% | 0hPa | 2.6V | 00:00:00 | 01:54:31 | 00:00:00 | |
| OE5DRO-10 | 2026-09-05 00:28:13 | 45.61474 | 9.47351 | 105° | 13km/h | 26299m | 6.0m/s | -51.2°C | 3.8% | 0hPa | 2.6V | 00:00:00 | 00:00:00 | 00:00:00 | |
| OE5DXL-15 | 2026-09-05 00:28:09 | 45.61469 | 9.47340 | 41° | 9km/h | 26276m | 5.6m/s | 0°C | 0% | 0hPa | 2.6V | 00:00:00 | 00:00:00 | 00:00:00 | |
| DO3MHA-11 | 2026-09-05 00:28:04 | 45.61449 | 9.47319 | 35° | 13km/h | 26248m | 5.2m/s | -51.2°C | 3.8% | 0hPa | 2.6V | 00:00:00 | 01:54:21 | 00:00:00 | |
| IW2NTF | 2026-09-05 00:28:01 | 45.61443 | 9.47307 | 74° | 16km/h | 26230m | 5.8m/s | -51.3°C | 3.8% | 0hPa | 2.7V | 08:30:00 | 01:54:18 | 00:00:00 | |
| DB0UT-7 | 2026-09-05 00:28:00 | 45.61442 | 9.47301 | 77° | 9km/h | 26225m | 4.9m/s | -51.2°C | 3.8% | 0hPa | 2.5V | 00:00:00 | 01:54:17 | 00:00:00 | |
| IW2NTF | 2026-09-05 00:27:55 | 45.61427 | 9.47279 | 30° | 9km/h | 26171m | 6.7m/s | -51.6°C | 3.9% | 0hPa | 2.6V | 08:30:00 | 01:54:08 | 00:00:00 | |
| BAUMI2-15 | 2026-09-05 00:27:55 | 45.61435 | 9.47287 | 26° | 7km/h | 26195m | 6.6m/s | 0°C | 0% | 0hPa | 2.6V | 00:00:00 | 01:54:12 | 00:00:00 | |
| DO3MHA-11 | 2026-09-05 00:27:54 | 45.61433 | 9.47285 | 39° | 9km/h | 26189m | 5.9m/s | -51.5°C | 3.8% | 0hPa | 2.6V | 00:00:00 | 01:54:11 | 00:00:00 | |
| IW2NTF | 2026-09-05 00:27:45 | 45.61435 | 9.47264 | 180° | 7km/h | 26113m | 6.4m/s | -51.7°C | 3.9% | 0hPa | 2.6V | 08:30:00 | 01:53:58 | 00:00:00 | |
| DO3MHA-11 | 2026-09-05 00:27:44 | 45.61429 | 9.47264 | 156° | 5km/h | 26131m | 6.6m/s | -51.6°C | 3.9% | 0hPa | 2.7V | 00:00:00 | 01:54:01 | 00:00:00 | |
| NBG1-10 | 2026-09-05 00:27:42 | 45.61434 | 9.47263 | 191° | 11km/h | 26119m | 5.1m/s | -51.7°C | 3.9% | 0hPa | 2.7V | 00:00:00 | 01:53:59 | 00:00:00 | |
| BAUMI2-15 | 2026-09-05 00:27:39 | 45.61438 | 9.47262 | 132° | 4km/h | 26101m | 5.2m/s | 0°C | 0% | 0hPa | 2.7V | 00:00:00 | 01:53:56 | 00:00:00 | |
| OE5DXL-15 | 2026-09-05 00:27:36 | 45.61438 | 9.47260 | 40° | 13km/h | 26083m | 5.7m/s | 0°C | 0% | 0hPa | 2.7V | 00:00:00 | 00:00:00 | 00:00:00 | |
| IW2NTF | 2026-09-05 00:27:35 | 45.61441 | 9.47246 | 125° | 11km/h | 26053m | 6.8m/s | -51.9°C | 3.9% | 0hPa | 2.7V | 08:30:00 | 01:53:48 | 00:00:00 | |
| OE5DRO-10 | 2026-09-05 00:27:35 | 45.61438 | 9.47259 | 84° | 13km/h | 26077m | 5.7m/s | -51.8°C | 3.8% | 0hPa | 2.6V | 00:00:00 | 00:00:00 | 08:30:00 | |
| DO3MHA-11 | 2026-09-05 00:27:34 | 45.61438 | 9.47257 | 101° | 11km/h | 26071m | 6.6m/s | -51.8°C | 3.9% | 0hPa | 2.6V | 00:00:00 | 01:53:51 | 08:30:00 | |
| BAUMI2-15 | 2026-09-05 00:27:33 | 45.61438 | 9.47254 | 109° | 9km/h | 26065m | 5.4m/s | 0°C | 0% | 0hPa | 2.7V | 00:00:00 | 01:53:50 | 00:00:00 | |
| DB0UT-7 | 2026-09-05 00:27:30 | 45.61442 | 9.47244 | 137° | 15km/h | 26047m | 6.0m/s | -51.9°C | 4.0% | 0hPa | 2.7V | 00:00:00 | 00:00:00 | 00:00:00 | |
| BAUMI2-15 | 2026-09-05 00:27:28 | 45.61446 | 9.47240 | 140° | 13km/h | 26036m | 6.2m/s | 0°C | 0% | 0hPa | 2.7V | 00:00:00 | 01:53:45 | 00:00:00 | |
| IW2NTF | 2026-09-05 00:27:25 | 45.61467 | 9.47227 | 169° | 15km/h | 25994m | 4.9m/s | -52.2°C | 4.1% | 0hPa | 2.7V | 08:30:00 | 01:53:38 | 00:00:00 | |
| DO3MHA-11 | 2026-09-05 00:27:24 | 45.61456 | 9.47229 | 162° | 18km/h | 26011m | 7.1m/s | -52.1°C | 4.0% | 0hPa | 2.7V | 00:00:00 | 01:53:41 | 00:00:00 | |
| BAUMI2-15 | 2026-09-05 00:27:22 | 45.61463 | 9.47228 | 179° | 20km/h | 25999m | 4.5m/s | 0°C | 0% | 0hPa | 2.7V | 00:00:00 | 01:53:39 | 00:00:00 | |
| HARRO8 | 2026-09-05 00:27:18 | 45.61479 | 9.47217 | 140° | 22km/h | 25977m | 5.5m/s | -52.2°C | 1.2% | -1.0hPa | 2.7V | 00:00:00 | 00:00:00 | 00:00:00 | |
| OE5DRO-10 | 2026-09-05 00:27:16 | 45.61488 | 9.47207 | 142° | 16km/h | 25966m | 6.3m/s | -52.1°C | 4.1% | 0hPa | 2.7V | 00:00:00 | 00:00:00 | 00:00:00 | |
| IW2NTF | 2026-09-05 00:27:15 | 45.61500 | 9.47191 | 116° | 15km/h | 25937m | 5.8m/s | -52°C | 3.9% | 0hPa | 2.7V | 08:30:00 | 01:53:28 | 00:00:00 | |
| BAUMI2-15 | 2026-09-05 00:27:15 | 45.61492 | 9.47203 | 146° | 15km/h | 25960m | 5.9m/s | 0°C | 0% | 0hPa | 2.6V | 00:00:00 | 01:53:32 | 00:00:00 | |
| DO3MHA-11 | 2026-09-05 00:27:14 | 45.61495 | 9.47200 | 146° | 13km/h | 25954m | 5.3m/s | -52.0°C | 4.0% | 0hPa | 2.6V | 00:00:00 | 01:53:31 | 00:00:00 | |
| NBG1-10 | 2026-09-05 00:27:09 | 45.61503 | 9.47180 | 121° | 16km/h | 25927m | 4.8m/s | -52.0°C | 4.0% | 0hPa | 2.6V | 00:00:00 | 01:53:26 | 00:00:00 | |
| OE5DXL-15 | 2026-09-05 00:27:06 | 45.61510 | 9.47169 | 141° | 16km/h | 25910m | 5.3m/s | 0°C | 0% | 0hPa | 2.6V | 00:00:00 | 01:53:23 | 00:00:00 | |
| IW2NTF | 2026-09-05 00:27:05 | 45.61519 | 9.47139 | 96° | 24km/h | 25881m | 5.3m/s | -52.2°C | 4% | 0hPa | 2.6V | 08:30:00 | 01:53:18 | 00:00:00 | |
| BAUMI2-15 | 2026-09-05 00:27:05 | 45.61512 | 9.47166 | 132° | 15km/h | 25904m | 4.8m/s | 0°C | 0% | 0hPa | 2.7V | 00:00:00 | 01:53:22 | 00:00:00 | |
| DO3MHA-11 | 2026-09-05 00:27:04 | 45.61515 | 9.47162 | 120° | 20km/h | 25899m | 6.2m/s | -52.1°C | 4.0% | 0hPa | 2.7V | 00:00:00 | 01:53:21 | 00:00:00 | |
| S52SK | 2026-09-05 00:27:01 | 45.61518 | 9.47147 | 102° | 24km/h | 25886m | 5.5m/s | -52.2°C | 0% | 0hPa | 2.6V | 00:00:00 | 00:00:00 | 00:00:00 | |
| DB0UT-7 | 2026-09-05 00:27:00 | 45.61519 | 9.47131 | 94° | 15km/h | 25875m | 6.4m/s | -52.1°C | 4.0% | 0hPa | 2.6V | 00:00:00 | 01:53:17 | 00:00:00 | |
| BAUMI2-15 | 2026-09-05 00:26:57 | 45.61520 | 9.47112 | 94° | 16km/h | 25858m | 6.0m/s | 0°C | 0% | 0hPa | 2.6V | 00:00:00 | 01:53:14 | 00:00:00 | |
| S52SK | 2026-09-05 00:26:56 | 45.61520 | 9.47112 | 94° | 16km/h | 25858m | 6.1m/s | -52.2°C | 0% | 0hPa | 2.6V | 00:00:00 | 00:00:00 | 00:00:00 | |
| IW2NTF | 2026-09-05 00:26:55 | 45.61524 | 9.47080 | 102° | 11km/h | 25822m | 4.9m/s | -52.2°C | 4% | 0hPa | 2.6V | 08:30:00 | 01:53:08 | 00:00:00 | |
| DO3MHA-11 | 2026-09-05 00:26:54 | 45.61521 | 9.47093 | 100° | 16km/h | 25841m | 5.3m/s | -52.2°C | 4.0% | 0hPa | 2.6V | 00:00:00 | 01:53:11 | 00:00:00 | |
| BAUMI2-15 | 2026-09-05 00:26:52 | 45.61523 | 9.47084 | 107° | 13km/h | 25828m | 6.0m/s | 0°C | 0% | 0hPa | 2.6V | 00:00:00 | 01:53:09 | 00:00:00 | |
| BAUMI2-15 | 2026-09-05 00:26:47 | 45.61525 | 9.47056 | 89° | 16km/h | 25800m | 5.2m/s | 0°C | 0% | 0hPa | 2.6V | 00:00:00 | 01:53:04 | 00:00:00 | |
| IW2NTF | 2026-09-05 00:26:45 | 45.61520 | 9.47020 | 74° | 18km/h | 25764m | 5.8m/s | -52.3°C | 4.1% | 0hPa | 2.6V | 08:30:00 | 01:52:58 | 00:00:00 | |
| DO3MHA-11 | 2026-09-05 00:26:44 | 45.61523 | 9.47036 | 77° | 15km/h | 25782m | 5.6m/s | -52.3°C | 4.1% | 0hPa | 2.7V | 00:00:00 | 01:53:01 | 00:00:00 | |
| DL1ZP-14 | 2026-09-05 00:26:42 | 45.61521 | 9.47026 | 70° | 16km/h | 25770m | 6.5m/s | 0°C | -1.0% | -1.0hPa | 2.7V | 00:00:00 | 00:00:00 | 00:00:00 | |
| OE5DRO-10 | 2026-09-05 00:26:38 | 45.61518 | 9.47002 | 96° | 13km/h | 25749m | 6.6m/s | -52.3°C | 4.1% | 0hPa | 2.6V | 00:00:00 | 00:00:00 | 00:00:00 | |
| NBG1-10 | 2026-09-05 00:26:36 | 45.61520 | 9.46995 | 130° | 11km/h | 25736m | 5.4m/s | -52.3°C | 4.1% | 0hPa | 2.7V | 00:00:00 | 01:52:53 | 00:00:00 | |
| IW2NTF | 2026-09-05 00:26:35 | 45.61522 | 9.46976 | 47° | 11km/h | 25707m | 6.8m/s | -52.3°C | 4% | 0hPa | 2.6V | 08:30:00 | 01:52:48 | 00:00:00 | |
| DO3MHA-11 | 2026-09-05 00:26:34 | 45.61523 | 9.46988 | 111° | 13km/h | 25724m | 5.8m/s | -52.3°C | 4.1% | 0hPa | 2.5V | 00:00:00 | 01:52:51 | 00:00:00 | |
| DB0UT-7 | 2026-09-05 00:26:30 | 45.61519 | 9.46974 | 18° | 11km/h | 25701m | 6.2m/s | -52.2°C | 4.0% | 0hPa | 2.7V | 00:00:00 | 00:00:00 | 08:30:00 | |
| IW2NTF | 2026-09-05 00:26:25 | 45.61510 | 9.46955 | 157° | 16km/h | 25650m | 6.5m/s | -52.1°C | 3.9% | 0hPa | 2.6V | 08:30:00 | 01:52:38 | 00:00:00 | |
| DO3MHA-11 | 2026-09-05 00:26:24 | 45.61503 | 9.46961 | 97° | 11km/h | 25668m | 6.5m/s | -52.1°C | 4.0% | 0hPa | 2.5V | 00:00:00 | 01:52:41 | 00:00:00 | |
| OE5DRO-10 | 2026-09-05 00:26:19 | 45.61517 | 9.46950 | 149° | 9km/h | 25639m | 4.6m/s | -52.0°C | 3.9% | 0hPa | 2.5V | 00:00:00 | 00:00:00 | 00:00:00 | |
| HARRO8 | 2026-09-05 00:26:16 | 45.61520 | 9.46948 | 343° | 7km/h | 25617m | 4.5m/s | -52.1°C | 1.1% | -1.0hPa | 2.5V | 00:00:00 | 00:00:00 | 00:00:00 | |
| IW2NTF | 2026-09-05 00:26:15 | 45.61512 | 9.46943 | 63° | 7km/h | 25597m | 3.6m/s | -52.2°C | 4% | 0hPa | 2.5V | 08:30:00 | 01:52:28 | 00:00:00 | |
| DO3MHA-11 | 2026-09-05 00:26:14 | 45.61518 | 9.46948 | 3° | 11km/h | 25612m | 6.1m/s | -52.1°C | 3.9% | 0hPa | 2.7V | 00:00:00 | 01:52:31 | 00:00:00 | |
| DL1ZP-14 | 2026-09-05 00:26:11 | 45.61518 | 9.46946 | 219° | 15km/h | 25575m | 5.6m/s | 0°C | -1.0% | -1.0hPa | 2.7V | 00:00:00 | 00:00:00 | 00:00:00 | |
| IW2NTF | 2026-09-05 00:26:05 | 45.61530 | 9.46962 | 205° | 5km/h | 25541m | 5m/s | -52.5°C | 4% | 0hPa | 2.7V | 08:30:00 | 01:52:18 | 00:00:00 | |
| NBG1-10 | 2026-09-05 00:26:03 | 45.61527 | 9.46959 | 220° | 7km/h | 25553m | 5.4m/s | -52.3°C | 3.9% | 0hPa | 2.7V | 00:00:00 | 01:52:20 | 00:00:00 | |
| DO3MHA-11 | 2026-09-05 00:26:01 | 45.61530 | 9.46962 | 206° | 7km/h | 25541m | 5.0m/s | -52.4°C | 4.0% | 0hPa | 2.7V | 00:00:00 | 01:52:18 | 08:30:00 | |
| DB0UT-7 | 2026-09-05 00:26:00 | 45.61532 | 9.46962 | 183° | 7km/h | 25536m | 4.9m/s | -52.5°C | 4.0% | 0hPa | 2.7V | 00:00:00 | 01:52:17 | 00:00:00 | |
| IW2NTF | 2026-09-05 00:25:55 | 45.61534 | 9.46976 | 258° | 15km/h | 25488m | 5.5m/s | -52.7°C | 4.1% | 0hPa | 2.7V | 08:30:00 | 01:52:08 | 00:00:00 | |
| DO3MHA-11 | 2026-09-05 00:25:51 | 45.61534 | 9.46976 | 259° | 7km/h | 25489m | 5.4m/s | -52.7°C | 4.1% | 0hPa | 2.6V | 00:00:00 | 01:52:08 | 00:00:00 | |
| IW2NTF | 2026-09-05 00:25:45 | 45.61542 | 9.46990 | 287° | 9km/h | 25438m | 4.6m/s | -52.8°C | 4.2% | 0hPa | 2.6V | 08:30:00 | 01:51:58 | 00:00:00 | |
| DO3MHA-11 | 2026-09-05 00:25:41 | 45.61542 | 9.46990 | 288° | 9km/h | 25438m | 4.5m/s | -52.8°C | 4.2% | 0hPa | 2.6V | 00:00:00 | 01:51:58 | 00:00:00 | |
| IW2NTF | 2026-09-05 00:25:35 | 45.61552 | 9.47009 | 206° | 7km/h | 25384m | 6.4m/s | -52.5°C | 4.1% | 0hPa | 2.6V | 08:30:00 | 01:51:48 | 00:00:00 | |
| DO3MHA-11 | 2026-09-05 00:25:31 | 45.61552 | 9.47009 | 207° | 11km/h | 25385m | 6.3m/s | -52.5°C | 4.1% | 0hPa | 2.6V | 00:00:00 | 01:51:48 | 00:00:00 | |
| DB0UT-7 | 2026-09-05 00:25:30 | 45.61554 | 9.47011 | 208° | 11km/h | 25379m | 5.8m/s | -52.5°C | 4.1% | 0hPa | 2.7V | 00:00:00 | 00:00:00 | 00:00:00 | |
| IW2NTF | 2026-09-05 00:25:25 | 45.61572 | 9.47037 | 211° | 13km/h | 25331m | 6.2m/s | -52.4°C | 4.1% | 0hPa | 2.7V | 08:30:00 | 01:51:38 | 00:00:00 | |
| OE5DRO-10 | 2026-09-05 00:25:22 | 45.61569 | 9.47034 | 214° | 11km/h | 25337m | 4.5m/s | -52.4°C | 4.1% | 0hPa | 2.7V | 00:00:00 | 00:00:00 | 00:00:00 | |
| DO3MHA-11 | 2026-09-05 00:25:21 | 45.61572 | 9.47037 | 212° | 11km/h | 25332m | 6.1m/s | -52.4°C | 4.1% | 0hPa | 2.7V | 00:00:00 | 01:51:38 | 00:00:00 | |
| IW2NTF | 2026-09-05 00:25:15 | 45.61598 | 9.47043 | 222° | 9km/h | 25277m | 5m/s | -52.3°C | 4.1% | 0hPa | 2.7V | 08:30:00 | 01:51:28 | 00:00:00 | |
| HARRO8 | 2026-09-05 00:25:14 | 45.61591 | 9.47039 | 183° | 13km/h | 25294m | 5.5m/s | -52.4°C | 1.2% | -1.0hPa | 2.6V | 00:00:00 | 00:00:00 | 00:00:00 | |
| DO3MHA-11 | 2026-09-05 00:25:11 | 45.61598 | 9.47043 | 223° | 11km/h | 25278m | 5.0m/s | -52.3°C | 4.1% | 0hPa | 2.6V | 00:00:00 | 01:51:28 | 00:00:00 | |
| IW2NTF | 2026-09-05 00:25:03 | 45.61622 | 9.47034 | 143° | 18km/h | 25223m | 5m/s | -52.2°C | 4.1% | 0hPa | 2.6V | 08:30:00 | 01:51:18 | 00:00:00 | |
| OE5DRO-10 | 2026-09-05 00:25:03 | 45.61614 | 9.47042 | 144° | 13km/h | 25234m | 6.2m/s | -52.2°C | 4.1% | 0hPa | 2.6V | 00:00:00 | 00:00:00 | 00:00:00 | |
| DO3MHA-11 | 2026-09-05 00:25:01 | 45.61622 | 9.47034 | 144° | 9km/h | 25223m | 5.0m/s | -52.1°C | 4.1% | 0hPa | 2.6V | 00:00:00 | 01:51:18 | 00:00:00 | |
| DB0UT-7 | 2026-09-05 00:25:00 | 45.61625 | 9.47030 | 138° | 11km/h | 25218m | 5.9m/s | -52.1°C | 4.1% | 0hPa | 2.6V | 00:00:00 | 01:51:17 | 00:00:00 | |
| NBG1-10 | 2026-09-05 00:24:56 | 45.61635 | 9.47021 | 180° | 13km/h | 25197m | 4.7m/s | -52.0°C | 4.1% | 0hPa | 2.6V | 00:00:00 | 01:51:13 | 00:00:00 | |
| IW2NTF | 2026-09-05 00:24:53 | 45.61635 | 9.47023 | 57° | 4km/h | 25170m | 5.2m/s | -51.9°C | 4% | 0hPa | 2.6V | 08:30:00 | 01:51:08 | 00:00:00 | |
| DO3MHA-11 | 2026-09-05 00:24:51 | 45.61635 | 9.47023 | 58° | 11km/h | 25170m | 5.2m/s | -51.8°C | 4.0% | 0hPa | 2.7V | 00:00:00 | 01:51:08 | 00:00:00 | |
| S52SK | 2026-09-05 00:24:46 | 45.61640 | 9.47010 | 115° | 16km/h | 25150m | 5.4m/s | -51.7°C | 0% | 0hPa | 2.7V | 00:00:00 | 00:00:00 | 00:00:00 | |
| IW2NTF | 2026-09-05 00:24:44 | 45.61644 | 9.46984 | 82° | 5km/h | 25117m | 4.1m/s | -51.7°C | 4% | 0hPa | 2.7V | 08:30:00 | 01:50:58 | 00:00:00 | |
| OE5DRO-10 | 2026-09-05 00:24:44 | 45.61642 | 9.46994 | 97° | 13km/h | 25133m | 5.0m/s | -51.6°C | 4.0% | 0hPa | 2.6V | 00:00:00 | 00:00:00 | 08:30:00 | |
| HARRO8 | 2026-09-05 00:24:43 | 45.61643 | 9.46990 | 99° | 9km/h | 25127m | 6.0m/s | -51.7°C | 1.2% | -1.0hPa | 2.6V | 00:00:00 | 00:00:00 | 00:00:00 | |
| DO3MHA-11 | 2026-09-05 00:24:41 | 45.61643 | 9.46984 | 83° | 13km/h | 25118m | 4.1m/s | -51.6°C | 4.0% | 0hPa | 2.6V | 00:00:00 | 01:50:58 | 00:00:00 | |
| S52SK | 2026-09-05 00:24:35 | 45.61634 | 9.46971 | 59° | 11km/h | 25091m | 5.9m/s | -51.6°C | 0% | 0hPa | 2.6V | 00:00:00 | 00:00:00 | 00:00:00 | |
| IW2NTF | 2026-09-05 00:24:33 | 45.61637 | 9.46942 | 95° | 22km/h | 25065m | 5.1m/s | -51.5°C | 3.9% | 0hPa | 2.6V | 08:30:00 | 01:50:48 | 00:00:00 | |
| DO3MHA-11 | 2026-09-05 00:24:31 | 45.61637 | 9.46942 | 96° | 16km/h | 25065m | 5.1m/s | -51.4°C | 3.9% | 0hPa | 2.6V | 00:00:00 | 01:50:48 | 08:30:00 | |
| DB0UT-7 | 2026-09-05 00:24:30 | 45.61637 | 9.46934 | 94° | 18km/h | 25060m | 4.7m/s | -51.4°C | 3.9% | 0hPa | 2.6V | 00:00:00 | 00:00:00 | 00:00:00 | |
| OE5DRO-10 | 2026-09-05 00:24:25 | 45.61632 | 9.46910 | 50° | 18km/h | 25033m | 5.8m/s | -51.2°C | 3.9% | 0hPa | 2.6V | 00:00:00 | 00:00:00 | 00:00:00 | |
| IW2NTF | 2026-09-05 00:24:23 | 45.61625 | 9.46891 | 81° | 15km/h | 25012m | 4.6m/s | -51.2°C | 3.8% | 0hPa | 2.6V | 08:30:00 | 01:50:38 | 00:00:00 | |
| NBG1-10 | 2026-09-05 00:24:23 | 45.61627 | 9.46900 | 55° | 18km/h | 25023m | 5.7m/s | -51.2°C | 3.9% | 0hPa | 2.7V | 00:00:00 | 01:50:40 | 00:00:00 | |
| DO3MHA-11 | 2026-09-05 00:24:21 | 45.61625 | 9.46891 | 82° | 18km/h | 25012m | 4.5m/s | -51.2°C | 3.8% | 0hPa | 2.7V | 00:00:00 | 01:50:38 | 00:00:00 | |
| IW2NTF | 2026-09-05 00:24:14 | 45.61617 | 9.46827 | 49° | 20km/h | 24958m | 5.4m/s | -51.1°C | 3.8% | 0hPa | 2.7V | 08:30:00 | 01:50:28 | 00:00:00 | |
| HARRO8 | 2026-09-05 00:24:12 | 45.61620 | 9.46832 | 58° | 15km/h | 24964m | 6.1m/s | -51.1°C | 1.1% | -1.0hPa | 2.7V | 00:00:00 | 00:00:00 | 00:00:00 | |
| DO3MHA-11 | 2026-09-05 00:24:11 | 45.61617 | 9.46827 | 50° | 20km/h | 24958m | 5.4m/s | -51.1°C | 3.8% | 0hPa | 2.7V | 00:00:00 | 01:50:28 | 00:00:00 | |
| OE5DRO-10 | 2026-09-05 00:24:06 | 45.61601 | 9.46803 | 63° | 20km/h | 24932m | 5.2m/s | -51.2°C | 3.9% | 0hPa | 2.7V | 00:00:00 | 00:00:00 | 00:00:00 | |
| IW2NTF | 2026-09-05 00:24:03 | 45.61594 | 9.46770 | 71° | 16km/h | 24905m | 5.3m/s | -51.3°C | 3.9% | 0hPa | 2.7V | 08:30:00 | 01:50:18 | 00:00:00 | |
| DB0UT-7 | 2026-09-05 00:24:00 | 45.61593 | 9.46765 | 65° | 16km/h | 24900m | 4.2m/s | -51.2°C | 3.9% | 0hPa | 2.6V | 00:00:00 | 01:50:17 | 00:00:00 | |
| IW2NTF | 2026-09-05 00:23:53 | 45.61559 | 9.46715 | 46° | 18km/h | 24853m | 5.7m/s | -51°C | 3.9% | 0hPa | 2.6V | 08:30:00 | 01:50:08 | 00:00:00 | |
| NBG1-10 | 2026-09-05 00:23:50 | 45.61555 | 9.46710 | 49° | 13km/h | 24848m | 5.6m/s | -50.9°C | 3.9% | 0hPa | 2.5V | 00:00:00 | 01:50:07 | 00:00:00 | |
| OE5DRO-10 | 2026-09-05 00:23:47 | 45.61545 | 9.46694 | 41° | 13km/h | 24831m | 6.3m/s | -50.8°C | 3.9% | 0hPa | 2.5V | 00:00:00 | 00:00:00 | 00:00:00 | |
| IW2NTF | 2026-09-05 00:23:43 | 45.61525 | 9.46674 | 38° | 20km/h | 24799m | 4.9m/s | -50.7°C | 3.9% | 0hPa | 2.7V | 08:30:00 | 01:49:58 | 00:00:00 | |
| HARRO8 | 2026-09-05 00:23:41 | 45.61524 | 9.46674 | 38° | 18km/h | 24799m | 4.9m/s | -50.7°C | 1.1% | -1.0hPa | 2.7V | 00:00:00 | 00:00:00 | 00:00:00 | |
| IW2NTF | 2026-09-05 00:23:33 | 45.61507 | 9.46644 | 39° | 9km/h | 24743m | 4.4m/s | -50.5°C | 3.7% | 0hPa | 2.7V | 08:30:00 | 01:49:48 | 00:00:00 | |
| DB0UT-7 | 2026-09-05 00:23:30 | 45.61505 | 9.46641 | 36° | 16km/h | 24738m | 5.9m/s | -50.5°C | 3.7% | 0hPa | 2.7V | 00:00:00 | 00:00:00 | 00:00:00 | |
| OE5DRO-10 | 2026-09-05 00:23:28 | 45.61498 | 9.46636 | 29° | 16km/h | 24726m | 5.0m/s | -50.4°C | 3.8% | 0hPa | 2.6V | 00:00:00 | 00:00:00 | 00:00:00 | |
| IW2NTF | 2026-09-05 00:23:23 | 45.61482 | 9.46624 | 68° | 9km/h | 24687m | 4.8m/s | -50.4°C | 3.7% | 0hPa | 2.6V | 08:30:00 | 01:49:38 | 00:00:00 | |
| NBG1-10 | 2026-09-05 00:23:17 | 45.61475 | 9.46618 | 5° | 16km/h | 24667m | 4.3m/s | -50.5°C | 3.8% | 0hPa | 2.7V | 00:00:00 | 01:49:34 | 08:30:00 | |
| IW2NTF | 2026-09-05 00:23:13 | 45.61427 | 9.46603 | 14° | 16km/h | 24622m | 6m/s | -50.6°C | 3.8% | 0hPa | 2.6V | 08:30:00 | 01:49:26 | 00:00:00 | |
| HARRO8 | 2026-09-05 00:23:10 | 45.61431 | 9.46604 | 8° | 20km/h | 24628m | 4.6m/s | -50.6°C | 1.1% | -1.0hPa | 2.7V | 00:00:00 | 00:00:00 | 00:00:00 | |
| OE5DRO-10 | 2026-09-05 00:23:09 | 45.61426 | 9.46603 | 15° | 15km/h | 24623m | 5.9m/s | -50.6°C | 3.8% | 0hPa | 2.7V | 00:00:00 | 00:00:00 | 00:00:00 | |
| IW2NTF | 2026-09-05 00:23:03 | 45.61384 | 9.46584 | 20° | 31km/h | 24568m | 3.9m/s | -50.5°C | 3.7% | 0hPa | 2.7V | 08:30:00 | 01:49:16 | 00:00:00 | |
| OE5DRO-10 | 2026-09-05 00:22:50 | 45.61368 | 9.46572 | 47° | 7km/h | 24520m | 5.0m/s | -50.2°C | 3.6% | 0hPa | 2.6V | 00:00:00 | 00:00:00 | 00:00:00 | |
| NBG1-10 | 2026-09-05 00:22:44 | 45.61349 | 9.46562 | 39° | 5km/h | 24489m | 5.7m/s | -50.1°C | 3.5% | 0hPa | 2.6V | 00:00:00 | 01:49:01 | 00:00:00 | |
| IW2NTF | 2026-09-05 00:22:44 | 45.61346 | 9.46553 | 185° | 5km/h | 24460m | 5.1m/s | -50.4°C | 3.6% | 0hPa | 2.6V | 08:30:00 | 01:48:56 | 00:00:00 | |
| S52SK | 2026-09-05 00:22:39 | 45.61346 | 9.46553 | 187° | 5km/h | 24461m | 5.1m/s | -50.4°C | 0% | 0hPa | 2.6V | 00:00:00 | 00:00:00 | 00:00:00 | |
| IW2NTF | 2026-09-05 00:22:32 | 45.61345 | 9.46549 | 23° | 4km/h | 24392m | 5.4m/s | -50.7°C | 3.7% | 0hPa | 2.6V | 08:30:00 | 01:48:44 | 00:00:00 | |
| OE5DRO-10 | 2026-09-05 00:22:31 | 45.61349 | 9.46553 | 20° | 5km/h | 24415m | 6.5m/s | -50.6°C | 3.7% | 0hPa | 2.7V | 00:00:00 | 00:00:00 | 00:00:00 | |
| DB0UT-7 | 2026-09-05 00:22:30 | 45.61348 | 9.46552 | 36° | 5km/h | 24409m | 5.4m/s | -50.6°C | 3.7% | 0hPa | 2.7V | 00:00:00 | 00:00:00 | 00:00:00 | |
| IW2NTF | 2026-09-05 00:22:17 | 45.61343 | 9.46532 | 99° | 9km/h | 24331m | 5.1m/s | -51.1°C | 3.7% | 0hPa | 2.7V | 08:30:00 | 01:48:33 | 00:00:00 | |
| OE5DRO-10 | 2026-09-05 00:22:12 | 45.61345 | 9.46523 | 105° | 7km/h | 24308m | 6.1m/s | -51.1°C | 3.7% | 0hPa | 2.6V | 00:00:00 | 00:00:00 | 00:00:00 | |
| NBG1-10 | 2026-09-05 00:22:11 | 45.61345 | 9.46521 | 77° | 11km/h | 24302m | 5.9m/s | -51.1°C | 3.7% | 0hPa | 2.6V | 00:00:00 | 01:48:28 | 00:00:00 | |
| IW2NTF | 2026-09-05 00:22:08 | 45.61340 | 9.46510 | 75° | 13km/h | 24252m | 5.1m/s | -51.4°C | 3.7% | 0hPa | 2.6V | 08:30:00 | 01:48:19 | 00:00:00 | |
| DB0UT-7 | 2026-09-05 00:22:00 | 45.61337 | 9.46502 | 41° | 13km/h | 24241m | 6.2m/s | -51.4°C | 3.7% | 0hPa | 2.7V | 00:00:00 | 01:48:17 | 08:30:00 | |
| IW2NTF | 2026-09-05 00:21:54 | 45.61323 | 9.46493 | 344° | 7km/h | 24199m | 5.4m/s | -52.1°C | 3.8% | 0hPa | 2.7V | 08:30:00 | 01:48:09 | 00:00:00 | |
| OE5DRO-10 | 2026-09-05 00:21:53 | 45.61325 | 9.46493 | 7° | 16km/h | 24205m | 5.8m/s | -51.9°C | 3.8% | 0hPa | 2.7V | 00:00:00 | 00:00:00 | 08:30:00 | |
| IW2NTF | 2026-09-05 00:21:47 | 45.61282 | 9.46491 | 343° | 15km/h | 24146m | 5.7m/s | -53.2°C | 4.3% | 0hPa | 2.7V | 08:30:00 | 01:47:59 | 00:00:00 | |
| NBG1-10 | 2026-09-05 00:21:38 | 45.61268 | 9.46501 | 329° | 9km/h | 24125m | 4.4m/s | -53.2°C | 4.2% | 0hPa | 2.6V | 00:00:00 | 01:47:55 | 00:00:00 | |
| IW2NTF | 2026-09-05 00:21:37 | 45.61252 | 9.46509 | 298° | 4km/h | 24094m | 5.3m/s | -53.1°C | 4.3% | 0hPa | 2.6V | 08:30:00 | 01:47:49 | 00:00:00 | |
| HARRO8 | 2026-09-05 00:21:37 | 45.61259 | 9.46506 | 344° | 15km/h | 24115m | 5.6m/s | -53.2°C | 1.3% | -1.0hPa | 2.7V | 00:00:00 | 00:00:00 | 00:00:00 | |
| OE5DRO-10 | 2026-09-05 00:21:34 | 45.61253 | 9.46508 | 359° | 7km/h | 24104m | 4.8m/s | -53.1°C | 4.3% | 0hPa | 2.7V | 00:00:00 | 00:00:00 | 00:00:00 | |
| DB0UT-7 | 2026-09-05 00:21:30 | 45.61250 | 9.46513 | 308° | 7km/h | 24083m | 5.1m/s | -53.1°C | 4.2% | 0hPa | 2.7V | 00:00:00 | 00:00:00 | 00:00:00 | |
| IW2NTF | 2026-09-05 00:21:27 | 45.61240 | 9.46530 | 293° | 9km/h | 24042m | 5m/s | -52.9°C | 4.2% | 0hPa | 2.7V | 08:30:00 | 01:47:39 | 00:00:00 | |
| IW2NTF | 2026-09-05 00:21:17 | 45.61237 | 9.46519 | 347° | 5km/h | 23991m | 5.6m/s | -53°C | 4.2% | 0hPa | 2.6V | 08:30:00 | 01:47:29 | 00:00:00 | |
| IW2NTF | 2026-09-05 00:21:08 | 45.61227 | 9.46513 | 69° | 18km/h | 23942m | 4.4m/s | -52.9°C | 4.2% | 0hPa | 2.6V | 08:30:00 | 01:47:19 | 00:00:00 | |
| HARRO8 | 2026-09-05 00:21:06 | 45.61231 | 9.46525 | 56° | 2km/h | 23958m | 5.4m/s | -53.0°C | 1.2% | -1.0hPa | 2.6V | 00:00:00 | 00:00:00 | 00:00:00 | |
| DB0UT-7 | 2026-09-05 00:21:00 | 45.61225 | 9.46501 | 77° | 13km/h | 23932m | 4.9m/s | -52.8°C | 4.2% | 0hPa | 2.6V | 00:00:00 | 01:47:17 | 00:00:00 | |
| IW2NTF | 2026-09-05 00:20:57 | 45.61215 | 9.46487 | 58° | 9km/h | 23890m | 5m/s | -52.6°C | 4.1% | 0hPa | 2.6V | 08:30:00 | 01:47:09 | 00:00:00 | |
| OE5DRO-10 | 2026-09-05 00:20:56 | 45.61220 | 9.46492 | 14° | 11km/h | 23912m | 5.2m/s | -52.7°C | 4.2% | 0hPa | 2.7V | 00:00:00 | 00:00:00 | 00:00:00 | |
| NBG1-10 | 2026-09-05 00:20:51 | 45.61214 | 9.46484 | 53° | 15km/h | 23885m | 6.2m/s | -52.5°C | 4.1% | 0hPa | 2.6V | 00:00:00 | 01:47:08 | 00:00:00 | |
| IW2NTF | 2026-09-05 00:20:47 | 45.61192 | 9.46467 | 337° | 9km/h | 23837m | 6.1m/s | -52.3°C | 4% | 0hPa | 2.6V | 08:30:00 | 01:46:59 | 00:00:00 | |
| IW2NTF | 2026-09-05 00:20:37 | 45.61167 | 9.46438 | 27° | 16km/h | 23785m | 5.7m/s | -52.2°C | 4% | 0hPa | 2.7V | 08:30:00 | 01:46:49 | 00:00:00 | |
| OE5DRO-10 | 2026-09-05 00:20:37 | 45.61180 | 9.46460 | 45° | 15km/h | 23810m | 4.6m/s | -52.2°C | 4.0% | 0hPa | 2.6V | 00:00:00 | 00:00:00 | 00:00:00 | |
| HARRO8 | 2026-09-05 00:20:34 | 45.61173 | 9.46445 | 54° | 16km/h | 23795m | 3.9m/s | -52.2°C | 1.2% | -1.0hPa | 2.6V | 00:00:00 | 00:00:00 | 00:00:00 | |
| DB0UT-7 | 2026-09-05 00:20:30 | 45.61158 | 9.46434 | 3° | 18km/h | 23774m | 4.6m/s | -52.1°C | 4.0% | 0hPa | 2.6V | 00:00:00 | 00:00:00 | 00:00:00 | |
| IW2NTF | 2026-09-05 00:20:28 | 45.61134 | 9.46430 | 3° | 16km/h | 23735m | 5.1m/s | -52.1°C | 3.9% | 0hPa | 2.6V | 08:30:00 | 01:46:39 | 00:00:00 | |
| S52SK | 2026-09-05 00:20:23 | 45.61140 | 9.46432 | 20° | 11km/h | 23746m | 5.4m/s | 0°C | 0% | 0hPa | 2.7V | 00:00:00 | 00:00:00 | 00:00:00 | |
| OE5DRO-10 | 2026-09-05 00:20:18 | 45.61117 | 9.46433 | 350° | 22km/h | 23715m | 4.0m/s | -52.0°C | 3.9% | 0hPa | 2.7V | 00:00:00 | 00:00:00 | 00:00:00 | |
| IW2NTF | 2026-09-05 00:20:17 | 45.61080 | 9.46435 | 8° | 18km/h | 23683m | 4.8m/s | -52.2°C | 3.8% | 0hPa | 2.7V | 08:30:00 | 01:46:29 | 00:00:00 | |
| NBG1-10 | 2026-09-05 00:20:17 | 45.61111 | 9.46434 | 353° | 20km/h | 23710m | 5.6m/s | -52.0°C | 3.9% | 0hPa | 2.7V | 00:00:00 | 01:46:34 | 00:00:00 | |
| IW2NTF | 2026-09-05 00:20:07 | 45.61029 | 9.46445 | 343° | 29km/h | 23632m | 5m/s | -53.3°C | 4.1% | 0hPa | 2.7V | 08:30:00 | 01:46:19 | 00:00:00 | |
| HARRO8 | 2026-09-05 00:20:03 | 45.61037 | 9.46442 | 342° | 26km/h | 23638m | 6.2m/s | -53.0°C | 1.2% | -1.0hPa | 2.6V | 00:00:00 | 00:00:00 | 00:00:00 | |
| DB0UT-7 | 2026-09-05 00:20:00 | 45.61016 | 9.46451 | 342° | 16km/h | 23623m | 5.9m/s | -53.5°C | 4.2% | 0hPa | 2.6V | 00:00:00 | 01:46:17 | 00:00:00 | |
| OE5DRO-10 | 2026-09-05 00:19:59 | 45.61009 | 9.46454 | 342° | 18km/h | 23617m | 5.2m/s | -53.6°C | 4.2% | 0hPa | 2.6V | 00:00:00 | 00:00:00 | 00:00:00 | |
| IW2NTF | 2026-09-05 00:19:57 | 45.60975 | 9.46472 | 327° | 15km/h | 23580m | 4.5m/s | -53.7°C | 4.3% | 0hPa | 2.6V | 08:30:00 | 01:46:09 | 00:00:00 | |
| OE5DXL-15 | 2026-09-05 00:19:49 | 45.60962 | 9.46479 | 352° | 20km/h | 23564m | 5.2m/s | 0°C | 0% | 0hPa | 2.6V | 00:00:00 | 00:00:00 | 00:00:00 | |
| IW2NTF | 2026-09-05 00:19:47 | 45.60934 | 9.46488 | 318° | 18km/h | 23527m | 5m/s | -53.8°C | 4.3% | 0hPa | 2.6V | 08:30:00 | 01:45:59 | 00:00:00 | |
| OE5DRO-10 | 2026-09-05 00:19:40 | 45.60928 | 9.46498 | 300° | 16km/h | 23517m | 6.0m/s | -53.8°C | 4.3% | 0hPa | 2.7V | 00:00:00 | 00:00:00 | 00:00:00 | |
| IW2NTF | 2026-09-05 00:19:32 | 45.60905 | 9.46532 | 300° | 16km/h | 23460m | 5.3m/s | -54.1°C | 4.4% | 0hPa | 2.7V | 08:30:00 | 01:45:46 | 00:00:00 | |
| DB0UT-7 | 2026-09-05 00:19:30 | 45.60907 | 9.46528 | 307° | 16km/h | 23466m | 5.8m/s | -54.0°C | 4.4% | 0hPa | 2.6V | 00:00:00 | 00:00:00 | 00:00:00 | |
| OE5DRO-10 | 2026-09-05 00:19:21 | 45.60892 | 9.46592 | 306° | 13km/h | 23418m | 4.9m/s | -54.1°C | 4.4% | 0hPa | 2.6V | 00:00:00 | 00:00:00 | 00:00:00 | |
| IW2NTF | 2026-09-05 00:19:11 | 45.60881 | 9.46654 | 278° | 9km/h | 23344m | 6.1m/s | -53.9°C | 4.3% | 0hPa | 2.6V | 08:30:00 | 01:45:24 | 00:00:00 | |
| OE5DRO-10 | 2026-09-05 00:19:02 | 45.60875 | 9.46662 | 314° | 9km/h | 23318m | 3.9m/s | -53.8°C | 4.3% | 0hPa | 2.7V | 00:00:00 | 00:00:00 | 08:30:00 | |
| IW2NTF | 2026-09-05 00:19:01 | 45.60878 | 9.46681 | 253° | 16km/h | 23291m | 5.4m/s | -53.9°C | 4.3% | 0hPa | 2.7V | 08:30:00 | 01:45:14 | 00:00:00 | |
| HARRO8 | 2026-09-05 00:19:01 | 45.60874 | 9.46664 | 282° | 7km/h | 23313m | 6.1m/s | -53.8°C | 1.3% | -1.0hPa | 2.6V | 00:00:00 | 00:00:00 | 00:00:00 | |
| DB0UT-7 | 2026-09-05 00:19:00 | 45.60874 | 9.46667 | 248° | 7km/h | 23307m | 5.3m/s | -53.8°C | 4.4% | 0hPa | 2.6V | 00:00:00 | 01:45:17 | 00:00:00 | |
| NBG1-10 | 2026-09-05 00:18:59 | 45.60875 | 9.46671 | 242° | 7km/h | 23302m | 4.9m/s | -53.8°C | 4.3% | 0hPa | 2.6V | 00:00:00 | 01:45:16 | 00:00:00 | |
| IW2NTF | 2026-09-05 00:18:51 | 45.60881 | 9.46700 | 218° | 7km/h | 23238m | 4.9m/s | -53.8°C | 4.3% | 0hPa | 2.6V | 08:30:00 | 01:45:04 | 00:00:00 | |
| OE5DRO-10 | 2026-09-05 00:18:43 | 45.60887 | 9.46712 | 243° | 7km/h | 23218m | 4.5m/s | -53.6°C | 4.2% | 0hPa | 2.7V | 00:00:00 | 00:00:00 | 00:00:00 | |
| IW2NTF | 2026-09-05 00:18:41 | 45.60883 | 9.46708 | 25° | 13km/h | 23187m | 4.1m/s | -53.6°C | 4.2% | 0hPa | 2.7V | 08:30:00 | 01:44:54 | 00:00:00 | |
| IW2NTF | 2026-09-05 00:18:31 | 45.60880 | 9.46715 | 321° | 5km/h | 23140m | 5.7m/s | -53.6°C | 4.3% | 0hPa | 2.6V | 08:30:00 | 01:44:44 | 00:00:00 | |
| DB0UT-7 | 2026-09-05 00:18:30 | 45.60883 | 9.46708 | 270° | 9km/h | 23154m | 5.1m/s | -53.6°C | 4.3% | 0hPa | 2.7V | 00:00:00 | 00:00:00 | 00:00:00 | |
| NBG1-10 | 2026-09-05 00:18:26 | 45.60879 | 9.46715 | 3° | 11km/h | 23135m | 5.0m/s | -53.6°C | 4.3% | 0hPa | 2.7V | 00:00:00 | 01:44:43 | 00:00:00 | |
| OE5DRO-10 | 2026-09-05 00:18:24 | 45.60877 | 9.46713 | 43° | 11km/h | 23126m | 4.2m/s | -53.6°C | 4.2% | 0hPa | 2.7V | 00:00:00 | 00:00:00 | 00:00:00 | |
| IW2NTF | 2026-09-05 00:18:21 | 45.60862 | 9.46708 | 284° | 7km/h | 23090m | 3.9m/s | -53.7°C | 4.3% | 0hPa | 2.7V | 08:30:00 | 01:44:34 | 00:00:00 | |
| DO3MHA-11 | 2026-09-05 00:18:12 | 45.60857 | 9.46723 | 359° | 11km/h | 23065m | 5.1m/s | -53.8°C | 4.3% | 0hPa | 2.7V | 00:00:00 | 01:44:29 | 00:00:00 | |
| IW2NTF | 2026-09-05 00:18:11 | 45.60843 | 9.46717 | 4° | 13km/h | 23040m | 4.3m/s | -53.8°C | 4.4% | 0hPa | 2.6V | 08:30:00 | 01:44:24 | 00:00:00 | |
| OE5DRO-10 | 2026-09-05 00:18:05 | 45.60837 | 9.46717 | 352° | 13km/h | 23030m | 5.0m/s | -53.7°C | 4.3% | 0hPa | 2.7V | 00:00:00 | 00:00:00 | 00:00:00 | |
| DO3MHA-11 | 2026-09-05 00:18:02 | 45.60832 | 9.46722 | 314° | 13km/h | 23016m | 5.7m/s | -53.6°C | 4.3% | 0hPa | 2.7V | 00:00:00 | 01:44:19 | 00:00:00 | |
| IW2NTF | 2026-09-05 00:18:01 | 45.60821 | 9.46737 | 332° | 9km/h | 22991m | 3.7m/s | -53.5°C | 4.2% | 0hPa | 2.7V | 08:30:00 | 01:44:14 | 00:00:00 | |
| DB0UT-7 | 2026-09-05 00:17:59 | 45.60825 | 9.46732 | 317° | 11km/h | 23001m | 5.8m/s | -53.5°C | 4.2% | 0hPa | 2.6V | 00:00:00 | 01:44:16 | 00:00:00 | |
| NBG1-10 | 2026-09-05 00:17:53 | 45.60808 | 9.46744 | 344° | 11km/h | 22973m | 4.3m/s | -53.5°C | 4.2% | 0hPa | 2.6V | 00:00:00 | 01:44:10 | 00:00:00 | |
| IW2NTF | 2026-09-05 00:17:52 | 45.60789 | 9.46759 | 293° | 16km/h | 22942m | 5.2m/s | -53.5°C | 4.2% | 0hPa | 2.6V | 08:30:00 | 01:44:04 | 00:00:00 | |
| DO3MHA-11 | 2026-09-05 00:17:51 | 45.60800 | 9.46747 | 350° | 15km/h | 22962m | 4.6m/s | -53.5°C | 4.2% | 0hPa | 2.6V | 00:00:00 | 01:44:08 | 00:00:00 | |
| OE5DRO-10 | 2026-09-05 00:17:46 | 45.60788 | 9.46764 | 283° | 9km/h | 22937m | 5.8m/s | -53.5°C | 4.2% | 0hPa | 2.6V | 00:00:00 | 00:00:00 | 00:00:00 | |
| IW2NTF | 2026-09-05 00:17:41 | 45.60785 | 9.46799 | 310° | 5km/h | 22892m | 5.8m/s | -53.7°C | 4.2% | 0hPa | 2.6V | 08:30:00 | 01:43:54 | 00:00:00 | |
| DO3MHA-11 | 2026-09-05 00:17:41 | 45.60787 | 9.46790 | 278° | 9km/h | 22912m | 4.1m/s | -53.6°C | 4.2% | 0hPa | 2.6V | 00:00:00 | 01:43:58 | 00:00:00 | |
| IW2NTF | 2026-09-05 00:17:31 | 45.60780 | 9.46828 | 265° | 9km/h | 22842m | 5.4m/s | -53.9°C | 4.2% | 0hPa | 2.6V | 08:30:00 | 01:43:44 | 00:00:00 | |
| DB0UT-7 | 2026-09-05 00:17:29 | 45.60780 | 9.46821 | 287° | 11km/h | 22852m | 4.7m/s | -53.7°C | 4.2% | 0hPa | 2.5V | 00:00:00 | 00:00:00 | 08:30:00 | |
| HARRO8 | 2026-09-05 00:17:28 | 45.60780 | 9.46825 | 280° | 9km/h | 22847m | 4.5m/s | -53.8°C | 1.2% | -1.0hPa | 2.7V | 00:00:00 | 00:00:00 | 00:00:00 | |
| OE5DRO-10 | 2026-09-05 00:17:27 | 45.60780 | 9.46828 | 266° | 11km/h | 22842m | 5.4m/s | -53.8°C | 4.2% | 0hPa | 2.7V | 00:00:00 | 00:00:00 | 00:00:00 | |
| DO3MHA-11 | 2026-09-05 00:17:26 | 45.60780 | 9.46831 | 256° | 11km/h | 22838m | 4.0m/s | -53.9°C | 4.2% | 0hPa | 2.7V | 00:00:00 | 01:43:43 | 00:00:00 | |
| IW2NTF | 2026-09-05 00:17:22 | 45.60773 | 9.46861 | 298° | 13km/h | 22792m | 4.4m/s | -54.2°C | 4.3% | 0hPa | 2.7V | 08:30:00 | 01:43:34 | 00:00:00 | |
| NBG1-10 | 2026-09-05 00:17:20 | 45.60777 | 9.46849 | 283° | 11km/h | 22807m | 4.2m/s | -54.1°C | 4.3% | 0hPa | 2.6V | 00:00:00 | 01:43:37 | 08:30:00 | |
| DO3MHA-11 | 2026-09-05 00:17:16 | 45.60772 | 9.46865 | 292° | 11km/h | 22788m | 4.6m/s | -54.2°C | 4.4% | 0hPa | 2.6V | 00:00:00 | 01:43:33 | 00:00:00 | |
| IW2NTF | 2026-09-05 00:17:11 | 45.60765 | 9.46895 | 306° | 7km/h | 22745m | 4.1m/s | -54.1°C | 4.3% | 0hPa | 2.6V | 08:30:00 | 01:43:24 | 00:00:00 | |
| OE5DRO-10 | 2026-09-05 00:17:08 | 45.60766 | 9.46893 | 300° | 11km/h | 22750m | 4.9m/s | -54.1°C | 4.3% | 0hPa | 2.6V | 00:00:00 | 00:00:00 | 00:00:00 | |
| DO3MHA-11 | 2026-09-05 00:17:05 | 45.60761 | 9.46899 | 321° | 11km/h | 22735m | 4.8m/s | -54.1°C | 4.3% | 0hPa | 2.7V | 00:00:00 | 01:43:22 | 08:30:00 | |
| IW2NTF | 2026-09-05 00:17:01 | 45.60764 | 9.46941 | 257° | 15km/h | 22699m | 4.5m/s | -54.2°C | 4.3% | 0hPa | 2.7V | 08:30:00 | 01:43:14 | 00:00:00 | |
| HARRO8 | 2026-09-05 00:16:57 | 45.60763 | 9.46941 | 257° | 13km/h | 22699m | 4.5m/s | -54.2°C | 1.3% | -1.0hPa | 2.6V | 00:00:00 | 00:00:00 | 00:00:00 | |
| DO3MHA-11 | 2026-09-05 00:16:54 | 45.60765 | 9.46949 | 199° | 7km/h | 22686m | 4.9m/s | -54.2°C | 4.3% | 0hPa | 2.6V | 00:00:00 | 01:43:11 | 00:00:00 | |
| IW2NTF | 2026-09-05 00:16:51 | 45.60771 | 9.46956 | 220° | 13km/h | 22652m | 5m/s | -54.4°C | 4.4% | 0hPa | 2.6V | 08:30:00 | 01:43:04 | 00:00:00 | |
| OE5DRO-10 | 2026-09-05 00:16:50 | 45.60768 | 9.46951 | 246° | 13km/h | 22662m | 4.0m/s | -54.4°C | 4.4% | 0hPa | 2.6V | 00:00:00 | 00:00:00 | 00:00:00 | |
| NBG1-10 | 2026-09-05 00:16:47 | 45.60771 | 9.46956 | 221° | 11km/h | 22652m | 5.0m/s | -54.4°C | 4.4% | 0hPa | 2.6V | 00:00:00 | 01:43:04 | 00:00:00 | |
| DO3MHA-11 | 2026-09-05 00:16:44 | 45.60779 | 9.46966 | 222° | 13km/h | 22637m | 4.8m/s | -54.3°C | 4.4% | 0hPa | 2.6V | 00:00:00 | 01:43:01 | 00:00:00 | |
| IW2NTF | 2026-09-05 00:16:41 | 45.60801 | 9.46968 | 194° | 7km/h | 22602m | 5m/s | -54.3°C | 4.2% | 0hPa | 2.6V | 08:30:00 | 01:42:54 | 00:00:00 | |
| IW2NTF | 2026-09-05 00:16:31 | 45.60826 | 9.46987 | 154° | 11km/h | 22553m | 3.8m/s | -54.9°C | 4.4% | 0hPa | 2.6V | 08:30:00 | 01:42:44 | 00:00:00 | |
| OE5DRO-10 | 2026-09-05 00:16:30 | 45.60818 | 9.46986 | 212° | 11km/h | 22568m | 4.7m/s | -54.8°C | 4.5% | 0hPa | 2.6V | 00:00:00 | 00:00:00 | 00:00:00 | |
| DB0UT-7 | 2026-09-05 00:16:29 | 45.60821 | 9.46987 | 196° | 9km/h | 22563m | 4.8m/s | -54.8°C | 4.4% | 0hPa | 2.6V | 00:00:00 | 00:00:00 | 00:00:00 | |
| HARRO8 | 2026-09-05 00:16:26 | 45.60828 | 9.46984 | 136° | 9km/h | 22549m | 5.2m/s | -54.9°C | 1.4% | -1.0hPa | 2.6V | 00:00:00 | 00:00:00 | 00:00:00 | |
| IW2NTF | 2026-09-05 00:16:21 | 45.60841 | 9.46961 | 170° | 9km/h | 22503m | 5.6m/s | -54.9°C | 4.5% | 0hPa | 2.6V | 08:30:00 | 01:42:34 | 00:00:00 | |
| NBG1-10 | 2026-09-05 00:16:14 | 45.60850 | 9.46958 | 163° | 7km/h | 22489m | 5.2m/s | -54.8°C | 4.4% | 0hPa | 2.7V | 00:00:00 | 01:42:31 | 00:00:00 | |
| IW2NTF | 2026-09-05 00:16:11 | 45.60855 | 9.46941 | 51° | 5km/h | 22455m | 5.6m/s | -55°C | 4.4% | 0hPa | 2.7V | 08:30:00 | 01:42:24 | 00:00:00 | |
| OE5DRO-10 | 2026-09-05 00:16:11 | 45.60854 | 9.46952 | 110° | 7km/h | 22474m | 5.1m/s | -54.8°C | 4.3% | 0hPa | 2.6V | 00:00:00 | 00:00:00 | 08:30:00 | |
| DO3MHA-11 | 2026-09-05 00:16:08 | 45.60856 | 9.46943 | 85° | 7km/h | 22460m | 4.6m/s | -54.9°C | 4.4% | 0hPa | 2.7V | 00:00:00 | 01:42:25 | 00:00:00 | |
| IW2NTF | 2026-09-05 00:16:01 | 45.60861 | 9.46958 | 204° | 5km/h | 22408m | 5.3m/s | -55.5°C | 4.6% | 0hPa | 2.7V | 08:30:00 | 01:42:14 | 00:00:00 | |
| HARRO8 | 2026-09-05 00:15:55 | 45.60864 | 9.46960 | 187° | 4km/h | 22399m | 4.3m/s | -55.5°C | 1.4% | -1.0hPa | 2.6V | 00:00:00 | 00:00:00 | 00:00:00 | |
| OE5DRO-10 | 2026-09-05 00:15:52 | 45.60865 | 9.46958 | 66° | 4km/h | 22384m | 4.2m/s | -55.5°C | 4.7% | 0hPa | 2.6V | 00:00:00 | 00:00:00 | 00:00:00 | |
| IW2NTF | 2026-09-05 00:15:51 | 45.60868 | 9.46962 | 254° | 9km/h | 22361m | 4.7m/s | -55.5°C | 4.7% | 0hPa | 2.6V | 08:30:00 | 01:42:04 | 00:00:00 | |
| DO3MHA-11 | 2026-09-05 00:15:48 | 45.60867 | 9.46959 | 238° | 5km/h | 22366m | 4.1m/s | -55.5°C | 4.6% | 0hPa | 2.7V | 00:00:00 | 01:42:05 | 00:00:00 | |
| IW2NTF | 2026-09-05 00:15:41 | 45.60867 | 9.46973 | 78° | 2km/h | 22313m | 4.8m/s | -55.3°C | 4.5% | 0hPa | 2.7V | 08:30:00 | 01:41:54 | 00:00:00 | |
| NBG1-10 | 2026-09-05 00:15:41 | 45.60865 | 9.46973 | 206° | 9km/h | 22334m | 4.3m/s | -55.4°C | 4.6% | 0hPa | 2.6V | 00:00:00 | 01:41:58 | 00:00:00 | |
| DO3MHA-11 | 2026-09-05 00:15:37 | 45.60866 | 9.46973 | 79° | 7km/h | 22314m | 4.7m/s | -55.3°C | 4.5% | 0hPa | 2.7V | 00:00:00 | 01:41:54 | 00:00:00 | |
| OE5DRO-10 | 2026-09-05 00:15:33 | 45.60868 | 9.46971 | 168° | 9km/h | 22295m | 5.5m/s | -55.3°C | 4.5% | 0hPa | 2.6V | 00:00:00 | 00:00:00 | 00:00:00 | |
| IW2NTF | 2026-09-05 00:15:31 | 45.60876 | 9.46977 | 193° | 13km/h | 22266m | 4.5m/s | -55.3°C | 4.5% | 0hPa | 2.6V | 08:30:00 | 01:41:44 | 00:00:00 | |
| DO3MHA-11 | 2026-09-05 00:15:27 | 45.60876 | 9.46977 | 194° | 9km/h | 22266m | 4.4m/s | -55.3°C | 4.5% | 0hPa | 2.7V | 00:00:00 | 01:41:44 | 00:00:00 | |
| HARRO8 | 2026-09-05 00:15:24 | 45.60884 | 9.46978 | 169° | 7km/h | 22251m | 4.5m/s | -55.3°C | 1.3% | -1.0hPa | 2.7V | 00:00:00 | 00:00:00 | 00:00:00 | |
| IW2NTF | 2026-09-05 00:15:21 | 45.60894 | 9.46960 | 118° | 9km/h | 22217m | 5.3m/s | -55.5°C | 4.6% | 0hPa | 2.7V | 08:30:00 | 01:41:34 | 00:00:00 | |
| DO3MHA-11 | 2026-09-05 00:15:17 | 45.60893 | 9.46960 | 119° | 16km/h | 22217m | 5.3m/s | -55.5°C | 4.6% | 0hPa | 2.6V | 00:00:00 | 01:41:34 | 00:00:00 | |
| OE5DRO-10 | 2026-09-05 00:15:14 | 45.60900 | 9.46951 | 152° | 16km/h | 22202m | 5.4m/s | -55.5°C | 4.6% | 0hPa | 2.6V | 00:00:00 | 00:00:00 | 00:00:00 | |
| IW2NTF | 2026-09-05 00:15:11 | 45.60932 | 9.46921 | 135° | 18km/h | 22163m | 4.1m/s | -55.4°C | 4.7% | 0hPa | 2.6V | 08:30:00 | 01:41:23 | 00:00:00 | |
| DB0UT-7 | 2026-09-05 00:15:11 | 45.60911 | 9.46943 | 149° | 15km/h | 22188m | 5.2m/s | -55.5°C | 4.5% | 0hPa | 2.7V | 00:00:00 | 00:00:00 | 00:00:00 | |
| NBG1-10 | 2026-09-05 00:15:08 | 45.60925 | 9.46930 | 143° | 13km/h | 22174m | 5.7m/s | -55.4°C | 4.6% | 0hPa | 2.7V | 00:00:00 | 01:41:25 | 00:00:00 | |
| DO3MHA-11 | 2026-09-05 00:15:07 | 45.60929 | 9.46925 | 141° | 16km/h | 22168m | 5.1m/s | -55.4°C | 4.6% | 0hPa | 2.7V | 00:00:00 | 01:41:24 | 08:30:00 | |
| IW2NTF | 2026-09-05 00:15:00 | 45.60955 | 9.46872 | 136° | 13km/h | 22110m | 5.4m/s | -55.4°C | 4.6% | 0hPa | 2.5V | 08:30:00 | 01:41:12 | 00:00:00 | |
| HARRO8 | 2026-09-05 00:14:53 | 45.60962 | 9.46863 | 125° | 15km/h | 22096m | 5.6m/s | -55.4°C | 1.4% | -1.0hPa | 2.6V | 00:00:00 | 00:00:00 | 00:00:00 | |
| IW2NTF | 2026-09-05 00:14:50 | 45.60970 | 9.46840 | 114° | 7km/h | 22061m | 5.2m/s | -55.2°C | 4.6% | 0hPa | 2.6V | 08:30:00 | 01:41:02 | 00:00:00 | |
| DO3MHA-11 | 2026-09-05 00:14:47 | 45.60969 | 9.46844 | 111° | 9km/h | 22071m | 3.8m/s | -55.2°C | 4.5% | 0hPa | 2.7V | 00:00:00 | 01:41:04 | 00:00:00 | |
| DB0UT-7 | 2026-09-05 00:14:41 | 45.60977 | 9.46831 | 168° | 18km/h | 22042m | 5.0m/s | -55.1°C | 4.6% | 0hPa | 2.7V | 00:00:00 | 01:40:58 | 00:00:00 | |
| IW2NTF | 2026-09-05 00:14:40 | 45.60997 | 9.46820 | 165° | 16km/h | 22012m | 5.5m/s | -55°C | 4.4% | 0hPa | 2.7V | 08:30:00 | 01:40:52 | 00:00:00 | |
| DO3MHA-11 | 2026-09-05 00:14:37 | 45.60989 | 9.46824 | 152° | 15km/h | 22022m | 3.8m/s | -55.0°C | 4.5% | 0hPa | 2.6V | 00:00:00 | 01:40:54 | 00:00:00 | |
| OE5DRO-10 | 2026-09-05 00:14:36 | 45.60993 | 9.46822 | 157° | 16km/h | 22018m | 5.2m/s | -55.0°C | 4.5% | 0hPa | 2.6V | 00:00:00 | 00:00:00 | 00:00:00 | |
| NBG1-10 | 2026-09-05 00:14:35 | 45.60997 | 9.46820 | 166° | 20km/h | 22012m | 5.5m/s | -54.9°C | 4.4% | 0hPa | 2.6V | 00:00:00 | 01:40:52 | 00:00:00 | |
| IW2NTF | 2026-09-05 00:14:27 | 45.61026 | 9.46815 | 173° | 15km/h | 21964m | 5.5m/s | -55.3°C | 4.6% | 0hPa | 2.6V | 08:30:00 | 01:40:42 | 00:00:00 | |
| DO3MHA-11 | 2026-09-05 00:14:27 | 45.61020 | 9.46814 | 195° | 22km/h | 21974m | 3.7m/s | -55.2°C | 4.6% | 0hPa | 2.7V | 00:00:00 | 01:40:44 | 00:00:00 | |
| HARRO8 | 2026-09-05 00:14:22 | 45.61048 | 9.46807 | 172° | 26km/h | 21945m | 5.9m/s | -55.3°C | 1.4% | -1.0hPa | 2.7V | 00:00:00 | 00:00:00 | 00:00:00 | |
| IW2NTF | 2026-09-05 00:14:20 | 45.61087 | 9.46801 | 167° | 22km/h | 21914m | 4.9m/s | -55.4°C | 4.6% | 0hPa | 2.7V | 08:30:00 | 01:40:32 | 00:00:00 | |
| OE5DRO-10 | 2026-09-05 00:14:17 | 45.61075 | 9.46805 | 171° | 22km/h | 21924m | 5.5m/s | -55.3°C | 4.6% | 0hPa | 2.7V | 00:00:00 | 00:00:00 | 00:00:00 | |
| DB0UT-7 | 2026-09-05 00:14:11 | 45.61109 | 9.46797 | 167° | 18km/h | 21893m | 5.9m/s | -55.4°C | 4.6% | 0hPa | 2.6V | 00:00:00 | 00:00:00 | 00:00:00 | |
| IW2NTF | 2026-09-05 00:14:07 | 45.61143 | 9.46788 | 163° | 22km/h | 21862m | 5.5m/s | -55.6°C | 4.6% | 0hPa | 2.6V | 08:30:00 | 01:40:22 | 00:00:00 | |
| DO3MHA-11 | 2026-09-05 00:14:07 | 45.61132 | 9.46791 | 176° | 24km/h | 21872m | 4.8m/s | -55.5°C | 4.6% | 0hPa | 2.6V | 00:00:00 | 01:40:24 | 00:00:00 | |
| NBG1-10 | 2026-09-05 00:14:02 | 45.61158 | 9.46780 | 164° | 15km/h | 21847m | 6.1m/s | -55.5°C | 4.6% | 0hPa | 2.7V | 00:00:00 | 01:40:19 | 00:00:00 | |
| IW2NTF | 2026-09-05 00:14:00 | 45.61197 | 9.46764 | 175° | 15km/h | 21811m | 5m/s | -55.5°C | 4.6% | 0hPa | 2.7V | 08:30:00 | 01:40:12 | 00:00:00 | |
| HARRO8 | 2026-09-05 00:13:51 | 45.61210 | 9.46756 | 140° | 13km/h | 21785m | 5.0m/s | -55.5°C | 1.4% | -1.0hPa | 2.6V | 00:00:00 | 00:00:00 | 00:00:00 | |
| IW2NTF | 2026-09-05 00:13:47 | 45.61225 | 9.46743 | 141° | 16km/h | 21758m | 5.1m/s | -55.6°C | 4.6% | 0hPa | 2.6V | 08:30:00 | 01:40:02 | 00:00:00 | |
| DO3MHA-11 | 2026-09-05 00:13:47 | 45.61218 | 9.46749 | 157° | 9km/h | 21769m | 4.5m/s | -55.5°C | 4.5% | 0hPa | 2.7V | 00:00:00 | 01:40:04 | 00:00:00 | |
| IW2NTF | 2026-09-05 00:13:41 | 45.61241 | 9.46725 | 173° | 13km/h | 21707m | 6.1m/s | -56.1°C | 4.8% | 0hPa | 2.7V | 08:30:00 | 01:39:52 | 00:00:00 | |
| OE5DRO-10 | 2026-09-05 00:13:39 | 45.61232 | 9.46728 | 154° | 9km/h | 21729m | 4.9m/s | -55.9°C | 4.7% | 0hPa | 2.6V | 00:00:00 | 00:00:00 | 00:00:00 | |
| DO3MHA-11 | 2026-09-05 00:13:37 | 45.61235 | 9.46726 | 164° | 13km/h | 21718m | 4.8m/s | -56.0°C | 4.7% | 0hPa | 2.6V | 00:00:00 | 01:39:54 | 08:30:00 | |
| NBG1-10 | 2026-09-05 00:13:29 | 45.61254 | 9.46710 | 80° | 15km/h | 21675m | 6.2m/s | -56.0°C | 4.8% | 0hPa | 2.6V | 00:00:00 | 01:39:46 | 00:00:00 | |
| IW2NTF | 2026-09-05 00:13:27 | 45.61252 | 9.46699 | 131° | 7km/h | 21654m | 4.9m/s | -56°C | 4.8% | 0hPa | 2.6V | 08:30:00 | 01:39:42 | 00:00:00 | |
| DO3MHA-11 | 2026-09-05 00:13:27 | 45.61252 | 9.46703 | 60° | 9km/h | 21665m | 4.7m/s | -56.0°C | 4.9% | 0hPa | 2.7V | 00:00:00 | 01:39:44 | 00:00:00 | |
| IW2NTF | 2026-09-05 00:13:20 | 45.61262 | 9.46675 | 71° | 18km/h | 21599m | 4.5m/s | -55.8°C | 4.7% | 0hPa | 2.7V | 08:30:00 | 01:39:32 | 00:00:00 | |
| HARRO8 | 2026-09-05 00:13:20 | 45.61263 | 9.46697 | 120° | 9km/h | 21622m | 5.6m/s | -55.9°C | 1.4% | -1.0hPa | 2.6V | 00:00:00 | 00:00:00 | 00:00:00 | |
| DO3MHA-11 | 2026-09-05 00:13:16 | 45.61263 | 9.46681 | 73° | 13km/h | 21605m | 5.5m/s | -55.8°C | 4.7% | 0hPa | 2.6V | 00:00:00 | 01:39:33 | 00:00:00 | |
| DB0UT-7 | 2026-09-05 00:13:11 | 45.61262 | 9.46652 | 130° | 16km/h | 21579m | 4.8m/s | -55.6°C | 4.7% | 0hPa | 2.6V | 00:00:00 | 00:00:00 | 00:00:00 | |
| IW2NTF | 2026-09-05 00:13:07 | 45.61275 | 9.46644 | 129° | 15km/h | 21547m | 5.2m/s | -55.5°C | 4.6% | 0hPa | 2.6V | 08:30:00 | 01:39:22 | 00:00:00 | |
| DO3MHA-11 | 2026-09-05 00:13:06 | 45.61273 | 9.46647 | 145° | 18km/h | 21553m | 5.7m/s | -55.5°C | 4.7% | 0hPa | 2.6V | 00:00:00 | 01:39:23 | 00:00:00 | |
| OE5DRO-10 | 2026-09-05 00:13:01 | 45.61282 | 9.46620 | 105° | 18km/h | 21526m | 4.8m/s | -55.5°C | 4.6% | 0hPa | 2.7V | 00:00:00 | 00:00:00 | 00:00:00 | |
| IW2NTF | 2026-09-05 00:12:57 | 45.61292 | 9.46586 | 130° | 11km/h | 21493m | 5.1m/s | -55.6°C | 4.7% | 0hPa | 2.7V | 08:30:00 | 01:39:12 | 00:00:00 | |
| HARRO8 | 2026-09-05 00:12:49 | 45.61313 | 9.46559 | 125° | 22km/h | 21455m | 6.4m/s | -55.6°C | 1.4% | -1.0hPa | 2.6V | 00:00:00 | 00:00:00 | 00:00:00 | |
| IW2NTF | 2026-09-05 00:12:47 | 45.61324 | 9.46535 | 115° | 26km/h | 21439m | 6.5m/s | -55.5°C | 4.7% | 0hPa | 2.6V | 08:30:00 | 01:39:02 | 00:00:00 | |
| DO3MHA-11 | 2026-09-05 00:12:46 | 45.61320 | 9.46543 | 119° | 20km/h | 21445m | 4.7m/s | -55.5°C | 4.6% | 0hPa | 2.7V | 00:00:00 | 01:39:03 | 00:00:00 | |
| OE5DRO-10 | 2026-09-05 00:12:42 | 45.61331 | 9.46512 | 122° | 20km/h | 21423m | 5.9m/s | -55.4°C | 4.6% | 0hPa | 2.7V | 00:00:00 | 00:00:00 | 00:00:00 | |
| DB0UT-7 | 2026-09-05 00:12:41 | 45.61334 | 9.46506 | 129° | 20km/h | 21417m | 4.5m/s | -55.4°C | 4.6% | 0hPa | 2.7V | 00:00:00 | 01:38:58 | 08:30:00 | |
| IW2NTF | 2026-09-05 00:12:38 | 45.61353 | 9.46476 | 127° | 24km/h | 21385m | 5m/s | -55.4°C | 4.6% | 0hPa | 2.7V | 08:30:00 | 01:38:52 | 00:00:00 | |
| DO3MHA-11 | 2026-09-05 00:12:36 | 45.61349 | 9.46482 | 128° | 22km/h | 21391m | 5.8m/s | -55.4°C | 4.7% | 0hPa | 2.6V | 00:00:00 | 01:38:53 | 00:00:00 | |
| IW2NTF | 2026-09-05 00:12:30 | 45.61374 | 9.46407 | 88° | 11km/h | 21331m | 4.8m/s | -55.2°C | 4.6% | 0hPa | 2.6V | 08:30:00 | 01:38:42 | 00:00:00 | |
| DO3MHA-11 | 2026-09-05 00:12:26 | 45.61373 | 9.46412 | 90° | 18km/h | 21337m | 6.2m/s | -55.2°C | 4.6% | 0hPa | 2.6V | 00:00:00 | 01:38:43 | 00:00:00 | |
| OE5DRO-10 | 2026-09-05 00:12:23 | 45.61374 | 9.46398 | 111° | 20km/h | 21321m | 5.8m/s | -55.1°C | 4.6% | 0hPa | 2.6V | 00:00:00 | 00:00:00 | 00:00:00 | |
| IW2NTF | 2026-09-05 00:12:20 | 45.61398 | 9.46340 | 110° | 15km/h | 21273m | 6m/s | -55°C | 4.4% | 0hPa | 2.7V | 08:30:00 | 01:38:31 | 00:00:00 | |
| HARRO8 | 2026-09-05 00:12:18 | 45.61391 | 9.46360 | 121° | 26km/h | 21287m | 5.3m/s | -55.0°C | 1.3% | -1.0hPa | 2.6V | 00:00:00 | 00:00:00 | 00:00:00 | |
| DO3MHA-11 | 2026-09-05 00:12:16 | 45.61394 | 9.46353 | 117° | 18km/h | 21283m | 3.3m/s | -54.9°C | 4.4% | 0hPa | 2.6V | 00:00:00 | 01:38:33 | 00:00:00 | |
| DB0UT-7 | 2026-09-05 00:12:11 | 45.61402 | 9.46329 | 128° | 18km/h | 21259m | 4.7m/s | -55.1°C | 4.5% | 0hPa | 2.6V | 00:00:00 | 00:00:00 | 00:00:00 | |
| IW2NTF | 2026-09-05 00:12:09 | 45.61423 | 9.46274 | 126° | 24km/h | 21222m | 5.3m/s | -55.4°C | 4.5% | 0hPa | 2.6V | 08:30:00 | 01:38:21 | 00:00:00 | |
| DO3MHA-11 | 2026-09-05 00:12:06 | 45.61417 | 9.46292 | 114° | 24km/h | 21232m | 4.6m/s | -55.3°C | 4.6% | 0hPa | 2.5V | 00:00:00 | 01:38:23 | 08:30:00 | |
| OE5DRO-10 | 2026-09-05 00:12:04 | 45.61423 | 9.46274 | 127° | 18km/h | 21223m | 5.2m/s | -55.3°C | 4.5% | 0hPa | 2.7V | 00:00:00 | 00:00:00 | 00:00:00 | |
| IW2NTF | 2026-09-05 00:11:57 | 45.61457 | 9.46220 | 114° | 24km/h | 21170m | 5.3m/s | -55.3°C | 4.6% | 0hPa | 2.7V | 08:30:00 | 01:38:11 | 00:00:00 | |
| DO3MHA-11 | 2026-09-05 00:11:56 | 45.61453 | 9.46234 | 110° | 18km/h | 21181m | 4.9m/s | -55.3°C | 4.6% | 0hPa | 2.6V | 00:00:00 | 01:38:13 | 00:00:00 | |
| NBG1-10 | 2026-09-05 00:11:50 | 45.61464 | 9.46190 | 92° | 7km/h | 21149m | 5.1m/s | -55.2°C | 4.6% | 0hPa | 2.6V | 00:00:00 | 01:38:07 | 00:00:00 | |
| IW2NTF | 2026-09-05 00:11:47 | 45.61463 | 9.46169 | 50° | 7km/h | 21117m | 5.3m/s | -55°C | 4.5% | 0hPa | 2.6V | 08:30:00 | 01:38:01 | 00:00:00 | |
| HARRO8 | 2026-09-05 00:11:47 | 45.61464 | 9.46173 | 83° | 5km/h | 21129m | 5.0m/s | -55.1°C | -1.0% | -1.0hPa | 2.6V | 00:00:00 | 00:00:00 | 00:00:00 | |
| DO3MHA-11 | 2026-09-05 00:11:46 | 45.61464 | 9.46173 | 84° | 9km/h | 21129m | 5.0m/s | -55.0°C | 4.5% | 0hPa | 2.6V | 00:00:00 | 01:38:03 | 00:00:00 | |
| OE5DRO-10 | 2026-09-05 00:11:45 | 45.61464 | 9.46171 | 61° | 11km/h | 21123m | 6.2m/s | -55.0°C | 4.5% | 0hPa | 2.6V | 00:00:00 | 00:00:00 | 00:00:00 | |
| DB0UT-7 | 2026-09-05 00:11:41 | 45.61460 | 9.46162 | 92° | 7km/h | 21101m | 4.4m/s | -55.1°C | 4.5% | 0hPa | 2.6V | 00:00:00 | 01:37:58 | 00:00:00 | |
| DO3MHA-11 | 2026-09-05 00:11:36 | 45.61457 | 9.46140 | 79° | 13km/h | 21076m | 5.5m/s | -55.1°C | 4.4% | 0hPa | 2.6V | 00:00:00 | 01:37:53 | 00:00:00 | |
| IW2NTF | 2026-09-05 00:11:35 | 45.61455 | 9.46131 | 59° | 13km/h | 21066m | 4.3m/s | -55.1°C | 4.5% | 0hPa | 2.6V | 08:30:00 | 01:37:51 | 00:00:00 | |
| DO3MHA-11 | 2026-09-05 00:11:26 | 45.61434 | 9.46121 | 357° | 4km/h | 21025m | 4.3m/s | -54.9°C | 4.4% | 0hPa | 2.6V | 00:00:00 | 01:37:43 | 00:00:00 | |
| IW2NTF | 2026-09-05 00:11:25 | 45.61430 | 9.46122 | 358° | 4km/h | 21015m | 5.8m/s | -54.9°C | 4.4% | 0hPa | 2.6V | 08:30:00 | 01:37:41 | 00:00:00 | |
| DO3MHA-11 | 2026-09-05 00:11:16 | 45.61429 | 9.46123 | 271° | 5km/h | 20976m | 4.2m/s | -55.2°C | 4.4% | 0hPa | 2.6V | 00:00:00 | 01:37:33 | 00:00:00 | |
| IW2NTF | 2026-09-05 00:11:15 | 45.61428 | 9.46123 | 11° | 5km/h | 20965m | 5.9m/s | -55.4°C | 4.4% | 0hPa | 2.6V | 08:30:00 | 01:37:31 | 00:00:00 | |
| NBG1-10 | 2026-09-05 00:11:13 | 45.61426 | 9.46122 | 22° | 11km/h | 20961m | 4.1m/s | -55.4°C | 4.5% | 0hPa | 2.7V | 00:00:00 | 01:37:30 | 00:00:00 | |
| DB0UT-7 | 2026-09-05 00:11:11 | 45.61423 | 9.46120 | 36° | 11km/h | 20952m | 5.8m/s | -55.4°C | 4.5% | 0hPa | 2.7V | 00:00:00 | 00:00:00 | 00:00:00 | |
| OE5DRO-10 | 2026-09-05 00:11:07 | 45.61426 | 9.46117 | 151° | 9km/h | 20931m | 5.2m/s | 0°C | 0% | 0hPa | 2.7V | 00:00:00 | 00:00:00 | 00:00:00 | |
| DO3MHA-11 | 2026-09-05 00:11:06 | 45.61428 | 9.46115 | 159° | 7km/h | 20926m | 4.3m/s | -55.6°C | 4.5% | 0hPa | 2.7V | 00:00:00 | 01:37:23 | 00:00:00 | |
| IW2NTF | 2026-09-05 00:11:05 | 45.61432 | 9.46115 | 192° | 9km/h | 20916m | 5.7m/s | -55.7°C | 4.6% | 0hPa | 2.7V | 08:30:00 | 01:37:21 | 00:00:00 | |
| DO3MHA-11 | 2026-09-05 00:10:56 | 45.61443 | 9.46107 | 139° | 13km/h | 20877m | 4.0m/s | -56.0°C | 4.7% | 0hPa | 2.6V | 00:00:00 | 01:37:13 | 00:00:00 | |
| IW2NTF | 2026-09-05 00:10:55 | 45.61447 | 9.46102 | 130° | 11km/h | 20867m | 5.5m/s | -56.1°C | 4.7% | 0hPa | 2.6V | 08:30:00 | 01:37:11 | 00:00:00 | |
| OE5DRO-10 | 2026-09-05 00:10:48 | 45.61465 | 9.46090 | 152° | 18km/h | 20835m | 4.7m/s | 0°C | 0% | 0hPa | 2.7V | 00:00:00 | 00:00:00 | 00:00:00 | |
| IW2NTF | 2026-09-05 00:10:46 | 45.61479 | 9.46077 | 131° | 18km/h | 20815m | 5.7m/s | -56°C | 4.7% | 0hPa | 2.7V | 08:30:00 | 01:37:01 | 00:00:00 | |
| DO3MHA-11 | 2026-09-05 00:10:46 | 45.61472 | 9.46085 | 149° | 18km/h | 20825m | 5.2m/s | -56.0°C | 4.7% | 0hPa | 2.6V | 00:00:00 | 01:37:03 | 00:00:00 | |
| DB0UT-7 | 2026-09-05 00:10:41 | 45.61486 | 9.46059 | 121° | 22km/h | 20800m | 5.3m/s | -55.9°C | 4.7% | 0hPa | 2.6V | 00:00:00 | 01:36:58 | 00:00:00 | |
| NBG1-10 | 2026-09-05 00:10:40 | 45.61489 | 9.46053 | 132° | 24km/h | 20794m | 5.2m/s | -55.9°C | 4.6% | 0hPa | 2.6V | 00:00:00 | 01:36:57 | 00:00:00 | |
| DO3MHA-11 | 2026-09-05 00:10:36 | 45.61502 | 9.46035 | 132° | 16km/h | 20775m | 5.1m/s | -56.0°C | 4.7% | 0hPa | 2.7V | 00:00:00 | 01:36:53 | 08:30:00 | |
| IW2NTF | 2026-09-05 00:10:35 | 45.61507 | 9.46029 | 144° | 13km/h | 20764m | 5.7m/s | -56°C | 4.7% | 0hPa | 2.6V | 08:30:00 | 01:36:51 | 00:00:00 | |
| OE5DRO-10 | 2026-09-05 00:10:29 | 45.61520 | 9.46006 | 118° | 22km/h | 20740m | 4.7m/s | 0°C | 0% | 0hPa | 2.7V | 00:00:00 | 00:00:00 | 00:00:00 | |
| DO3MHA-11 | 2026-09-05 00:10:26 | 45.61530 | 9.45986 | 127° | 22km/h | 20725m | 4.7m/s | -56.0°C | 4.6% | 0hPa | 2.7V | 00:00:00 | 01:36:43 | 00:00:00 | |
| IW2NTF | 2026-09-05 00:10:25 | 45.61539 | 9.45966 | 124° | 20km/h | 20709m | 4.9m/s | -56.1°C | 4.6% | 0hPa | 2.7V | 08:30:00 | 01:36:40 | 00:00:00 | |
| DO3MHA-11 | 2026-09-05 00:10:16 | 45.61562 | 9.45925 | 126° | 33km/h | 20674m | 4.9m/s | -56.5°C | 4.8% | 0hPa | 2.5V | 00:00:00 | 01:36:33 | 00:00:00 | |
| IW2NTF | 2026-09-05 00:10:15 | 45.61575 | 9.45895 | 116° | 35km/h | 20659m | 4.6m/s | -56.8°C | 4.9% | 0hPa | 2.5V | 08:30:00 | 01:36:30 | 00:00:00 | |
| DB0UT-7 | 2026-09-05 00:10:11 | 45.61583 | 9.45874 | 124° | 31km/h | 20650m | 5.5m/s | -56.8°C | 4.9% | 0hPa | 2.6V | 00:00:00 | 00:00:00 | 00:00:00 | |
| NBG1-10 | 2026-09-05 00:10:07 | 45.61603 | 9.45840 | 129° | 31km/h | 20630m | 5.6m/s | -56.9°C | 4.9% | 0hPa | 2.6V | 00:00:00 | 01:36:24 | 00:00:00 | |
| DO3MHA-11 | 2026-09-05 00:10:06 | 45.61608 | 9.45832 | 126° | 35km/h | 20625m | 4.4m/s | -56.9°C | 4.9% | 0hPa | 2.6V | 00:00:00 | 01:36:23 | 00:00:00 | |
| DO3MHA-11 | 2026-09-05 00:09:56 | 45.61651 | 9.45725 | 116° | 29km/h | 20575m | 6.0m/s | -56.6°C | 4.8% | 0hPa | 2.7V | 00:00:00 | 01:36:13 | 00:00:00 | |
| DO3MHA-11 | 2026-09-05 00:09:46 | 45.61685 | 9.45634 | 120° | 29km/h | 20525m | 4.6m/s | -56.5°C | 4.7% | 0hPa | 2.7V | 00:00:00 | 01:36:03 | 00:00:00 | |
| DB0UT-7 | 2026-09-05 00:09:41 | 45.61700 | 9.45582 | 110° | 27km/h | 20500m | 5.0m/s | -56.6°C | 4.8% | 0hPa | 2.7V | 00:00:00 | 01:35:58 | 00:00:00 | |
| DO3MHA-11 | 2026-09-05 00:09:36 | 45.61710 | 9.45535 | 110° | 31km/h | 20475m | 5.0m/s | -56.6°C | 4.7% | 0hPa | 2.6V | 00:00:00 | 01:35:53 | 00:00:00 | |
| NBG1-10 | 2026-09-05 00:09:34 | 45.61717 | 9.45514 | 116° | 26km/h | 20465m | 4.2m/s | -56.7°C | 4.8% | 0hPa | 2.6V | 00:00:00 | 01:35:51 | 00:00:00 | |
| DO3MHA-11 | 2026-09-05 00:09:26 | 45.61734 | 9.45426 | 98° | 27km/h | 20425m | 5.4m/s | -57.0°C | 4.9% | 0hPa | 2.6V | 00:00:00 | 01:35:43 | 00:00:00 | |
| DO3MHA-11 | 2026-09-05 00:09:16 | 45.61747 | 9.45333 | 102° | 26km/h | 20376m | 4.5m/s | -56.9°C | 4.8% | 0hPa | 2.6V | 00:00:00 | 01:35:33 | 00:00:00 | |
| IW2NTF | 2026-09-05 00:09:14 | 45.61758 | 9.45272 | 112° | 24km/h | 20343m | 5.2m/s | -57.1°C | 4.8% | 0hPa | 2.6V | 08:30:00 | 01:35:26 | 00:00:00 | |
| DB0UT-7 | 2026-09-05 00:09:11 | 45.61753 | 9.45289 | 114° | 16km/h | 20352m | 4.4m/s | -57.0°C | 4.9% | 0hPa | 2.7V | 00:00:00 | 00:00:00 | 00:00:00 | |
| DO3MHA-11 | 2026-09-05 00:09:06 | 45.61762 | 9.45249 | 95° | 16km/h | 20327m | 5.2m/s | -57.0°C | 4.8% | 0hPa | 2.7V | 00:00:00 | 01:35:23 | 08:30:00 | |
| IW2NTF | 2026-09-05 00:09:02 | 45.61764 | 9.45197 | 107° | 20km/h | 20282m | 5.7m/s | -57.1°C | 4.8% | 0hPa | 2.6V | 08:30:00 | 01:35:14 | 00:00:00 | |
| NBG1-10 | 2026-09-05 00:09:01 | 45.61760 | 9.45220 | 81° | 16km/h | 20302m | 4.3m/s | -57.0°C | 4.8% | 0hPa | 2.6V | 00:00:00 | 01:35:18 | 00:00:00 | |
| DO3MHA-11 | 2026-09-05 00:08:56 | 45.61765 | 9.45190 | 106° | 16km/h | 20277m | 5.1m/s | -57.2°C | 4.8% | 0hPa | 2.6V | 00:00:00 | 01:35:13 | 00:00:00 | |
| IW2NTF | 2026-09-05 00:08:52 | 45.61760 | 9.45139 | 64° | 13km/h | 20232m | 4.5m/s | -57.5°C | 5% | 0hPa | 2.6V | 08:30:00 | 01:35:04 | 00:00:00 | |
| DO3MHA-11 | 2026-09-05 00:08:46 | 45.61758 | 9.45134 | 72° | 13km/h | 20227m | 5.7m/s | -57.4°C | 5.0% | 0hPa | 2.7V | 00:00:00 | 01:35:03 | 00:00:00 | |
| IW2NTF | 2026-09-05 00:08:42 | 45.61759 | 9.45096 | 72° | 13km/h | 20184m | 5.2m/s | -57.6°C | 5.1% | 0hPa | 2.7V | 08:30:00 | 01:34:54 | 00:00:00 | |
| DB0UT-7 | 2026-09-05 00:08:41 | 45.61760 | 9.45114 | 110° | 15km/h | 20204m | 4.4m/s | -57.4°C | 4.9% | 0hPa | 2.6V | 00:00:00 | 01:34:58 | 00:00:00 | |
| DO3MHA-11 | 2026-09-05 00:08:36 | 45.61758 | 9.45091 | 72° | 18km/h | 20180m | 4.2m/s | -57.6°C | 5.1% | 0hPa | 2.6V | 00:00:00 | 01:34:53 | 00:00:00 | |
| IW2NTF | 2026-09-05 00:08:32 | 45.61755 | 9.45036 | 98° | 20km/h | 20135m | 5.3m/s | -57.5°C | 5% | 0hPa | 2.6V | 08:30:00 | 01:34:44 | 00:00:00 | |
| NBG1-10 | 2026-09-05 00:08:28 | 45.61754 | 9.45043 | 105° | 16km/h | 20141m | 5.5m/s | -57.4°C | 5.0% | 0hPa | 2.6V | 00:00:00 | 01:34:45 | 00:00:00 | |
| DO3MHA-11 | 2026-09-05 00:08:26 | 45.61756 | 9.45029 | 93° | 16km/h | 20131m | 4.1m/s | -57.4°C | 5.0% | 0hPa | 2.6V | 00:00:00 | 01:34:43 | 00:00:00 | |
| IW2NTF | 2026-09-05 00:08:21 | 45.61742 | 9.44918 | 150° | 5km/h | 20006m | 5.2m/s | -57.7°C | 5.1% | 0hPa | 2.6V | 08:30:00 | 01:34:16 | 00:00:00 | |
| DO3MHA-11 | 2026-09-05 00:08:18 | 45.61747 | 9.44967 | 105° | 13km/h | 20074m | 4.3m/s | -57.3°C | 4.9% | 0hPa | 2.6V | 00:00:00 | 01:34:31 | 00:00:00 | |
| DB0UT-7 | 2026-09-05 00:08:17 | 45.61750 | 9.44957 | 109° | 9km/h | 20060m | 3.7m/s | -57.4°C | 4.9% | 0hPa | 2.6V | 00:00:00 | 00:00:00 | 08:30:00 | |
| IW2NTF | 2026-09-05 00:08:14 | 45.61752 | 9.44917 | 169° | 7km/h | 19986m | 4.9m/s | -57.6°C | 5.1% | 0hPa | 2.7V | 08:30:00 | 01:34:12 | 00:00:00 | |
| DO3MHA-11 | 2026-09-05 00:08:09 | 45.61744 | 9.44926 | 46° | 7km/h | 20029m | 3.8m/s | -57.7°C | 5.1% | 0hPa | 2.6V | 00:00:00 | 01:34:21 | 00:00:00 | |
| IW2NTF | 2026-09-05 00:07:52 | 45.61757 | 9.44913 | 180° | 16km/h | 19941m | 4.2m/s | -57.2°C | 4.9% | 0hPa | 2.6V | 08:30:00 | 01:34:02 | 00:00:00 | |
| DO3MHA-11 | 2026-09-05 00:07:44 | 45.61761 | 9.44913 | 175° | 13km/h | 19937m | 4.5m/s | -57.1°C | 4.9% | 0hPa | 2.7V | 00:00:00 | 01:34:01 | 00:00:00 | |
| DB0UT-7 | 2026-09-05 00:07:41 | 45.61775 | 9.44906 | 154° | 18km/h | 19924m | 4.2m/s | -57.1°C | 4.8% | 0hPa | 2.7V | 00:00:00 | 01:33:58 | 00:00:00 | |
| IW2NTF | 2026-09-05 00:07:38 | 45.61784 | 9.44894 | 109° | 5km/h | 19895m | 5.5m/s | -57.4°C | 4.8% | 0hPa | 2.7V | 08:30:00 | 01:33:52 | 00:00:00 | |
| DO3MHA-11 | 2026-09-05 00:07:34 | 45.61784 | 9.44892 | 148° | 16km/h | 19890m | 4.9m/s | -57.5°C | 4.9% | 0hPa | 2.7V | 00:00:00 | 01:33:51 | 08:30:00 | |
| IW2NTF | 2026-09-05 00:07:26 | 45.61816 | 9.44861 | 129° | 18km/h | 19848m | 4.3m/s | -57.9°C | 5% | 0hPa | 2.6V | 08:30:00 | 01:33:42 | 00:00:00 | |
| DO3MHA-11 | 2026-09-05 00:07:24 | 45.61819 | 9.44856 | 125° | 20km/h | 19844m | 3.3m/s | -57.8°C | 5.0% | 0hPa | 2.7V | 00:00:00 | 01:33:41 | 00:00:00 | |
| NBG1-10 | 2026-09-05 00:07:22 | 45.61825 | 9.44846 | 136° | 27km/h | 19836m | 4.6m/s | -57.8°C | 5.0% | 0hPa | 2.7V | 00:00:00 | 01:33:39 | 08:30:00 | |
| IW2NTF | 2026-09-05 00:07:16 | 45.61847 | 9.44802 | 113° | 26km/h | 19804m | 5.2m/s | -57.8°C | 4.8% | 0hPa | 2.7V | 08:30:00 | 01:33:32 | 00:00:00 | |
| DO3MHA-11 | 2026-09-05 00:07:14 | 45.61850 | 9.44793 | 111° | 26km/h | 19800m | 4.2m/s | -57.8°C | 4.9% | 0hPa | 2.6V | 00:00:00 | 01:33:31 | 00:00:00 | |
| DB0UT-7 | 2026-09-05 00:07:11 | 45.61853 | 9.44766 | 90° | 27km/h | 19785m | 5.3m/s | -58.2°C | 5.0% | 0hPa | 2.6V | 00:00:00 | 00:00:00 | 00:00:00 | |
| IW2NTF | 2026-09-05 00:07:05 | 45.61861 | 9.44713 | 115° | 31km/h | 19758m | 5.2m/s | -58.5°C | 5.2% | 0hPa | 2.6V | 08:30:00 | 01:33:22 | 00:00:00 | |
| DO3MHA-11 | 2026-09-05 00:07:04 | 45.61864 | 9.44702 | 110° | 33km/h | 19753m | 5.0m/s | -58.4°C | 5.2% | 0hPa | 2.6V | 00:00:00 | 01:33:21 | 00:00:00 | |
| IW2NTF | 2026-09-05 00:07:00 | 45.61865 | 9.44596 | 89° | 31km/h | 19713m | 4.5m/s | -58.4°C | 5.3% | 0hPa | 2.6V | 08:30:00 | 01:33:12 | 00:00:00 | |
| DO3MHA-11 | 2026-09-05 00:06:54 | 45.61865 | 9.44585 | 91° | 27km/h | 19708m | 4.8m/s | -58.3°C | 5.2% | 0hPa | 2.6V | 00:00:00 | 01:33:11 | 00:00:00 | |
| NBG1-10 | 2026-09-05 00:06:49 | 45.61865 | 9.44530 | 85° | 22km/h | 19687m | 4.2m/s | -58.2°C | 5.2% | 0hPa | 2.6V | 00:00:00 | 01:33:06 | 00:00:00 | |
| IW2NTF | 2026-09-05 00:06:46 | 45.61860 | 9.44498 | 70° | 22km/h | 19668m | 5.3m/s | -58.2°C | 5.2% | 0hPa | 2.6V | 08:30:00 | 01:33:02 | 00:00:00 | |
| DO3MHA-11 | 2026-09-05 00:06:44 | 45.61858 | 9.44490 | 75° | 24km/h | 19664m | 4.2m/s | -58.1°C | 5.2% | 0hPa | 2.7V | 00:00:00 | 01:33:01 | 00:00:00 | |
| DB0UT-7 | 2026-09-05 00:06:41 | 45.61857 | 9.44466 | 101° | 22km/h | 19650m | 4.7m/s | -58.1°C | 5.2% | 0hPa | 2.7V | 00:00:00 | 01:32:58 | 00:00:00 | |
| IW2NTF | 2026-09-05 00:06:36 | 45.61863 | 9.44417 | 71° | 20km/h | 19622m | 4.6m/s | -58°C | 5% | 0hPa | 2.6V | 08:30:00 | 01:32:52 | 00:00:00 | |
| DO3MHA-11 | 2026-09-05 00:06:34 | 45.61860 | 9.44410 | 63° | 20km/h | 19618m | 3.5m/s | -58.0°C | 4.9% | 0hPa | 2.6V | 00:00:00 | 01:32:51 | 00:00:00 | |
| IW2NTF | 2026-09-05 00:06:26 | 45.61866 | 9.44349 | 111° | 24km/h | 19576m | 4.3m/s | -57.8°C | 4.9% | 0hPa | 2.7V | 08:30:00 | 01:32:42 | 00:00:00 | |
| DO3MHA-11 | 2026-09-05 00:06:24 | 45.61869 | 9.44342 | 108° | 20km/h | 19572m | 4.5m/s | -57.8°C | 5.0% | 0hPa | 2.6V | 00:00:00 | 01:32:41 | 00:00:00 | |
| IW2NTF | 2026-09-05 00:06:17 | 45.61880 | 9.44281 | 126° | 20km/h | 19528m | 5.1m/s | -58.5°C | 5.2% | 0hPa | 2.6V | 08:30:00 | 01:32:32 | 00:00:00 | |
| NBG1-10 | 2026-09-05 00:06:16 | 45.61878 | 9.44287 | 114° | 20km/h | 19534m | 5.8m/s | -58.5°C | 5.2% | 0hPa | 2.6V | 00:00:00 | 01:32:33 | 00:00:00 | |
| DO3MHA-11 | 2026-09-05 00:06:14 | 45.61884 | 9.44276 | 138° | 20km/h | 19524m | 4.4m/s | -58.5°C | 5.2% | 0hPa | 2.6V | 00:00:00 | 01:32:31 | 00:00:00 | |
| DB0UT-7 | 2026-09-05 00:06:11 | 45.61898 | 9.44259 | 141° | 20km/h | 19509m | 4.1m/s | -58.5°C | 5.3% | 0hPa | 2.6V | 00:00:00 | 00:00:00 | 00:00:00 | |
| IW2NTF | 2026-09-05 00:06:06 | 45.61920 | 9.44224 | 114° | 18km/h | 19478m | 4.4m/s | -58.5°C | 5.2% | 0hPa | 2.6V | 08:30:00 | 01:32:22 | 00:00:00 | |
| DO3MHA-11 | 2026-09-05 00:06:04 | 45.61922 | 9.44218 | 116° | 20km/h | 19474m | 4.7m/s | -58.4°C | 5.2% | 0hPa | 2.6V | 00:00:00 | 01:32:21 | 08:30:00 | |
| IW2NTF | 2026-09-05 00:05:56 | 45.61952 | 9.44166 | 125° | 16km/h | 19429m | 4.6m/s | -58.2°C | 5.2% | 0hPa | 2.6V | 08:30:00 | 01:32:12 | 00:00:00 | |
| DO3MHA-11 | 2026-09-05 00:05:54 | 45.61954 | 9.44161 | 115° | 18km/h | 19425m | 5.4m/s | -58.1°C | 5.1% | 0hPa | 2.6V | 00:00:00 | 01:32:11 | 00:00:00 | |
| IW2NTF | 2026-09-05 00:05:46 | 45.61957 | 9.44108 | 120° | 22km/h | 19381m | 4.9m/s | -58.2°C | 5.1% | 0hPa | 2.6V | 08:30:00 | 01:32:02 | 00:00:00 | |
| NBG1-10 | 2026-09-05 00:05:43 | 45.61962 | 9.44096 | 125° | 15km/h | 19372m | 4.4m/s | -58.3°C | 5.2% | 0hPa | 2.7V | 00:00:00 | 01:32:00 | 00:00:00 | |
| DB0UT-7 | 2026-09-05 00:05:41 | 45.61966 | 9.44086 | 104° | 15km/h | 19363m | 4.9m/s | -58.3°C | 5.2% | 0hPa | 2.6V | 00:00:00 | 01:31:58 | 00:00:00 | |
| IW2NTF | 2026-09-05 00:05:36 | 45.61960 | 9.44055 | 67° | 18km/h | 19333m | 4.9m/s | -58.2°C | 5.1% | 0hPa | 2.6V | 08:30:00 | 01:31:52 | 00:00:00 | |
| DO3MHA-11 | 2026-09-05 00:05:33 | 45.61957 | 9.44041 | 77° | 15km/h | 19325m | 4.0m/s | -58.1°C | 5.1% | 0hPa | 2.6V | 00:00:00 | 01:31:50 | 00:00:00 | |
| IW2NTF | 2026-09-05 00:05:26 | 45.61958 | 9.43994 | 89° | 7km/h | 19282m | 4.3m/s | -58.2°C | 5.1% | 0hPa | 2.6V | 08:30:00 | 01:31:41 | 00:00:00 | |
| DO3MHA-11 | 2026-09-05 00:05:23 | 45.61958 | 9.43990 | 87° | 13km/h | 19277m | 5.2m/s | -58.2°C | 5.2% | 0hPa | 2.6V | 00:00:00 | 01:31:40 | 00:00:00 | |
| IW2NTF | 2026-09-05 00:05:17 | 45.61965 | 9.43943 | 153° | 13km/h | 19226m | 4.5m/s | -58.1°C | 5.1% | 0hPa | 2.6V | 08:30:00 | 01:31:29 | 00:00:00 | |
| DO3MHA-11 | 2026-09-05 00:05:13 | 45.61962 | 9.43945 | 139° | 15km/h | 19231m | 5.4m/s | -58.1°C | 5.1% | 0hPa | 2.6V | 00:00:00 | 01:31:30 | 00:00:00 | |
| DB0UT-7 | 2026-09-05 00:05:11 | 45.61968 | 9.43940 | 154° | 20km/h | 19221m | 5.2m/s | -58.1°C | 5.1% | 0hPa | 2.6V | 00:00:00 | 00:00:00 | 00:00:00 | |
| NBG1-10 | 2026-09-05 00:05:09 | 45.61975 | 9.43936 | 152° | 24km/h | 19212m | 3.8m/s | -58.1°C | 5.1% | 0hPa | 2.6V | 00:00:00 | 01:31:26 | 00:00:00 | |
| DO3MHA-11 | 2026-09-05 00:05:03 | 45.61992 | 9.43916 | 130° | 18km/h | 19185m | 4.9m/s | -57.9°C | 5.0% | 0hPa | 2.6V | 00:00:00 | 01:31:20 | 00:00:00 | |
| IW2NTF | 2026-09-05 00:05:02 | 45.62011 | 9.43888 | 146° | 18km/h | 19156m | 5.4m/s | -58.2°C | 5.1% | 0hPa | 2.7V | 08:30:00 | 01:31:14 | 00:00:00 | |
| DO3MHA-11 | 2026-09-05 00:04:53 | 45.62028 | 9.43876 | 148° | 27km/h | 19138m | 5.4m/s | -58.3°C | 5.2% | 0hPa | 2.7V | 00:00:00 | 01:31:10 | 00:00:00 | |
| IW2NTF | 2026-09-05 00:04:47 | 45.62067 | 9.43819 | 126° | 29km/h | 19100m | 3.6m/s | -58.2°C | 5.1% | 0hPa | 2.7V | 08:30:00 | 01:31:02 | 00:00:00 | |
| DO3MHA-11 | 2026-09-05 00:04:43 | 45.62076 | 9.43803 | 130° | 29km/h | 19091m | 4.7m/s | -58.1°C | 5.1% | 0hPa | 2.7V | 00:00:00 | 01:31:00 | 00:00:00 | |
| DB0UT-7 | 2026-09-05 00:04:41 | 45.62084 | 9.43789 | 132° | 31km/h | 19083m | 4.7m/s | -58.1°C | 5.0% | 0hPa | 2.7V | 00:00:00 | 01:30:58 | 00:00:00 | |
| IW2NTF | 2026-09-05 00:04:40 | 45.62111 | 9.43738 | 116° | 31km/h | 19058m | 3.8m/s | -58°C | 5.1% | 0hPa | 2.7V | 08:30:00 | 01:30:52 | 00:00:00 | |
| NBG1-10 | 2026-09-05 00:04:36 | 45.62107 | 9.43747 | 122° | 33km/h | 19062m | 3.5m/s | -58.0°C | 5.0% | 0hPa | 2.7V | 00:00:00 | 01:30:53 | 00:00:00 | |
| DO3MHA-11 | 2026-09-05 00:04:33 | 45.62118 | 9.43717 | 116° | 31km/h | 19050m | 3.3m/s | -58.0°C | 5.1% | 0hPa | 2.7V | 00:00:00 | 01:30:50 | 08:30:00 | |
| IW2NTF | 2026-09-05 00:04:28 | 45.62146 | 9.43639 | 108° | 31km/h | 19018m | 4.1m/s | -58.2°C | 5% | 0hPa | 2.7V | 08:30:00 | 01:30:42 | 00:00:00 | |
| DO3MHA-11 | 2026-09-05 00:04:23 | 45.62150 | 9.43617 | 102° | 29km/h | 19010m | 3.1m/s | -58.3°C | 5.1% | 0hPa | 2.6V | 00:00:00 | 01:30:40 | 00:00:00 | |
| IW2NTF | 2026-09-05 00:04:16 | 45.62173 | 9.43542 | 115° | 37km/h | 18977m | 3.3m/s | -58.8°C | 5.3% | 0hPa | 2.6V | 08:30:00 | 01:30:32 | 00:00:00 | |
| DO3MHA-11 | 2026-09-05 00:04:14 | 45.62179 | 9.43516 | 104° | 37km/h | 18969m | 4.7m/s | -58.8°C | 5.3% | 0hPa | 2.6V | 00:00:00 | 01:30:30 | 00:00:00 | |
| IW2NTF | 2026-09-05 00:04:11 | 45.62189 | 9.43412 | 99° | 33km/h | 18937m | 3.6m/s | -58.8°C | 5.3% | 0hPa | 2.6V | 08:30:00 | 01:30:22 | 00:00:00 | |
| NBG1-10 | 2026-09-05 00:04:03 | 45.62193 | 9.43388 | 105° | 33km/h | 18928m | 4.1m/s | -58.7°C | 5.4% | 0hPa | 2.6V | 00:00:00 | 01:30:20 | 00:00:00 | |
| IW2NTF | 2026-09-05 00:04:00 | 45.62195 | 9.43292 | 83° | 31km/h | 18893m | 4.8m/s | -58.6°C | 5.3% | 0hPa | 2.6V | 08:30:00 | 01:30:12 | 00:00:00 | |
| DO3MHA-11 | 2026-09-05 00:03:53 | 45.62193 | 9.43269 | 82° | 35km/h | 18885m | 3.7m/s | -58.5°C | 5.3% | 0hPa | 2.6V | 00:00:00 | 01:30:10 | 00:00:00 | |
| IW2NTF | 2026-09-05 00:03:51 | 45.62187 | 9.43171 | 80° | 37km/h | 18848m | 3.9m/s | -58.4°C | 5.2% | 0hPa | 2.6V | 08:30:00 | 01:30:02 | 00:00:00 | |
| DO3MHA-11 | 2026-09-05 00:03:43 | 45.62183 | 9.43147 | 77° | 33km/h | 18840m | 3.6m/s | -58.4°C | 5.3% | 0hPa | 2.7V | 00:00:00 | 01:30:00 | 00:00:00 | |
| DB0UT-7 | 2026-09-05 00:03:41 | 45.62179 | 9.43124 | 80° | 31km/h | 18831m | 4.9m/s | -58.4°C | 5.3% | 0hPa | 2.7V | 00:00:00 | 01:29:58 | 08:30:00 | |
| IW2NTF | 2026-09-05 00:03:37 | 45.62170 | 9.43058 | 79° | 33km/h | 18804m | 5.4m/s | -58.2°C | 5.2% | 0hPa | 2.7V | 08:30:00 | 01:29:52 | 00:00:00 | |
| DO3MHA-11 | 2026-09-05 00:03:33 | 45.62167 | 9.43033 | 82° | 33km/h | 18794m | 4.0m/s | -58.1°C | 5.2% | 0hPa | 2.7V | 00:00:00 | 01:29:50 | 00:00:00 | |
| IW2NTF | 2026-09-05 00:03:30 | 45.62154 | 9.42939 | 77° | 29km/h | 18756m | 4.6m/s | -58°C | 5% | 0hPa | 2.6V | 08:30:00 | 01:29:42 | 00:00:00 | |
| NBG1-10 | 2026-09-05 00:03:30 | 45.62162 | 9.42997 | 80° | 29km/h | 18780m | 5.6m/s | -58.0°C | 5.1% | 0hPa | 2.7V | 00:00:00 | 01:29:47 | 00:00:00 | |
| DO3MHA-11 | 2026-09-05 00:03:23 | 45.62151 | 9.42918 | 82° | 29km/h | 18746m | 4.6m/s | -58.0°C | 5.1% | 0hPa | 2.7V | 00:00:00 | 01:29:40 | 00:00:00 | |
| IW2NTF | 2026-09-05 00:03:20 | 45.62143 | 9.42832 | 89° | 27km/h | 18707m | 5.4m/s | -58.2°C | 5.1% | 0hPa | 2.7V | 08:30:00 | 01:29:32 | 00:00:00 | |
| DO3MHA-11 | 2026-09-05 00:03:13 | 45.62142 | 9.42813 | 92° | 27km/h | 18698m | 5.8m/s | -58.2°C | 5.1% | 0hPa | 2.6V | 00:00:00 | 01:29:30 | 00:00:00 | |
| IW2NTF | 2026-09-05 00:03:11 | 45.62141 | 9.42733 | 94° | 27km/h | 18658m | 4.9m/s | -58°C | 5% | 0hPa | 2.6V | 08:30:00 | 01:29:22 | 00:00:00 | |
| DB0UT-7 | 2026-09-05 00:03:11 | 45.62143 | 9.42793 | 89° | 26km/h | 18687m | 4.3m/s | -58.1°C | 5.1% | 0hPa | 2.7V | 00:00:00 | 00:00:00 | 00:00:00 | |
| IW2NTF | 2026-09-05 00:03:01 | 45.62148 | 9.42642 | 98° | 26km/h | 18607m | 5.9m/s | -58.5°C | 5.2% | 0hPa | 2.7V | 08:30:00 | 01:29:12 | 00:00:00 | |
| DO3MHA-11 | 2026-09-05 00:02:59 | 45.62149 | 9.42625 | 89° | 24km/h | 18597m | 5.8m/s | -58.7°C | 5.3% | 0hPa | 2.6V | 00:00:00 | 01:29:10 | 00:00:00 | |
| IW2NTF | 2026-09-05 00:02:51 | 45.62153 | 9.42558 | 100° | 27km/h | 18558m | 5.1m/s | -58.7°C | 5.4% | 0hPa | 2.6V | 08:30:00 | 01:29:02 | 00:00:00 | |
| DO3MHA-11 | 2026-09-05 00:02:49 | 45.62156 | 9.42539 | 109° | 27km/h | 18547m | 5.2m/s | -58.6°C | 5.3% | 0hPa | 2.6V | 00:00:00 | 01:29:00 | 00:00:00 | |
| DB0UT-7 | 2026-09-05 00:02:47 | 45.62160 | 9.42520 | 101° | 31km/h | 18537m | 5.3m/s | -58.6°C | 5.3% | 0hPa | 2.6V | 00:00:00 | 01:28:58 | 00:00:00 | |
| IW2NTF | 2026-09-05 00:02:40 | 45.62177 | 9.42444 | 112° | 29km/h | 18496m | 4.5m/s | -58.6°C | 5.3% | 0hPa | 2.6V | 08:30:00 | 01:28:50 | 00:00:00 | |
| DO3MHA-11 | 2026-09-05 00:02:33 | 45.62177 | 9.42444 | 113° | 29km/h | 18497m | 4.5m/s | 0°C | 0% | 0hPa | 2.6V | 00:00:00 | 01:28:50 | 00:00:00 | |
| IW2NTF | 2026-09-05 00:02:26 | 45.62219 | 9.42354 | 129° | 33km/h | 18444m | 5.7m/s | -58.5°C | 5.3% | 0hPa | 2.6V | 08:30:00 | 01:28:40 | 00:00:00 | |
| DO3MHA-11 | 2026-09-05 00:02:24 | 45.62219 | 9.42353 | 130° | 31km/h | 18445m | 5.6m/s | -58.4°C | 5.3% | 0hPa | 2.6V | 00:00:00 | 01:28:40 | 00:00:00 | |
| IW2NTF | 2026-09-05 00:02:18 | 45.62262 | 9.42259 | 126° | 35km/h | 18393m | 5m/s | -58.5°C | 5.3% | 0hPa | 2.6V | 08:30:00 | 01:28:30 | 00:00:00 | |
| DO3MHA-11 | 2026-09-05 00:02:16 | 45.62262 | 9.42259 | 127° | 37km/h | 18394m | 5.0m/s | -58.5°C | 5.3% | 0hPa | 2.6V | 00:00:00 | 01:28:30 | 00:00:00 | |
| DB0UT-7 | 2026-09-05 00:02:15 | 45.62273 | 9.42238 | 129° | 42km/h | 18383m | 5.6m/s | -58.5°C | 5.3% | 0hPa | 2.6V | 00:00:00 | 00:00:00 | 00:00:00 | |
| NBG1-10 | 2026-09-05 00:02:13 | 45.62279 | 9.42227 | 126° | 44km/h | 18378m | 5.3m/s | -58.5°C | 5.4% | 0hPa | 2.7V | 00:00:00 | 01:28:27 | 08:30:00 | |
| IW2NTF | 2026-09-05 00:02:09 | 45.62314 | 9.42149 | 114° | 38km/h | 18343m | 4.4m/s | -58.5°C | 5.3% | 0hPa | 2.6V | 08:30:00 | 01:28:20 | 00:00:00 | |
| IW2NTF | 2026-09-05 00:01:57 | 45.62371 | 9.41983 | 111° | 46km/h | 18282m | 4.5m/s | -58.4°C | 5.2% | 0hPa | 2.6V | 08:30:00 | 01:28:08 | 00:00:00 | |
| DO3MHA-11 | 2026-09-05 00:01:57 | 45.62362 | 9.42014 | 116° | 46km/h | 18292m | 5.7m/s | -58.4°C | 5.3% | 0hPa | 2.6V | 00:00:00 | 01:28:10 | 00:00:00 | |
| IW2NTF | 2026-09-05 00:01:46 | 45.62412 | 9.41812 | 100° | 51km/h | 18230m | 3m/s | -58.4°C | 5.1% | 0hPa | 2.6V | 08:30:00 | 01:27:57 | 00:00:00 | |
| DO3MHA-11 | 2026-09-05 00:01:45 | 45.62403 | 9.41863 | 109° | 47km/h | 18244m | 4.5m/s | -58.3°C | 5.2% | 0hPa | 2.7V | 00:00:00 | 01:28:00 | 00:00:00 | |
| DB0UT-7 | 2026-09-05 00:01:43 | 45.62410 | 9.41830 | 103° | 53km/h | 18234m | 4.7m/s | -58.3°C | 5.2% | 0hPa | 2.7V | 00:00:00 | 01:27:58 | 00:00:00 | |
| NBG1-10 | 2026-09-05 00:01:40 | 45.62419 | 9.41760 | 102° | 49km/h | 18217m | 4.4m/s | -58.5°C | 5.1% | 0hPa | 2.7V | 00:00:00 | 01:27:54 | 00:00:00 | |
| DO3MHA-11 | 2026-09-05 00:01:38 | 45.62429 | 9.41695 | 102° | 55km/h | 18198m | 3.1m/s | -58.7°C | 5.2% | 0hPa | 2.7V | 00:00:00 | 01:27:50 | 08:30:00 | |
| IW2NTF | 2026-09-05 00:01:32 | 45.62438 | 9.41642 | 105° | 53km/h | 18184m | 4.1m/s | -58.7°C | 5.1% | 0hPa | 2.6V | 08:30:00 | 01:27:47 | 00:00:00 | |
| DO3MHA-11 | 2026-09-05 00:01:25 | 45.62451 | 9.41501 | 89° | 53km/h | 18154m | 3.5m/s | -59.2°C | 5.4% | 0hPa | 2.6V | 00:00:00 | 01:27:40 | 00:00:00 | |
| IW2NTF | 2026-09-05 00:01:22 | 45.62446 | 9.41404 | 89° | 51km/h | 18133m | 4.7m/s | -59.7°C | 5.4% | 0hPa | 2.6V | 08:30:00 | 01:27:35 | 00:00:00 | |
| DB0UT-7 | 2026-09-05 00:01:14 | 45.62446 | 9.41272 | 89° | 35km/h | 18104m | 3.9m/s | -59.9°C | 5.7% | 0hPa | 2.6V | 00:00:00 | 00:00:00 | 00:00:00 | |
| IW2NTF | 2026-09-05 00:01:12 | 45.62443 | 9.41226 | 79° | 40km/h | 18089m | 3.9m/s | -60°C | 5.7% | 0hPa | 2.6V | 08:30:00 | 01:27:25 | 00:00:00 | |
| IW2NTF | 2026-09-05 00:01:06 | 45.62429 | 9.41082 | 83° | 40km/h | 18048m | 4.3m/s | -60.3°C | 5.8% | 0hPa | 2.6V | 08:30:00 | 01:27:15 | 00:00:00 | |
| NBG1-10 | 2026-09-05 00:01:00 | 45.62430 | 9.41111 | 85° | 27km/h | 18056m | 4.6m/s | -60.3°C | 5.8% | 0hPa | 2.7V | 00:00:00 | 01:27:17 | 00:00:00 | |
| DO3MHA-11 | 2026-09-05 00:00:52 | 45.62426 | 9.41003 | 95° | 27km/h | 18022m | 3.4m/s | -60.4°C | 5.9% | 0hPa | 2.7V | 00:00:00 | 01:27:09 | 00:00:00 | |
| IW2NTF | 2026-09-05 00:00:49 | 45.62424 | 9.40957 | 78° | 29km/h | 18004m | 5m/s | -60.3°C | 5.8% | 0hPa | 2.7V | 08:30:00 | 01:27:05 | 00:00:00 | |
| IW2NTF | 2026-09-05 00:00:44 | 45.62410 | 9.40872 | 81° | 26km/h | 17956m | 4m/s | -60°C | 5.8% | 0hPa | 2.6V | 08:30:00 | 01:26:55 | 00:00:00 | |
| DO3MHA-11 | 2026-09-05 00:00:43 | 45.62413 | 9.40906 | 79° | 22km/h | 17974m | 4.8m/s | -60.1°C | 5.8% | 0hPa | 2.7V | 00:00:00 | 01:26:59 | 00:00:00 | |
| DB0UT-7 | 2026-09-05 00:00:41 | 45.62412 | 9.40898 | 83° | 20km/h | 17970m | 3.1m/s | -60.0°C | 5.8% | 0hPa | 2.7V | 00:00:00 | 01:26:58 | 00:00:00 | |
| DO3MHA-11 | 2026-09-05 00:00:36 | 45.62406 | 9.40826 | 74° | 20km/h | 17929m | 4.5m/s | -59.7°C | 5.7% | 0hPa | 2.6V | 00:00:00 | 01:26:49 | 00:00:00 | |
| IW2NTF | 2026-09-05 00:00:34 | 45.62401 | 9.40797 | 82° | 20km/h | 17910m | 4.8m/s | -59.7°C | 5.7% | 0hPa | 2.7V | 08:30:00 | 01:26:45 | 00:00:00 | |
| NBG1-10 | 2026-09-05 00:00:27 | 45.62401 | 9.40790 | 85° | 20km/h | 17905m | 5.1m/s | -59.7°C | 5.7% | 0hPa | 2.6V | 00:00:00 | 01:26:44 | 00:00:00 | |
| IW2NTF | 2026-09-05 00:00:23 | 45.62396 | 9.40724 | 85° | 18km/h | 17862m | 4m/s | -59.6°C | 5.6% | 0hPa | 2.6V | 08:30:00 | 01:26:35 | 00:00:00 | |
| DO3MHA-11 | 2026-09-05 00:00:23 | 45.62398 | 9.40753 | 84° | 20km/h | 17882m | 5.9m/s | -59.6°C | 5.7% | 0hPa | 2.6V | 00:00:00 | 01:26:39 | 00:00:00 | |
| IW2NTF | 2026-09-05 00:00:13 | 45.62400 | 9.40653 | 104° | 20km/h | 17813m | 4m/s | -59.5°C | 5.6% | 0hPa | 2.6V | 08:30:00 | 01:26:25 | 00:00:00 | |
| DB0UT-7 | 2026-09-05 00:00:12 | 45.62397 | 9.40675 | 97° | 20km/h | 17828m | 5.2m/s | -59.5°C | 5.6% | 0hPa | 2.7V | 00:00:00 | 00:00:00 | 00:00:00 | |
| DO3MHA-11 | 2026-09-05 00:00:07 | 45.62403 | 9.40639 | 105° | 18km/h | 17804m | 5.6m/s | -59.5°C | 5.6% | 0hPa | 2.7V | 00:00:00 | 01:26:23 | 00:00:00 | |
| IW2NTF | 2026-09-05 00:00:04 | 45.62421 | 9.40591 | 116° | 16km/h | 17765m | 5.6m/s | -59.4°C | 5.7% | 0hPa | 2.7V | 08:30:00 | 01:26:15 | 00:00:00 | |
| NBG1-10 | 2026-09-04 23:59:54 | 45.62424 | 9.40569 | 94° | 24km/h | 17745m | 4.5m/s | -59.4°C | 5.6% | 0hPa | 2.6V | 00:00:00 | 01:26:11 | 00:00:00 | |
| IW2NTF | 2026-09-04 23:59:53 | 45.62437 | 9.40536 | 137° | 22km/h | 17714m | 5.2m/s | -59.3°C | 5.7% | 0hPa | 2.6V | 08:30:00 | 01:26:05 | 00:00:00 | |
| DO3MHA-11 | 2026-09-04 23:59:53 | 45.62424 | 9.40562 | 97° | 20km/h | 17740m | 5.4m/s | -59.4°C | 5.6% | 0hPa | 2.6V | 00:00:00 | 01:26:10 | 08:30:00 | |
| IW2NTF | 2026-09-04 23:59:43 | 45.62467 | 9.40468 | 123° | 26km/h | 17666m | 5.4m/s | -59°C | 5.5% | 0hPa | 2.7V | 08:30:00 | 01:25:55 | 00:00:00 | |
| DO3MHA-11 | 2026-09-04 23:59:43 | 45.62454 | 9.40507 | 116° | 26km/h | 17690m | 5.2m/s | -59.1°C | 5.6% | 0hPa | 2.7V | 00:00:00 | 01:26:00 | 00:00:00 | |
| DB0UT-7 | 2026-09-04 23:59:41 | 45.62459 | 9.40490 | 110° | 27km/h | 17680m | 5.4m/s | -59.1°C | 5.6% | 0hPa | 2.7V | 00:00:00 | 01:25:58 | 00:00:00 | |
| IW2NTF | 2026-09-04 23:59:33 | 45.62507 | 9.40396 | 125° | 24km/h | 17616m | 4.7m/s | -58.7°C | 5.4% | 0hPa | 2.7V | 08:30:00 | 01:25:45 | 00:00:00 | |
| DO3MHA-11 | 2026-09-04 23:59:33 | 45.62489 | 9.40432 | 134° | 26km/h | 17642m | 4.4m/s | -58.8°C | 5.4% | 0hPa | 2.6V | 00:00:00 | 01:25:50 | 00:00:00 | |
| IW2NTF | 2026-09-04 23:59:23 | 45.62561 | 9.40326 | 138° | 27km/h | 17567m | 5.4m/s | -58.6°C | 5.5% | 0hPa | 2.6V | 08:30:00 | 01:25:35 | 00:00:00 | |
| DO3MHA-11 | 2026-09-04 23:59:23 | 45.62532 | 9.40360 | 140° | 29km/h | 17591m | 4.9m/s | -58.6°C | 5.4% | 0hPa | 2.6V | 00:00:00 | 01:25:40 | 00:00:00 | |
| NBG1-10 | 2026-09-04 23:59:22 | 45.62543 | 9.40347 | 141° | 33km/h | 17581m | 5.8m/s | -58.6°C | 5.5% | 0hPa | 2.7V | 00:00:00 | 01:25:38 | 00:00:00 | |
| IW2NTF | 2026-09-04 23:59:13 | 45.62609 | 9.40241 | 129° | 37km/h | 17514m | 5.3m/s | -58.8°C | 5.4% | 0hPa | 2.7V | 08:30:00 | 01:25:25 | 00:00:00 | |
| DO3MHA-11 | 2026-09-04 23:59:13 | 45.62586 | 9.40290 | 129° | 35km/h | 17542m | 5.3m/s | -58.7°C | 5.5% | 0hPa | 2.6V | 00:00:00 | 01:25:30 | 00:00:00 | |
| DB0UT-7 | 2026-09-04 23:59:11 | 45.62595 | 9.40271 | 121° | 42km/h | 17531m | 5.2m/s | -58.7°C | 5.5% | 0hPa | 2.6V | 00:00:00 | 00:00:00 | 08:30:00 | |
| IW2NTF | 2026-09-04 23:59:03 | 45.62674 | 9.40137 | 116° | 44km/h | 17464m | 5.4m/s | -58.6°C | 5.5% | 0hPa | 2.6V | 08:30:00 | 01:25:15 | 00:00:00 | |
| DO3MHA-11 | 2026-09-04 23:59:03 | 45.62643 | 9.40197 | 140° | 42km/h | 17489m | 5.4m/s | -58.6°C | 5.5% | 0hPa | 2.6V | 00:00:00 | 01:25:20 | 00:00:00 | |
| IW2NTF | 2026-09-04 23:58:54 | 45.62740 | 9.40013 | 131° | 47km/h | 17415m | 4.9m/s | -58.9°C | 5.6% | 0hPa | 2.6V | 08:30:00 | 01:25:05 | 00:00:00 | |
| DO3MHA-11 | 2026-09-04 23:58:53 | 45.62701 | 9.40073 | 130° | 47km/h | 17439m | 4.3m/s | -58.8°C | 5.6% | 0hPa | 2.6V | 00:00:00 | 01:25:10 | 00:00:00 | |
| NBG1-10 | 2026-09-04 23:58:48 | 45.62740 | 9.40013 | 132° | 47km/h | 17415m | 4.9m/s | -58.8°C | 5.6% | 0hPa | 2.6V | 00:00:00 | 01:25:05 | 00:00:00 | |
| IW2NTF | 2026-09-04 23:58:43 | 45.62801 | 9.39864 | 123° | 51km/h | 17364m | 3.7m/s | -59°C | 5.6% | 0hPa | 2.7V | 08:30:00 | 01:24:55 | 00:00:00 | |
| DO3MHA-11 | 2026-09-04 23:58:43 | 45.62774 | 9.39940 | 116° | 49km/h | 17390m | 5.5m/s | -58.7°C | 5.5% | 0hPa | 2.6V | 00:00:00 | 01:25:00 | 00:00:00 | |
| DB0UT-7 | 2026-09-04 23:58:41 | 45.62784 | 9.39909 | 116° | 47km/h | 17381m | 4.3m/s | -58.8°C | 5.6% | 0hPa | 2.6V | 00:00:00 | 01:24:58 | 00:00:00 | |
| IW2NTF | 2026-09-04 23:58:33 | 45.62862 | 9.39704 | 113° | 49km/h | 17318m | 5.4m/s | -59.3°C | 5.7% | 0hPa | 2.6V | 08:30:00 | 01:24:45 | 00:00:00 | |
| DO3MHA-11 | 2026-09-04 23:58:33 | 45.62834 | 9.39786 | 119° | 49km/h | 17343m | 5.2m/s | -59.1°C | 5.7% | 0hPa | 2.7V | 00:00:00 | 01:24:50 | 00:00:00 | |
| IW2NTF | 2026-09-04 23:58:23 | 45.62901 | 9.39543 | 110° | 44km/h | 17272m | 5.1m/s | -59.8°C | 6% | 0hPa | 2.7V | 08:30:00 | 01:24:35 | 00:00:00 | |
| DO3MHA-11 | 2026-09-04 23:58:23 | 45.62882 | 9.39622 | 108° | 46km/h | 17295m | 5.1m/s | -59.5°C | 5.9% | 0hPa | 2.6V | 00:00:00 | 01:24:40 | 08:30:00 | |
| NBG1-10 | 2026-09-04 23:58:15 | 45.62912 | 9.39498 | 106° | 42km/h | 17258m | 5.2m/s | -59.8°C | 6.1% | 0hPa | 2.7V | 00:00:00 | 01:24:32 | 00:00:00 | |
| IW2NTF | 2026-09-04 23:58:14 | 45.62930 | 9.39402 | 105° | 37km/h | 17227m | 3.2m/s | -60°C | 6.2% | 0hPa | 2.7V | 08:30:00 | 01:24:25 | 00:00:00 | |
| DO3MHA-11 | 2026-09-04 23:58:13 | 45.62916 | 9.39469 | 103° | 38km/h | 17250m | 4.2m/s | -59.8°C | 6.0% | 0hPa | 2.6V | 00:00:00 | 01:24:30 | 00:00:00 | |
| DB0UT-7 | 2026-09-04 23:58:11 | 45.62921 | 9.39441 | 108° | 44km/h | 17240m | 4.3m/s | -59.9°C | 6.1% | 0hPa | 2.6V | 00:00:00 | 00:00:00 | 00:00:00 | |
| IW2NTF | 2026-09-04 23:58:05 | 45.62957 | 9.39265 | 106° | 44km/h | 17182m | 4.5m/s | -60.7°C | 6.6% | 0hPa | 2.6V | 08:30:00 | 01:24:15 | 00:00:00 | |
| DO3MHA-11 | 2026-09-04 23:58:03 | 45.62944 | 9.39337 | 104° | 44km/h | 17205m | 4.4m/s | -60.3°C | 6.3% | 0hPa | 2.6V | 00:00:00 | 01:24:20 | 00:00:00 | |
| IW2NTF | 2026-09-04 23:57:52 | 45.63001 | 9.39087 | 95° | 51km/h | 17133m | 3.9m/s | -61.2°C | 6.9% | 0hPa | 2.6V | 08:30:00 | 01:24:04 | 00:00:00 | |
| DO3MHA-11 | 2026-09-04 23:57:43 | 45.63008 | 9.39015 | 106° | 51km/h | 17117m | 4.3m/s | -61.1°C | 6.9% | 0hPa | 2.7V | 00:00:00 | 01:24:00 | 00:00:00 | |
| IW2NTF | 2026-09-04 23:57:42 | 45.63028 | 9.38911 | 103° | 53km/h | 17092m | 3.5m/s | -61.1°C | 6.9% | 0hPa | 2.7V | 08:30:00 | 01:23:54 | 00:00:00 | |
| NBG1-10 | 2026-09-04 23:57:42 | 45.63012 | 9.38998 | 107° | 55km/h | 17112m | 4.1m/s | -61.1°C | 6.9% | 0hPa | 2.6V | 00:00:00 | 01:23:59 | 00:00:00 | |
| DB0UT-7 | 2026-09-04 23:57:41 | 45.63016 | 9.38981 | 107° | 53km/h | 17108m | 3.9m/s | -61.1°C | 6.9% | 0hPa | 2.6V | 00:00:00 | 01:23:58 | 00:00:00 | |
| DO3MHA-11 | 2026-09-04 23:57:33 | 45.63038 | 9.38840 | 99° | 53km/h | 17078m | 4.0m/s | -61.1°C | 6.8% | 0hPa | 2.6V | 00:00:00 | 01:23:50 | 00:00:00 | |
| IW2NTF | 2026-09-04 23:57:32 | 45.63050 | 9.38733 | 98° | 55km/h | 17052m | 4.4m/s | -61.2°C | 7% | 0hPa | 2.6V | 08:30:00 | 01:23:44 | 00:00:00 | |
| IW2NTF | 2026-09-04 23:57:23 | 45.63064 | 9.38533 | 93° | 51km/h | 17006m | 4.1m/s | -61.1°C | 6.8% | 0hPa | 2.6V | 08:30:00 | 01:23:34 | 00:00:00 | |
| DO3MHA-11 | 2026-09-04 23:57:13 | 45.63071 | 9.38456 | 97° | 58km/h | 16988m | 4.9m/s | -61.2°C | 7.0% | 0hPa | 2.7V | 00:00:00 | 01:23:30 | 00:00:00 | |
| IW2NTF | 2026-09-04 23:57:12 | 45.63071 | 9.38330 | 88° | 60km/h | 16961m | 5.1m/s | -61.5°C | 7.1% | 0hPa | 2.7V | 08:30:00 | 01:23:24 | 00:00:00 | |
| DB0UT-7 | 2026-09-04 23:57:11 | 45.63073 | 9.38414 | 90° | 58km/h | 16979m | 4.2m/s | -61.2°C | 6.9% | 0hPa | 2.6V | 00:00:00 | 00:00:00 | 00:00:00 | |
| NBG1-10 | 2026-09-04 23:57:08 | 45.63071 | 9.38351 | 89° | 57km/h | 16965m | 3.8m/s | -61.3°C | 7.1% | 0hPa | 2.6V | 00:00:00 | 01:23:25 | 08:30:00 | |
| DO3MHA-11 | 2026-09-04 23:57:03 | 45.63071 | 9.38243 | 91° | 58km/h | 16944m | 3.2m/s | -61.6°C | 7.3% | 0hPa | 2.7V | 00:00:00 | 01:23:20 | 00:00:00 | |
| IW2NTF | 2026-09-04 23:57:00 | 45.63069 | 9.38118 | 85° | 58km/h | 16918m | 5m/s | -61.7°C | 7.3% | 0hPa | 2.7V | 08:30:00 | 01:23:14 | 00:00:00 | |
| DO3MHA-11 | 2026-09-04 23:56:53 | 45.63063 | 9.38034 | 86° | 57km/h | 16902m | 3.6m/s | -61.9°C | 7.4% | 0hPa | 2.6V | 00:00:00 | 01:23:10 | 08:30:00 | |
| IW2NTF | 2026-09-04 23:56:50 | 45.63055 | 9.37911 | 80° | 55km/h | 16875m | 5.1m/s | -62°C | 7.7% | 0hPa | 2.6V | 08:30:00 | 01:23:04 | 00:00:00 | |
| DO3MHA-11 | 2026-09-04 23:56:43 | 45.63042 | 9.37835 | 76° | 53km/h | 16858m | 3.1m/s | -61.9°C | 7.7% | 0hPa | 2.6V | 00:00:00 | 01:23:00 | 00:00:00 | |
| DB0UT-7 | 2026-09-04 23:56:41 | 45.63036 | 9.37797 | 79° | 51km/h | 16849m | 4.1m/s | -61.8°C | 7.6% | 0hPa | 2.6V | 00:00:00 | 01:22:58 | 00:00:00 | |
| IW2NTF | 2026-09-04 23:56:38 | 45.63028 | 9.37722 | 82° | 49km/h | 16832m | 3.6m/s | -61.7°C | 7.5% | 0hPa | 2.6V | 08:30:00 | 01:22:54 | 00:00:00 | |
| NBG1-10 | 2026-09-04 23:56:35 | 45.63023 | 9.37686 | 79° | 51km/h | 16824m | 4.9m/s | -61.7°C | 7.5% | 0hPa | 2.6V | 00:00:00 | 01:22:52 | 00:00:00 | |
| DO3MHA-11 | 2026-09-04 23:56:33 | 45.63016 | 9.37647 | 74° | 53km/h | 16815m | 3.9m/s | -61.6°C | 7.6% | 0hPa | 2.6V | 00:00:00 | 01:22:50 | 00:00:00 | |
| IW2NTF | 2026-09-04 23:56:32 | 45.62992 | 9.37535 | 73° | 55km/h | 16788m | 4.8m/s | -61.5°C | 7.5% | 0hPa | 2.6V | 08:30:00 | 01:22:44 | 00:00:00 | |
| DO3MHA-11 | 2026-09-04 23:56:23 | 45.62977 | 9.37463 | 72° | 49km/h | 16770m | 4.7m/s | -61.5°C | 7.6% | 0hPa | 2.7V | 00:00:00 | 01:22:40 | 00:00:00 | |
| IW2NTF | 2026-09-04 23:56:17 | 45.62954 | 9.37362 | 71° | 49km/h | 16743m | 4.2m/s | -61.5°C | 7.7% | 0hPa | 2.6V | 08:30:00 | 01:22:34 | 00:00:00 | |
| DO3MHA-11 | 2026-09-04 23:56:13 | 45.62940 | 9.37295 | 75° | 47km/h | 16726m | 4.1m/s | -61.4°C | 7.7% | 0hPa | 2.6V | 00:00:00 | 01:22:30 | 00:00:00 | |
| IW2NTF | 2026-09-04 23:56:12 | 45.62909 | 9.37141 | 69° | 47km/h | 16688m | 5.2m/s | -61.1°C | 7.6% | 0hPa | 2.6V | 08:30:00 | 01:22:21 | 00:00:00 | |
| DB0UT-7 | 2026-09-04 23:56:11 | 45.62933 | 9.37260 | 76° | 49km/h | 16717m | 3.5m/s | -61.3°C | 7.7% | 0hPa | 2.7V | 00:00:00 | 00:00:00 | 00:00:00 | |
| NBG1-10 | 2026-09-04 23:56:02 | 45.62901 | 9.37108 | 72° | 47km/h | 16678m | 5.1m/s | -61.0°C | 7.7% | 0hPa | 2.6V | 00:00:00 | 01:22:19 | 00:00:00 | |
| IW2NTF | 2026-09-04 23:55:52 | 45.62860 | 9.36928 | 66° | 42km/h | 16630m | 4.9m/s | -60.8°C | 7.7% | 0hPa | 2.6V | 08:30:00 | 01:22:08 | 00:00:00 | |
| DO3MHA-11 | 2026-09-04 23:55:51 | 45.62860 | 9.36928 | 67° | 51km/h | 16630m | 4.8m/s | -60.7°C | 7.7% | 0hPa | 2.6V | 00:00:00 | 01:22:08 | 00:00:00 | |
| IW2NTF | 2026-09-04 23:55:42 | 45.62822 | 9.36755 | 69° | 44km/h | 16588m | 5.5m/s | -60.5°C | 7.3% | 0hPa | 2.6V | 08:30:00 | 01:21:58 | 00:00:00 | |
| DB0UT-7 | 2026-09-04 23:55:42 | 45.62822 | 9.36755 | 70° | 44km/h | 16588m | 5.5m/s | -60.5°C | 7.3% | 0hPa | 2.6V | 00:00:00 | 01:21:58 | 00:00:00 | |
| IW2NTF | 2026-09-04 23:55:32 | 45.62786 | 9.36616 | 70° | 46km/h | 16544m | 5m/s | -60.9°C | 7.7% | 0hPa | 2.6V | 08:30:00 | 01:21:48 | 00:00:00 | |
| DO3MHA-11 | 2026-09-04 23:55:31 | 45.62786 | 9.36616 | 71° | 46km/h | 16545m | 4.9m/s | -60.9°C | 7.7% | 0hPa | 2.6V | 00:00:00 | 01:21:48 | 00:00:00 | |
| NBG1-10 | 2026-09-04 23:55:29 | 45.62778 | 9.36584 | 69° | 42km/h | 16534m | 5.2m/s | -61.0°C | 7.9% | 0hPa | 2.6V | 00:00:00 | 01:21:46 | 00:00:00 | |
| IW2NTF | 2026-09-04 23:55:22 | 45.62738 | 9.36466 | 70° | 42km/h | 16498m | 5.5m/s | -61.5°C | 8% | 0hPa | 2.7V | 08:30:00 | 01:21:38 | 00:00:00 | |
| DO3MHA-11 | 2026-09-04 23:55:21 | 45.62738 | 9.36466 | 71° | 47km/h | 16498m | 5.4m/s | -61.5°C | 8.0% | 0hPa | 2.7V | 00:00:00 | 01:21:38 | 08:30:00 | |
| IW2NTF | 2026-09-04 23:55:13 | 45.62708 | 9.36303 | 73° | 46km/h | 16453m | 4.3m/s | -61.7°C | 8.2% | 0hPa | 2.6V | 08:30:00 | 01:21:28 | 00:00:00 | |
| DB0UT-7 | 2026-09-04 23:55:11 | 45.62708 | 9.36303 | 74° | 42km/h | 16454m | 4.3m/s | -61.6°C | 8.2% | 0hPa | 2.6V | 00:00:00 | 00:00:00 | 00:00:00 | |
| IW2NTF | 2026-09-04 23:55:02 | 45.62684 | 9.36150 | 80° | 42km/h | 16411m | 5.6m/s | -62.3°C | 8.6% | 0hPa | 2.6V | 08:30:00 | 01:21:18 | 00:00:00 | |
| DO3MHA-11 | 2026-09-04 23:55:00 | 45.62682 | 9.36134 | 85° | 42km/h | 16406m | 5.0m/s | -62.3°C | 8.6% | 0hPa | 2.6V | 00:00:00 | 01:21:17 | 00:00:00 | |
| IW2NTF | 2026-09-04 23:54:52 | 45.62679 | 9.36000 | 84° | 37km/h | 16365m | 4.5m/s | -62.7°C | 8.9% | 0hPa | 2.6V | 08:30:00 | 01:21:08 | 00:00:00 | |
| DO3MHA-11 | 2026-09-04 23:54:50 | 45.62678 | 9.35986 | 84° | 44km/h | 16360m | 3.9m/s | -62.7°C | 9.0% | 0hPa | 2.7V | 00:00:00 | 01:21:07 | 00:00:00 | |
| IW2NTF | 2026-09-04 23:54:42 | 45.62691 | 9.35847 | 101° | 40km/h | 16322m | 5m/s | -62.8°C | 9% | 0hPa | 2.6V | 08:30:00 | 01:20:58 | 00:00:00 | |
| DB0UT-7 | 2026-09-04 23:54:41 | 45.62691 | 9.35847 | 102° | 40km/h | 16323m | 5.0m/s | -62.7°C | 9.0% | 0hPa | 2.6V | 00:00:00 | 01:20:58 | 08:30:00 | |
| DO3MHA-11 | 2026-09-04 23:54:40 | 45.62693 | 9.35833 | 102° | 42km/h | 16318m | 4.7m/s | -62.8°C | 9.0% | 0hPa | 2.6V | 00:00:00 | 01:20:57 | 00:00:00 | |
| IW2NTF | 2026-09-04 23:54:33 | 45.62702 | 9.35702 | 96° | 46km/h | 16278m | 4.4m/s | -62.7°C | 9.2% | 0hPa | 2.6V | 08:30:00 | 01:20:48 | 00:00:00 | |
| DO3MHA-11 | 2026-09-04 23:54:29 | 45.62704 | 9.35671 | 93° | 38km/h | 16271m | 4.2m/s | -62.6°C | 9.0% | 0hPa | 2.6V | 00:00:00 | 01:20:46 | 00:00:00 | |
| IW2NTF | 2026-09-04 23:54:22 | 45.62703 | 9.35566 | 92° | 44km/h | 16234m | 3.7m/s | -62.8°C | 8.9% | 0hPa | 2.6V | 08:30:00 | 01:20:38 | 00:00:00 | |
| DO3MHA-11 | 2026-09-04 23:54:19 | 45.62704 | 9.35534 | 91° | 46km/h | 16225m | 5.6m/s | -63.0°C | 9.0% | 0hPa | 2.7V | 00:00:00 | 01:20:36 | 00:00:00 | |
| NBG1-10 | 2026-09-04 23:54:16 | 45.62703 | 9.35486 | 86° | 46km/h | 16210m | 5.5m/s | -63.4°C | 9.5% | 0hPa | 2.6V | 00:00:00 | 01:20:33 | 00:00:00 | |
| IW2NTF | 2026-09-04 23:54:11 | 45.62693 | 9.35406 | 79° | 47km/h | 16186m | 5.8m/s | -63.4°C | 9.7% | 0hPa | 2.6V | 08:30:00 | 01:20:28 | 00:00:00 | |
| DB0UT-7 | 2026-09-04 23:54:11 | 45.62693 | 9.35406 | 80° | 46km/h | 16186m | 5.8m/s | -63.4°C | 9.7% | 0hPa | 2.6V | 00:00:00 | 00:00:00 | 00:00:00 | |
| DO3MHA-11 | 2026-09-04 23:54:08 | 45.62686 | 9.35356 | 77° | 46km/h | 16172m | 4.7m/s | -63.3°C | 9.7% | 0hPa | 2.6V | 00:00:00 | 01:20:25 | 00:00:00 | |
| IW2NTF | 2026-09-04 23:54:06 | 45.62664 | 9.35244 | 74° | 44km/h | 16141m | 3.9m/s | -63.1°C | 9.6% | 0hPa | 2.6V | 08:30:00 | 01:20:18 | 00:00:00 | |
| DO3MHA-11 | 2026-09-04 23:53:58 | 45.62659 | 9.35198 | 85° | 46km/h | 16127m | 3.1m/s | -63.0°C | 9.5% | 0hPa | 2.6V | 00:00:00 | 01:20:15 | 00:00:00 | |
| IW2NTF | 2026-09-04 23:53:56 | 45.62646 | 9.35078 | 79° | 38km/h | 16094m | 4.5m/s | -62.9°C | 9.4% | 0hPa | 2.6V | 08:30:00 | 01:20:08 | 00:00:00 | |
| NBG1-10 | 2026-09-04 23:53:43 | 45.62636 | 9.34957 | 83° | 42km/h | 16056m | 4.7m/s | -62.6°C | 9.6% | 0hPa | 2.6V | 00:00:00 | 01:20:00 | 00:00:00 | |
| IW2NTF | 2026-09-04 23:53:41 | 45.62634 | 9.34926 | 87° | 42km/h | 16047m | 5m/s | -62.7°C | 9.7% | 0hPa | 2.6V | 08:30:00 | 01:19:58 | 00:00:00 | |
| DB0UT-7 | 2026-09-04 23:53:41 | 45.62634 | 9.34925 | 88° | 42km/h | 16047m | 5.0m/s | -62.6°C | 9.7% | 0hPa | 2.6V | 00:00:00 | 01:19:58 | 00:00:00 | |
| DO3MHA-11 | 2026-09-04 23:53:38 | 45.62633 | 9.34884 | 88° | 42km/h | 16034m | 5.3m/s | -62.6°C | 9.5% | 0hPa | 2.6V | 00:00:00 | 01:19:55 | 00:00:00 | |
| IW2NTF | 2026-09-04 23:53:31 | 45.62634 | 9.34781 | 90° | 46km/h | 16000m | 4.1m/s | -62.4°C | 9.4% | 0hPa | 2.6V | 08:30:00 | 01:19:48 | 00:00:00 | |
| DO3MHA-11 | 2026-09-04 23:53:28 | 45.62636 | 9.34735 | 97° | 42km/h | 15986m | 3.3m/s | -62.3°C | 9.3% | 0hPa | 2.6V | 00:00:00 | 01:19:45 | 00:00:00 | |
| IW2NTF | 2026-09-04 23:53:21 | 45.62649 | 9.34630 | 103° | 46km/h | 15953m | 5.5m/s | -62.3°C | 9.5% | 0hPa | 2.6V | 08:30:00 | 01:19:38 | 00:00:00 | |
| DO3MHA-11 | 2026-09-04 23:53:18 | 45.62656 | 9.34583 | 99° | 44km/h | 15940m | 3.6m/s | -62.4°C | 9.6% | 0hPa | 2.6V | 00:00:00 | 01:19:35 | 00:00:00 | |
| IW2NTF | 2026-09-04 23:53:16 | 45.62664 | 9.34476 | 102° | 44km/h | 15908m | 5.2m/s | -62.8°C | 9.7% | 0hPa | 2.6V | 08:30:00 | 01:19:28 | 00:00:00 | |
| DB0UT-7 | 2026-09-04 23:53:11 | 45.62664 | 9.34476 | 103° | 51km/h | 15908m | 5.2m/s | -62.8°C | 9.7% | 0hPa | 2.6V | 00:00:00 | 00:00:00 | 00:00:00 | |
| NBG1-10 | 2026-09-04 23:53:10 | 45.62666 | 9.34460 | 104° | 53km/h | 15904m | 4.5m/s | -62.8°C | 9.8% | 0hPa | 2.7V | 00:00:00 | 01:19:27 | 00:00:00 | |
| DO3MHA-11 | 2026-09-04 23:53:08 | 45.62672 | 9.34428 | 107° | 47km/h | 15895m | 3.9m/s | -62.8°C | 9.8% | 0hPa | 2.8V | 00:00:00 | 01:19:25 | 00:00:00 | |
| IW2NTF | 2026-09-04 23:53:00 | 45.62687 | 9.34276 | 93° | 53km/h | 15855m | 4.1m/s | -62.7°C | 9.8% | 0hPa | 2.8V | 08:30:00 | 01:19:16 | 00:00:00 | |
| DO3MHA-11 | 2026-09-04 23:52:58 | 45.62688 | 9.34257 | 97° | 55km/h | 15851m | 4.3m/s | -62.7°C | 9.9% | 0hPa | 2.6V | 00:00:00 | 01:19:15 | 00:00:00 | |
| IW2NTF | 2026-09-04 23:52:50 | 45.62712 | 9.34040 | 91° | 53km/h | 15803m | 3.5m/s | -62.4°C | 9.5% | 0hPa | 2.6V | 08:30:00 | 01:19:04 | 00:00:00 | |
| DO3MHA-11 | 2026-09-04 23:52:48 | 45.62711 | 9.34060 | 94° | 55km/h | 15808m | 4.8m/s | -62.4°C | 9.5% | 0hPa | 2.6V | 00:00:00 | 01:19:05 | 00:00:00 | |
| DB0UT-7 | 2026-09-04 23:52:41 | 45.62721 | 9.33927 | 100° | 62km/h | 15779m | 4.2m/s | -62.5°C | 9.3% | 0hPa | 2.8V | 00:00:00 | 01:18:58 | 00:00:00 | |
| IW2NTF | 2026-09-04 23:52:40 | 45.62735 | 9.33803 | 91° | 58km/h | 15752m | 4.3m/s | -62.8°C | 9.4% | 0hPa | 2.8V | 08:30:00 | 01:18:52 | 00:00:00 | |
| DO3MHA-11 | 2026-09-04 23:52:38 | 45.62730 | 9.33864 | 102° | 58km/h | 15765m | 4.0m/s | -62.6°C | 9.3% | 0hPa | 2.8V | 00:00:00 | 01:18:55 | 00:00:00 | |
| NBG1-10 | 2026-09-04 23:52:37 | 45.62732 | 9.33844 | 99° | 62km/h | 15762m | 3.6m/s | -62.7°C | 9.4% | 0hPa | 2.8V | 00:00:00 | 01:18:54 | 00:00:00 | |
| IW2NTF | 2026-09-04 23:52:30 | 45.62743 | 9.33589 | 93° | 60km/h | 15710m | 4.2m/s | -62.8°C | 9.2% | 0hPa | 2.8V | 08:30:00 | 01:18:42 | 00:00:00 | |
| IW2NTF | 2026-09-04 23:52:20 | 45.62740 | 9.33357 | 86° | 66km/h | 15664m | 4.7m/s | -63°C | 9.4% | 0hPa | 2.6V | 08:30:00 | 01:18:32 | 00:00:00 | |
| DO3MHA-11 | 2026-09-04 23:52:18 | 45.62744 | 9.33430 | 87° | 64km/h | 15679m | 5.0m/s | -63.0°C | 9.4% | 0hPa | 2.7V | 00:00:00 | 01:18:35 | 08:30:00 | |
| DB0UT-7 | 2026-09-04 23:52:11 | 45.62737 | 9.33266 | 89° | 53km/h | 15647m | 4.7m/s | -63.1°C | 9.4% | 0hPa | 2.6V | 00:00:00 | 00:00:00 | 00:00:00 | |
| IW2NTF | 2026-09-04 23:52:09 | 45.62732 | 9.33135 | 84° | 58km/h | 15619m | 3.9m/s | -63.3°C | 9.2% | 0hPa | 2.6V | 08:30:00 | 01:18:22 | 00:00:00 | |
| DO3MHA-11 | 2026-09-04 23:52:08 | 45.62736 | 9.33201 | 88° | 57km/h | 15633m | 5.1m/s | -63.2°C | 9.4% | 0hPa | 2.6V | 00:00:00 | 01:18:25 | 00:00:00 | |
| NBG1-10 | 2026-09-04 23:52:04 | 45.62731 | 9.33114 | 83° | 49km/h | 15616m | 3.4m/s | -63.3°C | 9.2% | 0hPa | 2.6V | 00:00:00 | 01:18:21 | 00:00:00 | |
| IW2NTF | 2026-09-04 23:52:00 | 45.62717 | 9.32947 | 92° | 53km/h | 15577m | 3.9m/s | -63.6°C | 9.5% | 0hPa | 2.6V | 08:30:00 | 01:18:12 | 00:00:00 | |
| DO3MHA-11 | 2026-09-04 23:51:58 | 45.62717 | 9.33003 | 86° | 49km/h | 15590m | 4.7m/s | -63.3°C | 9.2% | 0hPa | 2.6V | 00:00:00 | 01:18:15 | 00:00:00 | |
| DO3MHA-11 | 2026-09-04 23:51:48 | 45.62717 | 9.32825 | 86° | 47km/h | 15547m | 4.7m/s | -63.5°C | 9.3% | 0hPa | 2.6V | 00:00:00 | 01:18:05 | 00:00:00 | |
| IW2NTF | 2026-09-04 23:51:47 | 45.62716 | 9.32776 | 93° | 49km/h | 15534m | 4.5m/s | -63.5°C | 9.3% | 0hPa | 2.8V | 08:30:00 | 01:18:02 | 00:00:00 | |
| DB0UT-7 | 2026-09-04 23:51:41 | 45.62724 | 9.32706 | 102° | 46km/h | 15517m | 5.2m/s | -63.3°C | 9.2% | 0hPa | 2.7V | 00:00:00 | 01:17:58 | 00:00:00 | |
| DO3MHA-11 | 2026-09-04 23:51:38 | 45.62731 | 9.32654 | 100° | 46km/h | 15505m | 3.2m/s | -63.2°C | 9.2% | 0hPa | 2.8V | 00:00:00 | 01:17:55 | 00:00:00 | |
| IW2NTF | 2026-09-04 23:51:37 | 45.62734 | 9.32605 | 90° | 46km/h | 15491m | 4.2m/s | -63.2°C | 9.2% | 0hPa | 2.8V | 08:30:00 | 01:17:52 | 00:00:00 | |
| NBG1-10 | 2026-09-04 23:51:31 | 45.62733 | 9.32540 | 91° | 46km/h | 15474m | 3.7m/s | -63.1°C | 9.2% | 0hPa | 2.6V | 00:00:00 | 01:17:48 | 08:30:00 | |
| DO3MHA-11 | 2026-09-04 23:51:28 | 45.62736 | 9.32486 | 97° | 46km/h | 15462m | 3.8m/s | -63.1°C | 9.1% | 0hPa | 2.7V | 00:00:00 | 01:17:45 | 00:00:00 | |
| IW2NTF | 2026-09-04 23:51:26 | 45.62740 | 9.32436 | 96° | 46km/h | 15449m | 4.6m/s | -63°C | 9.2% | 0hPa | 2.7V | 08:30:00 | 01:17:42 | 00:00:00 | |
| DO3MHA-11 | 2026-09-04 23:51:18 | 45.62746 | 9.32324 | 93° | 44km/h | 15420m | 4.6m/s | -63.1°C | 9.4% | 0hPa | 2.7V | 00:00:00 | 01:17:35 | 00:00:00 | |
| IW2NTF | 2026-09-04 23:51:17 | 45.62748 | 9.32274 | 91° | 47km/h | 15407m | 5.3m/s | -63.1°C | 9.3% | 0hPa | 2.6V | 08:30:00 | 01:17:32 | 00:00:00 | |
| DB0UT-7 | 2026-09-04 23:51:11 | 45.62748 | 9.32210 | 90° | 46km/h | 15390m | 4.9m/s | -62.9°C | 9.0% | 0hPa | 2.8V | 00:00:00 | 00:00:00 | 00:00:00 | |
| IW2NTF | 2026-09-04 23:51:10 | 45.62748 | 9.32120 | 89° | 46km/h | 15363m | 5m/s | -62.7°C | 9% | 0hPa | 2.8V | 08:30:00 | 01:17:22 | 00:00:00 | |
| DO3MHA-11 | 2026-09-04 23:51:08 | 45.62748 | 9.32165 | 90° | 44km/h | 15377m | 4.1m/s | -62.7°C | 9.0% | 0hPa | 2.8V | 00:00:00 | 01:17:25 | 00:00:00 | |
| NBG1-10 | 2026-09-04 23:50:58 | 45.62756 | 9.32006 | 96° | 49km/h | 15334m | 3.7m/s | -62.5°C | 9.1% | 0hPa | 2.8V | 00:00:00 | 01:17:15 | 00:00:00 | |
| IW2NTF | 2026-09-04 23:50:54 | 45.62761 | 9.31944 | 93° | 49km/h | 15317m | 5.2m/s | -62.6°C | 9.1% | 0hPa | 2.8V | 08:30:00 | 01:17:11 | 00:00:00 | |
| DO3MHA-11 | 2026-09-04 23:50:48 | 45.62768 | 9.31834 | 98° | 46km/h | 15292m | 4.2m/s | -62.5°C | 9.1% | 0hPa | 2.7V | 00:00:00 | 01:17:05 | 08:30:00 | |
| IW2NTF | 2026-09-04 23:50:44 | 45.62776 | 9.31771 | 105° | 44km/h | 15274m | 3.5m/s | -62.5°C | 9.2% | 0hPa | 2.6V | 08:30:00 | 01:17:01 | 00:00:00 | |
| DB0UT-7 | 2026-09-04 23:50:41 | 45.62783 | 9.31724 | 101° | 57km/h | 15262m | 2.7m/s | -62.4°C | 9.4% | 0hPa | 2.6V | 00:00:00 | 01:16:58 | 00:00:00 | |
| DO3MHA-11 | 2026-09-04 23:50:38 | 45.62792 | 9.31669 | 106° | 53km/h | 15248m | 4.4m/s | -62.4°C | 9.4% | 0hPa | 2.6V | 00:00:00 | 01:16:55 | 00:00:00 | |
| IW2NTF | 2026-09-04 23:50:34 | 45.62804 | 9.31594 | 100° | 51km/h | 15229m | 5.7m/s | -62.5°C | 9.3% | 0hPa | 2.6V | 08:30:00 | 01:16:51 | 00:00:00 | |
| DO3MHA-11 | 2026-09-04 23:50:28 | 45.62822 | 9.31485 | 109° | 60km/h | 15201m | 5.1m/s | -62.2°C | 9.4% | 0hPa | 2.8V | 00:00:00 | 01:16:45 | 00:00:00 | |
| IW2NTF | 2026-09-04 23:50:24 | 45.62843 | 9.31406 | 112° | 60km/h | 15184m | 5.2m/s | -62.1°C | 9.3% | 0hPa | 2.8V | 08:30:00 | 01:16:41 | 00:00:00 | |
| DO3MHA-11 | 2026-09-04 23:50:18 | 45.62872 | 9.31282 | 107° | 62km/h | 15158m | 4.4m/s | -61.9°C | 9.4% | 0hPa | 2.7V | 00:00:00 | 01:16:35 | 00:00:00 | |
| IW2NTF | 2026-09-04 23:50:16 | 45.62894 | 9.31172 | 108° | 64km/h | 15136m | 4m/s | -61.9°C | 9.3% | 0hPa | 2.7V | 08:30:00 | 01:16:30 | 00:00:00 | |
| DB0UT-7 | 2026-09-04 23:50:11 | 45.62904 | 9.31128 | 109° | 64km/h | 15127m | 5.0m/s | -61.8°C | 9.2% | 0hPa | 2.7V | 00:00:00 | 00:00:00 | 08:30:00 | |
| DO3MHA-11 | 2026-09-04 23:50:08 | 45.62919 | 9.31066 | 111° | 62km/h | 15114m | 5.5m/s | -61.8°C | 9.3% | 0hPa | 2.6V | 00:00:00 | 01:16:25 | 00:00:00 | |
| IW2NTF | 2026-09-04 23:50:04 | 45.62944 | 9.30961 | 106° | 62km/h | 15092m | 4.5m/s | -61.7°C | 9.4% | 0hPa | 2.6V | 08:30:00 | 01:16:20 | 00:00:00 | |
| DO3MHA-11 | 2026-09-04 23:49:58 | 45.62968 | 9.30852 | 104° | 64km/h | 15069m | 3.9m/s | -61.9°C | 9.7% | 0hPa | 2.7V | 00:00:00 | 01:16:15 | 00:00:00 | |
| IW2NTF | 2026-09-04 23:49:54 | 45.62989 | 9.30742 | 103° | 64km/h | 15044m | 4.4m/s | -61.9°C | 9.9% | 0hPa | 2.7V | 08:30:00 | 01:16:10 | 00:00:00 | |
| NBG1-10 | 2026-09-04 23:49:52 | 45.62992 | 9.30720 | 104° | 62km/h | 15040m | 4.2m/s | -61.9°C | 9.8% | 0hPa | 2.7V | 00:00:00 | 01:16:09 | 00:00:00 | |
| DO3MHA-11 | 2026-09-04 23:49:48 | 45.63008 | 9.30630 | 101° | 64km/h | 15021m | 4.7m/s | -62.1°C | 10.0% | 0hPa | 2.7V | 00:00:00 | 01:16:05 | 00:00:00 | |
| IW2NTF | 2026-09-04 23:49:44 | 45.63023 | 9.30515 | 97° | 66km/h | 14995m | 6.3m/s | -62.2°C | 10.2% | 0hPa | 2.8V | 08:30:00 | 01:16:00 | 00:00:00 | |
| DB0UT-7 | 2026-09-04 23:49:41 | 45.63025 | 9.30469 | 94° | 58km/h | 14985m | 6.3m/s | -62.3°C | 10.2% | 0hPa | 2.7V | 00:00:00 | 01:15:58 | 00:00:00 | |
| DO3MHA-11 | 2026-09-04 23:49:38 | 45.63030 | 9.30403 | 99° | 62km/h | 14967m | 3.9m/s | -62.4°C | 10.4% | 0hPa | 2.7V | 00:00:00 | 01:15:55 | 00:00:00 | |
| IW2NTF | 2026-09-04 23:49:34 | 45.63036 | 9.30289 | 91° | 62km/h | 14942m | 4.4m/s | -63°C | 11.1% | 0hPa | 2.7V | 08:30:00 | 01:15:50 | 00:00:00 | |
| DO3MHA-11 | 2026-09-04 23:49:28 | 45.63036 | 9.30181 | 93° | 57km/h | 14917m | 4.5m/s | -62.9°C | 11.3% | 0hPa | 2.8V | 00:00:00 | 01:15:45 | 00:00:00 | |
| IW2NTF | 2026-09-04 23:49:24 | 45.63033 | 9.30079 | 81° | 60km/h | 14893m | 5.2m/s | -62.8°C | 11.3% | 0hPa | 2.8V | 08:30:00 | 01:15:40 | 00:00:00 | |
| NBG1-10 | 2026-09-04 23:49:19 | 45.63024 | 9.30000 | 82° | 57km/h | 14874m | 4.8m/s | -62.7°C | 11.2% | 0hPa | 2.7V | 00:00:00 | 01:15:36 | 00:00:00 | |
| DO3MHA-11 | 2026-09-04 23:49:18 | 45.63022 | 9.29981 | 83° | 57km/h | 14868m | 5.6m/s | -62.7°C | 11.2% | 0hPa | 2.7V | 00:00:00 | 01:15:35 | 08:30:00 | |
| IW2NTF | 2026-09-04 23:49:15 | 45.63011 | 9.29883 | 78° | 53km/h | 14843m | 3.5m/s | -62.8°C | 11.5% | 0hPa | 2.7V | 08:30:00 | 01:15:30 | 00:00:00 | |
| DB0UT-7 | 2026-09-04 23:49:11 | 45.63006 | 9.29843 | 84° | 57km/h | 14832m | 5.6m/s | -62.7°C | 11.5% | 0hPa | 2.8V | 00:00:00 | 00:00:00 | 00:00:00 | |
| IW2NTF | 2026-09-04 23:49:08 | 45.63003 | 9.29670 | 89° | 57km/h | 14792m | 5.5m/s | -62.7°C | 11.9% | 0hPa | 2.8V | 08:30:00 | 01:15:20 | 00:00:00 | |
| DO3MHA-11 | 2026-09-04 23:49:08 | 45.63003 | 9.29777 | 90° | 58km/h | 14818m | 5.0m/s | -62.7°C | 11.6% | 0hPa | 2.7V | 00:00:00 | 01:15:25 | 00:00:00 | |
| DO3MHA-11 | 2026-09-04 23:48:58 | 45.63003 | 9.29569 | 92° | 57km/h | 14767m | 3.9m/s | -62.7°C | 12.0% | 0hPa | 2.7V | 00:00:00 | 01:15:15 | 00:00:00 | |
| IW2NTF | 2026-09-04 23:48:54 | 45.63008 | 9.29467 | 92° | 55km/h | 14743m | 5.7m/s | -62.6°C | 12.1% | 0hPa | 2.7V | 08:30:00 | 01:15:10 | 00:00:00 | |
| DO3MHA-11 | 2026-09-04 23:48:48 | 45.63005 | 9.29368 | 83° | 58km/h | 14717m | 5.7m/s | -62.9°C | 12.6% | 0hPa | 2.7V | 00:00:00 | 01:15:05 | 00:00:00 | |
| IW2NTF | 2026-09-04 23:48:47 | 45.62997 | 9.29224 | 88° | 60km/h | 14683m | 5.5m/s | -62.9°C | 13% | 0hPa | 2.8V | 08:30:00 | 01:14:58 | 00:00:00 | |
| NBG1-10 | 2026-09-04 23:48:46 | 45.63001 | 9.29329 | 84° | 57km/h | 14708m | 5.6m/s | -62.9°C | 12.8% | 0hPa | 2.7V | 00:00:00 | 01:15:03 | 00:00:00 | |
| DB0UT-7 | 2026-09-04 23:48:41 | 45.62996 | 9.29224 | 89° | 57km/h | 14683m | 5.5m/s | -62.9°C | 13.0% | 0hPa | 2.7V | 00:00:00 | 01:14:58 | 00:00:00 | |
| DO3MHA-11 | 2026-09-04 23:48:38 | 45.62994 | 9.29161 | 83° | 55km/h | 14669m | 4.1m/s | -63.0°C | 13.7% | 0hPa | 2.8V | 00:00:00 | 01:14:55 | 00:00:00 | |
| IW2NTF | 2026-09-04 23:48:36 | 45.62978 | 9.29029 | 80° | 57km/h | 14635m | 5.8m/s | -63.1°C | 13.9% | 0hPa | 2.8V | 08:30:00 | 01:14:48 | 00:00:00 | |
| DO3MHA-11 | 2026-09-04 23:48:28 | 45.62971 | 9.28964 | 82° | 57km/h | 14621m | 5.4m/s | -63.2°C | 14.5% | 0hPa | 2.7V | 00:00:00 | 01:14:45 | 00:00:00 | |
| IW2NTF | 2026-09-04 23:48:21 | 45.62956 | 9.28822 | 77° | 53km/h | 14588m | 3.8m/s | -63.3°C | 15% | 0hPa | 2.7V | 08:30:00 | 01:14:38 | 00:00:00 | |
| DO3MHA-11 | 2026-09-04 23:48:18 | 45.62948 | 9.28765 | 82° | 57km/h | 14575m | 4.3m/s | -63.2°C | 15.3% | 0hPa | 2.7V | 00:00:00 | 01:14:35 | 00:00:00 | |
| NBG1-10 | 2026-09-04 23:48:13 | 45.62936 | 9.28660 | 82° | 60km/h | 14551m | 4.4m/s | -63.3°C | 16.1% | 0hPa | 2.7V | 00:00:00 | 01:14:30 | 00:00:00 | |
| IW2NTF | 2026-09-04 23:48:11 | 45.62932 | 9.28620 | 80° | 55km/h | 14542m | 5.4m/s | -63.4°C | 16.4% | 0hPa | 2.8V | 08:30:00 | 01:14:28 | 00:00:00 | |
| DB0UT-7 | 2026-09-04 23:48:11 | 45.62932 | 9.28620 | 81° | 60km/h | 14542m | 5.4m/s | -63.4°C | 16.4% | 0hPa | 2.7V | 00:00:00 | 00:00:00 | 00:00:00 | |
| DO3MHA-11 | 2026-09-04 23:48:08 | 45.62925 | 9.28560 | 83° | 66km/h | 14529m | 5.2m/s | -63.4°C | 16.7% | 0hPa | 2.7V | 00:00:00 | 01:14:25 | 00:00:00 | |
| IW2NTF | 2026-09-04 23:48:01 | 45.62909 | 9.28396 | 81° | 68km/h | 14495m | 4.7m/s | -63.4°C | 16.9% | 0hPa | 2.7V | 08:30:00 | 01:14:18 | 00:00:00 | |
| DO3MHA-11 | 2026-09-04 23:47:58 | 45.62900 | 9.28328 | 78° | 58km/h | 14482m | 5.2m/s | -63.4°C | 17.5% | 0hPa | 2.7V | 00:00:00 | 01:14:15 | 00:00:00 | |
| IW2NTF | 2026-09-04 23:47:52 | 45.62881 | 9.28186 | 80° | 60km/h | 14452m | 5.3m/s | -63.3°C | 18.1% | 0hPa | 2.7V | 08:30:00 | 01:14:08 | 00:00:00 | |
| DO3MHA-11 | 2026-09-04 23:47:48 | 45.62875 | 9.28121 | 81° | 58km/h | 14439m | 5.2m/s | -63.1°C | 18.2% | 0hPa | 2.7V | 00:00:00 | 01:14:05 | 08:30:00 | |
| IW2NTF | 2026-09-04 23:47:41 | 45.62864 | 9.27978 | 86° | 58km/h | 14408m | 4.8m/s | -63°C | 18.2% | 0hPa | 2.7V | 08:30:00 | 01:13:58 | 00:00:00 | |
| DB0UT-7 | 2026-09-04 23:47:41 | 45.62864 | 9.27978 | 87° | 60km/h | 14408m | 4.8m/s | -63.0°C | 18.2% | 0hPa | 2.7V | 00:00:00 | 01:13:58 | 00:00:00 | |
| NBG1-10 | 2026-09-04 23:47:40 | 45.62863 | 9.27957 | 89° | 60km/h | 14403m | 4.7m/s | -63.0°C | 18.5% | 0hPa | 2.7V | 00:00:00 | 01:13:57 | 00:00:00 | |
| DO3MHA-11 | 2026-09-04 23:47:38 | 45.62862 | 9.27913 | 87° | 60km/h | 14394m | 6.1m/s | -63.0°C | 18.6% | 0hPa | 2.7V | 00:00:00 | 01:13:55 | 00:00:00 | |
| IW2NTF | 2026-09-04 23:47:31 | 45.62857 | 9.27763 | 88° | 60km/h | 14362m | 3.3m/s | -63.2°C | 20.2% | 0hPa | 2.7V | 08:30:00 | 01:13:48 | 00:00:00 | |
| DO3MHA-11 | 2026-09-04 23:47:28 | 45.62858 | 9.27697 | 94° | 64km/h | 14349m | 4.1m/s | -63.5°C | 20.9% | 0hPa | 2.8V | 00:00:00 | 01:13:45 | 00:00:00 | |
| IW2NTF | 2026-09-04 23:47:21 | 45.62864 | 9.27513 | 92° | 66km/h | 14315m | 3.4m/s | -64°C | 22.3% | 0hPa | 2.8V | 08:30:00 | 01:13:37 | 00:00:00 | |
| DO3MHA-11 | 2026-09-04 23:47:18 | 45.62866 | 9.27469 | 96° | 58km/h | 14306m | 4.9m/s | -64.0°C | 22.1% | 0hPa | 2.7V | 00:00:00 | 01:13:35 | 00:00:00 | |
| IW2NTF | 2026-09-04 23:47:11 | 45.62877 | 9.27304 | 93° | 60km/h | 14273m | 4.5m/s | -63.8°C | 22.4% | 0hPa | 2.8V | 08:30:00 | 01:13:27 | 00:00:00 | |
| DB0UT-7 | 2026-09-04 23:47:11 | 45.62876 | 9.27325 | 96° | 64km/h | 14277m | 4.3m/s | -63.8°C | 22.4% | 0hPa | 2.7V | 00:00:00 | 00:00:00 | 00:00:00 | |
| DO3MHA-11 | 2026-09-04 23:47:08 | 45.62878 | 9.27261 | 92° | 62km/h | 14265m | 4.7m/s | -63.7°C | 22.4% | 0hPa | 2.7V | 00:00:00 | 01:13:25 | 00:00:00 | |
| NBG1-10 | 2026-09-04 23:47:07 | 45.62879 | 9.27240 | 94° | 66km/h | 14260m | 4.5m/s | 0°C | 0% | 0hPa | 2.7V | 00:00:00 | 01:13:24 | 00:00:00 | |
| IW2NTF | 2026-09-04 23:47:01 | 45.62885 | 9.27084 | 94° | 64km/h | 14231m | 4.9m/s | -63.9°C | 23.5% | 0hPa | 2.7V | 08:30:00 | 01:13:17 | 00:00:00 | |
| DO3MHA-11 | 2026-09-04 23:46:58 | 45.62887 | 9.27038 | 93° | 68km/h | 14222m | 4.0m/s | -63.8°C | 23.8% | 0hPa | 2.7V | 00:00:00 | 01:13:15 | 00:00:00 | |
| IW2NTF | 2026-09-04 23:46:51 | 45.62890 | 9.26845 | 91° | 69km/h | 14188m | 3.4m/s | -63.7°C | 24.6% | 0hPa | 2.7V | 08:30:00 | 01:13:07 | 00:00:00 | |
| DO3MHA-11 | 2026-09-04 23:46:48 | 45.62891 | 9.26796 | 92° | 66km/h | 14180m | 4.7m/s | -63.6°C | 24.7% | 0hPa | 2.7V | 00:00:00 | 01:13:05 | 00:00:00 | |
| IW2NTF | 2026-09-04 23:46:41 | 45.62893 | 9.26559 | 87° | 66km/h | 14137m | 4.4m/s | -63.9°C | 26.2% | 0hPa | 2.7V | 08:30:00 | 01:12:55 | 00:00:00 | |
| DB0UT-7 | 2026-09-04 23:46:41 | 45.62894 | 9.26630 | 89° | 68km/h | 14150m | 3.4m/s | -63.8°C | 26.1% | 0hPa | 2.7V | 00:00:00 | 01:12:58 | 00:00:00 | |
| DO3MHA-11 | 2026-09-04 23:46:38 | 45.62892 | 9.26559 | 88° | 66km/h | 14138m | 4.4m/s | -63.8°C | 26.2% | 0hPa | 2.7V | 00:00:00 | 01:12:55 | 00:00:00 | |
| NBG1-10 | 2026-09-04 23:46:34 | 45.62886 | 9.26466 | 85° | 66km/h | 14120m | 5.3m/s | 0°C | 0% | 0hPa | 2.7V | 00:00:00 | 01:12:51 | 00:00:00 | |
| IW2NTF | 2026-09-04 23:46:31 | 45.62879 | 9.26324 | 86° | 66km/h | 14092m | 4m/s | -64.3°C | 28.6% | 0hPa | 2.7V | 08:30:00 | 01:12:45 | 00:00:00 | |
| DO3MHA-11 | 2026-09-04 23:46:28 | 45.62879 | 9.26324 | 87° | 68km/h | 14092m | 4.0m/s | -64.3°C | 28.6% | 0hPa | 2.8V | 00:00:00 | 01:12:45 | 00:00:00 | |
| IW2NTF | 2026-09-04 23:46:21 | 45.62865 | 9.26052 | 87° | 73km/h | 14044m | 3.8m/s | -64.5°C | 30.6% | 0hPa | 2.8V | 08:30:00 | 01:12:34 | 00:00:00 | |
| DO3MHA-11 | 2026-09-04 23:46:18 | 45.62866 | 9.26079 | 88° | 69km/h | 14049m | 5.0m/s | -64.5°C | 30.6% | 0hPa | 2.7V | 00:00:00 | 01:12:35 | 08:30:00 | |
| IW2NTF | 2026-09-04 23:46:11 | 45.62862 | 9.25808 | 88° | 69km/h | 14000m | 5.2m/s | -65°C | 32.3% | 0hPa | 2.8V | 08:30:00 | 01:12:24 | 00:00:00 | |
| DB0UT-7 | 2026-09-04 23:46:11 | 45.62862 | 9.25905 | 93° | 71km/h | 14018m | 3.9m/s | -64.7°C | 31.8% | 0hPa | 2.8V | 00:00:00 | 00:00:00 | 00:00:00 | |
| DO3MHA-11 | 2026-09-04 23:46:07 | 45.62862 | 9.25808 | 89° | 69km/h | 14000m | 5.2m/s | -64.9°C | 32.3% | 0hPa | 2.8V | 00:00:00 | 01:12:24 | 00:00:00 | |
| IW2NTF | 2026-09-04 23:45:59 | 45.62875 | 9.25531 | 101° | 73km/h | 13949m | 5.5m/s | -65°C | 34.1% | 0hPa | 2.8V | 08:30:00 | 01:12:13 | 00:00:00 | |
| DO3MHA-11 | 2026-09-04 23:45:57 | 45.62871 | 9.25556 | 102° | 69km/h | 13954m | 4.2m/s | -64.9°C | 33.6% | 0hPa | 2.8V | 00:00:00 | 01:12:14 | 00:00:00 | |
| IW2NTF | 2026-09-04 23:45:49 | 45.62879 | 9.25309 | 98° | 73km/h | 13908m | 4.9m/s | -65.2°C | 36.3% | 0hPa | 2.8V | 08:30:00 | 01:12:04 | 00:00:00 | |
| DO3MHA-11 | 2026-09-04 23:45:47 | 45.62879 | 9.25308 | 99° | 75km/h | 13909m | 4.9m/s | -65.1°C | 36.3% | 0hPa | 2.7V | 00:00:00 | 01:12:04 | 00:00:00 | |
| DB0UT-7 | 2026-09-04 23:45:41 | 45.62900 | 9.25149 | 99° | 78km/h | 13877m | 6.7m/s | -64.9°C | 35.0% | 0hPa | 2.7V | 00:00:00 | 01:11:58 | 08:30:00 | |
| IW2NTF | 2026-09-04 23:45:39 | 45.62900 | 9.25041 | 85° | 71km/h | 13855m | 6.2m/s | -64.8°C | 34.6% | 0hPa | 2.8V | 08:30:00 | 01:11:54 | 00:00:00 | |
| DO3MHA-11 | 2026-09-04 23:45:37 | 45.62899 | 9.25041 | 86° | 78km/h | 13856m | 6.2m/s | -64.8°C | 34.6% | 0hPa | 2.7V | 00:00:00 | 01:11:54 | 00:00:00 | |
| IW2NTF | 2026-09-04 23:45:29 | 45.62907 | 9.24756 | 91° | 84km/h | 13803m | 3.3m/s | -64.4°C | 37.3% | 0hPa | 2.7V | 08:30:00 | 01:11:44 | 00:00:00 | |
| DO3MHA-11 | 2026-09-04 23:45:27 | 45.62907 | 9.24756 | 92° | 80km/h | 13803m | 3.3m/s | -64.3°C | 37.3% | 0hPa | 2.7V | 00:00:00 | 01:11:44 | 00:00:00 | |
| IW2NTF | 2026-09-04 23:45:19 | 45.62920 | 9.24471 | 93° | 75km/h | 13751m | 5.4m/s | -64°C | 35.5% | 0hPa | 2.7V | 08:30:00 | 01:11:34 | 00:00:00 | |
| DO3MHA-11 | 2026-09-04 23:45:17 | 45.62919 | 9.24471 | 94° | 82km/h | 13752m | 5.3m/s | -64.0°C | 35.5% | 0hPa | 2.7V | 00:00:00 | 01:11:34 | 00:00:00 | |
| DB0UT-7 | 2026-09-04 23:45:11 | 45.62919 | 9.24302 | 88° | 82km/h | 13721m | 5.1m/s | -63.8°C | 36.4% | 0hPa | 2.8V | 00:00:00 | 00:00:00 | 00:00:00 | |
| IW2NTF | 2026-09-04 23:45:09 | 45.62915 | 9.24175 | 85° | 89km/h | 13703m | 4.5m/s | -63.8°C | 37.3% | 0hPa | 2.8V | 08:30:00 | 01:11:24 | 00:00:00 | |
| DO3MHA-11 | 2026-09-04 23:45:07 | 45.62914 | 9.24175 | 86° | 86km/h | 13703m | 4.4m/s | -63.8°C | 37.3% | 0hPa | 2.7V | 00:00:00 | 01:11:24 | 00:00:00 | |
| IW2NTF | 2026-09-04 23:44:59 | 45.62907 | 9.23867 | 81° | 77km/h | 13655m | 5.5m/s | -64.4°C | 39.6% | 0hPa | 2.7V | 08:30:00 | 01:11:14 | 00:00:00 | |
| DO3MHA-11 | 2026-09-04 23:44:57 | 45.62907 | 9.23867 | 82° | 78km/h | 13655m | 5.4m/s | -64.3°C | 39.6% | 0hPa | 2.8V | 00:00:00 | 01:11:14 | 00:00:00 | |
| IW2NTF | 2026-09-04 23:44:49 | 45.62881 | 9.23589 | 78° | 82km/h | 13608m | 4.3m/s | -64.7°C | 43% | 0hPa | 2.8V | 08:30:00 | 01:11:04 | 00:00:00 | |
| DO3MHA-11 | 2026-09-04 23:44:47 | 45.62881 | 9.23589 | 79° | 78km/h | 13608m | 4.3m/s | -64.7°C | 43.0% | 0hPa | 2.7V | 00:00:00 | 01:11:04 | 08:30:00 | |
| DB0UT-7 | 2026-09-04 23:44:41 | 45.62849 | 9.23425 | 76° | 78km/h | 13582m | 3.2m/s | -64.5°C | 43.3% | 0hPa | 2.7V | 00:00:00 | 01:10:58 | 00:00:00 | |
| IW2NTF | 2026-09-04 23:44:39 | 45.62835 | 9.23313 | 81° | 82km/h | 13565m | 5.2m/s | -64.4°C | 42.3% | 0hPa | 2.7V | 08:30:00 | 01:10:54 | 00:00:00 | |
| DO3MHA-11 | 2026-09-04 23:44:37 | 45.62835 | 9.23313 | 82° | 80km/h | 13565m | 5.1m/s | -64.4°C | 42.3% | 0hPa | 2.8V | 00:00:00 | 01:10:54 | 00:00:00 | |
| IW2NTF | 2026-09-04 23:44:29 | 45.62797 | 9.23028 | 84° | 77km/h | 13521m | 2.9m/s | -64.2°C | 43.3% | 0hPa | 2.8V | 08:30:00 | 01:10:44 | 00:00:00 | |
| DO3MHA-11 | 2026-09-04 23:44:27 | 45.62797 | 9.23027 | 85° | 78km/h | 13522m | 2.9m/s | -64.2°C | 43.3% | 0hPa | 2.8V | 00:00:00 | 01:10:44 | 00:00:00 | |
| IW2NTF | 2026-09-04 23:44:19 | 45.62767 | 9.22750 | 78° | 71km/h | 13479m | 5.2m/s | -64.1°C | 45.8% | 0hPa | 2.8V | 08:30:00 | 01:10:34 | 00:00:00 | |
| DO3MHA-11 | 2026-09-04 23:44:17 | 45.62767 | 9.22749 | 79° | 78km/h | 13479m | 5.2m/s | -64.1°C | 45.8% | 0hPa | 2.7V | 00:00:00 | 01:10:34 | 00:00:00 | |
| DB0UT-7 | 2026-09-04 23:44:11 | 45.62748 | 9.22595 | 83° | 77km/h | 13451m | 4.7m/s | -64.0°C | 44.7% | 0hPa | 2.7V | 00:00:00 | 00:00:00 | 00:00:00 | |
| IW2NTF | 2026-09-04 23:44:09 | 45.62729 | 9.22477 | 70° | 82km/h | 13432m | 4.4m/s | -64.2°C | 46.7% | 0hPa | 2.7V | 08:30:00 | 01:10:24 | 00:00:00 | |
| DO3MHA-11 | 2026-09-04 23:44:06 | 45.62722 | 9.22450 | 70° | 77km/h | 13428m | 4.5m/s | -64.1°C | 46.7% | 0hPa | 2.7V | 00:00:00 | 01:10:23 | 00:00:00 | |
| IW2NTF | 2026-09-04 23:43:59 | 45.62669 | 9.22215 | 73° | 73km/h | 13387m | 3.5m/s | -64°C | 47.6% | 0hPa | 2.7V | 08:30:00 | 01:10:14 | 00:00:00 | |
| DO3MHA-11 | 2026-09-04 23:43:56 | 45.62663 | 9.22190 | 72° | 73km/h | 13383m | 3.7m/s | -63.9°C | 46.7% | 0hPa | 2.8V | 00:00:00 | 01:10:13 | 00:00:00 | |
| IW2NTF | 2026-09-04 23:43:49 | 45.62613 | 9.21959 | 76° | 78km/h | 13346m | 4.3m/s | -63.7°C | 48.4% | 0hPa | 2.8V | 08:30:00 | 01:10:04 | 00:00:00 | |
| DO3MHA-11 | 2026-09-04 23:43:46 | 45.62609 | 9.21931 | 79° | 75km/h | 13342m | 3.4m/s | -63.7°C | 48.7% | 0hPa | 2.7V | 00:00:00 | 01:10:03 | 00:00:00 | |
| DB0UT-7 | 2026-09-04 23:43:41 | 45.62583 | 9.21804 | 73° | 77km/h | 13323m | 4.3m/s | -63.6°C | 49.7% | 0hPa | 2.7V | 00:00:00 | 01:09:58 | 00:00:00 | |
| IW2NTF | 2026-09-04 23:43:39 | 45.62563 | 9.21699 | 74° | 78km/h | 13307m | 3.8m/s | -63.6°C | 50.4% | 0hPa | 2.7V | 08:30:00 | 01:09:54 | 00:00:00 | |
| DO3MHA-11 | 2026-09-04 23:43:36 | 45.62557 | 9.21671 | 75° | 77km/h | 13304m | 2.8m/s | -63.5°C | 50.3% | 0hPa | 2.8V | 00:00:00 | 01:09:53 | 00:00:00 | |
| IW2NTF | 2026-09-04 23:43:30 | 45.62518 | 9.21432 | 75° | 78km/h | 13267m | 3.3m/s | -63.6°C | 51.4% | 0hPa | 2.8V | 08:30:00 | 01:09:44 | 00:00:00 | |
| IW2NTF | 2026-09-04 23:43:20 | 45.62457 | 9.21135 | 75° | 80km/h | 13221m | 2.6m/s | -63.5°C | 52.8% | 0hPa | 2.7V | 08:30:00 | 01:09:33 | 00:00:00 | |
| DO3MHA-11 | 2026-09-04 23:43:14 | 45.62448 | 9.21078 | 80° | 82km/h | 13213m | 4.8m/s | -63.4°C | 52.5% | 0hPa | 2.7V | 00:00:00 | 01:09:31 | 08:30:00 | |
| DB0UT-7 | 2026-09-04 23:43:11 | 45.62435 | 9.20991 | 76° | 88km/h | 13201m | 3.7m/s | -63.3°C | 53.0% | 0hPa | 2.8V | 00:00:00 | 00:00:00 | 00:00:00 | |
| IW2NTF | 2026-09-04 23:43:08 | 45.62408 | 9.20848 | 76° | 82km/h | 13180m | 4.5m/s | -63.3°C | 52.5% | 0hPa | 2.8V | 08:30:00 | 01:09:23 | 00:00:00 | |
| DO3MHA-11 | 2026-09-04 23:43:04 | 45.62397 | 9.20790 | 75° | 88km/h | 13171m | 3.6m/s | -63.2°C | 53.2% | 0hPa | 2.7V | 00:00:00 | 01:09:21 | 00:00:00 | |
| IW2NTF | 2026-09-04 23:43:02 | 45.62357 | 9.20548 | 76° | 91km/h | 13137m | 4m/s | -63°C | 51.5% | 0hPa | 2.7V | 08:30:00 | 01:09:13 | 00:00:00 | |
| DO3MHA-11 | 2026-09-04 23:42:54 | 45.62345 | 9.20485 | 75° | 89km/h | 13129m | 4.3m/s | -62.9°C | 51.7% | 0hPa | 2.8V | 00:00:00 | 01:09:11 | 00:00:00 | |
| IW2NTF | 2026-09-04 23:42:50 | 45.62295 | 9.20236 | 75° | 89km/h | 13095m | 4m/s | -62.7°C | 51% | 0hPa | 2.8V | 08:30:00 | 01:09:03 | 00:00:00 | |
| DO3MHA-11 | 2026-09-04 23:42:44 | 45.62284 | 9.20173 | 77° | 93km/h | 13087m | 3.9m/s | -62.6°C | 51.0% | 0hPa | 2.7V | 00:00:00 | 01:09:01 | 00:00:00 | |
| IW2NTF | 2026-09-04 23:42:41 | 45.62234 | 9.19912 | 72° | 93km/h | 13054m | 5m/s | -62.3°C | 49.1% | 0hPa | 2.7V | 08:30:00 | 01:08:53 | 00:00:00 | |
| DB0UT-7 | 2026-09-04 23:42:41 | 45.62267 | 9.20076 | 76° | 95km/h | 13075m | 4.8m/s | -62.4°C | 50.1% | 0hPa | 2.7V | 00:00:00 | 01:08:58 | 00:00:00 | |
| DO3MHA-11 | 2026-09-04 23:42:34 | 45.62219 | 9.19848 | 72° | 95km/h | 13045m | 4.4m/s | -62.2°C | 49.2% | 0hPa | 2.8V | 00:00:00 | 01:08:51 | 00:00:00 | |
| IW2NTF | 2026-09-04 23:42:31 | 45.62170 | 9.19587 | 75° | 97km/h | 13013m | 4.4m/s | -62°C | 48% | 0hPa | 2.8V | 08:30:00 | 01:08:43 | 00:00:00 | |
| DO3MHA-11 | 2026-09-04 23:42:24 | 45.62158 | 9.19519 | 74° | 93km/h | 13005m | 3.9m/s | -61.9°C | 48.1% | 0hPa | 2.8V | 00:00:00 | 01:08:41 | 00:00:00 | |
| IW2NTF | 2026-09-04 23:42:21 | 45.62101 | 9.19265 | 72° | 93km/h | 12972m | 4m/s | -61.7°C | 48.3% | 0hPa | 2.8V | 08:30:00 | 01:08:33 | 00:00:00 | |
| DO3MHA-11 | 2026-09-04 23:42:14 | 45.62087 | 9.19198 | 75° | 95km/h | 12962m | 3.8m/s | -61.6°C | 49.2% | 0hPa | 2.7V | 00:00:00 | 01:08:31 | 00:00:00 | |
| IW2NTF | 2026-09-04 23:42:11 | 45.62035 | 9.18936 | 72° | 97km/h | 12929m | 5.4m/s | -61.5°C | 47.8% | 0hPa | 2.7V | 08:30:00 | 01:08:23 | 00:00:00 | |
| DB0UT-7 | 2026-09-04 23:42:11 | 45.62067 | 9.19096 | 74° | 99km/h | 12950m | 3.3m/s | -61.6°C | 48.9% | 0hPa | 2.7V | 00:00:00 | 00:00:00 | 00:00:00 | |
| DO3MHA-11 | 2026-09-04 23:42:03 | 45.62012 | 9.18833 | 73° | 99km/h | 12915m | 5.1m/s | -61.3°C | 46.6% | 0hPa | 2.7V | 00:00:00 | 01:08:20 | 00:00:00 | |
| IW2NTF | 2026-09-04 23:42:01 | 45.61955 | 9.18599 | 71° | 99km/h | 12881m | 3.7m/s | -61.2°C | 46.4% | 0hPa | 2.7V | 08:30:00 | 01:08:13 | 00:00:00 | |
| DO3MHA-11 | 2026-09-04 23:41:53 | 45.61931 | 9.18498 | 73° | 99km/h | 12868m | 4.8m/s | -61.1°C | 46.6% | 0hPa | 2.7V | 00:00:00 | 01:08:10 | 00:00:00 | |
| IW2NTF | 2026-09-04 23:41:50 | 45.61884 | 9.18257 | 74° | 99km/h | 12837m | 4.9m/s | -60.9°C | 45.5% | 0hPa | 2.7V | 08:30:00 | 01:08:03 | 00:00:00 | |
| DO3MHA-11 | 2026-09-04 23:41:43 | 45.61862 | 9.18156 | 74° | 102km/h | 12824m | 4.7m/s | -60.7°C | 45.5% | 0hPa | 2.7V | 00:00:00 | 01:08:00 | 08:30:00 | |
| IW2NTF | 2026-09-04 23:41:41 | 45.61814 | 9.17914 | 77° | 110km/h | 12794m | 4.5m/s | -60.5°C | 43.4% | 0hPa | 2.8V | 08:30:00 | 01:07:53 | 00:00:00 | |
| DB0UT-7 | 2026-09-04 23:41:40 | 45.61842 | 9.18056 | 74° | 100km/h | 12812m | 4.3m/s | -60.6°C | 44.6% | 0hPa | 2.7V | 00:00:00 | 01:07:57 | 00:00:00 | |
| DO3MHA-11 | 2026-09-04 23:41:33 | 45.61797 | 9.17800 | 78° | 97km/h | 12779m | 4.4m/s | -60.3°C | 43.7% | 0hPa | 2.7V | 00:00:00 | 01:07:50 | 00:00:00 | |
| IW2NTF | 2026-09-04 23:41:29 | 45.61735 | 9.17500 | 75° | 102km/h | 12742m | 4.7m/s | -60°C | 41.8% | 0hPa | 2.7V | 08:30:00 | 01:07:41 | 00:00:00 | |
| DO3MHA-11 | 2026-09-04 23:41:23 | 45.61728 | 9.17464 | 75° | 104km/h | 12737m | 5.4m/s | -59.9°C | 41.5% | 0hPa | 2.7V | 00:00:00 | 01:07:40 | 00:00:00 | |
| IW2NTF | 2026-09-04 23:41:19 | 45.61670 | 9.17138 | 76° | 102km/h | 12692m | 4.8m/s | -59.5°C | 41.6% | 0hPa | 2.7V | 08:30:00 | 01:07:31 | 00:00:00 | |
| DO3MHA-11 | 2026-09-04 23:41:13 | 45.61664 | 9.17102 | 77° | 100km/h | 12687m | 5.0m/s | -59.4°C | 41.8% | 0hPa | 2.7V | 00:00:00 | 01:07:30 | 00:00:00 | |
| DB0UT-7 | 2026-09-04 23:41:10 | 45.61644 | 9.16998 | 72° | 100km/h | 12672m | 4.2m/s | -59.3°C | 41.1% | 0hPa | 2.7V | 00:00:00 | 00:00:00 | 08:30:00 | |
| IW2NTF | 2026-09-04 23:41:09 | 45.61598 | 9.16790 | 75° | 106km/h | 12642m | 3.6m/s | -59°C | 40.8% | 0hPa | 2.7V | 08:30:00 | 01:07:21 | 00:00:00 | |
| DO3MHA-11 | 2026-09-04 23:41:03 | 45.61591 | 9.16753 | 77° | 102km/h | 12638m | 5.1m/s | -59.0°C | 40.7% | 0hPa | 2.8V | 00:00:00 | 01:07:20 | 00:00:00 | |
| IW2NTF | 2026-09-04 23:40:59 | 45.61536 | 9.16433 | 72° | 100km/h | 12588m | 6.2m/s | -58.6°C | 39.8% | 0hPa | 2.8V | 08:30:00 | 01:07:11 | 00:00:00 | |
| DO3MHA-11 | 2026-09-04 23:40:53 | 45.61529 | 9.16399 | 72° | 102km/h | 12582m | 6.1m/s | -58.5°C | 39.2% | 0hPa | 2.8V | 00:00:00 | 01:07:10 | 00:00:00 | |
| IW2NTF | 2026-09-04 23:40:49 | 45.61466 | 9.16082 | 76° | 102km/h | 12537m | 4.6m/s | -58.3°C | 38.4% | 0hPa | 2.8V | 08:30:00 | 01:07:01 | 00:00:00 | |
| DO3MHA-11 | 2026-09-04 23:40:43 | 45.61459 | 9.16046 | 77° | 100km/h | 12532m | 4.7m/s | -58.3°C | 38.4% | 0hPa | 2.7V | 00:00:00 | 01:07:00 | 00:00:00 | |
| IW2NTF | 2026-09-04 23:40:40 | 45.61388 | 9.15737 | 69° | 102km/h | 12488m | 5.9m/s | -58.1°C | 38.8% | 0hPa | 2.7V | 08:30:00 | 01:06:51 | 00:00:00 | |
| DO3MHA-11 | 2026-09-04 23:40:33 | 45.61378 | 9.15702 | 69° | 102km/h | 12483m | 4.6m/s | -58.0°C | 39.1% | 0hPa | 2.8V | 00:00:00 | 01:06:50 | 00:00:00 | |
| IW2NTF | 2026-09-04 23:40:26 | 45.61271 | 9.15289 | 68° | 102km/h | 12427m | 4.1m/s | -57.8°C | 39.3% | 0hPa | 2.8V | 08:30:00 | 01:06:38 | 00:00:00 | |
| DO3MHA-11 | 2026-09-04 23:40:23 | 45.61290 | 9.15357 | 69° | 100km/h | 12436m | 4.8m/s | -57.8°C | 39.6% | 0hPa | 2.8V | 00:00:00 | 01:06:40 | 00:00:00 | |
| IW2NTF | 2026-09-04 23:40:16 | 45.61180 | 9.14948 | 68° | 102km/h | 12380m | 6.7m/s | -57.4°C | 37.4% | 0hPa | 2.8V | 08:30:00 | 01:06:28 | 00:00:00 | |
| DO3MHA-11 | 2026-09-04 23:40:14 | 45.61199 | 9.15016 | 70° | 102km/h | 12390m | 4.6m/s | -57.4°C | 38.1% | 0hPa | 2.7V | 00:00:00 | 01:06:30 | 08:30:00 | |
| DO3MHA-11 | 2026-09-04 23:40:03 | 45.61102 | 9.14673 | 67° | 104km/h | 12339m | 5.2m/s | -56.9°C | 37.1% | 0hPa | 2.8V | 00:00:00 | 01:06:20 | 00:00:00 | |
| IW2NTF | 2026-09-04 23:40:02 | 45.61082 | 9.14605 | 67° | 102km/h | 12329m | 3.8m/s | -56.9°C | 36.7% | 0hPa | 2.8V | 08:30:00 | 01:06:18 | 00:00:00 | |
| DB0UT-7 | 2026-09-04 23:40:01 | 45.61082 | 9.14605 | 68° | 104km/h | 12329m | 3.8m/s | -56.8°C | 36.7% | 0hPa | 2.7V | 00:00:00 | 00:00:00 | 00:00:00 | |
| IW2NTF | 2026-09-04 23:39:56 | 45.60980 | 9.14254 | 68° | 104km/h | 12278m | 4.5m/s | -56.6°C | 36.4% | 0hPa | 2.7V | 08:30:00 | 01:06:08 | 00:00:00 | |
| DO3MHA-11 | 2026-09-04 23:39:53 | 45.60999 | 9.14325 | 70° | 104km/h | 12288m | 5.1m/s | -56.6°C | 35.9% | 0hPa | 2.7V | 00:00:00 | 01:06:10 | 00:00:00 | |
| DO3MHA-11 | 2026-09-04 23:39:43 | 45.60898 | 9.13979 | 68° | 104km/h | 12240m | 4.8m/s | -56.4°C | 37.7% | 0hPa | 2.7V | 00:00:00 | 01:06:00 | 00:00:00 | |
| IW2NTF | 2026-09-04 23:39:42 | 45.60879 | 9.13911 | 68° | 102km/h | 12231m | 4.3m/s | -56.3°C | 37.3% | 0hPa | 2.8V | 08:30:00 | 01:05:58 | 00:00:00 | |
| DO3MHA-11 | 2026-09-04 23:39:33 | 45.60801 | 9.13632 | 67° | 102km/h | 12193m | 3.7m/s | -56.0°C | 36.9% | 0hPa | 2.7V | 00:00:00 | 01:05:50 | 00:00:00 | |
| IW2NTF | 2026-09-04 23:39:32 | 45.60780 | 9.13566 | 66° | 100km/h | 12182m | 5.2m/s | -56°C | 36.7% | 0hPa | 2.7V | 08:30:00 | 01:05:48 | 00:00:00 | |
| DB0UT-7 | 2026-09-04 23:39:31 | 45.60780 | 9.13566 | 67° | 100km/h | 12182m | 5.2m/s | -55.9°C | 36.7% | 0hPa | 2.7V | 00:00:00 | 01:05:48 | 00:00:00 | |
| DO3MHA-11 | 2026-09-04 23:39:23 | 45.60700 | 9.13294 | 69° | 99km/h | 12143m | 4.3m/s | -55.6°C | 35.3% | 0hPa | 2.8V | 00:00:00 | 01:05:40 | 00:00:00 | |
| IW2NTF | 2026-09-04 23:39:22 | 45.60681 | 9.13225 | 68° | 102km/h | 12133m | 5.9m/s | -55.6°C | 34.5% | 0hPa | 2.8V | 08:30:00 | 01:05:38 | 00:00:00 | |
| DO3MHA-11 | 2026-09-04 23:39:13 | 45.60603 | 9.12964 | 67° | 100km/h | 12094m | 3.7m/s | -55.1°C | 33.8% | 0hPa | 2.7V | 00:00:00 | 01:05:30 | 00:00:00 | |
| IW2NTF | 2026-09-04 23:39:12 | 45.60584 | 9.12897 | 67° | 102km/h | 12083m | 5m/s | -55.1°C | 33.5% | 0hPa | 2.7V | 08:30:00 | 01:05:28 | 00:00:00 | |
| DO3MHA-11 | 2026-09-04 23:39:03 | 45.60510 | 9.12629 | 68° | 93km/h | 12046m | 5.5m/s | -54.7°C | 32.8% | 0hPa | 2.7V | 00:00:00 | 01:05:20 | 00:00:00 | |
| IW2NTF | 2026-09-04 23:39:02 | 45.60473 | 9.12508 | 65° | 93km/h | 12027m | 3.9m/s | -54.5°C | 32.3% | 0hPa | 2.7V | 08:30:00 | 01:05:16 | 00:00:00 | |
| DB0UT-7 | 2026-09-04 23:39:01 | 45.60492 | 9.12569 | 67° | 97km/h | 12037m | 5.2m/s | -54.6°C | 32.5% | 0hPa | 2.8V | 00:00:00 | 00:00:00 | 00:00:00 | |
| IW2NTF | 2026-09-04 23:38:54 | 45.60378 | 9.12179 | 69° | 102km/h | 11973m | 5.5m/s | -54.2°C | 32.2% | 0hPa | 2.8V | 08:30:00 | 01:05:06 | 00:00:00 | |
| DO3MHA-11 | 2026-09-04 23:38:53 | 45.60413 | 9.12319 | 70° | 97km/h | 11996m | 3.5m/s | -54.2°C | 32.3% | 0hPa | 2.8V | 00:00:00 | 01:05:10 | 00:00:00 | |
| IW2NTF | 2026-09-04 23:38:44 | 45.60280 | 9.11870 | 71° | 102km/h | 11919m | 4.2m/s | -53.7°C | 30.9% | 0hPa | 2.8V | 08:30:00 | 01:04:56 | 00:00:00 | |
| DO3MHA-11 | 2026-09-04 23:38:43 | 45.60319 | 9.12000 | 64° | 99km/h | 11943m | 2.9m/s | -53.9°C | 31.6% | 0hPa | 2.7V | 00:00:00 | 01:05:00 | 08:30:00 | |
| DO3MHA-11 | 2026-09-04 23:38:33 | 45.60232 | 9.11664 | 70° | 97km/h | 11882m | 3.4m/s | -53.3°C | 29.7% | 0hPa | 2.9V | 00:00:00 | 01:04:50 | 00:00:00 | |
| IW2NTF | 2026-09-04 23:38:31 | 45.60196 | 9.11538 | 66° | 97km/h | 11856m | 5.3m/s | -53.1°C | 28.9% | 0hPa | 2.9V | 08:30:00 | 01:04:46 | 00:00:00 | |
| IW2NTF | 2026-09-04 23:38:20 | 45.60117 | 9.11201 | 71° | 102km/h | 11794m | 7.8m/s | -52.6°C | 29% | 0hPa | 2.9V | 08:30:00 | 01:04:36 | 00:00:00 | |
| DO3MHA-11 | 2026-09-04 23:38:13 | 45.60067 | 9.10997 | 73° | 99km/h | 11758m | 3.4m/s | 0°C | 0% | 0hPa | 2.9V | 00:00:00 | 01:04:30 | 00:00:00 | |
| IW2NTF | 2026-09-04 23:38:10 | 45.60032 | 9.10865 | 67° | 99km/h | 11732m | 6.2m/s | -52.1°C | 28.2% | 0hPa | 2.9V | 08:30:00 | 01:04:26 | 00:00:00 | |
| DO3MHA-11 | 2026-09-04 23:38:03 | 45.59975 | 9.10662 | 72° | 100km/h | 11695m | 6.0m/s | 0°C | 0% | 0hPa | 2.7V | 00:00:00 | 01:04:20 | 00:00:00 | |
| DB0UT-7 | 2026-09-04 23:38:01 | 45.59959 | 9.10590 | 74° | 100km/h | 11682m | 7.7m/s | -51.6°C | 29.3% | 0hPa | 2.7V | 00:00:00 | 00:00:00 | 00:00:00 | |
| IW2NTF | 2026-09-04 23:38:00 | 45.59943 | 9.10518 | 71° | 100km/h | 11669m | 4.2m/s | -51.6°C | 29.6% | 0hPa | 2.9V | 08:30:00 | 01:04:16 | 00:00:00 | |
| IW2NTF | 2026-09-04 23:37:54 | 45.59861 | 9.10198 | 71° | 99km/h | 11608m | 4.4m/s | -51.4°C | 30.3% | 0hPa | 2.8V | 08:30:00 | 01:04:06 | 00:00:00 | |
| DO3MHA-11 | 2026-09-04 23:37:43 | 45.59807 | 9.09988 | 70° | 100km/h | 11579m | 4.4m/s | 0°C | 0% | 0hPa | 2.8V | 00:00:00 | 01:04:00 | 00:00:00 | |
| IW2NTF | 2026-09-04 23:37:40 | 45.59773 | 9.09853 | 71° | 100km/h | 11557m | 5.3m/s | -51.1°C | 30.9% | 0hPa | 2.8V | 08:30:00 | 01:03:56 | 00:00:00 | |
| IW2NTF | 2026-09-04 23:37:33 | 45.59674 | 9.09484 | 66° | 97km/h | 11501m | 4.3m/s | -50.7°C | 30.8% | 0hPa | 2.8V | 08:30:00 | 01:03:45 | 00:00:00 | |
| DO3MHA-11 | 2026-09-04 23:37:33 | 45.59725 | 9.09647 | 70° | 99km/h | 11528m | 6.5m/s | 0°C | 0% | 0hPa | 2.9V | 00:00:00 | 01:03:50 | 00:00:00 | |
| DB0UT-7 | 2026-09-04 23:37:31 | 45.59705 | 9.09580 | 66° | 100km/h | 11517m | 5.0m/s | -50.8°C | 30.8% | 0hPa | 2.9V | 00:00:00 | 01:03:48 | 00:00:00 | |
| IW2NTF | 2026-09-04 23:37:21 | 45.59578 | 9.09142 | 68° | 106km/h | 11448m | 4.5m/s | -50.2°C | 29.2% | 0hPa | 2.9V | 08:30:00 | 01:03:35 | 00:00:00 | |
| IW2NTF | 2026-09-04 23:37:12 | 45.59481 | 9.08775 | 65° | 102km/h | 11394m | 5.2m/s | -49.7°C | 28.9% | 0hPa | 2.9V | 08:30:00 | 01:03:24 | 00:00:00 | |
| DO3MHA-11 | 2026-09-04 23:37:12 | 45.59527 | 9.08938 | 70° | 97km/h | 11418m | 3.7m/s | 0°C | 0% | 0hPa | 2.8V | 00:00:00 | 01:03:29 | 00:00:00 | |
| DB0UT-7 | 2026-09-04 23:37:01 | 45.59422 | 9.08564 | 70° | 100km/h | 11367m | 4.4m/s | 0°C | 0% | 0hPa | 2.8V | 00:00:00 | 00:00:00 | 00:00:00 | |
| IW2NTF | 2026-09-04 23:37:00 | 45.59384 | 9.08437 | 65° | 99km/h | 11345m | 7.3m/s | -49.3°C | 27.9% | 0hPa | 2.8V | 08:30:00 | 01:03:14 | 00:00:00 | |
| IW2NTF | 2026-09-04 23:36:52 | 45.59286 | 9.08101 | 66° | 99km/h | 11292m | 5.7m/s | -48.9°C | 28.1% | 0hPa | 2.8V | 08:30:00 | 01:03:04 | 00:00:00 | |
| IW2NTF | 2026-09-04 23:36:40 | 45.59185 | 9.07768 | 67° | 104km/h | 11237m | 5.7m/s | -48.3°C | 26.8% | 0hPa | 2.8V | 08:30:00 | 01:02:54 | 00:00:00 | |
| DB0UT-7 | 2026-09-04 23:36:31 | 45.59133 | 9.07564 | 68° | 99km/h | 11201m | 5.4m/s | 0°C | 0% | 0hPa | 2.9V | 00:00:00 | 01:02:48 | 00:00:00 | |
| IW2NTF | 2026-09-04 23:36:30 | 45.59094 | 9.07432 | 67° | 106km/h | 11180m | 4.3m/s | -47.9°C | 27.3% | 0hPa | 2.9V | 08:30:00 | 01:02:44 | 00:00:00 | |
| IW2NTF | 2026-09-04 23:36:20 | 45.59004 | 9.07103 | 70° | 95km/h | 11127m | 7.5m/s | -47.4°C | 26.5% | 0hPa | 2.9V | 08:30:00 | 01:02:34 | 00:00:00 | |
| IW2NTF | 2026-09-04 23:36:10 | 45.58913 | 9.06782 | 71° | 99km/h | 11067m | 5.3m/s | -47°C | 26.9% | 0hPa | 2.9V | 08:30:00 | 01:02:24 | 00:00:00 | |
| IW2NTF | 2026-09-04 23:36:00 | 45.58828 | 9.06461 | 70° | 91km/h | 11016m | 2m/s | -46.6°C | 26.8% | 0hPa | 2.8V | 08:30:00 | 01:02:14 | 00:00:00 | |
| IW2NTF | 2026-09-04 23:35:50 | 45.58729 | 9.06100 | 65° | 95km/h | 10955m | 3.9m/s | -46°C | 25.6% | 0hPa | 2.8V | 08:30:00 | 01:02:03 | 00:00:00 | |
| IW2NTF | 2026-09-04 23:35:40 | 45.58642 | 9.05777 | 69° | 106km/h | 10897m | 7.3m/s | -45.5°C | 24% | 0hPa | 2.8V | 08:30:00 | 01:01:53 | 00:00:00 | |
| IW2NTF | 2026-09-04 23:35:30 | 45.58556 | 9.05460 | 70° | 99km/h | 10844m | 5m/s | -45.1°C | 24.1% | 0hPa | 2.9V | 08:30:00 | 01:01:43 | 00:00:00 | |
| IW2NTF | 2026-09-04 23:35:20 | 45.58467 | 9.05120 | 65° | 95km/h | 10782m | 7.6m/s | -44.5°C | 22.7% | 0hPa | 2.9V | 08:30:00 | 01:01:33 | 00:00:00 | |
| IW2NTF | 2026-09-04 23:35:10 | 45.58364 | 9.04741 | 67° | 91km/h | 10710m | 6.5m/s | -43.9°C | 22.3% | 0hPa | 2.9V | 08:30:00 | 01:01:21 | 00:00:00 | |
| IW2NTF | 2026-09-04 23:34:54 | 45.58280 | 9.04415 | 66° | 89km/h | 10655m | 6.8m/s | -43.6°C | 22.4% | 0hPa | 2.9V | 08:30:00 | 01:01:11 | 00:00:00 | |
| IW2NTF | 2026-09-04 23:34:49 | 45.58212 | 9.04077 | 73° | 104km/h | 10601m | 7.7m/s | -43.2°C | 22.3% | 0hPa | 2.8V | 08:30:00 | 01:01:01 | 00:00:00 | |
| IW2NTF | 2026-09-04 23:34:39 | 45.58138 | 9.03743 | 71° | 99km/h | 10547m | 4.7m/s | -42.7°C | 22% | 0hPa | 2.9V | 08:30:00 | 01:00:51 | 00:00:00 | |
| IW2NTF | 2026-09-04 23:34:24 | 45.58066 | 9.03415 | 73° | 100km/h | 10487m | 4.2m/s | -42.2°C | 21.2% | 0hPa | 2.9V | 08:30:00 | 01:00:41 | 00:00:00 | |
| IW2NTF | 2026-09-04 23:34:16 | 45.57977 | 9.02982 | 74° | 102km/h | 10415m | 5.5m/s | -41.6°C | 20.2% | 0hPa | 2.9V | 08:30:00 | 01:00:28 | 00:00:00 | |
| IW2NTF | 2026-09-04 23:34:00 | 45.57899 | 9.02595 | 72° | 99km/h | 10359m | 5.6m/s | -41.1°C | 19.7% | 0hPa | 2.9V | 08:30:00 | 01:00:17 | 00:00:00 | |
| IW2NTF | 2026-09-04 23:33:50 | 45.57822 | 9.02262 | 72° | 100km/h | 10307m | 5.3m/s | -40.7°C | 19.4% | 0hPa | 2.8V | 08:30:00 | 01:00:07 | 00:00:00 | |
| IW2NTF | 2026-09-04 23:33:45 | 45.57748 | 9.01921 | 69° | 97km/h | 10260m | 3.9m/s | -40.3°C | 19.4% | 0hPa | 2.9V | 08:30:00 | 00:59:57 | 00:00:00 | |
| IW2NTF | 2026-09-04 23:33:34 | 45.57671 | 9.01593 | 68° | 106km/h | 10215m | 4.3m/s | -39.9°C | 19.3% | 0hPa | 2.8V | 08:30:00 | 00:59:47 | 00:00:00 | |
| IW2NTF | 2026-09-04 23:33:22 | 45.57577 | 9.01267 | 73° | 91km/h | 10163m | 7m/s | -39.5°C | 18.5% | 0hPa | 2.9V | 08:30:00 | 00:59:37 | 00:00:00 | |
| IW2NTF | 2026-09-04 23:33:12 | 45.57488 | 9.00933 | 68° | 95km/h | 10116m | 4.8m/s | -39.1°C | 18.8% | 0hPa | 2.9V | 08:30:00 | 00:59:27 | 00:00:00 | |
| IW2NTF | 2026-09-04 23:33:04 | 45.57397 | 9.00551 | 66° | 104km/h | 10069m | 3.3m/s | -38.7°C | 18.2% | 0hPa | 2.8V | 08:30:00 | 00:59:16 | 00:00:00 | |
| IW2NTF | 2026-09-04 23:32:52 | 45.57309 | 9.00219 | 71° | 99km/h | 10022m | 4.9m/s | -38.2°C | 16.7% | 0hPa | 2.9V | 08:30:00 | 00:59:06 | 00:00:00 | |
| IW2NTF | 2026-09-04 23:32:42 | 45.57214 | 8.99843 | 70° | 102km/h | 9973m | 4.4m/s | -37.9°C | 15% | 0hPa | 2.9V | 08:30:00 | 00:58:55 | 00:00:00 | |
| IW2NTF | 2026-09-04 23:32:32 | 45.57127 | 8.99511 | 75° | 88km/h | 9927m | 5.2m/s | -37.5°C | 13.8% | 0hPa | 2.9V | 08:30:00 | 00:58:45 | 00:00:00 | |
| IW2NTF | 2026-09-04 23:32:22 | 45.57050 | 8.99190 | 65° | 89km/h | 9879m | 4.4m/s | -37.2°C | 13.2% | 0hPa | 2.9V | 08:30:00 | 00:58:35 | 00:00:00 | |
| IW2NTF | 2026-09-04 23:32:12 | 45.56977 | 8.98878 | 71° | 89km/h | 9837m | 4.5m/s | -36.9°C | 13.2% | 0hPa | 2.9V | 08:30:00 | 00:58:25 | 00:00:00 | |
| IW2NTF | 2026-09-04 23:32:03 | 45.56893 | 8.98553 | 72° | 91km/h | 9797m | 2.1m/s | -36.8°C | 13.7% | 0hPa | 2.9V | 08:30:00 | 00:58:15 | 00:00:00 | |
| IW2NTF | 2026-09-04 23:31:49 | 45.56835 | 8.98253 | 72° | 95km/h | 9739m | 6.3m/s | -36.5°C | 12.6% | 0hPa | 2.9V | 08:30:00 | 00:58:05 | 00:00:00 | |
| IW2NTF | 2026-09-04 23:31:40 | 45.56787 | 8.97938 | 77° | 82km/h | 9694m | 4.5m/s | -36.1°C | 11.9% | 0hPa | 2.8V | 08:30:00 | 00:57:55 | 00:00:00 | |
| IW2NTF | 2026-09-04 23:31:33 | 45.56726 | 8.97649 | 79° | 84km/h | 9654m | 5.2m/s | -35.8°C | 11.5% | 0hPa | 2.9V | 08:30:00 | 00:57:45 | 00:00:00 | |
| IW2NTF | 2026-09-04 23:31:20 | 45.56681 | 8.97355 | 76° | 91km/h | 9602m | 7.1m/s | -35.5°C | 11.2% | 0hPa | 2.8V | 08:30:00 | 00:57:35 | 00:00:00 | |
| IW2NTF | 2026-09-04 23:31:10 | 45.56631 | 8.97052 | 76° | 80km/h | 9550m | 3.4m/s | -35.2°C | 11.6% | 0hPa | 2.9V | 08:30:00 | 00:57:25 | 00:00:00 | |
| IW2NTF | 2026-09-04 23:31:00 | 45.56588 | 8.96776 | 82° | 78km/h | 9508m | 3.9m/s | -35°C | 12.6% | 0hPa | 2.9V | 08:30:00 | 00:57:15 | 00:00:00 | |
| IW2NTF | 2026-09-04 23:30:49 | 45.56541 | 8.96480 | 75° | 77km/h | 9468m | 4.1m/s | -34.7°C | 12.8% | 0hPa | 2.9V | 08:30:00 | 00:57:05 | 00:00:00 | |
| IW2NTF | 2026-09-04 23:30:39 | 45.56500 | 8.96210 | 76° | 84km/h | 9418m | 5.2m/s | -34.3°C | 12.8% | 0hPa | 2.9V | 08:30:00 | 00:56:55 | 00:00:00 | |
| IW2NTF | 2026-09-04 23:30:30 | 45.56461 | 8.95932 | 81° | 80km/h | 9370m | 3.2m/s | -33.9°C | 13% | 0hPa | 2.8V | 08:30:00 | 00:56:45 | 00:00:00 | |
| IW2NTF | 2026-09-04 23:30:22 | 45.56410 | 8.95661 | 74° | 80km/h | 9319m | 3.4m/s | -33.5°C | 12.4% | 0hPa | 2.9V | 08:30:00 | 00:56:35 | 00:00:00 | |
| IW2NTF | 2026-09-04 23:30:09 | 45.56359 | 8.95389 | 77° | 73km/h | 9275m | 4.6m/s | -33.2°C | 12.2% | 0hPa | 2.9V | 08:30:00 | 00:56:25 | 00:00:00 | |
| IW2NTF | 2026-09-04 23:30:04 | 45.56309 | 8.95137 | 72° | 77km/h | 9231m | 6m/s | -32.9°C | 12.2% | 0hPa | 2.8V | 08:30:00 | 00:56:15 | 00:00:00 | |
| IW2NTF | 2026-09-04 23:29:53 | 45.56268 | 8.94864 | 80° | 73km/h | 9191m | 3.9m/s | -32.7°C | 13.8% | 0hPa | 2.9V | 08:30:00 | 00:56:05 | 00:00:00 | |
| IW2NTF | 2026-09-04 23:29:38 | 45.56229 | 8.94593 | 74° | 73km/h | 9149m | 3.1m/s | -32.5°C | 14.5% | 0hPa | 2.9V | 08:30:00 | 00:55:55 | 00:00:00 | |
| IW2NTF | 2026-09-04 23:29:28 | 45.56187 | 8.94251 | 79° | 77km/h | 9089m | 4m/s | -32°C | 14% | 0hPa | 2.8V | 08:30:00 | 00:55:43 | 00:00:00 | |
| IW2NTF | 2026-09-04 23:29:18 | 45.56162 | 8.93966 | 88° | 80km/h | 9039m | 4.7m/s | -31.6°C | 12.9% | 0hPa | 2.9V | 08:30:00 | 00:55:33 | 00:00:00 | |
| IW2NTF | 2026-09-04 23:29:08 | 45.56144 | 8.93678 | 84° | 75km/h | 8983m | 5.6m/s | -31.2°C | 13% | 0hPa | 2.9V | 08:30:00 | 00:55:23 | 00:00:00 | |
| IW2NTF | 2026-09-04 23:28:58 | 45.56120 | 8.93407 | 80° | 84km/h | 8928m | 7.1m/s | -30.7°C | 12.3% | 0hPa | 2.9V | 08:30:00 | 00:55:13 | 00:00:00 | |
| IW2NTF | 2026-09-04 23:28:46 | 45.56090 | 8.93067 | 84° | 78km/h | 8860m | 6.6m/s | -30.2°C | 11.7% | 0hPa | 2.9V | 08:30:00 | 00:55:01 | 00:00:00 | |
| IW2NTF | 2026-09-04 23:28:36 | 45.56063 | 8.92790 | 82° | 75km/h | 8803m | 5.6m/s | -29.7°C | 11.4% | 0hPa | 2.9V | 08:30:00 | 00:54:51 | 00:00:00 | |
| IW2NTF | 2026-09-04 23:28:26 | 45.56039 | 8.92516 | 82° | 73km/h | 8748m | 5.9m/s | -29.4°C | 12.1% | 0hPa | 2.9V | 08:30:00 | 00:54:41 | 00:00:00 | |
| IW2NTF | 2026-09-04 23:28:14 | 45.56014 | 8.92247 | 87° | 77km/h | 8695m | 5.1m/s | -29°C | 12.1% | 0hPa | 2.8V | 08:30:00 | 00:54:31 | 00:00:00 | |
| IW2NTF | 2026-09-04 23:28:06 | 45.55997 | 8.91977 | 75° | 80km/h | 8642m | 4.4m/s | -28.5°C | 11.5% | 0hPa | 2.9V | 08:30:00 | 00:54:21 | 00:00:00 | |
| IW2NTF | 2026-09-04 23:27:59 | 45.55959 | 8.91699 | 81° | 77km/h | 8590m | 3.7m/s | -28°C | 11.3% | 0hPa | 2.9V | 08:30:00 | 00:54:11 | 00:00:00 | |
| IW2NTF | 2026-09-04 23:27:49 | 45.55924 | 8.91413 | 77° | 84km/h | 8543m | 5m/s | -27.6°C | 10.8% | 0hPa | 2.9V | 08:30:00 | 00:54:01 | 00:00:00 | |
| IW2NTF | 2026-09-04 23:27:37 | 45.55885 | 8.91125 | 81° | 80km/h | 8489m | 4.2m/s | -27.4°C | 11.3% | 0hPa | 2.8V | 08:30:00 | 00:53:51 | 00:00:00 | |
| IW2NTF | 2026-09-04 23:27:26 | 45.55846 | 8.90860 | 78° | 71km/h | 8445m | 4.9m/s | -27.1°C | 10.9% | 0hPa | 2.9V | 08:30:00 | 00:53:41 | 00:00:00 | |
| IW2NTF | 2026-09-04 23:27:19 | 45.55803 | 8.90603 | 72° | 68km/h | 8400m | 4.5m/s | -26.6°C | 10.3% | 0hPa | 2.9V | 08:30:00 | 00:53:31 | 00:00:00 | |
| IW2NTF | 2026-09-04 23:27:09 | 45.55760 | 8.90350 | 80° | 69km/h | 8352m | 5.1m/s | -26.2°C | 9.8% | 0hPa | 2.9V | 08:30:00 | 00:53:21 | 00:00:00 | |
| IW2NTF | 2026-09-04 23:26:59 | 45.55728 | 8.90090 | 82° | 68km/h | 8304m | 4.8m/s | -25.9°C | 9.2% | 0hPa | 2.9V | 08:30:00 | 00:53:11 | 00:00:00 | |
| IW2NTF | 2026-09-04 23:26:50 | 45.55706 | 8.89847 | 82° | 64km/h | 8265m | 5.9m/s | -25.6°C | 8.8% | 0hPa | 2.9V | 08:30:00 | 00:53:01 | 00:00:00 | |
| IW2NTF | 2026-09-04 23:26:39 | 45.55680 | 8.89584 | 84° | 77km/h | 8208m | 6.1m/s | -25.2°C | 9.1% | 0hPa | 2.9V | 08:30:00 | 00:52:51 | 00:00:00 | |
| IW2NTF | 2026-09-04 23:26:29 | 45.55663 | 8.89310 | 87° | 80km/h | 8158m | 4.4m/s | -24.8°C | 9% | 0hPa | 2.9V | 08:30:00 | 00:52:41 | 00:00:00 | |
| IW2NTF | 2026-09-04 23:26:19 | 45.55661 | 8.89050 | 83° | 75km/h | 8105m | 3.9m/s | -24.4°C | 8% | 0hPa | 2.9V | 08:30:00 | 00:52:31 | 00:00:00 | |
| IW2NTF | 2026-09-04 23:26:09 | 45.55639 | 8.88797 | 81° | 77km/h | 8062m | 5.1m/s | -24°C | 7.9% | 0hPa | 2.9V | 08:30:00 | 00:52:21 | 00:00:00 | |
| IW2NTF | 2026-09-04 23:25:59 | 45.55621 | 8.88523 | 83° | 66km/h | 8016m | 4.6m/s | -23.7°C | 8.6% | 0hPa | 2.9V | 08:30:00 | 00:52:11 | 00:00:00 | |
| IW2NTF | 2026-09-04 23:25:50 | 45.55599 | 8.88256 | 81° | 66km/h | 7963m | 6.5m/s | -23.4°C | 9.3% | 0hPa | 2.8V | 08:30:00 | 00:52:01 | 00:00:00 | |
| IW2NTF | 2026-09-04 23:25:39 | 45.55552 | 8.87985 | 70° | 75km/h | 7907m | 5.3m/s | -23°C | 10.5% | 0hPa | 2.8V | 08:30:00 | 00:51:51 | 00:00:00 | |
| IW2NTF | 2026-09-04 23:25:29 | 45.55495 | 8.87668 | 73° | 77km/h | 7839m | 8.5m/s | -22.5°C | 10.3% | 0hPa | 2.9V | 08:30:00 | 00:51:39 | 00:00:00 | |
| IW2NTF | 2026-09-04 23:25:17 | 45.55449 | 8.87412 | 80° | 69km/h | 7776m | 6.9m/s | -22.1°C | 10.8% | 0hPa | 2.8V | 08:30:00 | 00:51:29 | 00:00:00 | |
| IW2NTF | 2026-09-04 23:25:05 | 45.55397 | 8.87157 | 76° | 75km/h | 7731m | 3.3m/s | -21.9°C | 11.7% | 0hPa | 2.9V | 08:30:00 | 00:51:19 | 00:00:00 | |
| IW2NTF | 2026-09-04 23:24:57 | 45.55366 | 8.86885 | 75° | 78km/h | 7686m | 4.9m/s | -21.5°C | 11.9% | 0hPa | 2.9V | 08:30:00 | 00:51:09 | 00:00:00 | |
| IW2NTF | 2026-09-04 23:24:47 | 45.55321 | 8.86620 | 77° | 71km/h | 7639m | 4.4m/s | -21.3°C | 13.5% | 0hPa | 2.8V | 08:30:00 | 00:50:59 | 00:00:00 | |
| IW2NTF | 2026-09-04 23:24:38 | 45.55286 | 8.86379 | 79° | 68km/h | 7597m | 4.6m/s | -21°C | 13.5% | 0hPa | 2.9V | 08:30:00 | 00:50:49 | 00:00:00 | |
| IW2NTF | 2026-09-04 23:24:27 | 45.55245 | 8.86129 | 83° | 71km/h | 7554m | 3.9m/s | -20.6°C | 11.1% | 0hPa | 2.9V | 08:30:00 | 00:50:39 | 00:00:00 | |
| IW2NTF | 2026-09-04 23:24:17 | 45.55208 | 8.85828 | 74° | 78km/h | 7492m | 4.2m/s | -20.1°C | 9.7% | 0hPa | 2.8V | 08:30:00 | 00:50:27 | 00:00:00 | |
| IW2NTF | 2026-09-04 23:24:00 | 45.55177 | 8.85584 | 80° | 68km/h | 7438m | 4.7m/s | -19.8°C | 9.2% | 0hPa | 2.9V | 08:30:00 | 00:50:17 | 00:00:00 | |
| IW2NTF | 2026-09-04 23:23:50 | 45.55142 | 8.85318 | 72° | 68km/h | 7379m | 7.4m/s | -19.5°C | 10.4% | 0hPa | 2.9V | 08:30:00 | 00:50:07 | 00:00:00 | |
| IW2NTF | 2026-09-04 23:23:41 | 45.55101 | 8.85067 | 77° | 75km/h | 7330m | 6m/s | -19.1°C | 12.7% | 0hPa | 2.9V | 08:30:00 | 00:49:57 | 00:00:00 | |
| IW2NTF | 2026-09-04 23:23:31 | 45.55058 | 8.84810 | 79° | 71km/h | 7278m | 4.3m/s | -18.6°C | 14% | 0hPa | 2.9V | 08:30:00 | 00:49:47 | 00:00:00 | |
| IW2NTF | 2026-09-04 23:23:25 | 45.55008 | 8.84549 | 72° | 78km/h | 7226m | 5.3m/s | -18.2°C | 15.3% | 0hPa | 3V | 08:30:00 | 00:49:37 | 00:00:00 | |
| IW2NTF | 2026-09-04 23:23:13 | 45.54953 | 8.84257 | 73° | 80km/h | 7169m | 5.4m/s | -17.6°C | 13.8% | 0hPa | 2.9V | 08:30:00 | 00:49:26 | 00:00:00 | |
| IW2NTF | 2026-09-04 23:23:03 | 45.54905 | 8.84005 | 69° | 69km/h | 7120m | 6.3m/s | -17.2°C | 10.1% | 0hPa | 3V | 08:30:00 | 00:49:16 | 00:00:00 | |
| IW2NTF | 2026-09-04 23:22:55 | 45.54858 | 8.83740 | 81° | 69km/h | 7080m | 4.9m/s | -16.9°C | 8% | 0hPa | 3V | 08:30:00 | 00:49:06 | 00:00:00 | |
| IW2NTF | 2026-09-04 23:22:45 | 45.54816 | 8.83511 | 77° | 69km/h | 7027m | 2.5m/s | -16.5°C | 8.6% | 0hPa | 3V | 08:30:00 | 00:48:56 | 00:00:00 | |
| IW2NTF | 2026-09-04 23:22:34 | 45.54774 | 8.83284 | 74° | 73km/h | 6985m | 4.6m/s | -16.2°C | 9.9% | 0hPa | 2.9V | 08:30:00 | 00:48:46 | 00:00:00 | |
| IW2NTF | 2026-09-04 23:22:21 | 45.54725 | 8.83041 | 72° | 62km/h | 6946m | 3.7m/s | -15.9°C | 11.4% | 0hPa | 2.9V | 08:30:00 | 00:48:36 | 00:00:00 | |
| IW2NTF | 2026-09-04 23:22:14 | 45.54686 | 8.82796 | 80° | 73km/h | 6900m | 5m/s | -15.4°C | 11.6% | 0hPa | 3V | 08:30:00 | 00:48:26 | 00:00:00 | |
| IW2NTF | 2026-09-04 23:22:05 | 45.54654 | 8.82569 | 80° | 58km/h | 6851m | 4.7m/s | -15.1°C | 11.1% | 0hPa | 3V | 08:30:00 | 00:48:16 | 00:00:00 | |
| IW2NTF | 2026-09-04 23:21:54 | 45.54613 | 8.82351 | 82° | 66km/h | 6804m | 5.4m/s | -14.8°C | 9.7% | 0hPa | 3V | 08:30:00 | 00:48:06 | 00:00:00 | |
| IW2NTF | 2026-09-04 23:21:44 | 45.54580 | 8.82129 | 80° | 58km/h | 6755m | 4.2m/s | -14.4°C | 9.4% | 0hPa | 3V | 08:30:00 | 00:47:56 | 00:00:00 | |
| IW2NTF | 2026-09-04 23:21:34 | 45.54532 | 8.81897 | 72° | 77km/h | 6709m | 5.3m/s | -14°C | 8.8% | 0hPa | 3V | 08:30:00 | 00:47:46 | 00:00:00 | |
| IW2NTF | 2026-09-04 23:21:25 | 45.54486 | 8.81659 | 78° | 75km/h | 6660m | 4.2m/s | -13.5°C | 8.6% | 0hPa | 3V | 08:30:00 | 00:47:36 | 00:00:00 | |
| IW2NTF | 2026-09-04 23:21:14 | 45.54454 | 8.81406 | 76° | 75km/h | 6614m | 3.9m/s | -13.1°C | 7.8% | 0hPa | 3V | 08:30:00 | 00:47:26 | 00:00:00 | |
| IW2NTF | 2026-09-04 23:21:04 | 45.54412 | 8.81151 | 85° | 60km/h | 6569m | 3.3m/s | -12.9°C | 7.9% | 0hPa | 3V | 08:30:00 | 00:47:16 | 00:00:00 | |
| IW2NTF | 2026-09-04 23:20:55 | 45.54374 | 8.80917 | 86° | 73km/h | 6519m | 3.5m/s | -12.8°C | 14.8% | 0hPa | 3V | 08:30:00 | 00:47:06 | 00:00:00 | |
| IW2NTF | 2026-09-04 23:20:44 | 45.54349 | 8.80659 | 90° | 68km/h | 6472m | 5.1m/s | -12.4°C | 16.4% | 0hPa | 3V | 08:30:00 | 00:46:56 | 00:00:00 | |
| IW2NTF | 2026-09-04 23:20:35 | 45.54330 | 8.80429 | 79° | 62km/h | 6417m | 3.8m/s | -12°C | 11.4% | 0hPa | 3V | 08:30:00 | 00:46:46 | 00:00:00 | |
| IW2NTF | 2026-09-04 23:20:24 | 45.54309 | 8.80183 | 89° | 69km/h | 6372m | 4.6m/s | -11.6°C | 10.2% | 0hPa | 3V | 08:30:00 | 00:46:36 | 00:00:00 | |
| IW2NTF | 2026-09-04 23:20:15 | 45.54303 | 8.79922 | 80° | 73km/h | 6327m | 4m/s | -11.3°C | 7.5% | 0hPa | 3V | 08:30:00 | 00:46:26 | 00:00:00 | |
| IW2NTF | 2026-09-04 23:20:05 | 45.54284 | 8.79664 | 86° | 77km/h | 6280m | 3.6m/s | -11.1°C | 6.8% | 0hPa | 3V | 08:30:00 | 00:46:16 | 00:00:00 | |
| IW2NTF | 2026-09-04 23:19:55 | 45.54261 | 8.79408 | 83° | 68km/h | 6239m | 3.3m/s | -11°C | 8.1% | 0hPa | 3V | 08:30:00 | 00:46:06 | 00:00:00 | |
| IW2NTF | 2026-09-04 23:19:44 | 45.54243 | 8.79159 | 83° | 80km/h | 6192m | 6.3m/s | -10.7°C | 7% | 0hPa | 3V | 08:30:00 | 00:45:56 | 00:00:00 | |
| IW2NTF | 2026-09-04 23:19:35 | 45.54223 | 8.78891 | 78° | 77km/h | 6141m | 6m/s | -10.4°C | 6.8% | 0hPa | 3V | 08:30:00 | 00:45:46 | 00:00:00 | |
| IW2NTF | 2026-09-04 23:19:24 | 45.54197 | 8.78627 | 76° | 71km/h | 6090m | 4.8m/s | -10°C | 6.9% | 0hPa | 3V | 08:30:00 | 00:45:36 | 00:00:00 | |
| IW2NTF | 2026-09-04 23:19:14 | 45.54166 | 8.78374 | 73° | 78km/h | 6040m | 6.9m/s | -9.6°C | 7.1% | 0hPa | 3V | 08:30:00 | 00:45:26 | 00:00:00 | |
| IW2NTF | 2026-09-04 23:19:04 | 45.54116 | 8.78113 | 82° | 73km/h | 5992m | 3.4m/s | -9.3°C | 7.8% | 0hPa | 3V | 08:30:00 | 00:45:16 | 00:00:00 | |
| IW2NTF | 2026-09-04 23:18:55 | 45.54078 | 8.77847 | 71° | 62km/h | 5944m | 6m/s | -8.8°C | 7.2% | 0hPa | 3V | 08:30:00 | 00:45:06 | 00:00:00 | |
| IW2NTF | 2026-09-04 23:18:44 | 45.54016 | 8.77613 | 74° | 69km/h | 5891m | 4.8m/s | -8.4°C | 6.6% | 0hPa | 3V | 08:30:00 | 00:44:56 | 00:00:00 | |
| IW2NTF | 2026-09-04 23:18:35 | 45.53971 | 8.77413 | 69° | 57km/h | 5845m | 4.9m/s | -8.1°C | 6.8% | 0hPa | 3V | 08:30:00 | 00:44:46 | 00:00:00 | |
| IW2NTF | 2026-09-04 23:18:24 | 45.53918 | 8.77187 | 67° | 75km/h | 5790m | 5.5m/s | -7.8°C | 7.4% | 0hPa | 3V | 08:30:00 | 00:44:36 | 00:00:00 | |
| IW2NTF | 2026-09-04 23:18:14 | 45.53869 | 8.76968 | 69° | 62km/h | 5738m | 4.7m/s | -7.3°C | 7.5% | 0hPa | 3V | 08:30:00 | 00:44:26 | 00:00:00 | |
| IW2NTF | 2026-09-04 23:18:04 | 45.53829 | 8.76748 | 78° | 58km/h | 5689m | 3.9m/s | -6.9°C | 7.5% | 0hPa | 3V | 08:30:00 | 00:44:16 | 00:00:00 | |
| IW2NTF | 2026-09-04 23:17:54 | 45.53798 | 8.76549 | 71° | 66km/h | 5644m | 4.6m/s | -6.6°C | 8% | 0hPa | 3V | 08:30:00 | 00:44:06 | 00:00:00 | |
| IW2NTF | 2026-09-04 23:17:44 | 45.53745 | 8.76314 | 75° | 66km/h | 5593m | 5.5m/s | -6.2°C | 8.2% | 0hPa | 3V | 08:30:00 | 00:43:56 | 00:00:00 | |
| IW2NTF | 2026-09-04 23:17:35 | 45.53711 | 8.76127 | 74° | 58km/h | 5539m | 5.4m/s | -5.7°C | 8.1% | 0hPa | 3V | 08:30:00 | 00:43:46 | 00:00:00 | |
| IW2NTF | 2026-09-04 23:17:25 | 45.53671 | 8.75903 | 68° | 57km/h | 5494m | 5.1m/s | -5.4°C | 8.1% | 0hPa | 3V | 08:30:00 | 00:43:36 | 00:00:00 | |
| IW2NTF | 2026-09-04 23:17:15 | 45.53633 | 8.75713 | 74° | 62km/h | 5439m | 3.4m/s | -5°C | 8% | 0hPa | 2.9V | 08:30:00 | 00:43:26 | 00:00:00 | |
| IW2NTF | 2026-09-04 23:17:05 | 45.53591 | 8.75530 | 70° | 57km/h | 5392m | 6.2m/s | -4.6°C | 8.2% | 0hPa | 3V | 08:30:00 | 00:43:16 | 00:00:00 | |
| IW2NTF | 2026-09-04 23:16:54 | 45.53569 | 8.75325 | 92° | 49km/h | 5340m | 5.2m/s | -4.4°C | 8.9% | 0hPa | 3V | 08:30:00 | 00:43:06 | 00:00:00 | |
| IW2NTF | 2026-09-04 23:16:44 | 45.53552 | 8.75132 | 86° | 57km/h | 5296m | 5.6m/s | -4.1°C | 11.6% | 0hPa | 3V | 08:30:00 | 00:42:56 | 00:00:00 | |
| IW2NTF | 2026-09-04 23:16:34 | 45.53555 | 8.74925 | 87° | 51km/h | 5250m | 4.7m/s | -3.8°C | 9.7% | 0hPa | 3V | 08:30:00 | 00:42:46 | 00:00:00 | |
| IW2NTF | 2026-09-04 23:16:24 | 45.53546 | 8.74707 | 90° | 62km/h | 5203m | 3.8m/s | -3.6°C | 10.1% | 0hPa | 3V | 08:30:00 | 00:42:36 | 00:00:00 | |
| IW2NTF | 2026-09-04 23:16:14 | 45.53553 | 8.74492 | 85° | 55km/h | 5155m | 4.8m/s | -3.7°C | 17.6% | 0hPa | 3V | 08:30:00 | 00:42:26 | 00:00:00 | |
| IW2NTF | 2026-09-04 23:16:04 | 45.53547 | 8.74275 | 90° | 69km/h | 5115m | 3.6m/s | -3.4°C | 19.8% | 0hPa | 3V | 08:30:00 | 00:42:16 | 00:00:00 | |
| IW2NTF | 2026-09-04 23:15:54 | 45.53531 | 8.74051 | 78° | 62km/h | 5067m | 3.8m/s | -3°C | 19.3% | 0hPa | 3V | 08:30:00 | 00:42:06 | 00:00:00 | |
| IW2NTF | 2026-09-04 23:15:44 | 45.53527 | 8.73837 | 80° | 57km/h | 5022m | 5.6m/s | -2.6°C | 18.4% | 0hPa | 3V | 08:30:00 | 00:41:56 | 00:00:00 | |
| IW2NTF | 2026-09-04 23:15:35 | 45.53499 | 8.73628 | 84° | 60km/h | 4969m | 6.5m/s | -2.1°C | 17.9% | 0hPa | 3V | 08:30:00 | 00:41:46 | 00:00:00 | |
| IW2NTF | 2026-09-04 23:15:29 | 45.53495 | 8.73513 | 86° | 55km/h | 4939m | 4.4m/s | -2.2°C | 24.8% | 0hPa | 3V | 08:30:00 | 00:41:40 | 00:00:00 | |
| IW2NTF | 2026-09-04 23:15:22 | 45.53478 | 8.73401 | 76° | 49km/h | 4911m | 5.5m/s | -2°C | 27.4% | 0hPa | 3V | 08:30:00 | 00:41:34 | 00:00:00 | |
| IW2NTF | 2026-09-04 23:15:17 | 45.53471 | 8.73280 | 89° | 62km/h | 4875m | 5.5m/s | -1.9°C | 29.2% | 0hPa | 3V | 08:30:00 | 00:41:28 | 00:00:00 | |
| IW2NTF | 2026-09-04 23:15:10 | 45.53464 | 8.73147 | 81° | 51km/h | 4848m | 5.2m/s | -1.6°C | 30.1% | 0hPa | 3V | 08:30:00 | 00:41:22 | 00:00:00 | |
| IW2NTF | 2026-09-04 23:15:04 | 45.53464 | 8.73035 | 91° | 57km/h | 4818m | 5m/s | -1.4°C | 30% | 0hPa | 3V | 08:30:00 | 00:41:16 | 00:00:00 | |
| IW2NTF | 2026-09-04 23:14:58 | 45.53463 | 8.72924 | 96° | 44km/h | 4787m | 4.6m/s | -1.1°C | 30.3% | 0hPa | 3V | 08:30:00 | 00:41:10 | 00:00:00 | |
| IW2NTF | 2026-09-04 23:14:52 | 45.53466 | 8.72814 | 83° | 55km/h | 4759m | 5.1m/s | -0.9°C | 30.5% | 0hPa | 3V | 08:30:00 | 00:41:04 | 00:00:00 | |
| IW2NTF | 2026-09-04 23:14:46 | 45.53450 | 8.72694 | 75° | 55km/h | 4734m | 4.3m/s | -0.7°C | 30.7% | 0hPa | 3V | 08:30:00 | 00:40:58 | 00:00:00 | |
| IW2NTF | 2026-09-04 23:14:40 | 45.53440 | 8.72580 | 92° | 51km/h | 4700m | 6.4m/s | -0.5°C | 30.8% | 0hPa | 3V | 08:30:00 | 00:40:52 | 00:00:00 | |
| IW2NTF | 2026-09-04 23:14:34 | 45.53444 | 8.72479 | 88° | 47km/h | 4670m | 6.1m/s | -0.4°C | 34.7% | 0hPa | 3V | 08:30:00 | 00:40:46 | 00:00:00 | |
| IW2NTF | 2026-09-04 23:14:28 | 45.53426 | 8.72371 | 65° | 53km/h | 4639m | 3.6m/s | -0.2°C | 35% | 0hPa | 3V | 08:30:00 | 00:40:40 | 00:00:00 | |
| IW2NTF | 2026-09-04 23:14:22 | 45.53410 | 8.72274 | 92° | 46km/h | 4613m | 4.3m/s | 0.1°C | 34.8% | 0hPa | 3V | 08:30:00 | 00:40:34 | 00:00:00 | |
| IW2NTF | 2026-09-04 23:14:16 | 45.53407 | 8.72162 | 84° | 57km/h | 4587m | 6.4m/s | 0.3°C | 34.5% | 0hPa | 3V | 08:30:00 | 00:40:28 | 00:00:00 | |
| IW2NTF | 2026-09-04 23:14:10 | 45.53392 | 8.72047 | 82° | 46km/h | 4562m | 3.8m/s | 0.5°C | 34.7% | 0hPa | 3V | 08:30:00 | 00:40:22 | 00:00:00 | |
| IW2NTF | 2026-09-04 23:14:04 | 45.53380 | 8.71949 | 87° | 47km/h | 4536m | 5.4m/s | 0.5°C | 35.5% | 0hPa | 3V | 08:30:00 | 00:40:16 | 00:00:00 | |
| IW2NTF | 2026-09-04 23:13:58 | 45.53381 | 8.71854 | 84° | 40km/h | 4514m | 4.7m/s | 0.4°C | 40.7% | 0hPa | 3V | 08:30:00 | 00:40:10 | 00:00:00 | |
| IW2NTF | 2026-09-04 23:13:52 | 45.53373 | 8.71750 | 79° | 47km/h | 4479m | 5m/s | 0.7°C | 42% | 0hPa | 3V | 08:30:00 | 00:40:04 | 00:00:00 | |
| IW2NTF | 2026-09-04 23:13:46 | 45.53356 | 8.71665 | 71° | 42km/h | 4453m | 5.2m/s | 0.9°C | 43.9% | 0hPa | 3V | 08:30:00 | 00:39:58 | 00:00:00 | |
| IW2NTF | 2026-09-04 23:13:40 | 45.53333 | 8.71574 | 74° | 55km/h | 4421m | 5.5m/s | 1.1°C | 45.1% | 0hPa | 3V | 08:30:00 | 00:39:52 | 00:00:00 | |
| IW2NTF | 2026-09-04 23:13:34 | 45.53318 | 8.71466 | 87° | 37km/h | 4391m | 5.3m/s | 1.1°C | 47.8% | 0hPa | 3V | 08:30:00 | 00:39:46 | 00:00:00 | |
| IW2NTF | 2026-09-04 23:13:28 | 45.53299 | 8.71383 | 65° | 49km/h | 4359m | 6.5m/s | 1.2°C | 52.2% | 0hPa | 3V | 08:30:00 | 00:39:40 | 00:00:00 | |
| IW2NTF | 2026-09-04 23:13:22 | 45.53276 | 8.71290 | 69° | 46km/h | 4326m | 6.2m/s | 1.5°C | 52% | 0hPa | 3V | 08:30:00 | 00:39:34 | 00:00:00 | |
| IW2NTF | 2026-09-04 23:13:16 | 45.53260 | 8.71202 | 82° | 40km/h | 4302m | 4.8m/s | 1.7°C | 53% | 0hPa | 3V | 08:30:00 | 00:39:28 | 00:00:00 | |
| IW2NTF | 2026-09-04 23:13:11 | 45.53239 | 8.71121 | 56° | 35km/h | 4274m | 6.3m/s | 1.9°C | 52.5% | 0hPa | 3V | 08:30:00 | 00:39:22 | 00:00:00 | |
| IW2NTF | 2026-09-04 23:13:04 | 45.53211 | 8.71047 | 56° | 42km/h | 4242m | 4.6m/s | 2.2°C | 52.3% | 0hPa | 3V | 08:30:00 | 00:39:16 | 00:00:00 | |
| IW2NTF | 2026-09-04 23:12:58 | 45.53186 | 8.70980 | 67° | 42km/h | 4215m | 6.2m/s | 2.5°C | 51.6% | 0hPa | 3V | 08:30:00 | 00:39:10 | 00:00:00 | |
| IW2NTF | 2026-09-04 23:12:52 | 45.53158 | 8.70898 | 65° | 38km/h | 4179m | 7m/s | 2.8°C | 51% | 0hPa | 3V | 08:30:00 | 00:39:04 | 00:00:00 | |
| IW2NTF | 2026-09-04 23:12:46 | 45.53134 | 8.70831 | 67° | 31km/h | 4137m | 6.9m/s | 3.1°C | 51.8% | 0hPa | 3V | 08:30:00 | 00:38:58 | 00:00:00 | |
| IW2NTF | 2026-09-04 23:12:40 | 45.53117 | 8.70744 | 66° | 40km/h | 4103m | 6.3m/s | 3.4°C | 52.8% | 0hPa | 3V | 08:30:00 | 00:38:52 | 00:00:00 | |
| IW2NTF | 2026-09-04 23:12:34 | 45.53089 | 8.70674 | 71° | 44km/h | 4068m | 6.1m/s | 3.6°C | 55.3% | 0hPa | 3V | 08:30:00 | 00:38:46 | 00:00:00 | |
| IW2NTF | 2026-09-04 23:12:28 | 45.53076 | 8.70592 | 67° | 38km/h | 4041m | 4.5m/s | 3.8°C | 55% | 0hPa | 3V | 08:30:00 | 00:38:40 | 00:00:00 | |
| IW2NTF | 2026-09-04 23:12:22 | 45.53046 | 8.70512 | 64° | 46km/h | 4009m | 5.6m/s | 4.1°C | 54.1% | 0hPa | 3V | 08:30:00 | 00:38:34 | 00:00:00 | |
| IW2NTF | 2026-09-04 23:12:16 | 45.53016 | 8.70434 | 58° | 38km/h | 3980m | 7.5m/s | 4.4°C | 53.7% | 0hPa | 3V | 08:30:00 | 00:38:28 | 00:00:00 | |
| IW2NTF | 2026-09-04 23:12:10 | 45.52990 | 8.70352 | 65° | 46km/h | 3946m | 6m/s | 4.7°C | 53.1% | 0hPa | 3V | 08:30:00 | 00:38:22 | 00:00:00 | |
| IW2NTF | 2026-09-04 23:12:04 | 45.52959 | 8.70262 | 50° | 37km/h | 3918m | 6m/s | 4.9°C | 53.2% | 0hPa | 3V | 08:30:00 | 00:38:16 | 00:00:00 | |
| IW2NTF | 2026-09-04 23:11:58 | 45.52917 | 8.70205 | 44° | 40km/h | 3884m | 5.7m/s | 5.2°C | 54.1% | 0hPa | 3V | 08:30:00 | 00:38:10 | 00:00:00 | |
| IW2NTF | 2026-09-04 23:11:52 | 45.52884 | 8.70135 | 65° | 46km/h | 3849m | 5m/s | 5.4°C | 55% | 0hPa | 3V | 08:30:00 | 00:38:04 | 00:00:00 | |
| IW2NTF | 2026-09-04 23:11:46 | 45.52850 | 8.70048 | 60° | 37km/h | 3821m | 3.8m/s | 5.6°C | 56.1% | 0hPa | 3V | 08:30:00 | 00:37:58 | 00:00:00 | |
| IW2NTF | 2026-09-04 23:11:40 | 45.52814 | 8.69994 | 50° | 40km/h | 3795m | 5m/s | 5.7°C | 56.6% | 0hPa | 3V | 08:30:00 | 00:37:52 | 00:00:00 | |
| IW2NTF | 2026-09-04 23:11:34 | 45.52785 | 8.69903 | 70° | 47km/h | 3760m | 5.3m/s | 5.8°C | 58.6% | 0hPa | 3V | 08:30:00 | 00:37:46 | 00:00:00 | |
| IW2NTF | 2026-09-04 23:11:27 | 45.52742 | 8.69802 | 55° | 51km/h | 3724m | 4.4m/s | 6.1°C | 60.7% | 0hPa | 3V | 08:30:00 | 00:37:39 | 00:00:00 | |
| IW2NTF | 2026-09-04 23:11:21 | 45.52699 | 8.69716 | 58° | 49km/h | 3698m | 6.8m/s | 6.2°C | 60.4% | 0hPa | 3V | 08:30:00 | 00:37:33 | 00:00:00 | |
| IW2NTF | 2026-09-04 23:11:15 | 45.52660 | 8.69639 | 52° | 37km/h | 3656m | 5.2m/s | 6.6°C | 57.5% | 0hPa | 3V | 08:30:00 | 00:37:27 | 00:00:00 | |
| IW2NTF | 2026-09-04 23:11:09 | 45.52637 | 8.69559 | 73° | 46km/h | 3625m | 4.1m/s | 6.8°C | 56.2% | 0hPa | 3V | 08:30:00 | 00:37:21 | 00:00:00 | |
| IW2NTF | 2026-09-04 23:11:04 | 45.52609 | 8.69479 | 47° | 35km/h | 3596m | 6.3m/s | 7.1°C | 54.9% | 0hPa | 3V | 08:30:00 | 00:37:15 | 00:00:00 | |
| IW2NTF | 2026-09-04 23:10:57 | 45.52592 | 8.69416 | 69° | 37km/h | 3563m | 6.2m/s | 7.4°C | 53.9% | 0hPa | 3V | 08:30:00 | 00:37:09 | 00:00:00 | |
| IW2NTF | 2026-09-04 23:10:51 | 45.52564 | 8.69347 | 53° | 38km/h | 3532m | 3.9m/s | 7.6°C | 53.5% | 0hPa | 3V | 08:30:00 | 00:37:03 | 00:00:00 | |
| IW2NTF | 2026-09-04 23:10:45 | 45.52538 | 8.69290 | 76° | 31km/h | 3506m | 5.4m/s | 7.8°C | 53.2% | 0hPa | 3V | 08:30:00 | 00:36:57 | 00:00:00 | |
| IW2NTF | 2026-09-04 23:10:39 | 45.52523 | 8.69200 | 70° | 46km/h | 3469m | 6.8m/s | 8.1°C | 52.2% | 0hPa | 3V | 08:30:00 | 00:36:51 | 00:00:00 | |
| IW2NTF | 2026-09-04 23:10:33 | 45.52499 | 8.69131 | 63° | 29km/h | 3434m | 5m/s | 8.2°C | 54.3% | 0hPa | 3V | 08:30:00 | 00:36:45 | 00:00:00 | |
| IW2NTF | 2026-09-04 23:10:27 | 45.52496 | 8.69067 | 93° | 26km/h | 3400m | 4.3m/s | 8.4°C | 54.2% | 0hPa | 3V | 08:30:00 | 00:36:39 | 00:00:00 | |
| IW2NTF | 2026-09-04 23:10:21 | 45.52478 | 8.69015 | 43° | 27km/h | 3374m | 4.9m/s | 8.6°C | 53.9% | 0hPa | 3V | 08:30:00 | 00:36:33 | 00:00:00 | |
| IW2NTF | 2026-09-04 23:10:15 | 45.52454 | 8.68969 | 67° | 33km/h | 3341m | 6m/s | 8.9°C | 53.3% | 0hPa | 3V | 08:30:00 | 00:36:27 | 00:00:00 | |
| IW2NTF | 2026-09-04 23:10:09 | 45.52453 | 8.68907 | 96° | 22km/h | 3305m | 5.7m/s | 9.2°C | 52.6% | 0hPa | 3V | 08:30:00 | 00:36:21 | 00:00:00 | |
| IW2NTF | 2026-09-04 23:10:04 | 45.52453 | 8.68873 | 94° | 18km/h | 3278m | 4.1m/s | 9.4°C | 52.1% | 0hPa | 3V | 08:30:00 | 00:36:15 | 00:00:00 | |
| IW2NTF | 2026-09-04 23:09:57 | 45.52451 | 8.68812 | 77° | 33km/h | 3248m | 5.2m/s | 9.7°C | 51.2% | 0hPa | 3V | 08:30:00 | 00:36:09 | 00:00:00 | |
| IW2NTF | 2026-09-04 23:09:51 | 45.52438 | 8.68755 | 88° | 26km/h | 3219m | 5.1m/s | 10°C | 50.4% | 0hPa | 3V | 08:30:00 | 00:36:03 | 00:00:00 | |
| IW2NTF | 2026-09-04 23:09:45 | 45.52449 | 8.68691 | 96° | 33km/h | 3190m | 4.3m/s | 10.3°C | 49.8% | 0hPa | 3V | 08:30:00 | 00:35:57 | 00:00:00 | |
| IW2NTF | 2026-09-04 23:09:39 | 45.52456 | 8.68637 | 97° | 24km/h | 3153m | 6.4m/s | 10.6°C | 48.9% | 0hPa | 3V | 08:30:00 | 00:35:51 | 00:00:00 | |
| IW2NTF | 2026-09-04 23:09:33 | 45.52456 | 8.68592 | 116° | 20km/h | 3118m | 5.2m/s | 10.9°C | 48.1% | 0hPa | 3V | 08:30:00 | 00:35:45 | 00:00:00 | |
| IW2NTF | 2026-09-04 23:09:27 | 45.52467 | 8.68541 | 96° | 22km/h | 3088m | 6.5m/s | 11.2°C | 47.8% | 0hPa | 3V | 08:30:00 | 00:35:39 | 00:00:00 | |
| IW2NTF | 2026-09-04 23:09:21 | 45.52473 | 8.68498 | 96° | 24km/h | 3051m | 7.2m/s | 11.5°C | 46.8% | 0hPa | 3V | 08:30:00 | 00:35:33 | 00:00:00 | |
| IW2NTF | 2026-09-04 23:09:15 | 45.52464 | 8.68442 | 85° | 24km/h | 3012m | 5.5m/s | 11.8°C | 46.1% | 0hPa | 3V | 08:30:00 | 00:35:27 | 00:00:00 | |
| IW2NTF | 2026-09-04 23:09:09 | 45.52468 | 8.68392 | 99° | 27km/h | 2979m | 5.5m/s | 12.1°C | 45.8% | 0hPa | 3V | 08:30:00 | 00:35:21 | 00:00:00 | |
| IW2NTF | 2026-09-04 23:09:03 | 45.52477 | 8.68335 | 79° | 22km/h | 2946m | 5.2m/s | 12.4°C | 45% | 0hPa | 3V | 08:30:00 | 00:35:15 | 00:00:00 | |
| IW2NTF | 2026-09-04 23:08:57 | 45.52471 | 8.68281 | 84° | 33km/h | 2915m | 6.8m/s | 12.7°C | 44.3% | 0hPa | 3V | 08:30:00 | 00:35:09 | 00:00:00 | |
| IW2NTF | 2026-09-04 23:08:51 | 45.52475 | 8.68204 | 103° | 33km/h | 2878m | 6.2m/s | 13°C | 43.6% | 0hPa | 3V | 08:30:00 | 00:35:03 | 00:00:00 | |
| IW2NTF | 2026-09-04 23:08:45 | 45.52500 | 8.68127 | 114° | 38km/h | 2841m | 4.7m/s | 13.3°C | 42.9% | 0hPa | 3V | 08:30:00 | 00:34:57 | 00:00:00 | |
| IW2NTF | 2026-09-04 23:08:37 | 45.52522 | 8.68021 | 101° | 40km/h | 2788m | 7.4m/s | 13.8°C | 41.8% | 0hPa | 3V | 08:30:00 | 00:34:49 | 00:00:00 | |
| IW2NTF | 2026-09-04 23:08:31 | 45.52533 | 8.67939 | 114° | 37km/h | 2751m | 5.6m/s | 14°C | 41.3% | 0hPa | 3V | 08:30:00 | 00:34:43 | 00:00:00 | |
| IW2NTF | 2026-09-04 23:08:25 | 45.52557 | 8.67849 | 100° | 47km/h | 2705m | 7.2m/s | 14°C | 41.8% | 0hPa | 3V | 08:30:00 | 00:34:37 | 00:00:00 | |
| IW2NTF | 2026-09-04 23:08:19 | 45.52571 | 8.67764 | 116° | 46km/h | 2674m | 6.4m/s | 13.9°C | 43.4% | 0hPa | 3V | 08:30:00 | 00:34:31 | 00:00:00 | |
| IW2NTF | 2026-09-04 23:08:13 | 45.52592 | 8.67664 | 104° | 42km/h | 2640m | 6m/s | 14°C | 43.9% | 0hPa | 3V | 08:30:00 | 00:34:25 | 00:00:00 | |
| IW2NTF | 2026-09-04 23:08:07 | 45.52614 | 8.67575 | 102° | 38km/h | 2604m | 6.5m/s | 14.1°C | 44.9% | 0hPa | 3V | 08:30:00 | 00:34:19 | 00:00:00 | |
| IW2NTF | 2026-09-04 23:08:01 | 45.52637 | 8.67509 | 122° | 37km/h | 2572m | 4.3m/s | 14.3°C | 45.2% | 0hPa | 3V | 08:30:00 | 00:34:13 | 00:00:00 | |
| IW2NTF | 2026-09-04 23:07:55 | 45.52668 | 8.67446 | 126° | 44km/h | 2539m | 3.2m/s | 14.5°C | 45.5% | 0hPa | 3V | 08:30:00 | 00:34:07 | 00:00:00 | |
| IW2NTF | 2026-09-04 23:07:49 | 45.52701 | 8.67376 | 131° | 27km/h | 2509m | 5m/s | 14.7°C | 46% | 0hPa | 3V | 08:30:00 | 00:34:01 | 00:00:00 | |
| IW2NTF | 2026-09-04 23:07:43 | 45.52732 | 8.67318 | 125° | 38km/h | 2481m | 5.3m/s | 14.9°C | 46.4% | 0hPa | 3V | 08:30:00 | 00:33:55 | 00:00:00 | |
| IW2NTF | 2026-09-04 23:07:37 | 45.52762 | 8.67260 | 120° | 37km/h | 2456m | 3.3m/s | 15.1°C | 47.1% | 0hPa | 3V | 08:30:00 | 00:33:49 | 00:00:00 | |
| IW2NTF | 2026-09-04 23:07:31 | 45.52778 | 8.67195 | 121° | 31km/h | 2426m | 6.6m/s | 15.3°C | 46.6% | 0hPa | 3V | 08:30:00 | 00:33:43 | 00:00:00 | |
| IW2NTF | 2026-09-04 23:07:26 | 45.52813 | 8.67149 | 139° | 29km/h | 2399m | 3.6m/s | 15.6°C | 46.4% | 0hPa | 3V | 08:30:00 | 00:33:37 | 00:00:00 | |
| IW2NTF | 2026-09-04 23:07:19 | 45.52838 | 8.67100 | 108° | 33km/h | 2369m | 5.8m/s | 15.7°C | 48.7% | 0hPa | 3V | 08:30:00 | 00:33:31 | 00:00:00 | |
| IW2NTF | 2026-09-04 23:07:13 | 45.52855 | 8.67033 | 102° | 27km/h | 2338m | 5.9m/s | 15.9°C | 49.1% | 0hPa | 3V | 08:30:00 | 00:33:25 | 00:00:00 | |
| IW2NTF | 2026-09-04 23:07:07 | 45.52857 | 8.66972 | 93° | 24km/h | 2313m | 6.2m/s | 16.1°C | 49.2% | 0hPa | 3V | 08:30:00 | 00:33:19 | 00:00:00 | |
| IW2NTF | 2026-09-04 23:07:01 | 45.52876 | 8.66930 | 135° | 29km/h | 2281m | 4.6m/s | 16.3°C | 49.4% | 0hPa | 3V | 08:30:00 | 00:33:13 | 00:00:00 | |
| IW2NTF | 2026-09-04 23:06:56 | 45.52898 | 8.66883 | 123° | 31km/h | 2249m | 7.4m/s | 16.6°C | 48.9% | 0hPa | 3V | 08:30:00 | 00:33:07 | 00:00:00 | |
| IW2NTF | 2026-09-04 23:06:49 | 45.52932 | 8.66840 | 147° | 26km/h | 2212m | 4.8m/s | 16.9°C | 48.7% | 0hPa | 3V | 08:30:00 | 00:33:01 | 00:00:00 | |
| IW2NTF | 2026-09-04 23:06:43 | 45.52945 | 8.66812 | 82° | 15km/h | 2180m | 5.4m/s | 17.1°C | 48.7% | 0hPa | 3V | 08:30:00 | 00:32:55 | 00:00:00 | |
| IW2NTF | 2026-09-04 23:06:37 | 45.52950 | 8.66767 | 102° | 20km/h | 2149m | 6m/s | 17.4°C | 49.4% | 0hPa | 3V | 08:30:00 | 00:32:49 | 00:00:00 | |
| IW2NTF | 2026-09-04 23:06:31 | 45.52969 | 8.66719 | 114° | 31km/h | 2116m | 6.8m/s | 17.6°C | 49.9% | 0hPa | 3V | 08:30:00 | 00:32:43 | 00:00:00 | |
| IW2NTF | 2026-09-04 23:06:25 | 45.52974 | 8.66670 | 97° | 18km/h | 2088m | 5.8m/s | 17.8°C | 50.7% | 0hPa | 3V | 08:30:00 | 00:32:37 | 00:00:00 | |
| IW2NTF | 2026-09-04 23:06:19 | 45.52988 | 8.66647 | 175° | 13km/h | 2059m | 3.7m/s | 17.9°C | 53.3% | 0hPa | 3V | 08:30:00 | 00:32:31 | 00:00:00 | |
| IW2NTF | 2026-09-04 23:06:11 | 45.53003 | 8.66620 | 98° | 16km/h | 2023m | 5.7m/s | 18.2°C | 51.7% | 0hPa | 3V | 08:30:00 | 00:32:23 | 00:00:00 | |
| IW2NTF | 2026-09-04 23:06:05 | 45.53013 | 8.66590 | 113° | 27km/h | 1996m | 4.4m/s | 18.3°C | 50.5% | 0hPa | 3V | 08:30:00 | 00:32:17 | 00:00:00 | |
| IW2NTF | 2026-09-04 23:05:59 | 45.53018 | 8.66570 | 108° | 33km/h | 1984m | 7.8m/s | 18.3°C | 51.8% | 0hPa | 3V | 08:30:00 | 00:32:15 | 00:00:00 | |
| IW2NTF | 2026-09-04 23:05:59 | 45.53022 | 8.66548 | 108° | 31km/h | 1971m | 6.2m/s | 18.3°C | 52.3% | 0hPa | 3V | 08:30:00 | 00:32:13 | 00:00:00 | |
| IW2NTF | 2026-09-04 23:05:59 | 45.53028 | 8.66529 | 115° | 26km/h | 1960m | 4.5m/s | 18.3°C | 52.1% | 0hPa | 3V | 08:30:00 | 00:32:11 | 00:00:00 | |
| IW2NTF | 2026-09-04 23:05:49 | 45.53040 | 8.66486 | 106° | 24km/h | 1927m | 6.7m/s | 18.6°C | 49.7% | 0hPa | 3V | 08:30:00 | 00:32:05 | 00:00:00 | |
| IW2NTF | 2026-09-04 23:05:49 | 45.53044 | 8.66468 | 107° | 26km/h | 1915m | 5.5m/s | 18.7°C | 48.7% | 0hPa | 3V | 08:30:00 | 00:32:03 | 00:00:00 | |
| IW2NTF | 2026-09-04 23:05:49 | 45.53047 | 8.66451 | 102° | 22km/h | 1906m | 4.4m/s | 18.8°C | 48.2% | 0hPa | 3V | 08:30:00 | 00:32:01 | 00:00:00 | |
| IW2NTF | 2026-09-04 23:05:43 | 45.53048 | 8.66437 | 82° | 18km/h | 1896m | 5.7m/s | 18.9°C | 46.6% | 0hPa | 3V | 08:30:00 | 00:31:59 | 00:00:00 | |
| IW2NTF | 2026-09-04 23:05:43 | 45.53047 | 8.66428 | 88° | 11km/h | 1885m | 5.9m/s | 19°C | 44.7% | 0hPa | 3V | 08:30:00 | 00:31:57 | 00:00:00 | |
| IW2NTF | 2026-09-04 23:05:43 | 45.53049 | 8.66422 | 132° | 9km/h | 1874m | 4.5m/s | 19.1°C | 43.4% | 0hPa | 3V | 08:30:00 | 00:31:55 | 00:00:00 | |
| IW2NTF | 2026-09-04 23:05:36 | 45.53053 | 8.66396 | 73° | 15km/h | 1848m | 5.5m/s | 19.4°C | 37.9% | 0hPa | 3V | 08:30:00 | 00:31:50 | 00:00:00 | |
| IW2NTF | 2026-09-04 23:05:36 | 45.53050 | 8.66389 | 38° | 5km/h | 1837m | 4.8m/s | 19.5°C | 34.7% | 0hPa | 3V | 08:30:00 | 00:31:48 | 00:00:00 | |
| IW2NTF | 2026-09-04 23:05:30 | 45.53049 | 8.66389 | 263° | 0km/h | 1828m | 5.7m/s | 19.6°C | 33.2% | 0hPa | 3V | 08:30:00 | 00:31:46 | 00:00:00 | |
| IW2NTF | 2026-09-04 23:05:30 | 45.53049 | 8.66390 | 359° | 4km/h | 1815m | 6.8m/s | 19.6°C | 33.7% | 0hPa | 3V | 08:30:00 | 00:31:44 | 00:00:00 | |
| IW2NTF | 2026-09-04 23:05:30 | 45.53047 | 8.66385 | 85° | 13km/h | 1805m | 4.8m/s | 19.6°C | 33.4% | 0hPa | 3V | 08:30:00 | 00:31:42 | 00:00:00 | |
| IW2NTF | 2026-09-04 23:05:23 | 45.53049 | 8.66375 | 119° | 18km/h | 1794m | 6m/s | 19.5°C | 34.2% | 0hPa | 3V | 08:30:00 | 00:31:40 | 00:00:00 | |
| IW2NTF | 2026-09-04 23:05:23 | 45.53054 | 8.66362 | 117° | 22km/h | 1781m | 6.2m/s | 19.3°C | 37.5% | 0hPa | 3V | 08:30:00 | 00:31:38 | 00:00:00 | |
| IW2NTF | 2026-09-04 23:05:23 | 45.53059 | 8.66346 | 103° | 9km/h | 1767m | 3.7m/s | 19.1°C | 40.7% | 0hPa | 3V | 08:30:00 | 00:31:35 | 00:00:00 | |
| IW2NTF | 2026-09-04 23:05:17 | 45.53057 | 8.66341 | 30° | 7km/h | 1758m | 4.8m/s | 19.2°C | 40.8% | 0hPa | 3V | 08:30:00 | 00:31:33 | 00:00:00 | |
| IW2NTF | 2026-09-04 23:05:17 | 45.53054 | 8.66337 | 48° | 13km/h | 1750m | 4.6m/s | 19.2°C | 41.6% | 0hPa | 3V | 08:30:00 | 00:31:31 | 00:00:00 | |
| IW2NTF | 2026-09-04 23:05:17 | 45.53051 | 8.66331 | 72° | 9km/h | 1744m | 3.4m/s | 19.1°C | 45.3% | 0hPa | 3V | 08:30:00 | 00:31:29 | 00:00:00 | |
| IW2NTF | 2026-09-04 23:05:11 | 45.53049 | 8.66325 | 94° | 5km/h | 1733m | 6.7m/s | 19.2°C | 45.1% | 0hPa | 3V | 08:30:00 | 00:31:27 | 00:00:00 | |
| IW2NTF | 2026-09-04 23:05:11 | 45.53050 | 8.66322 | 171° | 4km/h | 1722m | 4.4m/s | 19.3°C | 44.4% | 0hPa | 3V | 08:30:00 | 00:31:25 | 00:00:00 | |
| IW2NTF | 2026-09-04 23:05:11 | 45.53051 | 8.66323 | 266° | 4km/h | 1711m | 4.6m/s | 19.4°C | 44% | 0hPa | 3V | 08:30:00 | 00:31:23 | 00:00:00 | |
| IW2NTF | 2026-09-04 23:05:05 | 45.53051 | 8.66323 | 92° | 5km/h | 1703m | 2.5m/s | 19.5°C | 43.4% | 0hPa | 3V | 08:30:00 | 00:31:21 | 00:00:00 | |
| IW2NTF | 2026-09-04 23:05:05 | 45.53053 | 8.66317 | 143° | 13km/h | 1697m | 4.5m/s | 19.6°C | 43.2% | 0hPa | 3V | 08:30:00 | 00:31:19 | 00:00:00 | |
| IW2NTF | 2026-09-04 23:05:05 | 45.53060 | 8.66311 | 150° | 18km/h | 1686m | 4.9m/s | 19.6°C | 43.6% | 0hPa | 3V | 08:30:00 | 00:31:17 | 00:00:00 | |
| IW2NTF | 2026-09-04 23:05:00 | 45.53068 | 8.66305 | 141° | 16km/h | 1677m | 4.3m/s | 19.7°C | 43.4% | 0hPa | 3V | 08:30:00 | 00:31:15 | 00:00:00 | |
| IW2NTF | 2026-09-04 23:05:00 | 45.53073 | 8.66299 | 141° | 11km/h | 1671m | 3.2m/s | 19.8°C | 43.7% | 0hPa | 3V | 08:30:00 | 00:31:13 | 00:00:00 | |
| IW2NTF | 2026-09-04 23:05:00 | 45.53076 | 8.66298 | 191° | 7km/h | 1663m | 5.3m/s | 19.9°C | 43.5% | 0hPa | 3V | 08:30:00 | 00:31:11 | 00:00:00 | |
| IW2NTF | 2026-09-04 23:04:53 | 45.53081 | 8.66301 | 206° | 11km/h | 1652m | 5.3m/s | 19.9°C | 45.3% | 0hPa | 3V | 08:30:00 | 00:31:09 | 00:00:00 | |
| IW2NTF | 2026-09-04 23:04:53 | 45.53086 | 8.66300 | 150° | 13km/h | 1642m | 5m/s | 20°C | 44.4% | 0hPa | 3V | 08:30:00 | 00:31:07 | 00:00:00 | |
| IW2NTF | 2026-09-04 23:04:53 | 45.53091 | 8.66292 | 116° | 16km/h | 1634m | 4.7m/s | 20.1°C | 44.1% | 0hPa | 3V | 08:30:00 | 00:31:05 | 00:00:00 | |
| IW2NTF | 2026-09-04 23:04:48 | 45.53094 | 8.66282 | 109° | 15km/h | 1626m | 3.9m/s | 20°C | 47.1% | 0hPa | 3V | 08:30:00 | 00:31:03 | 00:00:00 | |
| IW2NTF | 2026-09-04 23:04:48 | 45.53096 | 8.66273 | 95° | 13km/h | 1621m | 3.7m/s | 19.9°C | 48.7% | 0hPa | 3V | 08:30:00 | 00:31:01 | 00:00:00 | |
| IW2NTF | 2026-09-04 23:04:48 | 45.53096 | 8.66264 | 85° | 13km/h | 1612m | 4.8m/s | 19.7°C | 53.6% | 0hPa | 3V | 08:30:00 | 00:30:59 | 00:00:00 | |
| IW2NTF | 2026-09-04 23:04:41 | 45.53095 | 8.66258 | 63° | 7km/h | 1603m | 5m/s | 19.6°C | 55.8% | 0hPa | 3V | 08:30:00 | 00:30:57 | 00:00:00 | |
| IW2NTF | 2026-09-04 23:04:41 | 45.53094 | 8.66255 | 227° | 2km/h | 1592m | 6m/s | 19.5°C | 60.5% | 0hPa | 3V | 08:30:00 | 00:30:55 | 00:00:00 | |
| IW2NTF | 2026-09-04 23:04:41 | 45.53096 | 8.66259 | 225° | 11km/h | 1581m | 5.4m/s | 19.4°C | 64.1% | 0hPa | 3V | 08:30:00 | 00:30:53 | 00:00:00 | |
| IW2NTF | 2026-09-04 23:04:35 | 45.53101 | 8.66265 | 223° | 13km/h | 1572m | 5.9m/s | 19.4°C | 66.4% | 0hPa | 3V | 08:30:00 | 00:30:51 | 00:00:00 | |
| IW2NTF | 2026-09-04 23:04:35 | 45.53102 | 8.66269 | 290° | 2km/h | 1561m | 4.4m/s | 19.2°C | 70.1% | 0hPa | 3V | 08:30:00 | 00:30:49 | 00:00:00 | |
| IW2NTF | 2026-09-04 23:04:35 | 45.53102 | 8.66269 | 174° | 2km/h | 1551m | 6m/s | 19.1°C | 73.8% | 0hPa | 3V | 08:30:00 | 00:30:47 | 00:00:00 | |
| IW2NTF | 2026-09-04 23:04:29 | 45.53104 | 8.66271 | 250° | 5km/h | 1540m | 3.8m/s | 19.1°C | 74.4% | 0hPa | 3V | 08:30:00 | 00:30:45 | 00:00:00 | |
| IW2NTF | 2026-09-04 23:04:29 | 45.53099 | 8.66277 | 354° | 11km/h | 1516m | 6.1m/s | 19.2°C | 73.5% | 0hPa | 3V | 08:30:00 | 00:30:41 | 00:00:00 | |
| IW2NTF | 2026-09-04 23:04:23 | 45.53094 | 8.66278 | 350° | 5km/h | 1507m | 2.9m/s | 19.2°C | 73.9% | 0hPa | 3V | 08:30:00 | 00:30:39 | 00:00:00 | |
| IW2NTF | 2026-09-04 23:04:23 | 45.53093 | 8.66281 | 280° | 7km/h | 1501m | 3.5m/s | 19.3°C | 73.4% | 0hPa | 3V | 08:30:00 | 00:30:37 | 00:00:00 | |
| IW2NTF | 2026-09-04 23:04:23 | 45.53091 | 8.66288 | 303° | 13km/h | 1490m | 6.1m/s | 19.3°C | 73.2% | 0hPa | 3V | 08:30:00 | 00:30:35 | 00:00:00 | |
| IW2NTF | 2026-09-04 23:04:17 | 45.53088 | 8.66292 | 335° | 5km/h | 1481m | 4.5m/s | 19.4°C | 73% | 0hPa | 3V | 08:30:00 | 00:30:33 | 00:00:00 | |
| IW2NTF | 2026-09-04 23:04:17 | 45.53087 | 8.66293 | 208° | 4km/h | 1473m | 4.2m/s | 19.4°C | 73.6% | 0hPa | 3V | 08:30:00 | 00:30:31 | 00:00:00 | |
| IW2NTF | 2026-09-04 23:04:17 | 45.53090 | 8.66297 | 228° | 9km/h | 1463m | 4.5m/s | 19.4°C | 73.9% | 0hPa | 3V | 08:30:00 | 00:30:29 | 00:00:00 | |
| IW2NTF | 2026-09-04 23:04:11 | 45.53091 | 8.66303 | 277° | 9km/h | 1451m | 5.8m/s | 19.4°C | 74.3% | 0hPa | 3V | 08:30:00 | 00:30:27 | 00:00:00 | |
| IW2NTF | 2026-09-04 23:04:11 | 45.53088 | 8.66307 | 345° | 4km/h | 1440m | 6.5m/s | 19.4°C | 74.6% | 0hPa | 3V | 08:30:00 | 00:30:25 | 00:00:00 | |
| IW2NTF | 2026-09-04 23:04:11 | 45.53088 | 8.66306 | 124° | 2km/h | 1430m | 4.3m/s | 19.5°C | 74.5% | 0hPa | 3V | 08:30:00 | 00:30:23 | 00:00:00 | |
| IW2NTF | 2026-09-04 23:04:05 | 45.53089 | 8.66306 | 218° | 5km/h | 1422m | 3m/s | 19.6°C | 74.6% | 0hPa | 3V | 08:30:00 | 00:30:21 | 00:00:00 | |
| IW2NTF | 2026-09-04 23:04:05 | 45.53090 | 8.66311 | 272° | 11km/h | 1414m | 4.8m/s | 19.6°C | 74.5% | 0hPa | 3V | 08:30:00 | 00:30:19 | 00:00:00 | |
| IW2NTF | 2026-09-04 23:04:05 | 45.53087 | 8.66319 | 322° | 15km/h | 1405m | 4.2m/s | 19.6°C | 75.1% | 0hPa | 3V | 08:30:00 | 00:30:17 | 00:00:00 | |
| IW2NTF | 2026-09-04 23:03:59 | 45.53080 | 8.66322 | 349° | 15km/h | 1397m | 4.5m/s | 19.7°C | 75.3% | 0hPa | 3V | 08:30:00 | 00:30:15 | 00:00:00 | |
| IW2NTF | 2026-09-04 23:03:59 | 45.53074 | 8.66324 | 336° | 9km/h | 1387m | 5.3m/s | 19.7°C | 75.5% | 0hPa | 3V | 08:30:00 | 00:30:13 | 00:00:00 | |
| IW2NTF | 2026-09-04 23:03:59 | 45.53072 | 8.66327 | 277° | 5km/h | 1379m | 3m/s | 19.8°C | 76.3% | 0hPa | 3V | 08:30:00 | 00:30:11 | 00:00:00 | |
| IW2NTF | 2026-09-04 23:03:53 | 45.53072 | 8.66330 | 222° | 2km/h | 1371m | 5.1m/s | 19.8°C | 76.4% | 0hPa | 3V | 08:30:00 | 00:30:09 | 00:00:00 | |
| IW2NTF | 2026-09-04 23:03:53 | 45.53072 | 8.66329 | 4° | 2km/h | 1362m | 4m/s | 19.8°C | 77.9% | 0hPa | 3V | 08:30:00 | 00:30:07 | 00:00:00 | |
| IW2NTF | 2026-09-04 23:03:53 | 45.53069 | 8.66331 | 313° | 11km/h | 1351m | 5.6m/s | 19.9°C | 77.6% | 0hPa | 3V | 08:30:00 | 00:30:05 | 00:00:00 | |
| IW2NTF | 2026-09-04 23:03:47 | 45.53065 | 8.66340 | 287° | 16km/h | 1340m | 7.1m/s | 20°C | 77.1% | 0hPa | 3V | 08:30:00 | 00:30:03 | 00:00:00 | |
| IW2NTF | 2026-09-04 23:03:47 | 45.53064 | 8.66350 | 281° | 11km/h | 1326m | 6.4m/s | 20°C | 0% | 0hPa | 3V | 08:30:00 | 00:30:01 | 00:00:00 | |
| IW2NTF | 2026-09-04 23:03:47 | 45.53062 | 8.66356 | 331° | 9km/h | 1315m | 4.8m/s | 20°C | 0% | 0hPa | 3V | 08:30:00 | 00:29:59 | 00:00:00 | |
| IW2NTF | 2026-09-04 23:03:41 | 45.53056 | 8.66357 | 3° | 18km/h | 1306m | 5.1m/s | 20.1°C | 0% | 0hPa | 3V | 08:30:00 | 00:29:57 | 00:00:00 | |
| IW2NTF | 2026-09-04 23:03:41 | 45.53044 | 8.66357 | 355° | 26km/h | 1297m | 4.8m/s | 20.1°C | 0% | 0hPa | 3V | 08:30:00 | 00:29:55 | 00:00:00 | |
| IW2NTF | 2026-09-04 23:03:41 | 45.53032 | 8.66359 | 358° | 20km/h | 1291m | 2.8m/s | 20.2°C | 0% | 0hPa | 3V | 08:30:00 | 00:29:53 | 00:00:00 | |
| IW2NTF | 2026-09-04 23:03:36 | 45.53022 | 8.66359 | 0° | 18km/h | 1284m | 4.9m/s | 20.3°C | 0% | 0hPa | 3V | 08:30:00 | 00:29:51 | 00:00:00 | |
| IW2NTF | 2026-09-04 23:03:36 | 45.53016 | 8.66359 | 341° | 9km/h | 1272m | 6.9m/s | 0°C | 0% | 0hPa | 3V | 08:30:00 | 00:29:49 | 00:00:00 | |
| IW2NTF | 2026-09-04 23:03:36 | 45.53011 | 8.66363 | 309° | 15km/h | 1258m | 7.4m/s | 0°C | 0% | 0hPa | 3V | 08:30:00 | 00:29:47 | 00:00:00 | |
| IW2NTF | 2026-09-04 23:03:29 | 45.53005 | 8.66373 | 314° | 22km/h | 1247m | 5.5m/s | 0°C | 0% | 0hPa | 3V | 08:30:00 | 00:29:45 | 00:00:00 | |
| IW2NTF | 2026-09-04 23:03:29 | 45.52995 | 8.66384 | 331° | 24km/h | 1237m | 4.7m/s | 0°C | 0% | 0hPa | 3V | 00:00:00 | 00:29:43 | 00:00:00 | |
| IW2NTF | 2026-09-04 23:03:29 | 45.52986 | 8.66389 | 345° | 15km/h | 1229m | 4.1m/s | 0°C | 0% | 0hPa | 3V | 00:00:00 | 00:29:41 | 00:00:00 | |
| IW2NTF | 2026-09-04 23:03:23 | 45.52980 | 8.66390 | 341° | 11km/h | 1220m | 5.5m/s | 0°C | 0% | 0hPa | 3V | 00:00:00 | 00:29:39 | 00:00:00 | |
| IW2NTF | 2026-09-04 23:03:23 | 45.52974 | 8.66393 | 350° | 15km/h | 1209m | 6.4m/s | 0°C | 0% | 0hPa | 3V | 00:00:00 | 00:29:37 | 00:00:00 | |
| IW2NTF | 2026-09-04 23:03:23 | 45.52966 | 8.66398 | 323° | 16km/h | 1198m | 6m/s | 0°C | 0% | 0hPa | 3V | 00:00:00 | 00:29:35 | 00:00:00 | |
| IW2NTF | 2026-09-04 23:03:17 | 45.52962 | 8.66409 | 281° | 18km/h | 1188m | 4.5m/s | 0°C | 0% | 0hPa | 3V | 00:00:00 | 00:29:33 | 00:00:00 | |
| IW2NTF | 2026-09-04 23:03:17 | 45.52960 | 8.66423 | 270° | 18km/h | 1177m | 5.2m/s | 0°C | 0% | 0hPa | 3V | 00:00:00 | 00:29:31 | 00:00:00 | |
| IW2NTF | 2026-09-04 23:03:17 | 45.52959 | 8.66435 | 278° | 16km/h | 1169m | 3.6m/s | 0°C | 0% | 0hPa | 3V | 00:00:00 | 00:29:29 | 00:00:00 | |
| IW2NTF | 2026-09-04 23:03:11 | 45.52959 | 8.66446 | 273° | 13km/h | 1159m | 5.3m/s | 0°C | 0% | 0hPa | 3V | 00:00:00 | 00:29:27 | 00:00:00 | |
| IW2NTF | 2026-09-04 23:03:11 | 45.52956 | 8.66454 | 321° | 15km/h | 1149m | 4.5m/s | 0°C | 0% | 0hPa | 3V | 00:00:00 | 00:29:25 | 00:00:00 | |
| IW2NTF | 2026-09-04 23:03:11 | 45.52949 | 8.66460 | 327° | 18km/h | 1141m | 3.9m/s | 0°C | 0% | 0hPa | 3V | 00:00:00 | 00:29:23 | 00:00:00 | |
| IW2NTF | 2026-09-04 23:03:05 | 45.52941 | 8.66468 | 310° | 18km/h | 1131m | 4.5m/s | 0°C | 0% | 0hPa | 3V | 00:00:00 | 00:29:21 | 00:00:00 | |
| IW2NTF | 2026-09-04 23:03:05 | 45.52936 | 8.66476 | 326° | 11km/h | 1119m | 7.3m/s | 0°C | 0% | 0hPa | 3V | 00:00:00 | 00:29:19 | 00:00:00 | |
| IW2NTF | 2026-09-04 23:03:05 | 45.52933 | 8.66478 | 358° | 5km/h | 1108m | 4.2m/s | 0°C | 0% | 0hPa | 3V | 00:00:00 | 00:29:17 | 00:00:00 | |
| IW2NTF | 2026-09-04 23:02:59 | 45.52930 | 8.66482 | 303° | 13km/h | 1096m | 6.1m/s | 0°C | 0% | 0hPa | 3V | 00:00:00 | 00:29:15 | 00:00:00 | |
| IW2NTF | 2026-09-04 23:02:59 | 45.52927 | 8.66495 | 274° | 24km/h | 1086m | 5.6m/s | 0°C | 0% | 0hPa | 3V | 00:00:00 | 00:29:13 | 00:00:00 | |
| IW2NTF | 2026-09-04 23:02:59 | 45.52926 | 8.66512 | 276° | 18km/h | 1075m | 5m/s | 0°C | 0% | 0hPa | 3V | 00:00:00 | 00:29:11 | 00:00:00 | |
| IW2NTF | 2026-09-04 23:02:54 | 45.52925 | 8.66520 | 303° | 7km/h | 1066m | 5.2m/s | 0°C | 0% | 0hPa | 3V | 00:00:00 | 00:29:09 | 00:00:00 | |
| IW2NTF | 2026-09-04 23:02:54 | 45.52922 | 8.66522 | 355° | 9km/h | 1052m | 7.8m/s | 0°C | 0% | 0hPa | 3V | 00:00:00 | 00:29:07 | 00:00:00 | |
| IW2NTF | 2026-09-04 23:02:54 | 45.52916 | 8.66521 | 357° | 15km/h | 1039m | 5.8m/s | 0°C | 0% | 0hPa | 3V | 00:00:00 | 00:29:05 | 00:00:00 | |
| IW2NTF | 2026-09-04 23:02:47 | 45.52908 | 8.66523 | 342° | 16km/h | 1029m | 4.3m/s | 0°C | 0% | 0hPa | 3V | 00:00:00 | 00:29:03 | 00:00:00 | |
| IW2NTF | 2026-09-04 23:02:47 | 45.52900 | 8.66527 | 322° | 18km/h | 1020m | 4.4m/s | 0°C | 0% | 0hPa | 3V | 00:00:00 | 00:29:01 | 00:00:00 | |
| IW2NTF | 2026-09-04 23:02:47 | 45.52895 | 8.66537 | 289° | 16km/h | 1011m | 4.5m/s | 0°C | 0% | 0hPa | 3V | 00:00:00 | 00:28:59 | 00:00:00 | |
| IW2NTF | 2026-09-04 23:02:41 | 45.52893 | 8.66551 | 270° | 24km/h | 1002m | 5.7m/s | 0°C | 0% | 0hPa | 3V | 00:00:00 | 00:28:57 | 00:00:00 | |
| IW2NTF | 2026-09-04 23:02:41 | 45.52894 | 8.66568 | 264° | 24km/h | 992m | 3m/s | 0°C | 0% | 0hPa | 3V | 00:00:00 | 00:28:55 | 00:00:00 | |
| IW2NTF | 2026-09-04 23:02:41 | 45.52895 | 8.66583 | 271° | 20km/h | 987m | 3.1m/s | 0°C | 0% | 0hPa | 3V | 00:00:00 | 00:28:53 | 00:00:00 | |
| IW2NTF | 2026-09-04 23:02:35 | 45.52895 | 8.66598 | 260° | 20km/h | 976m | 6.2m/s | 0°C | 0% | 0hPa | 3V | 00:00:00 | 00:28:51 | 00:00:00 | |
| IW2NTF | 2026-09-04 23:02:35 | 45.52898 | 8.66613 | 246° | 20km/h | 966m | 3.1m/s | 0°C | 0% | 0hPa | 3V | 00:00:00 | 00:28:49 | 00:00:00 | |
| IW2NTF | 2026-09-04 23:02:35 | 45.52902 | 8.66623 | 222° | 16km/h | 959m | 4.5m/s | 0°C | 0% | 0hPa | 3V | 00:00:00 | 00:28:47 | 00:00:00 | |
| IW2NTF | 2026-09-04 23:02:29 | 45.52910 | 8.66629 | 205° | 16km/h | 948m | 4.9m/s | 0°C | 0% | 0hPa | 3V | 00:00:00 | 00:28:45 | 00:00:00 | |
| IW2NTF | 2026-09-04 23:02:29 | 45.52919 | 8.66637 | 214° | 20km/h | 940m | 3.9m/s | 0°C | 0% | 0hPa | 3V | 00:00:00 | 00:28:43 | 00:00:00 | |
| IW2NTF | 2026-09-04 23:02:29 | 45.52927 | 8.66648 | 231° | 22km/h | 931m | 5.8m/s | 0°C | 0% | 0hPa | 3V | 00:00:00 | 00:28:41 | 00:00:00 | |
| IW2NTF | 2026-09-04 23:02:23 | 45.52934 | 8.66660 | 245° | 20km/h | 919m | 5.9m/s | 0°C | 0% | 0hPa | 3V | 00:00:00 | 00:28:39 | 00:00:00 | |
| IW2NTF | 2026-09-04 23:02:23 | 45.52934 | 8.66670 | 296° | 13km/h | 909m | 3.7m/s | 0°C | 0% | 0hPa | 3V | 00:00:00 | 00:28:37 | 00:00:00 | |
| IW2NTF | 2026-09-04 23:02:23 | 45.52930 | 8.66674 | 341° | 4km/h | 900m | 4.7m/s | 0°C | 0% | 0hPa | 3V | 00:00:00 | 00:28:35 | 00:00:00 | |
| IW2NTF | 2026-09-04 23:02:18 | 45.52933 | 8.66677 | 207° | 13km/h | 893m | 5.2m/s | 0°C | 0% | 0hPa | 3V | 00:00:00 | 00:28:33 | 00:00:00 | |
| IW2NTF | 2026-09-04 23:02:18 | 45.52940 | 8.66685 | 228° | 20km/h | 882m | 4.8m/s | 0°C | 0% | 0hPa | 3V | 00:00:00 | 00:28:31 | 00:00:00 | |
| IW2NTF | 2026-09-04 23:02:18 | 45.52943 | 8.66694 | 259° | 7km/h | 872m | 6.2m/s | 0°C | 0% | 0hPa | 3V | 00:00:00 | 00:28:29 | 00:00:00 | |
| IW2NTF | 2026-09-04 23:02:12 | 45.52943 | 8.66697 | 38° | 5km/h | 860m | 5.6m/s | 0°C | 0% | 0hPa | 3V | 00:00:00 | 00:28:27 | 00:00:00 | |
| IW2NTF | 2026-09-04 23:02:12 | 45.52941 | 8.66696 | 7° | 4km/h | 852m | 3m/s | 0°C | 0% | 0hPa | 3V | 00:00:00 | 00:28:25 | 00:00:00 | |
| IW2NTF | 2026-09-04 23:02:12 | 45.52941 | 8.66694 | 98° | 4km/h | 845m | 6.8m/s | 0°C | 0% | 0hPa | 3V | 00:00:00 | 00:28:23 | 00:00:00 |